# Wetter Temperatur Luftdruck Luftfeuchtigkeit Sichtweite Windgeschwindigkeit Windrichtung Zeit
1 Clouds 13 1015 87 10000 1 180 19:59 17.10.2019
2 Clouds 13 1015 76 10000 0.5 190 19:39 17.10.2019
3 Clear 14 1015 71 10000 0.5 0 19:19 17.10.2019
4 Clear 14 1015 55 10000 1 0 18:58 17.10.2019
5 Clear 15 1015 55 10000 1 0 18:38 17.10.2019
6 Clear 17 1015 55 10000 1.5 90 18:19 17.10.2019
7 Clouds 18 1015 48 10000 3.1 70 17:42 17.10.2019
8 Clouds 18 1015 45 10000 3.1 70 17:23 17.10.2019
9 Clouds 19 1015 45 10000 3.1 70 16:57 17.10.2019
10 Clouds 19 1015 39 10000 3.1 60 16:38 17.10.2019
11 Clouds 19 1015 37 10000 2.6 60 16:18 17.10.2019
12 Clouds 19 1015 37 10000 2.6 60 15:56 17.10.2019
13 Clouds 19 1015 42 10000 2.6 60 15:38 17.10.2019
14 Clouds 19 1015 42 10000 2.1 50 15:19 17.10.2019
15 Clouds 19 1015 42 10000 2.1 50 14:54 17.10.2019
16 Clouds 19 1016 39 10000 1 0 14:36 17.10.2019
17 Clouds 19 1016 37 10000 1 0 14:18 17.10.2019
18 Clouds 19 1016 42 10000 1.5 270 13:39 17.10.2019
19 Clouds 18 1017 39 10000 1.5 220 13:19 17.10.2019
20 Clouds 17 1017 42 10000 1.5 220 12:55 17.10.2019
21 Clouds 17 1017 42 10000 1.5 220 12:55 17.10.2019
22 Clouds 17 1017 42 10000 1.5 220 12:36 17.10.2019
23 Clouds 16 1017 42 10000 1.5 230 12:18 17.10.2019
24 -273 0 0 0 0 0 11:41 17.10.2019
25 Clouds 14 1017 67 10000 2.6 220 11:21 17.10.2019
26 Clouds 13 1017 62 10000 1.5 170 10:58 17.10.2019
27 Clouds 12 1017 62 10000 1.5 170 10:39 17.10.2019
28 Clouds 11 1017 76 10000 3.1 160 10:19 17.10.2019
29 Clouds 10 1017 81 10000 1 0 09:55 17.10.2019
30 Clouds 10 1017 76 10000 3.1 160 09:55 17.10.2019
31 Clouds 10 1017 76 10000 3.1 160 09:55 17.10.2019
32 Clouds 8 1017 81 10000 1 0 09:37 17.10.2019
33 Clouds 8 1017 87 10000 1.5 180 09:19 17.10.2019
34 Clouds 6 1017 87 10000 1.5 200 08:48 17.10.2019
35 Clouds 5 1017 87 10000 1.5 180 08:27 17.10.2019
36 Clouds 5 1017 87 10000 1.5 180 07:58 17.10.2019
37 Clouds 5 1017 93 10000 2.1 220 07:40 17.10.2019
38 Clouds 5 1016 100 10000 1.5 180 07:20 17.10.2019
39 Clouds 5 1016 93 10000 2.6 220 06:43 17.10.2019
40 Clouds 5 1016 93 10000 1 200 06:24 17.10.2019
41 Clouds 5 1016 93 10000 1 200 05:59 17.10.2019
42 Clouds 5 1016 93 10000 1 0 05:35 17.10.2019
43 Clouds 5 1016 93 10000 3.1 220 04:58 17.10.2019
44 Clouds 5 1016 93 10000 2.6 200 04:31 17.10.2019
45 Clouds 5 1016 93 10000 2.1 210 03:45 17.10.2019
46 Clear 6 1016 93 10000 2.1 220 01:56 17.10.2019
47 Clear 6 1016 93 10000 2.1 220 01:56 17.10.2019
48 Clear 6 1016 87 10000 1.5 220 00:42 17.10.2019
49 Clear 6 1016 93 10000 1 200 00:20 17.10.2019
50 Clear 7 1016 81 10000 1.5 230 23:58 16.10.2019
51 Clear 7 1016 81 10000 1.5 230 23:39 16.10.2019
52 Clear 7 1016 81 10000 1.5 0 23:18 16.10.2019
53 Clear 7 1016 76 10000 2.6 150 22:54 16.10.2019
54 Clear 8 1016 76 10000 2.6 150 22:36 16.10.2019
55 Clear 8 1016 76 10000 2.6 150 22:18 16.10.2019
56 Clear 8 1016 81 10000 2.6 150 21:54 16.10.2019
57 -273 0 0 0 0 0 21:54 16.10.2019
58 Clear 8 1016 81 10000 2.6 150 21:36 16.10.2019
59 Clear 9 1016 87 10000 3.1 170 21:18 16.10.2019
60 Clear 9 1016 81 10000 3.6 160 20:56 16.10.2019
61 Clear 9 1016 81 10000 3.6 160 20:37 16.10.2019
62 Clear 9 1016 81 10000 3.6 160 20:37 16.10.2019
63 Clear 9 1016 81 10000 2.1 150 20:19 16.10.2019
64 Clear 10 1016 81 10000 1 170 19:40 16.10.2019
65 Clear 10 1016 81 10000 1 170 19:40 16.10.2019
66 Clear 11 1016 76 10000 2.6 140 19:21 16.10.2019
67 Clear 12 1016 76 10000 2.6 140 18:58 16.10.2019
68 Clear 13 1016 62 10000 1 130 18:38 16.10.2019
69 Clear 15 1016 48 10000 1.5 190 18:19 16.10.2019
70 Clear 15 1016 48 10000 1.5 190 18:19 16.10.2019
71 Clear 15 1016 44 10000 2.1 200 17:56 16.10.2019
72 Clear 15 1016 44 10000 2.1 200 17:56 16.10.2019
73 Clear 16 1016 44 10000 2.1 200 17:37 16.10.2019
74 Clear 16 1016 38 10000 2.1 240 17:19 16.10.2019
75 -273 0 0 0 0 0 16:57 16.10.2019
76 Clear 16 1016 38 10000 3.1 220 16:38 16.10.2019
77 Clear 16 1016 41 10000 3.6 220 16:20 16.10.2019
78 Clear 16 1016 47 10000 2.6 220 15:54 16.10.2019
79 Clear 16 1016 47 10000 2.6 220 15:54 16.10.2019
80 Clear 16 1016 47 10000 2.6 220 15:54 16.10.2019
81 Clear 16 1016 47 10000 2.6 220 15:36 16.10.2019
82 Clouds 16 1017 51 10000 4.1 220 15:18 16.10.2019
83 -273 0 0 0 0 0 14:55 16.10.2019
84 Clouds 16 1017 51 10000 4.1 220 14:36 16.10.2019
85 Clouds 15 1017 50 10000 5.7 230 14:18 16.10.2019
86 Clouds 15 1017 50 10000 5.7 240 13:42 16.10.2019
87 Clouds 15 1018 47 10000 7.7 230 13:23 16.10.2019
88 Clouds 14 1018 54 10000 7.2 230 12:44 16.10.2019
89 Clouds 14 1017 54 10000 6.7 240 12:20 16.10.2019
90 Clouds 13 1018 62 10000 6.7 230 11:59 16.10.2019
91 Clouds 13 1018 62 10000 6.7 230 11:41 16.10.2019
92 Clouds 12 1018 66 10000 6.2 240 11:18 16.10.2019
93 Clouds 12 1018 66 10000 6.2 230 10:37 16.10.2019
94 Clouds 11 1018 76 10000 5.1 210 10:19 16.10.2019
95 Clouds 11 1018 76 10000 5.1 210 09:54 16.10.2019
96 Clouds 10 1018 76 10000 5.1 220 09:36 16.10.2019
97 Clouds 10 1017 87 10000 4.1 220 09:18 16.10.2019
98 Clouds 9 1017 87 10000 3.6 220 08:42 16.10.2019
99 Clouds 9 1017 87 10000 4.1 220 08:23 16.10.2019
100 Clouds 9 1017 81 10000 5.7 230 07:45 16.10.2019
101 -273 0 0 0 0 0 07:25 16.10.2019
102 Clouds 9 1016 81 10000 5.1 230 06:58 16.10.2019
103 Clouds 9 1016 81 10000 5.1 230 06:58 16.10.2019
104 Clouds 9 1016 81 10000 5.7 230 06:39 16.10.2019
105 Clouds 10 1016 87 10000 6.2 240 05:48 16.10.2019
106 Rain 10 1015 81 10000 8.2 230 03:24 16.10.2019
107 Rain 10 1015 81 10000 8.2 230 02:47 16.10.2019
108 Rain 11 1014 87 10000 8.2 240 01:19 16.10.2019
109 Rain 11 1013 81 10000 7.7 240 00:49 16.10.2019
110 Rain 12 1013 81 10000 9.3 250 00:27 16.10.2019
111 Rain 12 1012 87 10000 7.7 250 23:41 15.10.2019
112 Rain 13 1012 87 10000 6.2 250 23:22 15.10.2019
113 Rain 13 1012 87 10000 6.2 250 22:56 15.10.2019
114 Rain 14 1012 82 10000 7.2 260 22:38 15.10.2019
115 Rain 14 1011 82 10000 7.2 250 22:20 15.10.2019
116 Rain 14 1011 82 10000 7.2 250 21:56 15.10.2019
117 Rain 14 1011 82 10000 7.7 240 21:56 15.10.2019
118 Rain 14 1011 82 10000 7.2 250 21:56 15.10.2019
119 Rain 14 1011 82 10000 7.2 250 21:56 15.10.2019
120 Rain 14 1010 82 10000 4.6 250 21:38 15.10.2019
121 Clouds 14 1009 82 10000 4.6 260 21:20 15.10.2019
122 Clouds 14 1009 82 10000 4.6 260 20:57 15.10.2019
123 Clouds 15 1009 77 10000 5.7 260 20:39 15.10.2019
124 Clouds 15 1009 77 10000 5.7 260 20:39 15.10.2019
125 Clouds 15 1009 77 10000 6.7 250 20:20 15.10.2019
126 Clouds 15 1009 77 10000 6.7 250 19:58 15.10.2019
127 Clouds 15 1008 82 10000 7.2 250 19:40 15.10.2019
128 Clouds 15 1008 77 10000 5.7 250 19:20 15.10.2019
129 Clouds 15 1007 72 10000 5.7 260 18:47 15.10.2019
130 Clouds 16 1007 72 10000 5.7 260 18:29 15.10.2019
131 Clouds 17 1006 67 10000 6.2 280 17:59 15.10.2019
132 Clouds 18 1005 68 10000 2.6 70 17:40 15.10.2019
133 Clouds 19 1005 60 10000 3.6 30 17:20 15.10.2019
134 Clouds 19 1005 60 10000 3.6 30 16:57 15.10.2019
135 Clouds 19 1006 64 10000 3.6 10 16:38 15.10.2019
136 Clouds 21 1006 56 10000 1.5 0 16:20 15.10.2019
137 Clouds 21 1006 36 10000 2.6 150 15:55 15.10.2019
138 -273 0 0 0 0 0 15:55 15.10.2019
139 Clouds 21 1006 36 10000 2.6 150 15:36 15.10.2019
140 Clear 21 1006 36 10000 2.6 160 15:18 15.10.2019
141 Clear 20 1006 40 10000 2.6 120 14:38 15.10.2019
142 Clear 21 1007 38 10000 2.1 130 14:20 15.10.2019
143 Clear 21 1007 38 10000 2.1 130 13:58 15.10.2019
144 Clear 21 1007 40 10000 3.6 140 13:40 15.10.2019
145 Clear 21 1008 40 10000 4.6 160 13:19 15.10.2019
146 Clear 20 1008 43 10000 4.6 100 12:44 15.10.2019
147 Clear 20 1008 43 10000 4.6 100 12:44 15.10.2019
148 Clear 17 1008 52 10000 4.1 110 12:22 15.10.2019
149 Clear 17 1009 55 10000 2.6 100 11:58 15.10.2019
150 Clear 15 1009 55 10000 2.6 100 11:40 15.10.2019
151 Clear 15 1009 59 10000 2.1 70 11:19 15.10.2019
152 Clear 15 1009 59 10000 1 0 10:45 15.10.2019
153 Fog 12 1009 76 10000 1.5 20 10:23 15.10.2019
154 Fog 11 1010 76 10000 1 0 09:59 15.10.2019
155 Fog 11 1010 76 10000 1 0 09:40 15.10.2019
156 Fog 9 1010 93 10000 1.5 0 09:21 15.10.2019
157 Fog 8 1010 93 10000 1 150 08:57 15.10.2019
158 Fog 7 1010 93 10000 2.6 180 08:39 15.10.2019
159 Fog 7 1010 93 10000 2.6 180 08:18 15.10.2019
160 Fog 7 1010 93 10000 2.1 160 07:43 15.10.2019
161 Fog 7 1010 87 10000 2.6 140 07:22 15.10.2019
162 Fog 7 1010 93 10000 1.5 140 06:55 15.10.2019
163 Fog 7 1010 93 10000 1.5 140 06:37 15.10.2019
164 Fog 7 1011 100 10000 2.6 160 05:56 15.10.2019
165 Fog 7 1011 100 10000 2.6 160 05:36 15.10.2019
166 Fog 8 1012 100 10000 1 190 04:48 15.10.2019
167 Fog 8 1012 100 10000 1.5 190 03:59 15.10.2019
168 Fog 8 1012 100 10000 1.5 190 03:34 15.10.2019
169 Fog 8 1012 93 10000 2.1 210 03:34 15.10.2019
170 Fog 9 1012 100 10000 1 0 01:51 15.10.2019
171 Fog 9 1012 100 10000 1 0 01:31 15.10.2019
172 Fog 9 1012 93 10000 3.6 210 00:59 15.10.2019
173 Fog 10 1012 93 10000 2.1 160 00:25 15.10.2019
174 Fog 10 1012 93 10000 2.1 160 23:58 14.10.2019
175 Fog 10 1012 100 10000 2.1 160 23:37 14.10.2019
176 Fog 10 1012 100 10000 2.1 160 23:37 14.10.2019
177 Fog 11 1013 100 10000 1.5 150 23:18 14.10.2019
178 Fog 11 1013 93 10000 2.6 220 22:39 14.10.2019
179 Fog 12 1013 93 10000 1.5 210 22:20 14.10.2019
180 Fog 12 1013 93 10000 2.1 150 21:58 14.10.2019
181 Fog 12 1013 93 10000 2.1 150 21:39 14.10.2019
182 Fog 13 1013 93 10000 2.1 150 21:21 14.10.2019
183 Fog 13 1013 93 10000 2.1 150 20:57 14.10.2019
184 Fog 14 1014 100 10000 1.5 160 20:38 14.10.2019
185 Fog 14 1014 100 10000 1.5 160 20:38 14.10.2019
186 Fog 14 1014 87 10000 1.5 150 20:19 14.10.2019
187 Fog 14 1013 93 10000 1 0 19:54 14.10.2019
188 Clouds 15 1014 87 10000 0.5 0 19:36 14.10.2019
189 Fog 16 1014 71 10000 1.5 220 19:18 14.10.2019
190 Clear 18 1014 68 10000 1 0 18:54 14.10.2019
191 Clear 19 1014 68 10000 1 0 18:36 14.10.2019
192 Clear 20 1014 56 10000 2.1 90 18:18 14.10.2019
193 Clear 21 1014 52 10000 3.1 60 17:41 14.10.2019
194 Clear 22 1014 49 10000 3.1 70 17:22 14.10.2019
195 Clear 22 1014 49 10000 3.6 70 16:54 14.10.2019
196 Clear 22 1014 49 10000 3.6 70 16:36 14.10.2019
197 Clear 22 1015 49 10000 4.1 60 16:18 14.10.2019
198 Clear 22 1015 52 10000 2.1 70 15:41 14.10.2019
199 Clear 22 1015 60 10000 2.6 100 15:21 14.10.2019
200 Clear 22 1015 52 10000 2.6 100 14:44 14.10.2019
201 Clear 22 1015 52 10000 2.6 100 14:44 14.10.2019
202 Clear 21 1015 49 10000 3.6 70 14:25 14.10.2019
203 Clear 21 1016 52 10000 3.1 90 13:58 14.10.2019
204 Clear 21 1016 52 10000 3.1 90 13:40 14.10.2019
205 Clear 21 1016 46 10000 4.1 70 13:21 14.10.2019
206 Clear 20 1016 52 10000 3.1 80 12:42 14.10.2019
207 Clear 20 1017 56 10000 3.1 40 12:21 14.10.2019
208 Clear 19 1017 56 10000 3.1 40 11:57 14.10.2019
209 Clear 18 1017 63 10000 2.1 50 11:39 14.10.2019
210 Fog 17 1017 67 10000 1.5 40 11:20 14.10.2019
211 Fog 16 1018 72 10000 1.5 20 10:44 14.10.2019
212 Fog 15 1018 76 10000 1.5 20 10:23 14.10.2019
213 Fog 13 1018 82 10000 1.96 111.187 10:00 14.10.2019
214 Fog 11 1018 82 10000 1.95 102.548 09:41 14.10.2019
215 Fog 10 1018 93 10000 0.5 140 09:20 14.10.2019
216 Fog 8 1018 93 10000 0.9 244.578 08:49 14.10.2019
217 Fog 8 1018 100 10000 0.9 244.578 08:23 14.10.2019
218 Fog 8 1017 93 10000 1.5 200 07:47 14.10.2019
219 Fog 8 1017 93 10000 1.5 190 07:25 14.10.2019
220 Fog 8 1018 93 10000 2.1 210 06:58 14.10.2019
221 Fog 9 1018 93 9000 2.6 220 06:28 14.10.2019
222 Fog 9 1018 93 10000 2.1 210 05:56 14.10.2019
223 Fog 9 1018 87 10000 1 0 05:26 14.10.2019
224 Fog 9 1018 93 10000 1.5 220 03:50 14.10.2019
225 Fog 10 1018 93 10000 1.5 220 03:26 14.10.2019
226 Fog 10 1018 100 10000 0.5 0 02:32 14.10.2019
227 Fog 11 1018 93 10000 1.5 240 01:21 14.10.2019
228 Fog 12 1018 87 10000 1 0 00:44 14.10.2019
229 Fog 12 1018 87 10000 1 0 00:19 14.10.2019
230 Fog 12 1018 87 10000 1.5 160 23:43 13.10.2019
231 Fog 12 1018 93 10000 3.1 220 23:20 13.10.2019
232 Fog 13 1017 93 10000 1.5 160 22:57 13.10.2019
233 Clear 13 1018 82 10000 3.1 200 22:39 13.10.2019
234 Clear 13 1018 82 10000 1 0 22:20 13.10.2019
235 Clear 14 1018 87 10000 1.65 233.116 21:57 13.10.2019
236 Clear 14 1018 87 10000 1.65 233.116 21:37 13.10.2019
237 Clear 14 1018 87 10000 1.65 233.116 21:37 13.10.2019
238 Clouds 14 1017 87 10000 2.6 160 21:18 13.10.2019
239 Clouds 14 1018 93 10000 2.1 160 20:57 13.10.2019
240 Clouds 15 1018 93 10000 2.1 160 20:38 13.10.2019
241 Clouds 16 1018 87 10000 2.1 150 20:19 13.10.2019
242 Clouds 16 1018 87 10000 2.1 150 19:57 13.10.2019
243 Clouds 16 1018 87 10000 2.6 150 19:39 13.10.2019
244 Clear 17 1017 82 10000 1 150 19:21 13.10.2019
245 Clear 19 1017 64 10000 2.1 320 18:56 13.10.2019
246 -273 0 0 0 0 0 18:56 13.10.2019
247 Clear 20 1017 64 10000 2.1 320 18:36 13.10.2019
248 Clear 20 1017 64 10000 2.1 320 18:36 13.10.2019
249 Clear 21 1017 56 10000 3.1 320 18:18 13.10.2019
250 Clouds 22 1017 49 10000 2.1 360 17:55 13.10.2019
251 Clouds 23 1017 49 10000 2.1 360 17:36 13.10.2019
252 Clouds 23 1017 53 10000 1.5 360 17:18 13.10.2019
253 Clouds 23 1017 44 10000 0.5 0 16:41 13.10.2019
254 Clouds 23 1017 44 10000 2.1 70 16:18 13.10.2019
255 Clouds 23 1017 44 10000 2.1 70 15:57 13.10.2019
256 Clouds 23 1017 47 10000 2.1 90 15:38 13.10.2019
257 Clear 23 1017 47 10000 2.6 70 15:18 13.10.2019
258 Clear 23 1017 56 10000 3.6 80 14:57 13.10.2019
259 Clear 23 1017 46 10000 2.1 60 14:38 13.10.2019
260 Clear 23 1017 46 10000 2.6 40 14:19 13.10.2019
261 Clear 22 1017 49 10000 3.1 30 13:41 13.10.2019
262 Clear 22 1018 49 10000 2.1 30 13:23 13.10.2019
263 Clear 21 1017 49 10000 1.5 90 12:59 13.10.2019
264 Clear 21 1017 49 10000 1.5 90 12:39 13.10.2019
265 Clear 20 1018 43 10000 1 0 12:21 13.10.2019
266 Clear 20 1018 43 10000 1 0 11:59 13.10.2019
267 Clear 19 1018 49 10000 0.5 0 11:39 13.10.2019
268 Clear 18 1018 52 10000 1 0 11:20 13.10.2019
269 Clear 17 1018 52 10000 1 0 10:59 13.10.2019
270 Clear 16 1019 52 10000 1.5 230 10:39 13.10.2019
271 Clear 15 1019 67 10000 3.1 220 10:20 13.10.2019
272 Fog 12 1019 76 10000 2.6 230 09:39 13.10.2019
273 Fog 11 1019 76 10000 3.6 230 09:21 13.10.2019
274 Fog 11 1019 76 10000 3.6 230 09:21 13.10.2019
275 Fog 10 1018 87 10000 2.1 220 08:51 13.10.2019
276 -273 0 0 0 0 0 08:27 13.10.2019
277 Fog 9 1018 81 10000 1.5 220 07:55 13.10.2019
278 Fog 9 1018 81 10000 1.5 220 07:35 13.10.2019
279 Fog 9 1018 87 10000 2.1 240 06:54 13.10.2019
280 Fog 9 1018 87 10000 2.1 240 06:54 13.10.2019
281 Fog 9 1018 81 10000 2.6 230 06:26 13.10.2019
282 Fog 9 1018 87 10000 3.1 220 05:29 13.10.2019
283 Fog 10 1018 81 10000 2.6 170 04:35 13.10.2019
284 Fog 10 1018 87 10000 3.6 210 03:37 13.10.2019
285 Clouds 11 1018 66 10000 1 0 02:32 13.10.2019
286 Clouds 12 1018 76 10000 3.1 150 01:47 13.10.2019
287 Clouds 12 1019 76 10000 1.5 180 01:21 13.10.2019
288 Clouds 12 1019 76 10000 1.5 180 01:21 13.10.2019
289 Clouds 12 1019 76 10000 1.5 160 00:43 13.10.2019
290 Clouds 12 1019 71 10000 3.1 150 00:20 13.10.2019
291 Clouds 12 1019 82 10000 4.1 160 23:55 12.10.2019
292 Clouds 12 1019 82 10000 4.1 160 23:36 12.10.2019
293 Clouds 13 1019 82 10000 2.1 150 23:18 12.10.2019
294 Clouds 12 1019 87 10000 1.5 190 22:55 12.10.2019
295 Clouds 12 1019 87 10000 1.5 190 22:36 12.10.2019
296 Clouds 12 1019 87 10000 2.6 180 22:18 12.10.2019
297 Clouds 12 1019 87 10000 2.1 160 21:41 12.10.2019
298 Clouds 12 1018 93 10000 1 0 21:23 12.10.2019
299 Clouds 13 1018 93 10000 2.1 190 20:56 12.10.2019
300 Clouds 13 1018 93 10000 2.1 190 20:38 12.10.2019
301 Clouds 13 1018 87 10000 1 160 20:20 12.10.2019
302 Clouds 15 1018 93 10000 1.5 190 19:37 12.10.2019
303 Clouds 16 1018 82 10000 1.5 200 19:19 12.10.2019
304 -273 0 0 0 0 0 18:54 12.10.2019
305 Clouds 18 1017 77 10000 2.1 180 18:36 12.10.2019
306 Clouds 19 1017 68 10000 1.6 215.271 18:18 12.10.2019
307 Clouds 21 1017 56 10000 1 0 17:42 12.10.2019
308 Clouds 22 1018 46 10000 2.6 260 17:19 12.10.2019
309 Clouds 22 1018 43 10000 3.6 240 16:41 12.10.2019
310 Clouds 22 1018 43 10000 3.6 240 16:41 12.10.2019
311 Clear 22 1018 46 10000 4.6 240 16:22 12.10.2019
312 Clear 22 1018 46 10000 4.6 240 15:59 12.10.2019
313 Clear 22 1018 43 10000 4.1 250 15:40 12.10.2019
314 Clear 22 1018 46 10000 3.6 250 15:21 12.10.2019
315 Clouds 22 1018 46 10000 4.1 220 14:41 12.10.2019
316 Clouds 21 1018 43 10000 2.6 210 14:22 12.10.2019
317 Clouds 21 1018 43 10000 2.6 210 14:22 12.10.2019
318 Clouds 21 1018 43 10000 4.1 220 13:53 12.10.2019
319 Clear 21 1018 43 10000 4.1 220 13:33 12.10.2019
320 Clear 20 1019 45 10000 3.1 220 12:59 12.10.2019
321 Clear 19 1019 45 10000 3.1 220 12:39 12.10.2019
322 Clear 18 1019 45 10000 2.6 220 12:21 12.10.2019
323 Clear 18 1019 52 10000 3.6 220 11:58 12.10.2019
324 Clear 16 1019 52 10000 3.6 220 11:38 12.10.2019
325 Clear 16 1019 59 10000 3.1 220 11:19 12.10.2019
326 Clear 15 1019 67 10000 3.1 220 10:41 12.10.2019
327 Clear 13 1019 76 10000 3.1 210 10:23 12.10.2019
328 -273 0 0 0 0 0 09:58 12.10.2019
329 Clear 11 1019 81 10000 2.6 210 09:39 12.10.2019
330 -273 0 0 0 0 0 09:21 12.10.2019
331 Fog 7 1018 75 10000 3 202.652 08:57 12.10.2019
332 -273 0 0 0 0 0 08:57 12.10.2019
333 Fog 7 1018 75 10000 3 202.652 08:57 12.10.2019
334 Fog 7 1018 75 10000 3 202.652 08:57 12.10.2019
335 Fog 6 1018 75 10000 3 202.652 08:37 12.10.2019
336 Fog 5 1018 81 10000 2.6 150 08:18 12.10.2019
337 Fog 5 1018 87 10000 1 0 07:34 12.10.2019
338 Fog 5 1018 93 10000 1 0 06:51 12.10.2019
339 Fog 5 1018 81 10000 2.6 160 05:47 12.10.2019
340 Fog 6 1018 81 10000 1.5 180 05:22 12.10.2019
341 Fog 6 1018 87 10000 2.1 200 04:24 12.10.2019
342 Fog 7 1018 87 10000 1 0 03:30 12.10.2019
343 Fog 7 1018 81 10000 1.5 240 01:45 12.10.2019
344 Fog 7 1018 93 10000 1.5 210 01:21 12.10.2019
345 Fog 7 1018 93 10000 1.5 210 01:21 12.10.2019
346 Fog 7 1018 87 10000 1 0 00:42 12.10.2019
347 Fog 8 1018 87 10000 1 220 23:59 11.10.2019
348 Clouds 8 1018 93 10000 1 0 23:40 11.10.2019
349 Clouds 8 1018 87 10000 1 180 23:20 11.10.2019
350 Clouds 9 1018 87 10000 0.5 0 22:41 11.10.2019
351 Clouds 8 1018 87 10000 0.5 0 22:41 11.10.2019
352 Clouds 9 1018 87 10000 2.1 180 22:22 11.10.2019
353 Clouds 9 1018 87 10000 2.1 180 21:58 11.10.2019
354 Clear 9 1018 76 10000 3.1 190 21:39 11.10.2019
355 Clouds 9 1018 93 10000 2.1 180 21:21 11.10.2019
356 Clouds 10 1018 87 10000 2.1 150 20:45 11.10.2019
357 Clouds 10 1018 87 10000 1.5 150 20:27 11.10.2019
358 Clouds 10 1018 87 10000 1.5 150 20:27 11.10.2019
359 Clouds 11 1018 87 10000 1 150 19:59 11.10.2019
360 Clouds 12 1018 87 10000 1 150 19:39 11.10.2019
361 Clear 13 1018 87 10000 2.1 170 19:18 11.10.2019
362 Clear 13 1018 87 10000 2.1 170 19:18 11.10.2019
363 Clear 13 1018 87 10000 2.1 170 19:18 11.10.2019
364 Clear 14 1018 82 10000 1 180 18:59 11.10.2019
365 Clear 16 1018 82 10000 1 180 18:38 11.10.2019
366 Clear 16 1018 72 10000 1.5 160 18:19 11.10.2019
367 Clear 17 1018 72 10000 1.5 160 17:59 11.10.2019
368 Clear 17 1019 51 10000 1 0 17:38 11.10.2019
369 Clear 17 1019 48 10000 1 0 17:19 11.10.2019
370 Clear 17 1019 48 10000 1 0 17:19 11.10.2019
371 Clear 18 1019 48 10000 1 0 16:59 11.10.2019
372 Clear 18 1019 51 10000 2.1 180 16:39 11.10.2019
373 Clear 18 1019 51 10000 2.1 180 16:39 11.10.2019
374 Clear 18 1019 48 10000 1 0 16:19 11.10.2019
375 Clear 18 1019 48 10000 2.1 0 15:55 11.10.2019
376 Clear 17 1019 51 10000 2.6 270 15:36 11.10.2019
377 Clear 17 1020 51 10000 2.6 230 15:18 11.10.2019
378 Clear 17 1020 51 10000 2.6 230 15:18 11.10.2019
379 Clear 17 1020 55 10000 2.1 200 14:42 11.10.2019
380 Clear 17 1020 51 10000 3.1 230 14:23 11.10.2019
381 Clear 16 1021 51 10000 4.1 210 13:47 11.10.2019
382 Clear 16 1021 54 10000 4.6 240 13:27 11.10.2019
383 Clear 16 1021 54 10000 4.6 240 12:58 11.10.2019
384 Clear 15 1021 54 10000 4.6 190 12:40 11.10.2019
385 Clear 15 1022 62 10000 3.6 200 12:21 11.10.2019
386 Clear 14 1022 62 10000 3.6 200 11:59 11.10.2019
387 Clear 14 1022 66 10000 4.1 160 11:39 11.10.2019
388 Clear 12 1023 76 10000 2.6 220 11:21 11.10.2019
389 Clear 11 1023 71 10000 1.5 220 10:56 11.10.2019
390 Clear 10 1023 71 10000 1.5 220 10:38 11.10.2019
391 Clear 10 1022 81 10000 2.1 240 10:19 11.10.2019
392 -273 0 0 0 0 0 09:54 11.10.2019
393 -273 0 0 0 0 0 09:54 11.10.2019
394 Fog 8 1022 76 10000 1.5 0 09:36 11.10.2019
395 Fog 7 1022 81 10000 2.74 208.898 09:18 11.10.2019
396 Fog 6 1022 81 10000 2.6 170 08:40 11.10.2019
397 Fog 5 1021 86 10000 2.6 170 08:21 11.10.2019
398 Fog 5 1021 86 10000 2.6 170 07:59 11.10.2019
399 Fog 5 1022 93 10000 3.1 190 07:40 11.10.2019
400 Fog 5 1022 93 10000 0.5 0 07:20 11.10.2019
401 Fog 5 1022 93 10000 2.1 170 06:44 11.10.2019
402 Fog 5 1022 93 10000 2.1 200 06:21 11.10.2019
403 Fog 6 1022 93 10000 2.6 230 05:37 11.10.2019
404 Fog 6 1022 81 10000 3.1 200 04:59 11.10.2019
405 Fog 6 1022 87 10000 4.1 200 04:24 11.10.2019
406 Fog 7 1023 87 10000 3.1 230 02:18 11.10.2019
407 Fog 8 1023 93 10000 3.6 220 00:43 11.10.2019
408 Clear 9 1023 87 10000 3.6 220 00:25 11.10.2019
409 Clear 9 1023 93 10000 3.6 220 23:43 10.10.2019
410 Clear 9 1023 93 10000 3.1 210 23:21 10.10.2019
411 Clear 9 1023 93 10000 3.6 220 22:57 10.10.2019
412 Clear 9 1023 93 10000 3.6 220 22:39 10.10.2019
413 Clear 9 1022 87 10000 4.1 230 22:20 10.10.2019
414 Rain 9 1022 93 10000 3.6 210 21:57 10.10.2019
415 Rain 9 1022 93 10000 3.6 210 21:39 10.10.2019
416 Rain 10 1022 87 10000 4.1 220 21:20 10.10.2019
417 Clouds 10 1021 87 10000 3.6 210 20:43 10.10.2019
418 Clouds 10 1021 93 10000 2.6 200 20:22 10.10.2019
419 Clouds 10 1021 93 10000 2.6 200 19:59 10.10.2019
420 Rain 10 1021 87 10000 2.6 220 19:41 10.10.2019
421 Rain 10 1021 87 10000 2.6 220 19:41 10.10.2019
422 Rain 10 1020 93 10000 3.1 200 19:21 10.10.2019
423 Rain 11 1020 93 10000 3.1 200 18:59 10.10.2019
424 Rain 11 1020 87 10000 2.6 220 18:40 10.10.2019
425 Rain 11 1020 87 10000 2.6 250 18:20 10.10.2019
426 Rain 11 1019 87 10000 5.1 240 17:55 10.10.2019
427 Rain 12 1019 87 10000 5.1 240 17:37 10.10.2019
428 Rain 12 1019 81 10000 4.6 240 17:18 10.10.2019
429 Rain 12 1020 87 7000 4.6 260 16:46 10.10.2019
430 Rain 12 1019 81 10000 5.7 240 16:26 10.10.2019
431 Rain 12 1019 81 10000 5.7 240 16:26 10.10.2019
432 Rain 12 1019 81 10000 5.7 250 15:58 10.10.2019
433 Rain 12 1019 81 10000 5.7 250 15:38 10.10.2019
434 Rain 12 1019 87 10000 7.2 250 15:19 10.10.2019
435 Rain 12 1019 81 10000 7.2 250 14:55 10.10.2019
436 Rain 11 1019 81 10000 7.2 250 14:36 10.10.2019
437 Rain 11 1019 81 10000 7.7 250 14:18 10.10.2019
438 Rain 11 1019 81 10000 7.7 250 13:46 10.10.2019
439 Rain 11 1018 81 10000 7.7 250 13:27 10.10.2019
440 Rain 11 1018 81 9000 8.7 260 12:58 10.10.2019
441 Rain 11 1018 81 9000 8.7 260 12:40 10.10.2019
442 Rain 12 1018 76 10000 6.2 260 12:20 10.10.2019
443 Rain 12 1018 71 10000 7.7 240 11:58 10.10.2019
444 Rain 12 1018 71 10000 7.7 240 11:38 10.10.2019
445 Rain 12 1017 66 10000 9.3 230 11:19 10.10.2019
446 Rain 12 1017 76 10000 6.7 230 10:45 10.10.2019
447 Clouds 11 1017 76 10000 6.2 220 10:26 10.10.2019
448 Clouds 11 1016 81 10000 7.2 230 09:58 10.10.2019
449 Clouds 11 1016 81 10000 7.2 230 09:39 10.10.2019
450 Clouds 10 1016 81 10000 6.2 220 09:21 10.10.2019
451 Clouds 10 1016 81 10000 6.2 220 08:58 10.10.2019
452 Clouds 9 1016 81 10000 6.7 210 08:38 10.10.2019
453 Rain 9 1016 87 10000 4.6 210 08:19 10.10.2019
454 Rain 9 1016 87 10000 5.1 210 07:46 10.10.2019
455 Rain 9 1015 81 10000 5.1 220 07:23 10.10.2019
456 Rain 9 1015 87 10000 4.1 220 06:49 10.10.2019
457 Rain 9 1015 87 10000 4.6 210 06:29 10.10.2019
458 Rain 9 1016 87 10000 5.7 230 05:39 10.10.2019
459 Rain 9 1016 87 10000 6.2 220 05:18 10.10.2019
460 Rain 9 1016 87 10000 4.6 210 04:34 10.10.2019
461 Rain 9 1015 93 10000 4.1 230 02:29 10.10.2019
462 Rain 10 1015 87 10000 4.6 250 01:37 10.10.2019
463 Rain 10 1015 81 10000 4.6 220 01:18 10.10.2019
464 Clouds 9 1015 76 10000 6.2 230 00:29 10.10.2019
465 Rain 9 1015 81 10000 6.7 240 23:42 09.10.2019
466 Rain 9 1015 81 10000 6.2 230 23:24 09.10.2019
467 Rain 9 1015 87 10000 6.2 230 22:59 09.10.2019
468 Clouds 9 1015 87 10000 6.2 230 22:41 09.10.2019
469 Clouds 9 1015 81 10000 6.2 210 22:22 09.10.2019
470 Clouds 9 1015 81 10000 5.1 220 21:57 09.10.2019
471 Clouds 9 1015 81 10000 5.1 220 21:38 09.10.2019
472 Rain 9 1015 81 10000 6.7 220 21:19 09.10.2019
473 Rain 9 1014 81 10000 7.2 220 20:55 09.10.2019
474 Rain 9 1014 81 10000 7.2 220 20:37 09.10.2019
475 Rain 9 1014 81 10000 7.2 230 20:18 09.10.2019
476 Rain 9 1014 81 10000 7.2 230 20:18 09.10.2019
477 Rain 9 1014 81 10000 6.7 220 19:44 09.10.2019
478 Rain 9 1014 81 10000 7.2 220 19:23 09.10.2019
479 Rain 9 1014 81 10000 7.7 230 18:56 09.10.2019
480 Rain 10 1014 81 10000 7.7 230 18:37 09.10.2019
481 Rain 10 1014 81 10000 8.7 230 18:18 09.10.2019
482 Rain 10 1014 87 10000 8.7 230 17:54 09.10.2019
483 Rain 10 1014 87 10000 8.7 230 17:36 09.10.2019
484 Rain 10 1014 87 10000 6.2 210 17:18 09.10.2019
485 Rain 10 1014 81 10000 6.2 240 16:40 09.10.2019
486 Rain 10 1014 87 9000 6.7 260 16:21 09.10.2019
487 Rain 10 1014 87 9000 6.7 260 16:21 09.10.2019
488 Rain 11 1014 93 7000 3.6 220 15:57 09.10.2019
489 Rain 11 1014 93 7000 3.6 220 15:57 09.10.2019
490 Rain 11 1014 93 7000 3.6 220 15:39 09.10.2019
491 Rain 11 1013 93 10000 3.6 190 15:19 09.10.2019
492 Rain 11 1013 93 10000 3.1 190 14:56 09.10.2019
493 Rain 11 1013 93 10000 3.1 190 14:37 09.10.2019
494 Rain 11 1013 87 10000 3.1 210 14:18 09.10.2019
495 Rain 11 1013 100 6000 3.1 260 13:39 09.10.2019
496 Rain 11 1013 87 10000 1.5 250 13:21 09.10.2019
497 Rain 11 1013 93 10000 3.1 140 12:59 09.10.2019
498 Rain 11 1013 93 10000 3.1 140 12:40 09.10.2019
499 Rain 11 1013 93 8000 2.1 180 12:21 09.10.2019
500 Rain 11 1014 93 10000 2.1 140 11:55 09.10.2019
501 Rain 11 1014 93 10000 2.1 140 11:36 09.10.2019
502 Rain 11 1014 93 10000 1 0 11:18 09.10.2019
503 Rain 11 1014 93 10000 1 0 10:43 09.10.2019
504 Rain 11 1014 93 10000 1 0 10:43 09.10.2019
505 Rain 11 1014 93 10000 1 0 10:21 09.10.2019
506 Rain 11 1014 93 10000 1 0 10:21 09.10.2019
507 Rain 11 1015 93 9000 2.6 300 09:58 09.10.2019
508 Rain 11 1015 93 9000 2.6 300 09:40 09.10.2019
509 Rain 11 1015 93 9000 2.6 300 09:40 09.10.2019
510 Rain 11 1015 93 9000 2.6 300 09:40 09.10.2019
511 Rain 11 1014 93 10000 2.6 320 09:18 09.10.2019
512 Rain 11 1014 93 10000 2.1 300 08:41 09.10.2019
513 Rain 11 1014 93 10000 1.5 280 08:21 09.10.2019
514 Rain 11 1014 93 10000 2.1 250 07:58 09.10.2019
515 Rain 11 1014 93 10000 2.1 250 07:37 09.10.2019
516 Rain 11 1014 93 9000 3.1 280 07:19 09.10.2019
517 Rain 11 1014 93 10000 2.1 290 06:51 09.10.2019
518 Rain 12 1014 93 10000 2.6 310 05:56 09.10.2019
519 Rain 12 1014 93 10000 2.6 310 05:37 09.10.2019
520 Rain 13 1013 93 5000 5.1 280 04:25 09.10.2019
521 Rain 15 1011 82 10000 8.7 260 02:52 09.10.2019
522 Rain 14 1011 72 10000 3.6 220 01:43 09.10.2019
523 Rain 14 1011 77 10000 3.1 220 01:20 09.10.2019
524 Rain 15 1011 77 10000 3.1 210 00:57 09.10.2019
525 Rain 14 1011 77 10000 3.1 210 00:38 09.10.2019
526 Clouds 14 1011 72 10000 3.1 250 00:20 09.10.2019
527 Drizzle 15 1011 77 10000 3.6 250 23:39 08.10.2019
528 Drizzle 15 1011 72 10000 4.1 230 23:19 08.10.2019
529 Drizzle 15 1011 67 10000 3.6 250 22:57 08.10.2019
530 Drizzle 15 1011 67 10000 3.6 250 22:38 08.10.2019
531 Clouds 15 1011 67 10000 4.1 240 22:19 08.10.2019
532 Clouds 14 1011 67 10000 4.1 210 21:57 08.10.2019
533 Clouds 15 1011 67 10000 4.1 210 21:39 08.10.2019
534 Clouds 14 1012 67 10000 3.6 220 21:19 08.10.2019
535 Clouds 14 1011 77 10000 3.1 210 20:56 08.10.2019
536 Clouds 14 1011 77 10000 3.1 210 20:38 08.10.2019
537 Clouds 14 1012 77 10000 2.6 190 20:20 08.10.2019
538 Clear 14 1012 77 10000 2.1 210 19:58 08.10.2019
539 Clear 14 1012 77 10000 2.1 210 19:40 08.10.2019
540 Rain 15 1012 72 10000 2.6 230 19:21 08.10.2019
541 Rain 15 1012 63 10000 4.6 230 18:55 08.10.2019
542 Rain 15 1012 63 10000 4.6 230 18:55 08.10.2019
543 Clouds 15 1012 63 10000 4.6 230 18:36 08.10.2019
544 Clouds 15 1012 72 10000 2.6 270 18:18 08.10.2019
545 Drizzle 15 1011 77 10000 4.1 260 17:40 08.10.2019
546 Drizzle 15 1012 63 10000 4.6 230 17:21 08.10.2019
547 Drizzle 15 1012 63 10000 4.6 230 16:58 08.10.2019
548 Rain 15 1012 59 10000 4.6 250 16:40 08.10.2019
549 Rain 15 1013 55 10000 5.1 260 16:21 08.10.2019
550 Drizzle 16 1013 55 10000 3.1 240 15:41 08.10.2019
551 Drizzle 16 1013 55 10000 3.1 240 15:41 08.10.2019
552 Rain 15 1013 55 10000 3.1 240 15:22 08.10.2019
553 Rain 15 1013 55 10000 3.1 240 15:22 08.10.2019
554 Rain 15 1013 59 10000 7.2 250 14:58 08.10.2019
555 Drizzle 15 1013 55 10000 5.1 220 14:39 08.10.2019
556 Drizzle 15 1013 55 10000 5.1 220 14:21 08.10.2019
557 Drizzle 15 1014 58 10000 5.1 230 13:57 08.10.2019
558 Clouds 15 1014 58 10000 5.1 230 13:38 08.10.2019
559 Clouds 14 1014 62 10000 5.1 220 13:19 08.10.2019
560 Clouds 14 1015 71 10000 4.6 210 12:58 08.10.2019
561 Clouds 13 1015 71 10000 4.6 210 12:38 08.10.2019
562 Rain 13 1015 71 10000 4.6 200 12:18 08.10.2019
563 Clouds 12 1015 66 10000 4.1 210 11:42 08.10.2019
564 Clear 11 1016 71 10000 4.1 200 11:24 08.10.2019
565 Clear 11 1016 71 10000 4.1 200 11:24 08.10.2019
566 Rain 11 1016 71 10000 4.1 200 10:58 08.10.2019
567 Rain 10 1016 76 10000 4.1 200 10:38 08.10.2019
568 Rain 10 1016 87 10000 2.6 160 10:20 08.10.2019
569 Rain 9 1016 87 10000 3.1 210 09:57 08.10.2019
570 Rain 9 1016 87 10000 3.1 210 09:39 08.10.2019
571 Rain 8 1016 93 10000 3.6 170 09:19 08.10.2019
572 Clear 8 1017 81 10000 3.6 200 08:42 08.10.2019
573 Rain 8 1017 87 10000 3.6 200 08:24 08.10.2019
574 Fog 7 1016 87 10000 4.1 200 07:45 08.10.2019
575 Fog 7 1017 87 10000 3.6 190 07:22 08.10.2019
576 Mist 7 1017 87 10000 3.1 200 06:56 08.10.2019
577 Mist 7 1017 87 10000 3.6 220 06:34 08.10.2019
578 Fog 7 1018 93 10000 3.1 220 05:57 08.10.2019
579 Fog 7 1018 93 10000 3.1 220 05:38 08.10.2019
580 Fog 7 1018 93 10000 2.6 200 04:42 08.10.2019
581 Fog 7 1019 93 10000 2.6 200 03:29 08.10.2019
582 Rain 7 1018 100 10000 2.6 200 02:40 08.10.2019
583 Mist 7 1019 100 10000 3.1 210 01:49 08.10.2019
584 Clouds 7 1019 100 10000 3.1 210 01:31 08.10.2019
585 Clouds 7 1019 100 10000 3.1 210 01:31 08.10.2019
586 Mist 7 1019 100 10000 0.5 0 00:51 08.10.2019
587 Fog 7 1019 100 7000 1 160 00:22 08.10.2019
588 Mist 7 1020 93 4500 2.6 200 23:42 07.10.2019
589 Fog 7 1020 93 10000 0.5 0 23:21 07.10.2019
590 Fog 7 1020 93 10000 0.5 0 22:58 07.10.2019
591 Fog 7 1020 100 250 0.5 190 22:40 07.10.2019
592 Fog 7 1020 100 750 2.95 149.877 22:21 07.10.2019
593 Fog 7 1019 93 1200 1.5 140 21:58 07.10.2019
594 Fog 7 1019 93 1200 1.5 140 21:40 07.10.2019
595 Fog 8 1019 100 5000 2.6 140 21:20 07.10.2019
596 Fog 8 1019 93 6000 1.5 130 20:58 07.10.2019
597 Fog 8 1019 93 6000 1.5 130 20:39 07.10.2019
598 Fog 8 1019 93 6000 1.5 130 20:39 07.10.2019
599 Fog 8 1019 100 4800 2.1 140 20:21 07.10.2019
600 Fog 8 1019 100 10000 1.5 120 19:59 07.10.2019
601 Fog 9 1019 100 10000 1.5 120 19:41 07.10.2019
602 Fog 9 1019 100 10000 1.5 120 19:41 07.10.2019
603 Clouds 9 1019 93 10000 2.1 100 19:20 07.10.2019
604 Clouds 9 1019 93 10000 1.5 90 18:59 07.10.2019
605 Clouds 10 1019 93 10000 1.5 90 18:39 07.10.2019
606 Clouds 10 1019 87 10000 2.1 70 18:19 07.10.2019
607 -273 0 0 0 0 0 17:54 07.10.2019
608 Clouds 10 1019 87 10000 1.5 60 17:36 07.10.2019
609 Clouds 10 1019 87 10000 1.5 40 17:18 07.10.2019
610 Clouds 10 1019 87 10000 2.1 40 16:43 07.10.2019
611 Clouds 10 1019 87 10000 2.1 10 16:25 07.10.2019
612 Clouds 10 1019 87 10000 1.5 350 15:46 07.10.2019
613 Clouds 10 1019 93 10000 2.6 360 15:26 07.10.2019
614 Drizzle 10 1019 87 10000 2.6 330 14:58 07.10.2019
615 Drizzle 10 1019 87 10000 2.6 330 14:58 07.10.2019
616 Drizzle 10 1019 87 10000 2.6 330 14:40 07.10.2019
617 Drizzle 10 1019 93 8000 3.6 350 14:22 07.10.2019
618 Rain 9 1019 93 8000 3.6 330 13:44 07.10.2019
619 Rain 9 1019 93 7000 3.6 340 13:21 07.10.2019
620 Rain 9 1019 93 7000 3.6 340 12:57 07.10.2019
621 Rain 9 1018 93 7000 2.6 350 12:39 07.10.2019
622 Rain 9 1018 93 6000 2.1 350 12:19 07.10.2019
623 Rain 9 1018 93 7000 2.1 310 11:58 07.10.2019
624 Rain 8 1018 93 7000 2.1 310 11:39 07.10.2019
625 Rain 8 1018 93 6000 3.1 270 11:20 07.10.2019
626 Rain 8 1017 100 6000 2.1 320 10:42 07.10.2019
627 Rain 8 1017 93 4000 2.6 350 10:23 07.10.2019
628 Rain 8 1017 100 4500 4.1 80 09:57 07.10.2019
629 Rain 8 1017 100 4500 4.1 80 09:38 07.10.2019
630 Rain 7 1017 100 3500 3.1 80 09:20 07.10.2019
631 Rain 8 1016 93 4000 4.1 260 08:43 07.10.2019
632 Rain 8 1015 93 3500 4.1 260 08:20 07.10.2019
633 Rain 8 1015 93 4500 5.1 260 07:49 07.10.2019
634 Rain 7 1015 100 4000 5.7 250 07:28 07.10.2019
635 Rain 8 1014 100 4100 4.6 260 06:58 07.10.2019
636 Rain 8 1014 100 4100 4.6 260 06:39 07.10.2019
637 Rain 7 1014 100 10000 5.7 250 06:20 07.10.2019
638 Rain 8 1013 100 10000 4.1 280 05:27 07.10.2019
639 Rain 8 1013 93 6000 6.2 270 04:54 07.10.2019
640 Rain 8 1011 100 7000 5.7 270 03:48 07.10.2019
641 Rain 8 1011 100 7000 5.7 270 03:48 07.10.2019
642 Rain 8 1011 100 7000 5.7 270 03:30 07.10.2019
643 Rain 9 1011 93 10000 4.1 240 02:53 07.10.2019
644 Rain 9 1010 93 10000 4.6 230 02:19 07.10.2019
645 Rain 9 1010 100 10000 1.5 220 01:24 07.10.2019
646 Rain 9 1010 100 10000 1.5 220 00:55 07.10.2019
647 Rain 9 1010 100 10000 1.5 180 00:36 07.10.2019
648 Rain 9 1010 100 10000 3.1 220 00:18 07.10.2019
649 Rain 9 1010 100 10000 3.1 220 23:40 06.10.2019
650 Rain 9 1010 100 10000 3.6 210 23:21 06.10.2019
651 Rain 9 1010 100 10000 3.6 210 22:58 06.10.2019
652 Rain 9 1010 100 10000 2.6 210 22:40 06.10.2019
653 Rain 9 1010 100 10000 2.1 200 22:21 06.10.2019
654 Rain 9 1010 93 10000 1.5 180 21:57 06.10.2019
655 Rain 9 1010 93 10000 1.5 180 21:37 06.10.2019
656 Rain 9 1010 93 10000 1.5 180 21:37 06.10.2019
657 Rain 9 1011 100 10000 1 200 21:19 06.10.2019
658 Rain 9 1011 100 8000 2.1 140 20:57 06.10.2019
659 Rain 9 1011 100 8000 2.1 140 20:38 06.10.2019
660 Rain 9 1012 100 6000 2.1 120 20:20 06.10.2019
661 Rain 9 1012 100 6000 2.1 120 19:57 06.10.2019
662 Rain 9 1012 93 4300 2.6 110 19:37 06.10.2019
663 Rain 9 1012 93 4300 2.6 110 19:19 06.10.2019
664 Rain 9 1012 93 4300 2.6 110 18:56 06.10.2019
665 Rain 10 1012 93 10000 2.6 120 18:38 06.10.2019
666 Rain 10 1012 93 10000 2.6 120 18:38 06.10.2019
667 Rain 10 1013 93 10000 3.1 110 18:19 06.10.2019
668 Rain 10 1013 93 10000 3.6 110 17:57 06.10.2019
669 Rain 10 1013 93 10000 3.6 110 17:38 06.10.2019
670 Rain 10 1013 87 10000 3.1 100 17:18 06.10.2019
671 Rain 10 1014 87 10000 2.6 90 16:42 06.10.2019
672 Rain 10 1014 87 10000 2.1 90 16:23 06.10.2019
673 Rain 11 1015 81 10000 4.1 90 15:54 06.10.2019
674 Rain 11 1015 81 10000 4.1 90 15:36 06.10.2019
675 Rain 11 1015 76 10000 5.1 100 15:18 06.10.2019
676 Rain 11 1015 71 10000 4.6 100 14:42 06.10.2019
677 Rain 11 1015 71 10000 4.6 100 14:42 06.10.2019
678 Rain 11 1015 71 10000 4.6 100 14:42 06.10.2019
679 Rain 11 1015 87 10000 3.1 100 14:24 06.10.2019
680 Clouds 11 1016 81 10000 2.6 90 13:56 06.10.2019
681 Clouds 11 1016 81 10000 2.6 90 13:38 06.10.2019
682 Clouds 11 1016 81 10000 2.1 100 13:19 06.10.2019
683 Clouds 10 1016 87 10000 2.6 100 12:56 06.10.2019
684 Clouds 10 1016 87 10000 2.6 100 12:38 06.10.2019
685 Clouds 10 1017 93 10000 2.1 80 12:20 06.10.2019
686 Clouds 10 1017 93 10000 2.1 80 11:55 06.10.2019
687 Clouds 9 1017 87 10000 1.5 80 11:37 06.10.2019
688 Clouds 8 1017 93 10000 1.5 90 11:18 06.10.2019
689 Clouds 8 1017 93 10000 2.6 80 10:42 06.10.2019
690 Clouds 7 1018 100 10000 2.1 100 10:24 06.10.2019
691 Clouds 6 1018 93 10000 1.5 80 09:56 06.10.2019
692 Clouds 6 1018 93 10000 1.5 80 09:38 06.10.2019
693 Clouds 5 1017 100 10000 2.1 70 09:18 06.10.2019
694 Fog 5 1017 93 8000 1 0 08:40 06.10.2019
695 Fog 4 1018 93 7000 1 0 08:20 06.10.2019
696 Fog 4 1017 93 8000 2.1 100 07:44 06.10.2019
697 Fog 4 1018 100 10000 1.5 120 07:19 06.10.2019
698 Fog 4 1017 100 10000 1 0 06:20 06.10.2019
699 Fog 4 1017 100 10000 1.5 110 05:33 06.10.2019
700 Clouds 4 1018 93 1500 2.1 160 03:41 06.10.2019
701 Clouds 5 1018 100 1500 1 100 02:42 06.10.2019
702 Clouds 5 1019 100 10000 1 190 02:21 06.10.2019
703 Clouds 5 1018 100 1200 2.06 69.561 01:44 06.10.2019
704 Clouds 5 1018 100 2100 1.5 160 01:26 06.10.2019
705 Clouds 5 1018 93 10000 1 200 00:52 06.10.2019
706 Clouds 6 1018 93 10000 1 200 00:26 06.10.2019
707 Clouds 7 1018 100 10000 2.61 62.699 23:44 05.10.2019
708 Clouds 8 1018 93 10000 1 210 23:22 05.10.2019
709 Clouds 8 1018 93 10000 1 210 22:58 05.10.2019
710 Clouds 8 1018 93 10000 1 0 22:40 05.10.2019
711 Clouds 8 1018 93 10000 0.5 0 22:20 05.10.2019
712 Clouds 8 1018 87 10000 1.5 60 21:57 05.10.2019
713 Clouds 8 1018 87 10000 1.5 60 21:38 05.10.2019
714 Clouds 8 1018 93 10000 1 80 21:18 05.10.2019
715 Clouds 8 1018 93 10000 1.5 90 20:56 05.10.2019
716 Clouds 9 1018 93 10000 1.5 90 20:37 05.10.2019
717 Clouds 9 1018 81 10000 1.5 50 20:18 05.10.2019
718 Clouds 9 1018 81 10000 2.1 30 19:38 05.10.2019
719 Clouds 9 1017 81 10000 2.6 20 19:19 05.10.2019
720 Clouds 9 1017 76 10000 3.1 350 18:55 05.10.2019
721 Clouds 10 1017 76 10000 3.1 350 18:37 05.10.2019
722 Rain 10 1016 76 10000 3.1 360 18:19 05.10.2019
723 Rain 10 1016 76 10000 4.1 350 17:43 05.10.2019
724 Rain 10 1016 76 10000 4.1 350 17:25 05.10.2019
725 Clouds 10 1015 76 10000 6.7 340 16:59 05.10.2019
726 Clouds 10 1015 76 10000 6.7 340 16:41 05.10.2019
727 Clouds 10 1014 76 10000 5.1 320 16:21 05.10.2019
728 Clouds 10 1014 87 10000 3.6 310 15:57 05.10.2019
729 Clouds 10 1014 87 10000 3.6 310 15:39 05.10.2019
730 Clouds 10 1014 87 10000 4.1 300 15:21 05.10.2019
731 Rain 10 1013 93 10000 4.6 310 14:56 05.10.2019
732 Rain 10 1013 93 10000 4.6 310 14:38 05.10.2019
733 Rain 10 1012 71 10000 6.7 310 14:19 05.10.2019
734 Rain 10 1012 93 6000 5.1 340 13:41 05.10.2019
735 Rain 10 1012 93 4500 8.7 320 13:21 05.10.2019
736 Rain 10 1011 93 3300 6.7 290 12:46 05.10.2019
737 Rain 10 1011 93 2700 5.7 300 12:21 05.10.2019
738 Rain 11 1011 93 10000 7.7 250 11:58 05.10.2019
739 Rain 10 1011 93 3300 6.7 250 11:37 05.10.2019
740 Rain 10 1011 93 3300 6.7 250 11:18 05.10.2019
741 Rain 11 1010 87 10000 7.2 250 10:44 05.10.2019
742 Rain 11 1010 87 10000 7.7 250 10:25 05.10.2019
743 Rain 10 1010 93 10000 6.2 240 09:58 05.10.2019
744 Rain 10 1010 93 10000 6.2 240 09:39 05.10.2019
745 Rain 10 1009 87 10000 7.2 240 09:20 05.10.2019
746 Rain 10 1009 87 10000 7.2 240 09:20 05.10.2019
747 Rain 10 1009 87 10000 8.2 240 08:40 05.10.2019
748 Rain 10 1009 87 10000 6.7 240 08:20 05.10.2019
749 Rain 10 1009 87 10000 7.2 240 07:57 05.10.2019
750 Rain 10 1009 87 10000 7.2 240 07:35 05.10.2019
751 Rain 10 1009 87 10000 6.7 240 06:59 05.10.2019
752 Rain 10 1009 87 10000 7.2 240 06:28 05.10.2019
753 Rain 10 1009 87 10000 7.2 240 06:28 05.10.2019
754 Rain 10 1009 87 10000 8.7 230 05:51 05.10.2019
755 Rain 10 1009 81 10000 7.2 230 04:21 05.10.2019
756 Rain 10 1010 81 10000 8.7 230 03:28 05.10.2019
757 Rain 10 1010 76 10000 6.7 230 01:42 05.10.2019
758 Rain 10 1010 81 10000 6.7 230 01:20 05.10.2019
759 Rain 10 1010 76 10000 6.2 240 00:43 05.10.2019
760 Rain 10 1010 76 10000 6.2 240 00:25 05.10.2019
761 Rain 11 1010 81 10000 7.2 240 23:45 04.10.2019
762 Rain 11 1010 76 10000 6.2 250 23:26 04.10.2019
763 Rain 11 1010 76 10000 6.2 250 23:26 04.10.2019
764 Rain 10 1010 76 10000 6.7 250 22:59 04.10.2019
765 Rain 10 1010 76 10000 6.7 250 22:40 04.10.2019
766 Rain 10 1010 81 10000 6.7 250 22:22 04.10.2019
767 Rain 10 1010 81 10000 5.7 250 21:57 04.10.2019
768 Rain 10 1010 81 10000 5.7 250 21:39 04.10.2019
769 Rain 11 1010 81 10000 6.2 250 21:20 04.10.2019
770 Rain 11 1009 87 10000 5.7 240 20:57 04.10.2019
771 Rain 11 1010 81 10000 6.2 250 20:57 04.10.2019
772 Rain 11 1009 87 10000 5.7 240 20:39 04.10.2019
773 Rain 11 1009 81 10000 4.6 260 20:20 04.10.2019
774 Rain 11 1009 81 10000 6.2 250 19:49 04.10.2019
775 Rain 10 1009 81 10000 6.2 250 19:30 04.10.2019
776 Drizzle 11 1009 81 10000 6.2 250 18:59 04.10.2019
777 Drizzle 11 1009 81 10000 6.2 250 18:39 04.10.2019
778 Rain 11 1008 81 10000 6.7 250 18:19 04.10.2019
779 Rain 11 1009 87 10000 3.6 210 17:57 04.10.2019
780 Rain 11 1009 87 10000 3.6 210 17:38 04.10.2019
781 Rain 11 1009 93 10000 5.1 220 17:20 04.10.2019
782 Rain 11 1009 87 10000 4.1 200 16:55 04.10.2019
783 Clouds 11 1009 87 10000 4.1 200 16:36 04.10.2019
784 Rain 11 1009 93 10000 4.1 180 16:18 04.10.2019
785 Rain 11 1009 87 10000 3.1 190 15:55 04.10.2019
786 Rain 11 1009 87 10000 3.1 190 15:36 04.10.2019
787 Rain 11 1010 87 10000 3.6 200 15:18 04.10.2019
788 Rain 11 1010 76 10000 5.7 240 14:42 04.10.2019
789 Rain 12 1010 66 10000 5.1 260 14:22 04.10.2019
790 Rain 12 1010 57 10000 4.6 240 13:59 04.10.2019
791 Rain 12 1010 57 10000 4.6 240 13:40 04.10.2019
792 Drizzle 11 1011 76 10000 4.6 230 13:19 04.10.2019
793 Clear 11 1012 66 10000 4.1 190 12:45 04.10.2019
794 Rain 10 1012 81 10000 4.1 150 12:27 04.10.2019
795 Rain 10 1012 81 10000 4.1 150 12:27 04.10.2019
796 Rain 10 1012 81 10000 4.1 150 11:56 04.10.2019
797 Clouds 10 1012 81 10000 3.6 160 11:56 04.10.2019
798 Rain 9 1012 81 10000 3.6 160 11:38 04.10.2019
799 Rain 8 1013 87 10000 1.5 200 11:19 04.10.2019
800 Rain 7 1013 93 10000 1 0 10:39 04.10.2019
801 Rain 7 1013 87 10000 1 0 10:20 04.10.2019
802 Clear 7 1013 93 10000 0.5 0 09:45 04.10.2019
803 Clear 7 1013 93 10000 0.5 0 09:45 04.10.2019
804 Clear 6 1013 93 10000 1 0 09:27 04.10.2019
805 Clear 5 1012 93 10000 1.5 140 08:56 04.10.2019
806 Clear 5 1012 93 10000 1.5 140 08:38 04.10.2019
807 Clear 5 1013 100 10000 2.44 155.715 08:19 04.10.2019
808 Clear 4 1013 100 10000 2.6 150 07:44 04.10.2019
809 Clear 4 1013 93 10000 2.1 170 07:22 04.10.2019
810 Clouds 4 1014 93 10000 1.5 170 06:44 04.10.2019
811 Clouds 4 1014 93 10000 1.5 170 06:44 04.10.2019
812 Clouds 3 1014 100 10000 2.1 160 06:25 04.10.2019
813 Clouds 3 1014 100 10000 2.1 160 06:25 04.10.2019
814 Fog 3 1015 100 10000 1 200 05:42 04.10.2019
815 Fog 3 1015 100 10000 1.5 140 05:18 04.10.2019
816 Fog 4 1015 93 10000 1 220 03:48 04.10.2019
817 Clouds 4 1016 93 10000 1 210 02:54 04.10.2019
818 Clouds 4 1016 93 10000 2.17 216.337 02:18 04.10.2019
819 Clouds 4 1017 93 10000 0.5 0 01:42 04.10.2019
820 Clouds 4 1017 93 10000 2.1 170 01:23 04.10.2019
821 Clear 4 1018 100 10000 1.5 160 23:59 03.10.2019
822 Clear 4 1018 93 10000 2.1 200 23:37 03.10.2019
823 Clear 4 1018 100 10000 1 140 23:18 03.10.2019
824 Clear 4 1018 100 10000 1 140 23:18 03.10.2019
825 Clear 4 1018 93 10000 1 0 22:56 03.10.2019
826 Clear 4 1018 93 10000 1 0 22:38 03.10.2019
827 Clear 4 1018 93 10000 1 0 22:38 03.10.2019
828 Clear 4 1018 93 10000 1 140 22:20 03.10.2019
829 Clear 4 1018 93 10000 1 140 21:56 03.10.2019
830 Clear 5 1018 93 10000 1 180 21:37 03.10.2019
831 Clouds 5 1018 100 10000 1.5 160 21:19 03.10.2019
832 Clouds 5 1018 100 10000 1.5 150 20:56 03.10.2019
833 Clouds 6 1018 100 10000 1.5 150 20:37 03.10.2019
834 Clouds 6 1018 100 10000 1.5 150 20:37 03.10.2019
835 Clouds 7 1018 75 10000 2.19 271.412 20:19 03.10.2019
836 Clouds 7 1018 87 10000 1.5 190 19:54 03.10.2019
837 Clouds 9 1018 87 10000 1.5 190 19:36 03.10.2019
838 Clouds 9 1018 66 10000 1 290 19:18 03.10.2019
839 Clouds 10 1018 66 10000 2.6 300 18:40 03.10.2019
840 Clouds 11 1018 61 10000 3.1 300 18:19 03.10.2019
841 Clouds 11 1018 61 10000 3.1 300 18:19 03.10.2019
842 Clouds 11 1018 66 10000 3.6 300 17:59 03.10.2019
843 Clouds 11 1018 66 10000 3.6 300 17:59 03.10.2019
844 Clouds 11 1018 66 10000 3.6 300 17:41 03.10.2019
845 Clouds 11 1018 62 10000 3.6 300 17:19 03.10.2019
846 Clouds 11 1018 61 10000 3.1 280 16:44 03.10.2019
847 Clouds 11 1018 66 10000 4.1 260 16:26 03.10.2019
848 Clouds 11 1018 62 10000 4.1 260 15:57 03.10.2019
849 Clouds 11 1018 62 10000 4.1 260 15:39 03.10.2019
850 Clouds 11 1019 61 10000 4.1 270 15:21 03.10.2019
851 Clouds 11 1019 66 10000 5.1 250 14:47 03.10.2019
852 Clouds 11 1019 61 10000 5.7 240 14:27 03.10.2019
853 Clouds 11 1019 61 10000 5.7 240 13:59 03.10.2019
854 Clouds 10 1019 66 10000 5.1 250 13:41 03.10.2019
855 Clouds 10 1019 70 10000 4.6 280 13:19 03.10.2019
856 Clouds 10 1019 70 10000 4.6 280 12:57 03.10.2019
857 Clouds 10 1020 66 10000 5.7 250 12:38 03.10.2019
858 -273 0 0 0 0 0 12:19 03.10.2019
859 Clouds 9 1020 71 10000 4.6 270 11:55 03.10.2019
860 Clouds 9 1020 71 10000 4.6 270 11:36 03.10.2019
861 Clouds 9 1020 75 10000 5.1 260 11:18 03.10.2019
862 Clouds 8 1020 81 10000 6.2 260 10:41 03.10.2019
863 Clouds 8 1020 81 10000 6.2 240 10:19 03.10.2019
864 Clouds 8 1020 81 10000 6.2 240 09:59 03.10.2019
865 Clear 7 1020 81 10000 5.1 250 09:40 03.10.2019
866 Clear 6 1019 87 10000 5.1 250 09:22 03.10.2019
867 Clear 6 1019 87 10000 5.1 250 08:59 03.10.2019
868 Clear 6 1019 87 10000 4.1 220 08:40 03.10.2019
869 Clear 5 1019 93 10000 3.6 250 08:22 03.10.2019
870 Clear 5 1019 93 10000 4.6 250 07:41 03.10.2019
871 Clear 5 1018 93 10000 3.6 260 07:20 03.10.2019
872 Clear 5 1018 87 10000 3.6 260 06:52 03.10.2019
873 Clear 5 1018 93 10000 3.6 260 06:26 03.10.2019
874 Clear 6 1018 93 10000 4.1 250 05:47 03.10.2019
875 Clear 5 1018 93 10000 3.1 230 05:25 03.10.2019
876 Clear 5 1018 93 10000 3.6 220 04:40 03.10.2019
877 Clear 5 1018 93 10000 4.6 230 03:36 03.10.2019
878 Clouds 5 1018 93 10000 3.6 220 03:18 03.10.2019
879 Clouds 6 1018 87 10000 4.1 240 02:20 03.10.2019
880 Rain 6 1018 93 10000 3.1 230 01:37 03.10.2019
881 Rain 6 1018 93 10000 2.6 210 00:52 03.10.2019
882 Rain 6 1018 93 10000 2.6 210 00:31 03.10.2019
883 Rain 7 1017 87 10000 3.6 360 23:44 02.10.2019
884 Rain 7 1017 93 10000 2.6 240 23:24 02.10.2019
885 Rain 7 1017 93 10000 2.6 240 22:57 02.10.2019
886 Rain 7 1016 93 10000 4.1 240 22:38 02.10.2019
887 Rain 8 1016 93 10000 4.6 260 22:18 02.10.2019
888 Rain 8 1015 100 10000 4.6 250 21:55 02.10.2019
889 Rain 8 1015 100 10000 4.6 250 21:36 02.10.2019
890 Rain 8 1014 93 10000 3.1 270 21:18 02.10.2019
891 Rain 8 1014 93 10000 3.1 270 20:55 02.10.2019
892 Rain 8 1013 87 10000 2.6 290 20:54 02.10.2019
893 Rain 8 1013 87 10000 2.6 290 20:54 02.10.2019
894 Rain 8 1013 87 10000 2.6 290 20:36 02.10.2019
895 Rain 9 1013 93 10000 4.1 300 20:18 02.10.2019
896 Rain 9 1012 93 10000 6.2 300 19:43 02.10.2019
897 Rain 9 1011 93 7000 6.7 310 19:21 02.10.2019
898 Rain 10 1011 93 7000 6.7 310 18:57 02.10.2019
899 Rain 10 1010 93 6000 5.7 310 18:39 02.10.2019
900 Rain 11 1009 93 4500 4.1 320 18:20 02.10.2019
901 Rain 11 1009 93 4500 4.1 320 17:57 02.10.2019
902 Rain 12 1009 93 6000 5.1 310 17:38 02.10.2019
903 Rain 12 1008 87 8000 4.1 270 17:20 02.10.2019
904 Rain 13 1007 93 9000 4.1 270 16:45 02.10.2019
905 Rain 14 1007 87 3000 4.1 260 16:22 02.10.2019
906 Thunderstorm 14 1007 82 10000 4.1 250 15:59 02.10.2019
907 Rain 15 1007 82 10000 4.6 230 15:41 02.10.2019
908 Rain 15 1007 82 10000 4.6 230 15:23 02.10.2019
909 Rain 15 1008 87 10000 6.2 240 14:58 02.10.2019
910 Rain 15 1007 82 10000 4.1 230 14:40 02.10.2019
911 Rain 15 1008 72 6000 5.1 230 14:21 02.10.2019
912 Rain 15 1008 72 10000 4.1 250 13:48 02.10.2019
913 Rain 15 1008 76 10000 5.7 260 13:29 02.10.2019
914 Rain 15 1007 72 10000 9.3 250 12:59 02.10.2019
915 Rain 15 1007 72 10000 6.7 240 12:39 02.10.2019
916 Rain 15 1007 72 10000 6.7 240 12:21 02.10.2019
917 Rain 14 1007 76 8000 5.7 240 11:45 02.10.2019
918 Rain 14 1007 76 10000 6.2 250 11:24 02.10.2019
919 Rain 14 1007 76 10000 6.2 230 10:55 02.10.2019
920 Rain 13 1007 82 10000 6.7 240 10:36 02.10.2019
921 Rain 13 1007 82 10000 6.7 240 10:18 02.10.2019
922 Clear 13 1006 82 10000 6.2 230 09:39 02.10.2019
923 Clear 13 1006 82 10000 6.2 230 09:20 02.10.2019
924 Rain 13 1006 82 10000 5.1 220 08:55 02.10.2019
925 Rain 13 1006 82 10000 5.7 230 08:36 02.10.2019
926 Rain 13 1006 82 10000 5.7 230 08:18 02.10.2019
927 Rain 13 1005 87 10000 5.7 220 07:39 02.10.2019
928 Rain 13 1005 87 10000 4.1 200 07:21 02.10.2019
929 Clouds 13 1005 87 10000 4.6 210 06:48 02.10.2019
930 Rain 13 1005 87 10000 4.6 210 05:56 02.10.2019
931 Rain 13 1006 87 10000 5.1 210 05:25 02.10.2019
932 Rain 13 1006 87 10000 4.6 210 04:56 02.10.2019
933 Rain 14 1006 87 10000 5.1 210 03:53 02.10.2019
934 Rain 14 1006 82 10000 5.1 220 03:19 02.10.2019
935 Rain 14 1007 87 10000 4.6 220 02:24 02.10.2019
936 Rain 14 1007 87 10000 5.7 230 01:52 02.10.2019
937 Rain 15 1007 93 10000 6.2 200 00:51 02.10.2019
938 Rain 15 1007 82 10000 5.7 250 00:29 02.10.2019
939 Rain 15 1007 82 10000 5.7 250 23:54 01.10.2019
940 Rain 16 1007 87 10000 6.2 220 23:36 01.10.2019
941 Rain 16 1007 72 10000 4.1 260 23:18 01.10.2019
942 Rain 16 1007 72 10000 4.1 260 22:57 01.10.2019
943 Rain 16 1007 77 10000 3.6 240 22:36 01.10.2019
944 Rain 16 1007 77 10000 3.6 240 22:18 01.10.2019
945 Rain 16 1007 82 10000 3.6 220 21:42 01.10.2019
946 Rain 16 1007 82 10000 3.6 220 21:22 01.10.2019
947 Rain 16 1007 72 10000 3.1 220 20:57 01.10.2019
948 Rain 16 1007 72 10000 2.6 230 20:38 01.10.2019
949 Rain 16 1005 87 10000 1.5 210 20:20 01.10.2019
950 Rain 16 1007 72 10000 2.6 230 20:20 01.10.2019
951 Rain 16 1006 67 10000 2.1 240 19:57 01.10.2019
952 Clouds 17 1006 63 10000 2.6 200 19:38 01.10.2019
953 Thunderstorm 18 1006 59 10000 2.6 210 19:20 01.10.2019
954 Rain 19 1006 59 10000 2.6 220 18:55 01.10.2019
955 Rain 20 1006 56 10000 3.1 190 18:37 01.10.2019
956 Clear 21 1007 43 10000 2.1 200 18:19 01.10.2019
957 Rain 21 1007 49 10000 1 0 17:43 01.10.2019
958 Rain 22 1007 49 10000 1 0 17:20 01.10.2019
959 Rain 22 1008 49 10000 2.6 280 16:59 01.10.2019
960 Rain 22 1008 43 10000 5.1 240 16:40 01.10.2019
961 Rain 22 1008 43 10000 5.1 240 16:22 01.10.2019
962 Rain 22 1008 43 10000 5.1 240 16:22 01.10.2019
963 Rain 22 1008 46 10000 5.1 230 15:48 01.10.2019
964 Rain 22 1008 40 10000 5.1 220 15:24 01.10.2019
965 Rain 22 1008 40 10000 4.6 240 14:58 01.10.2019
966 Rain 22 1008 43 10000 5.1 240 14:38 01.10.2019
967 Clear 22 1009 37 10000 5.7 230 14:19 01.10.2019
968 Clear 22 1009 46 10000 5.7 250 13:56 01.10.2019
969 Clouds 21 1009 43 10000 5.1 240 13:37 01.10.2019
970 Clear 21 1009 46 10000 4.1 230 13:18 01.10.2019
971 Clear 21 1010 52 10000 4.6 220 12:55 01.10.2019
972 Clear 20 1010 52 10000 5.1 220 12:37 01.10.2019
973 Clear 20 1010 52 10000 5.1 220 12:18 01.10.2019
974 Clear 19 1010 52 10000 5.1 220 11:54 01.10.2019
975 Clear 18 1010 55 10000 4.6 220 11:36 01.10.2019
976 Clear 18 1010 55 10000 4.6 220 11:18 01.10.2019
977 Clear 16 1010 59 10000 4.1 200 10:44 01.10.2019
978 Clear 14 1011 82 10000 2.6 220 10:25 01.10.2019
979 Clear 13 1011 82 10000 2.1 220 09:44 01.10.2019
980 Clear 11 1011 87 10000 3.5 180.425 09:26 01.10.2019
981 Clear 9 1011 93 10000 1 0 08:44 01.10.2019
982 Fog 8 1011 100 10000 0.5 0 08:25 01.10.2019
983 Fog 7 1011 93 10000 2.6 190 07:50 01.10.2019
984 Fog 7 1012 100 10000 0.5 10 07:26 01.10.2019
985 Fog 7 1012 100 10000 0.5 10 07:26 01.10.2019
986 Fog 7 1012 100 10000 2.1 160 06:51 01.10.2019
987 Fog 7 1012 93 10000 2.1 160 06:25 01.10.2019
988 Fog 7 1013 93 10000 2.1 160 05:59 01.10.2019
989 Clouds 7 1013 100 10000 2.1 170 05:40 01.10.2019
990 Fog 7 1013 93 10000 2.6 150 04:42 01.10.2019
991 Clouds 7 1015 93 10000 1.5 160 03:37 01.10.2019
992 Clouds 8 1015 93 10000 2.1 160 02:20 01.10.2019
993 Clouds 8 1015 93 10000 2.1 170 01:55 01.10.2019
994 Clouds 9 1015 87 10000 4.1 180 00:44 01.10.2019
995 Clouds 9 1016 93 10000 2.6 160 00:25 01.10.2019
996 Clouds 10 1016 87 10000 4.1 180 23:42 30.09.2019
997 Clouds 10 1016 81 10000 2.6 150 23:23 30.09.2019
998 Clouds 10 1016 81 10000 1 0 22:58 30.09.2019
999 Clouds 10 1016 81 10000 1.5 0 22:40 30.09.2019
1000 Clouds 11 1016 87 10000 0.5 160 22:21 30.09.2019
1001 Clouds 11 1016 93 10000 1 190 21:55 30.09.2019
1002 Clouds 12 1016 87 10000 1 140 21:37 30.09.2019
1003 Clear 12 1016 71 10000 2.1 240 21:19 30.09.2019
1004 Clear 12 1016 71 10000 2.1 240 20:55 30.09.2019
1005 Clouds 13 1016 71 10000 2.6 190 20:37 30.09.2019
1006 Clear 14 1016 66 10000 2.6 200 20:19 30.09.2019
1007 Clear 14 1016 67 10000 1.5 240 20:19 30.09.2019
1008 Clear 14 1016 67 10000 1.5 240 19:55 30.09.2019
1009 Clouds 15 1016 62 10000 2.1 280 19:37 30.09.2019
1010 Clouds 15 1016 58 10000 2.6 290 19:18 30.09.2019
1011 Clouds 15 1016 58 10000 2.6 290 19:18 30.09.2019
1012 Clouds 16 1016 58 10000 3.1 280 18:41 30.09.2019
1013 Clouds 16 1016 55 10000 4.6 280 18:22 30.09.2019
1014 Clouds 16 1016 55 10000 4.6 290 17:59 30.09.2019
1015 Clouds 17 1016 51 10000 3.6 280 17:39 30.09.2019
1016 Clouds 17 1016 51 10000 3.6 280 17:39 30.09.2019
1017 Clouds 17 1016 59 10000 4.6 280 17:21 30.09.2019
1018 Clouds 17 1016 51 10000 6.2 290 16:56 30.09.2019
1019 Clouds 17 1015 59 10000 6.2 280 16:37 30.09.2019
1020 Clouds 17 1015 59 10000 6.2 280 16:18 30.09.2019
1021 Clouds 17 1015 59 10000 5.1 280 15:55 30.09.2019
1022 Clouds 17 1015 51 10000 5.7 280 15:37 30.09.2019
1023 Clouds 18 1015 55 10000 5.1 280 15:18 30.09.2019
1024 Clouds 18 1015 55 10000 5.1 280 14:57 30.09.2019
1025 Clouds 18 1015 59 10000 7.2 270 14:37 30.09.2019
1026 Clouds 18 1015 59 10000 7.2 270 14:18 30.09.2019
1027 Clouds 18 1015 51 10000 8.2 270 13:44 30.09.2019
1028 Clouds 18 1015 63 10000 7.2 280 13:22 30.09.2019
1029 Clouds 18 1015 63 10000 7.2 280 12:59 30.09.2019
1030 Clouds 17 1015 51 10000 8.2 270 12:40 30.09.2019
1031 Clouds 17 1014 63 10000 8.2 280 12:21 30.09.2019
1032 Clouds 16 1014 59 10000 8.2 270 11:44 30.09.2019
1033 Clouds 16 1013 63 10000 9.8 270 11:22 30.09.2019
1034 Clouds 16 1013 63 10000 9.3 270 10:59 30.09.2019
1035 Clouds 16 1013 67 10000 7.7 270 10:40 30.09.2019
1036 Clouds 16 1012 63 10000 10.8 260 10:19 30.09.2019
1037 Clouds 16 1012 67 10000 10.3 260 10:19 30.09.2019
1038 Clouds 16 1012 67 10000 10.3 260 09:58 30.09.2019
1039 Clouds 15 1011 67 10000 11.8 260 09:39 30.09.2019
1040 Clouds 15 1011 67 10000 11.8 260 09:20 30.09.2019
1041 Rain 15 1011 77 10000 5.1 250 08:46 30.09.2019
1042 Rain 15 1010 72 10000 12.3 260 08:28 30.09.2019
1043 Clouds 16 1009 72 10000 8.7 250 07:45 30.09.2019
1044 Clouds 16 1009 72 10000 8.7 250 07:27 30.09.2019
1045 Clouds 16 1009 63 10000 8.7 250 06:56 30.09.2019
1046 Clouds 16 1009 63 10000 9.3 250 06:34 30.09.2019
1047 Clouds 17 1009 63 10000 9.8 240 05:48 30.09.2019
1048 Clouds 17 1007 55 10000 11.8 240 04:40 30.09.2019
1049 Clouds 18 1007 55 10000 8.7 240 02:48 30.09.2019
1050 Clouds 18 1007 63 10000 5.7 210 01:39 30.09.2019
1051 Rain 18 1007 48 10000 8.7 220 00:43 30.09.2019
1052 Rain 18 1007 48 10000 8.7 220 00:23 30.09.2019
1053 Rain 18 1007 48 10000 10.8 230 23:56 29.09.2019
1054 Rain 18 1008 45 10000 7.7 230 23:38 29.09.2019
1055 Rain 17 1008 45 10000 7.7 230 23:19 29.09.2019
1056 Rain 17 1007 67 10000 5.1 190 22:42 29.09.2019
1057 Rain 17 1008 48 10000 3.6 280 22:23 29.09.2019
1058 Rain 18 1008 52 10000 4.1 230 21:58 29.09.2019
1059 Rain 18 1008 55 10000 4.1 220 21:38 29.09.2019
1060 Rain 18 1008 55 10000 4.1 220 21:19 29.09.2019
1061 Clouds 18 1008 55 10000 3.6 210 20:57 29.09.2019
1062 Clouds 18 1008 55 10000 3.6 210 20:57 29.09.2019
1063 Rain 18 1008 48 10000 4.6 220 20:39 29.09.2019
1064 Rain 18 1008 48 10000 4.6 220 20:19 29.09.2019
1065 Rain 18 1008 48 10000 4.6 220 20:19 29.09.2019
1066 Rain 18 1008 42 10000 5.7 240 19:54 29.09.2019
1067 Clouds 19 1008 42 10000 6.2 240 19:36 29.09.2019
1068 Clouds 19 1008 42 10000 6.2 240 19:18 29.09.2019
1069 Clouds 20 1008 42 10000 6.2 240 18:54 29.09.2019
1070 -273 0 0 0 0 0 18:54 29.09.2019
1071 Clouds 20 1009 42 10000 7.2 240 18:36 29.09.2019
1072 Clouds 21 1009 52 10000 3.6 240 18:18 29.09.2019
1073 Clouds 21 1009 52 10000 3.6 240 17:54 29.09.2019
1074 Clouds 21 1009 52 10000 3.6 240 17:54 29.09.2019
1075 Clouds 22 1009 52 10000 3.1 260 17:36 29.09.2019
1076 Clouds 22 1009 52 10000 3.1 260 17:18 29.09.2019
1077 Clear 22 1010 52 10000 2.6 220 16:41 29.09.2019
1078 Clear 22 1010 52 10000 2.6 220 16:20 29.09.2019
1079 Clouds 22 1010 52 10000 3.1 220 15:59 29.09.2019
1080 Clouds 22 1010 40 10000 6.7 210 15:38 29.09.2019
1081 Clouds 22 1010 49 10000 3.1 230 15:19 29.09.2019
1082 Clouds 21 1011 52 10000 3.6 240 14:58 29.09.2019
1083 Clear 21 1011 56 10000 2.6 210 14:38 29.09.2019
1084 Clear 21 1012 56 10000 3.1 220 14:19 29.09.2019
1085 Clear 21 1012 56 10000 3.1 220 13:57 29.09.2019
1086 Clear 20 1012 55 10000 4.1 220 13:38 29.09.2019
1087 Clear 20 1013 55 10000 3.6 210 13:18 29.09.2019
1088 Clear 20 1012 55 10000 4.1 220 13:18 29.09.2019
1089 Clear 20 1013 55 10000 3.6 210 13:18 29.09.2019
1090 Clear 20 1013 55 10000 3.6 210 12:57 29.09.2019
1091 Clouds 19 1013 55 10000 3.6 220 12:38 29.09.2019
1092 Clear 19 1013 55 10000 3.6 220 12:20 29.09.2019
1093 Clear 18 1014 59 10000 2.6 210 11:55 29.09.2019
1094 Clear 17 1014 67 10000 3.6 180 11:36 29.09.2019
1095 Clear 17 1014 67 10000 3.6 180 11:18 29.09.2019
1096 Clear 16 1014 72 10000 3.6 160 10:55 29.09.2019
1097 Clear 15 1014 76 10000 3.6 150 10:36 29.09.2019
1098 Clear 15 1014 76 10000 3.6 150 10:18 29.09.2019
1099 Clear 13 1014 81 10000 4.1 180 09:42 29.09.2019
1100 Fog 11 1015 93 10000 1.5 170 09:20 29.09.2019
1101 Fog 12 1015 87 10000 4.1 170 09:20 29.09.2019
1102 Fog 10 1015 93 10000 1.5 170 08:55 29.09.2019
1103 Fog 10 1015 93 10000 1 160 08:37 29.09.2019
1104 Fog 9 1015 93 10000 1 160 08:18 29.09.2019
1105 Fog 9 1016 87 10000 3.1 160 07:41 29.09.2019
1106 Fog 9 1016 87 10000 3.1 160 07:22 29.09.2019
1107 Clouds 10 1016 87 10000 1.5 150 06:41 29.09.2019
1108 Clouds 10 1017 81 10000 3.1 210 04:55 29.09.2019
1109 Clouds 10 1017 81 10000 4.1 220 04:24 29.09.2019
1110 Clouds 10 1018 81 10000 3.6 230 03:49 29.09.2019
1111 Clouds 10 1019 87 10000 3.6 220 02:28 29.09.2019
1112 Clouds 10 1019 87 10000 3.6 220 01:51 29.09.2019
1113 Clouds 10 1019 81 10000 3.6 220 01:30 29.09.2019
1114 Clouds 11 1019 87 8000 2.6 200 00:42 29.09.2019
1115 Clouds 11 1019 87 10000 3.6 200 00:19 29.09.2019
1116 Clouds 11 1019 81 8000 2.6 210 23:42 28.09.2019
1117 Clouds 11 1019 87 10000 2.6 210 23:22 28.09.2019
1118 Clouds 11 1019 87 10000 3.6 200 22:56 28.09.2019
1119 Clouds 11 1019 81 8000 2.6 200 22:38 28.09.2019
1120 Clouds 11 1019 81 10000 2.6 210 22:19 28.09.2019
1121 Clouds 11 1019 87 10000 2.1 210 21:56 28.09.2019
1122 Clouds 12 1019 81 10000 3.1 190 21:37 28.09.2019
1123 Clouds 12 1019 81 10000 3.1 190 21:19 28.09.2019
1124 Clouds 12 1019 81 10000 3.1 170 20:57 28.09.2019
1125 Clouds 13 1019 76 10000 2.1 230 20:37 28.09.2019
1126 Clouds 14 1019 71 10000 2.6 240 20:18 28.09.2019
1127 Clouds 14 1019 71 10000 2.6 240 19:55 28.09.2019
1128 Clouds 15 1019 71 10000 3.1 250 19:36 28.09.2019
1129 Clouds 15 1018 67 10000 2.6 230 19:18 28.09.2019
1130 Clouds 16 1018 63 10000 3.6 240 18:42 28.09.2019
1131 Clouds 17 1018 59 10000 4.1 240 18:22 28.09.2019
1132 Clouds 17 1019 59 10000 4.6 240 17:59 28.09.2019
1133 Clouds 17 1019 55 10000 5.7 260 17:40 28.09.2019
1134 Clouds 17 1019 55 10000 5.7 260 17:21 28.09.2019
1135 Clouds 17 1019 59 10000 5.1 240 16:55 28.09.2019
1136 Clouds 18 1019 55 10000 7.7 250 16:37 28.09.2019
1137 Clouds 18 1019 55 10000 7.7 250 16:18 28.09.2019
1138 Clouds 17 1019 59 10000 8.7 250 15:40 28.09.2019
1139 Clouds 18 1019 59 10000 8.7 250 15:22 28.09.2019
1140 Clouds 18 1019 59 10000 7.7 250 14:55 28.09.2019
1141 Rain 17 1019 63 10000 6.2 260 14:37 28.09.2019
1142 Rain 17 1019 63 10000 6.2 260 14:37 28.09.2019
1143 Rain 17 1019 63 10000 6.2 260 14:19 28.09.2019
1144 Clouds 17 1019 63 10000 9.3 250 13:54 28.09.2019
1145 Clouds 17 1019 62 10000 8.2 250 13:36 28.09.2019
1146 Clouds 17 1019 67 10000 8.7 250 13:18 28.09.2019
1147 Clouds 17 1019 67 10000 6.7 250 12:39 28.09.2019
1148 Clouds 16 1020 77 10000 5.1 240 12:19 28.09.2019
1149 Rain 16 1019 72 10000 6.2 220 11:43 28.09.2019
1150 Clouds 15 1020 77 10000 5.1 240 11:21 28.09.2019
1151 Clouds 15 1020 82 10000 6.2 250 10:59 28.09.2019
1152 Rain 15 1019 82 10000 5.7 230 10:39 28.09.2019
1153 Clouds 14 1019 87 10000 5.1 240 10:19 28.09.2019
1154 Rain 14 1018 87 10000 3.6 200 09:42 28.09.2019
1155 Rain 13 1018 87 10000 3.6 200 09:23 28.09.2019
1156 Rain 13 1018 93 10000 4.1 210 08:58 28.09.2019
1157 Rain 13 1018 93 10000 4.1 220 08:40 28.09.2019
1158 Rain 13 1018 93 10000 4.1 220 08:22 28.09.2019
1159 Rain 13 1018 93 10000 3.6 210 07:44 28.09.2019
1160 Rain 13 1018 93 10000 5.1 230 07:21 28.09.2019
1161 Rain 13 1018 100 10000 2.1 180 06:53 28.09.2019
1162 Rain 13 1018 93 10000 2.6 260 06:31 28.09.2019
1163 Rain 13 1018 93 8000 4.1 250 05:47 28.09.2019
1164 Rain 13 1017 93 10000 4.1 230 05:20 28.09.2019
1165 Rain 13 1017 100 10000 3.1 210 04:39 28.09.2019
1166 Rain 13 1016 93 10000 3.6 180 03:55 28.09.2019
1167 Rain 13 1017 93 10000 2.1 180 03:22 28.09.2019
1168 Rain 13 1017 93 10000 2.1 180 02:48 28.09.2019
1169 Rain 13 1017 93 8000 2.1 210 02:30 28.09.2019
1170 Rain 13 1017 93 10000 2.6 190 01:48 28.09.2019
1171 Rain 13 1016 93 10000 2.1 200 01:26 28.09.2019
1172 Rain 13 1017 93 10000 2.6 250 00:55 28.09.2019
1173 Rain 13 1017 87 10000 3.1 240 00:36 28.09.2019
1174 Rain 13 1017 87 10000 3.1 240 00:18 28.09.2019
1175 Rain 14 1016 77 10000 2.6 250 23:37 27.09.2019
1176 Rain 14 1016 77 10000 3.1 260 23:19 27.09.2019
1177 Rain 14 1016 77 10000 3.1 260 22:45 27.09.2019
1178 Clouds 14 1016 67 10000 3.6 250 22:19 27.09.2019
1179 Clouds 15 1016 67 10000 3.6 250 21:57 27.09.2019
1180 Clouds 15 1016 72 10000 4.6 240 21:37 27.09.2019
1181 Rain 15 1016 72 10000 4.6 240 21:19 27.09.2019
1182 Rain 15 1015 77 10000 5.1 230 20:58 27.09.2019
1183 Rain 15 1015 82 10000 3.6 230 20:39 27.09.2019
1184 Rain 15 1015 82 10000 3.6 230 20:19 27.09.2019
1185 Rain 15 1015 82 10000 3.1 270 19:57 27.09.2019
1186 Thunderstorm 16 1015 82 10000 3.1 310 19:38 27.09.2019
1187 Thunderstorm 16 1015 82 10000 3.1 310 19:19 27.09.2019
1188 Thunderstorm 17 1014 60 10000 5.1 250 18:41 27.09.2019
1189 Thunderstorm 18 1014 60 10000 5.1 250 18:23 27.09.2019
1190 Rain 19 1014 60 10000 4.6 250 17:56 27.09.2019
1191 Rain 19 1014 60 10000 4.6 250 17:56 27.09.2019
1192 Rain 19 1014 60 10000 5.7 250 17:37 27.09.2019
1193 Rain 19 1014 60 10000 5.7 250 17:19 27.09.2019
1194 Rain 20 1014 56 10000 6.7 240 16:57 27.09.2019
1195 Clouds 21 1014 56 10000 6.7 240 16:37 27.09.2019
1196 Clouds 21 1014 56 10000 6.7 240 16:18 27.09.2019
1197 Clouds 21 1014 56 10000 6.7 240 16:18 27.09.2019
1198 Clouds 21 1014 56 10000 6.7 240 16:18 27.09.2019
1199 Rain 21 1014 60 10000 5.7 230 15:45 27.09.2019
1200 Clouds 21 1014 68 10000 4.6 230 15:21 27.09.2019
1201 Clouds 21 1014 68 10000 4.6 230 15:21 27.09.2019
1202 Clouds 21 1014 68 10000 5.1 200 14:59 27.09.2019
1203 Clear 21 1014 64 10000 5.7 220 14:41 27.09.2019
1204 Clouds 21 1015 64 10000 3.6 210 14:21 27.09.2019
1205 Clouds 21 1015 64 10000 3.6 210 13:58 27.09.2019
1206 Clouds 21 1014 60 10000 6.2 230 13:39 27.09.2019
1207 Clouds 21 1015 63 10000 3.1 210 13:21 27.09.2019
1208 Clouds 21 1015 63 10000 3.1 210 13:21 27.09.2019
1209 Clouds 21 1015 63 10000 3.1 210 13:21 27.09.2019
1210 Clouds 20 1015 63 10000 4.1 240 12:54 27.09.2019
1211 Clear 19 1015 63 10000 3.1 230 12:24 27.09.2019
1212 Clear 19 1015 68 10000 3.1 200 11:59 27.09.2019
1213 Clear 18 1016 77 10000 3.1 160 11:38 27.09.2019
1214 Clear 18 1016 77 10000 3.1 160 11:20 27.09.2019
1215 Clear 17 1016 82 10000 2.6 180 10:54 27.09.2019
1216 Clear 17 1016 77 10000 2.1 150 10:36 27.09.2019
1217 Clear 16 1016 77 10000 2.1 150 10:18 27.09.2019
1218 Clouds 16 1016 82 10000 3.6 150 09:41 27.09.2019
1219 Clouds 15 1016 82 10000 3.6 150 09:20 27.09.2019
1220 Clouds 15 1016 93 10000 2.6 160 08:55 27.09.2019
1221 Clouds 15 1016 77 10000 3.1 190 08:37 27.09.2019
1222 Clouds 14 1016 82 10000 3.1 200 08:19 27.09.2019
1223 Clouds 14 1016 82 10000 4.1 190 07:45 27.09.2019
1224 Clouds 14 1016 82 10000 3.6 200 07:21 27.09.2019
1225 Clouds 14 1016 82 10000 4.1 180 06:41 27.09.2019
1226 Clouds 14 1016 82 10000 3.1 200 06:22 27.09.2019
1227 Clouds 15 1016 82 10000 3.1 200 05:49 27.09.2019
1228 Clouds 15 1017 82 10000 4.1 210 05:30 27.09.2019
1229 Clouds 15 1017 82 10000 4.1 220 03:54 27.09.2019
1230 Clouds 15 1017 87 10000 3.6 200 01:59 27.09.2019
1231 Clouds 14 1017 82 10000 3.6 210 01:37 27.09.2019
1232 Clouds 15 1017 87 10000 3.6 220 00:59 27.09.2019
1233 Rain 15 1017 87 10000 3.6 220 00:19 27.09.2019
1234 Rain 15 1017 82 10000 2.6 210 23:56 26.09.2019
1235 Drizzle 15 1017 82 10000 3.6 200 23:37 26.09.2019
1236 Drizzle 15 1017 82 10000 3.6 200 23:18 26.09.2019
1237 Drizzle 15 1017 87 10000 3.1 200 22:55 26.09.2019
1238 Drizzle 15 1017 87 10000 3.1 200 22:55 26.09.2019
1239 Rain 15 1017 87 10000 4.6 210 22:37 26.09.2019
1240 Rain 15 1017 87 10000 4.6 210 22:18 26.09.2019
1241 Rain 15 1017 87 10000 3.6 210 21:55 26.09.2019
1242 Rain 15 1017 87 10000 3.1 220 21:36 26.09.2019
1243 Rain 15 1017 87 10000 3.1 220 21:18 26.09.2019
1244 Rain 15 1017 87 10000 3.1 220 21:18 26.09.2019
1245 Rain 15 1017 87 10000 3.6 210 20:56 26.09.2019
1246 Rain 15 1017 87 10000 3.1 200 20:38 26.09.2019
1247 Rain 15 1017 87 10000 3.1 200 20:38 26.09.2019
1248 Rain 15 1017 87 10000 3.1 200 20:20 26.09.2019
1249 Drizzle 15 1017 87 10000 2.6 200 19:40 26.09.2019
1250 Drizzle 15 1017 87 10000 2.6 200 19:19 26.09.2019
1251 Rain 15 1017 93 10000 3.1 210 18:59 26.09.2019
1252 Rain 15 1016 93 10000 3.6 210 18:40 26.09.2019
1253 Rain 16 1016 93 10000 3.6 210 18:22 26.09.2019
1254 Rain 16 1017 93 10000 4.1 220 17:57 26.09.2019
1255 Rain 16 1017 93 10000 4.1 230 17:37 26.09.2019
1256 Rain 16 1017 93 10000 4.1 230 17:18 26.09.2019
1257 -273 0 0 0 0 0 16:54 26.09.2019
1258 Rain 16 1016 87 10000 5.1 230 16:36 26.09.2019
1259 Rain 16 1015 77 10000 2.6 230 16:18 26.09.2019
1260 Rain 16 1016 77 10000 4.1 240 15:40 26.09.2019
1261 Rain 16 1016 77 10000 4.1 240 15:22 26.09.2019
1262 Rain 16 1016 77 10000 4.1 240 15:22 26.09.2019
1263 Rain 16 1016 77 10000 3.6 230 14:58 26.09.2019
1264 Rain 16 1016 82 10000 5.1 230 14:39 26.09.2019
1265 Drizzle 16 1016 82 10000 3.6 240 14:21 26.09.2019
1266 Drizzle 16 1016 82 7000 4.6 220 13:55 26.09.2019
1267 Rain 16 1016 82 10000 4.6 220 13:37 26.09.2019
1268 Clouds 16 1016 77 10000 5.7 230 13:18 26.09.2019
1269 Clouds 16 1016 77 10000 5.1 230 12:41 26.09.2019
1270 Clouds 16 1016 77 10000 6.2 210 12:22 26.09.2019
1271 Clouds 16 1016 77 10000 5.1 210 11:57 26.09.2019
1272 Clouds 16 1016 77 10000 4.6 220 11:38 26.09.2019
1273 Clouds 16 1015 77 10000 4.1 250 11:19 26.09.2019
1274 Clouds 15 1015 82 10000 4.6 220 10:42 26.09.2019
1275 Clouds 15 1015 82 10000 4.6 220 10:23 26.09.2019
1276 Clouds 14 1015 82 10000 4.6 230 09:58 26.09.2019
1277 Clouds 14 1015 87 10000 3.6 220 09:39 26.09.2019
1278 Rain 13 1015 87 6000 2.6 220 09:19 26.09.2019
1279 Clouds 12 1014 82 10000 2.6 190 08:50 26.09.2019
1280 Fog 12 1014 87 10000 2.6 200 08:31 26.09.2019
1281 Clouds 11 1014 93 10000 3.6 230 07:47 26.09.2019
1282 Clouds 11 1014 87 10000 3.1 220 07:22 26.09.2019
1283 Clouds 12 1014 87 10000 3.1 220 06:53 26.09.2019
1284 Rain 12 1014 87 10000 3.1 220 06:28 26.09.2019
1285 Rain 12 1014 87 10000 4.1 220 05:59 26.09.2019
1286 Rain 12 1013 87 10000 3.6 220 05:29 26.09.2019
1287 Rain 12 1013 87 10000 4.1 230 03:51 26.09.2019
1288 Rain 12 1013 87 10000 4.1 220 02:33 26.09.2019
1289 Rain 12 1013 87 10000 4.1 220 01:48 26.09.2019
1290 Rain 12 1013 82 10000 3.6 220 01:22 26.09.2019
1291 Rain 12 1013 87 10000 3.1 210 00:46 26.09.2019
1292 Rain 12 1013 87 10000 3.1 210 00:25 26.09.2019
1293 Rain 12 1013 87 10000 2.6 200 23:44 25.09.2019
1294 Rain 12 1013 87 10000 3.6 220 23:25 25.09.2019
1295 Rain 12 1013 87 10000 3.1 220 22:56 25.09.2019
1296 Rain 12 1012 87 10000 2.6 190 22:37 25.09.2019
1297 Rain 12 1012 87 10000 2.6 190 22:37 25.09.2019
1298 Rain 12 1012 87 10000 2.6 190 22:19 25.09.2019
1299 Rain 13 1012 87 10000 2.1 190 21:56 25.09.2019
1300 Rain 13 1013 87 10000 2.1 210 21:37 25.09.2019
1301 Rain 13 1013 87 10000 2.1 210 21:18 25.09.2019
1302 Rain 13 1012 81 10000 2.1 240 20:56 25.09.2019
1303 Rain 13 1012 67 10000 2.6 270 20:37 25.09.2019
1304 Rain 14 1012 67 10000 2.6 270 20:19 25.09.2019
1305 Rain 14 1012 71 10000 2.1 270 19:41 25.09.2019
1306 Rain 14 1012 62 10000 5.7 260 19:21 25.09.2019
1307 Rain 15 1011 67 10000 4.1 250 18:57 25.09.2019
1308 Rain 15 1011 67 10000 5.1 240 18:39 25.09.2019
1309 Rain 16 1011 67 10000 5.1 240 18:20 25.09.2019
1310 Rain 16 1011 59 10000 5.7 240 17:58 25.09.2019
1311 Rain 16 1011 59 10000 7.7 240 17:36 25.09.2019
1312 Rain 16 1011 59 10000 7.7 240 17:18 25.09.2019
1313 Clouds 17 1011 67 10000 2.6 200 16:44 25.09.2019
1314 Rain 17 1011 59 10000 3.6 280 16:26 25.09.2019
1315 Clouds 17 1011 59 10000 5.7 270 15:57 25.09.2019
1316 Rain 18 1011 55 10000 6.7 240 15:39 25.09.2019
1317 Rain 17 1011 55 10000 6.7 240 15:21 25.09.2019
1318 Rain 17 1011 59 10000 6.7 250 14:54 25.09.2019
1319 Rain 17 1011 59 10000 6.2 250 14:36 25.09.2019
1320 Rain 17 1011 59 10000 6.2 250 14:18 25.09.2019
1321 Rain 17 1010 77 8000 3.6 270 13:41 25.09.2019
1322 Rain 18 1012 63 10000 6.2 240 13:20 25.09.2019
1323 Rain 18 1012 63 10000 6.2 250 12:58 25.09.2019
1324 Clouds 18 1012 67 10000 6.2 240 12:39 25.09.2019
1325 Clouds 17 1012 67 10000 6.2 240 12:21 25.09.2019
1326 Clouds 16 1012 67 10000 7.2 220 11:42 25.09.2019
1327 Clouds 16 1012 72 10000 7.7 230 11:22 25.09.2019
1328 Clouds 15 1012 77 10000 5.1 230 10:58 25.09.2019
1329 Clouds 15 1012 82 10000 5.1 230 10:39 25.09.2019
1330 Clouds 15 1012 82 10000 5.1 230 10:19 25.09.2019
1331 Clouds 15 1012 82 10000 5.1 230 10:19 25.09.2019
1332 Clear 14 1012 76 10000 5.1 220 09:55 25.09.2019
1333 Clear 14 1011 82 10000 3.6 230 09:36 25.09.2019
1334 Clear 14 1011 87 10000 3.1 230 09:18 25.09.2019
1335 Clouds 13 1011 87 10000 4.1 220 08:41 25.09.2019
1336 Rain 13 1011 87 10000 3.6 210 08:21 25.09.2019
1337 Rain 13 1011 87 10000 3.6 220 07:56 25.09.2019
1338 Rain 13 1011 87 10000 4.1 230 07:37 25.09.2019
1339 Rain 13 1011 82 10000 5.1 230 07:19 25.09.2019
1340 Clear 13 1010 93 10000 2.6 220 06:38 25.09.2019
1341 Clear 13 1010 93 10000 2.6 220 06:18 25.09.2019
1342 Rain 13 1011 93 10000 4.1 220 05:27 25.09.2019
1343 Rain 13 1011 93 10000 4.1 220 04:50 25.09.2019
1344 Clouds 13 1011 87 10000 4.1 220 02:19 25.09.2019
1345 Clouds 13 1011 82 10000 2.6 210 00:45 25.09.2019
1346 Rain 13 1012 93 10000 2.1 190 00:24 25.09.2019
1347 Rain 13 1012 93 10000 1.5 230 23:57 24.09.2019
1348 Rain 13 1012 87 10000 3.1 220 23:38 24.09.2019
1349 Rain 13 1012 87 10000 3.1 220 23:19 24.09.2019
1350 Rain 14 1012 87 10000 4.1 220 22:39 24.09.2019
1351 Rain 14 1012 87 10000 4.1 220 22:20 24.09.2019
1352 Rain 14 1012 82 10000 3.6 200 21:58 24.09.2019
1353 Rain 14 1012 87 10000 1.5 200 21:37 24.09.2019
1354 Rain 14 1012 87 10000 1.5 200 21:19 24.09.2019
1355 Rain 14 1012 87 10000 2.6 200 21:19 24.09.2019
1356 Rain 14 1012 87 10000 2.6 200 20:58 24.09.2019
1357 Rain 14 1012 82 10000 2.1 210 20:40 24.09.2019
1358 Rain 15 1012 87 10000 1.5 200 20:21 24.09.2019
1359 Rain 15 1012 82 10000 1.5 170 19:57 24.09.2019
1360 Rain 15 1012 82 10000 1.5 180 19:39 24.09.2019
1361 Rain 16 1012 77 10000 1.5 100 19:18 24.09.2019
1362 Rain 16 1012 77 10000 1.5 100 18:55 24.09.2019
1363 Clear 16 1012 77 10000 1.5 130 18:36 24.09.2019
1364 Clear 16 1012 77 10000 1.5 130 18:18 24.09.2019
1365 Clear 17 1012 67 10000 1 120 17:54 24.09.2019
1366 Clear 17 1012 67 10000 1.5 110 17:36 24.09.2019
1367 Clear 17 1012 67 10000 1.5 110 17:18 24.09.2019
1368 Clouds 17 1012 63 10000 1 70 16:41 24.09.2019
1369 Clear 18 1012 63 10000 2.1 90 16:19 24.09.2019
1370 Clear 18 1012 63 10000 3.1 100 15:57 24.09.2019
1371 Clear 18 1012 59 10000 3.1 100 15:37 24.09.2019
1372 Clear 18 1012 59 10000 3.1 100 15:19 24.09.2019
1373 Clouds 18 1013 63 10000 3.6 60 14:37 24.09.2019
1374 Clouds 18 1013 63 10000 3.6 60 14:18 24.09.2019
1375 Clouds 18 1013 63 10000 3.6 60 13:41 24.09.2019
1376 Clouds 18 1014 67 10000 2.6 110 13:21 24.09.2019
1377 Clouds 17 1014 72 10000 3.1 90 12:42 24.09.2019
1378 Fog 17 1015 77 10000 3.1 110 12:22 24.09.2019
1379 Fog 17 1015 77 10000 3.1 110 11:58 24.09.2019
1380 Fog 17 1015 77 10000 3.1 110 11:58 24.09.2019
1381 Fog 16 1016 77 10000 2.6 100 11:40 24.09.2019
1382 Fog 15 1016 77 10000 2.6 100 11:21 24.09.2019
1383 Fog 14 1016 82 10000 1 0 10:42 24.09.2019
1384 Fog 13 1016 82 10000 1 0 10:22 24.09.2019
1385 Fog 12 1017 82 10000 0.5 0 09:59 24.09.2019
1386 Fog 12 1017 87 10000 1 0 09:41 24.09.2019
1387 Fog 11 1017 87 10000 1 0 09:20 24.09.2019
1388 Fog 10 1017 100 10000 1 0 08:56 24.09.2019
1389 Fog 10 1016 100 10000 1 230 08:38 24.09.2019
1390 Fog 10 1017 93 500 2.6 270 08:38 24.09.2019
1391 Fog 9 1016 100 10000 1 230 08:19 24.09.2019
1392 Fog 9 1016 100 10000 1.5 150 07:46 24.09.2019
1393 Fog 9 1017 93 10000 2.6 180 07:25 24.09.2019
1394 Fog 9 1017 93 10000 2.6 180 06:51 24.09.2019
1395 Fog 10 1017 100 10000 2.1 160 06:32 24.09.2019
1396 Fog 10 1017 93 7000 3.6 260 05:51 24.09.2019
1397 Clouds 10 1018 100 10000 1.5 180 05:18 24.09.2019
1398 Clouds 11 1018 93 10000 1 0 03:44 24.09.2019
1399 Clouds 11 1019 93 10000 1.5 210 02:48 24.09.2019
1400 Clouds 11 1019 93 10000 2.6 210 02:30 24.09.2019
1401 Clouds 11 1019 93 10000 2.1 180 01:22 24.09.2019
1402 Clouds 12 1019 93 10000 3.6 220 00:37 24.09.2019
1403 Clouds 12 1019 93 10000 3.6 220 00:18 24.09.2019
1404 Rain 12 1019 93 10000 2.6 200 23:40 23.09.2019
1405 Rain 12 1019 100 10000 3.1 210 23:21 23.09.2019
1406 Rain 12 1019 93 10000 3.6 210 22:40 23.09.2019
1407 Rain 12 1019 93 10000 3.6 210 22:21 23.09.2019
1408 Rain 12 1019 93 10000 3.6 220 21:58 23.09.2019
1409 Rain 12 1019 93 8000 3.6 220 21:40 23.09.2019
1410 Rain 12 1019 93 8000 3.6 220 21:19 23.09.2019
1411 Rain 12 1019 93 8000 3.1 220 20:55 23.09.2019
1412 Rain 12 1019 93 8000 3.1 220 20:36 23.09.2019
1413 Rain 13 1018 93 8000 3.6 220 20:18 23.09.2019
1414 Rain 13 1018 93 9000 3.6 230 19:39 23.09.2019
1415 Rain 13 1018 93 9000 3.6 230 19:39 23.09.2019
1416 Rain 13 1018 93 9000 3.6 230 19:21 23.09.2019
1417 Rain 13 1018 93 9000 4.1 230 18:58 23.09.2019
1418 Rain 13 1018 87 8000 4.6 230 18:39 23.09.2019
1419 Rain 13 1018 87 8000 4.6 230 18:18 23.09.2019
1420 Rain 13 1018 87 9000 4.1 230 17:56 23.09.2019
1421 Rain 13 1018 100 9000 4.1 230 17:37 23.09.2019
1422 Rain 13 1018 100 9000 4.1 230 17:19 23.09.2019
1423 Rain 13 1018 93 4000 4.1 240 16:54 23.09.2019
1424 Rain 14 1018 93 8000 3.6 220 16:36 23.09.2019
1425 Rain 14 1018 93 7000 3.6 220 16:18 23.09.2019
1426 Rain 14 1018 93 7000 3.6 220 15:54 23.09.2019
1427 Rain 14 1018 93 7000 5.1 230 15:36 23.09.2019
1428 Rain 14 1018 93 7000 5.1 230 15:18 23.09.2019
1429 Rain 14 1018 93 10000 6.2 240 14:39 23.09.2019
1430 Rain 14 1018 93 10000 6.2 240 14:20 23.09.2019
1431 Rain 13 1017 93 10000 5.1 240 13:58 23.09.2019
1432 Rain 13 1017 93 8000 4.6 250 13:37 23.09.2019
1433 Rain 13 1017 93 7000 4.6 260 13:18 23.09.2019
1434 Rain 13 1017 87 10000 5.1 260 12:43 23.09.2019
1435 Rain 13 1017 93 3500 5.7 240 12:22 23.09.2019
1436 Rain 13 1018 93 7000 5.1 280 11:57 23.09.2019
1437 Rain 13 1017 93 4300 3.6 260 11:39 23.09.2019
1438 Rain 13 1017 93 4300 3.6 260 11:20 23.09.2019
1439 Rain 13 1017 93 3700 3.1 260 10:49 23.09.2019
1440 Rain 13 1017 93 9000 4.6 260 10:21 23.09.2019
1441 Rain 13 1016 93 9000 5.7 250 09:56 23.09.2019
1442 Rain 13 1016 93 9000 6.2 250 09:37 23.09.2019
1443 Rain 13 1016 93 9000 6.2 250 09:19 23.09.2019
1444 Rain 13 1016 93 9000 6.2 250 09:19 23.09.2019
1445 Rain 13 1015 93 7000 6.7 250 08:44 23.09.2019
1446 Rain 13 1015 93 7000 6.7 250 08:25 23.09.2019
1447 Drizzle 13 1015 93 9000 5.7 260 07:47 23.09.2019
1448 Drizzle 13 1014 87 10000 8.2 240 07:27 23.09.2019
1449 Rain 13 1013 87 10000 8.7 250 06:24 23.09.2019
1450 Fog 12 1013 87 10000 4.1 240 05:48 23.09.2019
1451 Fog 12 1012 87 10000 4.6 230 05:20 23.09.2019
1452 Fog 12 1012 100 10000 4.6 220 04:54 23.09.2019
1453 Fog 10 1012 100 550 2.1 220 02:37 23.09.2019
1454 Clouds 11 1011 93 10000 1 170 00:46 23.09.2019
1455 Clouds 11 1011 100 10000 1.87 145.103 00:22 23.09.2019
1456 Clouds 12 1011 87 10000 1 300 23:52 22.09.2019
1457 Clouds 12 1011 100 10000 0.5 0 23:32 22.09.2019
1458 Clouds 12 1011 93 10000 1.5 220 22:58 22.09.2019
1459 Clouds 13 1012 93 10000 0.5 0 22:40 22.09.2019
1460 Clouds 13 1012 93 10000 0.5 0 22:40 22.09.2019
1461 Clouds 13 1012 93 10000 0.5 0 22:22 22.09.2019
1462 Clouds 14 1011 93 10000 0.5 90 21:43 22.09.2019
1463 Clouds 14 1012 93 10000 1 0 21:22 22.09.2019
1464 Clouds 14 1012 93 10000 1 0 21:22 22.09.2019
1465 Clouds 15 1011 93 10000 0.5 0 20:58 22.09.2019
1466 Clouds 16 1011 87 10000 0.5 60 20:40 22.09.2019
1467 Clouds 16 1011 87 10000 0.5 60 20:40 22.09.2019
1468 Clouds 16 1011 87 10000 0.5 60 20:22 22.09.2019
1469 Rain 17 1011 82 10000 1.5 70 19:42 22.09.2019
1470 Rain 18 1011 77 10000 2.6 30 19:24 22.09.2019
1471 Clouds 18 1012 72 10000 2.6 10 18:59 22.09.2019
1472 Clouds 19 1012 68 10000 2.6 30 18:41 22.09.2019
1473 Clouds 19 1012 68 10000 2.6 30 18:20 22.09.2019
1474 Clouds 19 1012 68 10000 2.6 40 17:59 22.09.2019
1475 Clouds 19 1011 59 10000 1 0 17:41 22.09.2019
1476 Clouds 20 1012 68 10000 2.1 20 17:20 22.09.2019
1477 Clouds 20 1011 52 10000 1.5 150 16:45 22.09.2019
1478 Clear 20 1012 68 10000 1.5 60 16:27 22.09.2019
1479 Clear 20 1012 68 10000 1.5 20 15:58 22.09.2019
1480 Clear 20 1012 72 10000 1.5 0 15:40 22.09.2019
1481 Clear 20 1012 72 10000 1.5 0 15:21 22.09.2019
1482 Clear 20 1012 72 10000 1.5 0 15:21 22.09.2019
1483 Clear 19 1012 72 10000 2.6 20 14:46 22.09.2019
1484 Clear 19 1013 72 10000 2.1 40 14:26 22.09.2019
1485 Clear 18 1013 72 10000 2.1 10 13:59 22.09.2019
1486 Clouds 18 1013 72 10000 1 0 13:41 22.09.2019
1487 Clouds 17 1013 72 10000 1 0 13:22 22.09.2019
1488 Clear 17 1013 77 10000 1 0 12:56 22.09.2019
1489 Clear 17 1013 82 10000 1.5 360 12:38 22.09.2019
1490 Clear 16 1013 82 10000 1.5 20 12:18 22.09.2019
1491 Clouds 15 1013 82 10000 1 0 11:43 22.09.2019
1492 Clouds 14 1014 82 10000 2.19 121.018 11:24 22.09.2019
1493 Clouds 14 1014 82 10000 2.19 121.018 10:55 22.09.2019
1494 Clouds 14 1014 82 10000 2.19 121.018 10:55 22.09.2019
1495 Clouds 13 1014 82 10000 2.19 121.018 10:37 22.09.2019
1496 Clouds 13 1014 82 10000 2.19 121.018 10:19 22.09.2019
1497 Clouds 13 1014 82 10000 2.19 121.018 10:19 22.09.2019
1498 Clouds 11 1014 76 10000 2.6 80 09:42 22.09.2019
1499 Fog 9 1014 93 10000 2.13 116.77 09:21 22.09.2019
1500 Fog 9 1014 93 10000 2.13 116.77 09:21 22.09.2019
1501 Fog 8 1014 100 10000 0.5 0 08:55 22.09.2019
1502 Fog 7 1014 93 10000 1.5 140 08:37 22.09.2019
1503 Fog 7 1014 100 10000 1 0 08:18 22.09.2019
1504 Clouds 6 1014 100 10000 0.5 0 07:41 22.09.2019
1505 Clouds 6 1014 100 10000 0.5 0 07:23 22.09.2019
1506 Clouds 6 1014 100 10000 1.61 127.79 06:56 22.09.2019
1507 Fog 6 1014 93 10000 0.5 0 05:45 22.09.2019
1508 Clear 7 1015 100 10000 1 120 03:54 22.09.2019
1509 Clear 8 1015 93 10000 1 0 02:44 22.09.2019
1510 Clear 7 1015 93 10000 2.9 104.587 02:24 22.09.2019
1511 Clear 8 1015 93 10000 1 0 01:35 22.09.2019
1512 Clear 8 1016 87 10000 1 40 00:44 22.09.2019
1513 Clear 8 1016 93 10000 1 60 00:26 22.09.2019
1514 Clear 9 1017 81 10000 1 80 23:47 21.09.2019
1515 Clear 9 1017 93 10000 3.3 90.643 23:27 21.09.2019
1516 Clear 9 1017 87 10000 0.5 180 22:43 21.09.2019
1517 Clear 9 1017 81 10000 1 70 22:43 21.09.2019
1518 Clear 10 1017 93 10000 1 0 22:24 21.09.2019
1519 Clear 11 1017 87 10000 1 0 21:59 21.09.2019
1520 Clear 11 1017 66 10000 0.5 0 21:41 21.09.2019
1521 Clear 12 1017 81 10000 1.5 50 21:19 21.09.2019
1522 Clear 13 1017 76 10000 1 0 20:56 21.09.2019
1523 Clear 14 1017 67 10000 1.5 100 20:36 21.09.2019
1524 Clear 15 1017 62 10000 2.1 80 20:18 21.09.2019
1525 Clear 17 1017 45 10000 2.1 80 19:43 21.09.2019
1526 Clear 17 1018 48 10000 4.1 90 19:19 21.09.2019
1527 Clear 20 1018 40 10000 2.1 90 18:40 21.09.2019
1528 Clear 20 1018 48 10000 4.6 70 18:21 21.09.2019
1529 Clear 20 1018 35 10000 4.1 90 17:43 21.09.2019
1530 Clear 21 1018 45 10000 3.6 50 17:23 21.09.2019
1531 Clear 21 1019 48 10000 4.6 50 16:57 21.09.2019
1532 Clear 20 1019 48 10000 4.1 50 16:38 21.09.2019
1533 Clear 21 1019 48 10000 4.1 50 16:19 21.09.2019
1534 Clear 21 1020 48 10000 4.1 50 15:44 21.09.2019
1535 Clear 20 1020 48 10000 4.1 40 15:22 21.09.2019
1536 Clear 20 1020 34 10000 2.6 110 14:49 21.09.2019
1537 Clear 20 1020 48 10000 3.1 50 14:31 21.09.2019
1538 Clear 19 1021 52 10000 3.1 50 13:55 21.09.2019
1539 Clear 18 1021 55 10000 2.1 10 13:36 21.09.2019
1540 Clear 18 1021 55 10000 3.1 20 13:18 21.09.2019
1541 Clear 18 1021 55 10000 3.1 20 12:55 21.09.2019
1542 Clear 17 1021 58 10000 2.6 350 12:36 21.09.2019
1543 Clear 16 1022 62 10000 1 0 12:18 21.09.2019
1544 Clear 15 1022 38 10000 3.6 110 11:42 21.09.2019
1545 Clear 14 1022 66 10000 1 0 11:23 21.09.2019
1546 Clear 13 1023 54 10000 2.6 60 10:45 21.09.2019
1547 Clear 11 1022 76 10000 2.1 20 10:25 21.09.2019
1548 Clear 10 1022 76 10000 1.5 50 09:59 21.09.2019
1549 Clear 9 1022 81 10000 1 0 09:39 21.09.2019
1550 Clear 8 1022 81 10000 1 0 09:20 21.09.2019
1551 Clear 7 1022 87 10000 0.5 0 08:52 21.09.2019
1552 Fog 5 1022 86 10000 1.5 30 08:29 21.09.2019
1553 Clear 3 1022 93 10000 1 0 07:43 21.09.2019
1554 Clear 3 1022 93 10000 1 0 07:24 21.09.2019
1555 Clear 3 1022 93 10000 1 0 06:59 21.09.2019
1556 Clear 3 1022 86 10000 2.6 30 06:34 21.09.2019
1557 Clear 4 1022 80 10000 1 30 05:36 21.09.2019
1558 Clear 4 1023 80 10000 0.5 0 04:37 21.09.2019
1559 Clear 5 1023 86 10000 1 0 03:22 21.09.2019
1560 Clear 5 1024 75 10000 2.1 40 02:21 21.09.2019
1561 Clear 5 1024 86 10000 1 40 01:46 21.09.2019
1562 Clear 6 1025 80 10000 1.5 80 00:58 21.09.2019
1563 Clear 6 1025 80 10000 2.1 90 00:22 21.09.2019
1564 Clear 6 1026 81 10000 1.5 80 23:48 20.09.2019
1565 Clear 7 1025 80 10000 2.6 90 23:29 20.09.2019
1566 Clear 7 1026 87 10000 0.5 0 22:44 20.09.2019
1567 Clear 8 1025 70 10000 1.5 70 22:25 20.09.2019
1568 Clear 8 1026 70 10000 1.5 80 21:57 20.09.2019
1569 Clear 8 1026 81 10000 3.29 99.153 21:39 20.09.2019
1570 Clear 9 1026 70 10000 2.6 100 21:21 20.09.2019
1571 Clear 9 1026 66 10000 2.6 90 20:59 20.09.2019
1572 Clear 9 1026 66 10000 2.6 90 20:59 20.09.2019
1573 Clear 11 1026 61 10000 2.1 70 20:41 20.09.2019
1574 Clear 10 1026 61 10000 2.1 70 20:20 20.09.2019
1575 Clear 11 1026 57 10000 3.1 50 19:56 20.09.2019
1576 Clear 12 1026 47 10000 3.6 60 19:37 20.09.2019
1577 Clear 13 1026 47 10000 3.6 60 19:18 20.09.2019
1578 Clear 14 1026 44 10000 4.6 50 18:39 20.09.2019
1579 Clear 15 1026 44 10000 4.6 50 18:20 20.09.2019
1580 Clear 15 1026 41 10000 5.1 40 17:56 20.09.2019
1581 Clear 15 1026 41 10000 5.1 40 17:56 20.09.2019
1582 Clear 15 1026 47 10000 5.1 40 17:38 20.09.2019
1583 Clear 16 1026 47 10000 5.1 40 17:18 20.09.2019
1584 Clouds 16 1027 36 10000 3.6 60 16:38 20.09.2019
1585 Clear 16 1026 41 10000 4.6 50 16:19 20.09.2019
1586 Clouds 16 1027 38 10000 2.6 80 15:42 20.09.2019
1587 Clear 16 1026 44 10000 4.6 50 15:23 20.09.2019
1588 Clear 16 1026 44 10000 4.6 50 15:23 20.09.2019
1589 Clear 16 1026 44 10000 4.6 50 14:57 20.09.2019
1590 Clear 16 1027 41 10000 5.1 50 14:38 20.09.2019
1591 Clear 16 1027 47 10000 4.1 60 14:18 20.09.2019
1592 Clouds 16 1028 38 10000 3.1 60 13:45 20.09.2019
1593 Clouds 16 1028 41 10000 3.1 50 13:27 20.09.2019
1594 Clear 15 1027 54 10000 4.1 60 12:56 20.09.2019
1595 Clear 14 1028 58 10000 5.1 50 12:36 20.09.2019
1596 Clear 14 1028 58 10000 5.1 50 12:18 20.09.2019
1597 Clear 14 1028 58 10000 5.1 50 12:18 20.09.2019
1598 Clear 13 1028 62 10000 4.1 60 11:45 20.09.2019
1599 Clear 12 1028 61 10000 3.6 50 11:20 20.09.2019
1600 Clear 11 1028 66 10000 3.1 80 10:43 20.09.2019
1601 Clouds 11 1028 70 10000 4.6 50 10:43 20.09.2019
1602 Clear 9 1028 81 10000 3.1 80 10:23 20.09.2019
1603 Clear 8 1028 81 10000 3.6 70 09:55 20.09.2019
1604 Clear 5 1027 86 10000 1 0 09:36 20.09.2019
1605 Clear 5 1027 86 10000 1 0 09:36 20.09.2019
1606 Clear 5 1027 93 10000 0.5 0 09:18 20.09.2019
1607 Clouds 3 1027 93 10000 0.5 40 08:41 20.09.2019
1608 Fog 3 1027 83 10000 0.5 100 08:22 20.09.2019
1609 Fog 2 1027 83 10000 0.5 0 07:47 20.09.2019
1610 Fog 2 1027 100 10000 0.5 0 07:26 20.09.2019
1611 Fog 2 1027 93 10000 0.5 20 06:44 20.09.2019
1612 Fog 2 1027 85 10000 2.57 90.022 06:21 20.09.2019
1613 Fog 2 1027 85 10000 1.5 20 05:44 20.09.2019
1614 Clouds 3 1027 86 10000 0.5 360 03:42 20.09.2019
1615 Clear 3 1028 80 10000 0.5 50 03:19 20.09.2019
1616 Clear 4 1028 86 10000 0.5 70 01:45 20.09.2019
1617 Clear 5 1028 80 10000 1.5 110 00:53 20.09.2019
1618 Clear 5 1028 86 10000 0.5 0 00:26 20.09.2019
1619 Clear 6 1028 77 10000 2.1 70 23:44 19.09.2019
1620 Clear 6 1028 77 10000 2.1 70 23:20 19.09.2019
1621 Clear 6 1028 65 10000 2.6 70 22:57 19.09.2019
1622 Clear 7 1028 61 10000 3.1 50 22:38 19.09.2019
1623 Clear 7 1028 65 10000 3.1 50 22:19 19.09.2019
1624 Clear 7 1028 65 10000 3.1 50 21:56 19.09.2019
1625 Clear 8 1027 61 10000 3.1 50 21:37 19.09.2019
1626 Clouds 8 1027 61 10000 3.1 50 21:18 19.09.2019
1627 Clouds 8 1027 61 10000 3.1 50 21:18 19.09.2019
1628 Clouds 9 1027 65 10000 2.6 40 20:43 19.09.2019
1629 Clouds 10 1027 61 10000 3.6 30 20:22 19.09.2019
1630 Clear 10 1027 57 10000 3.1 30 19:56 19.09.2019
1631 Clouds 12 1027 66 10000 3.6 50 19:38 19.09.2019
1632 Clear 12 1027 47 10000 5.1 20 19:19 19.09.2019
1633 Clear 13 1027 47 10000 5.1 20 19:19 19.09.2019
1634 Clear 13 1027 47 10000 5.1 20 19:19 19.09.2019
1635 Clear 12 1027 47 10000 5.1 20 19:19 19.09.2019
1636 Clouds 14 1027 47 10000 4.1 30 18:55 19.09.2019
1637 Clear 14 1027 44 10000 5.1 10 18:36 19.09.2019
1638 Clear 14 1027 44 10000 4.1 30 18:18 19.09.2019
1639 Clear 15 1026 41 10000 4.6 10 17:42 19.09.2019
1640 Clear 15 1026 41 10000 4.6 10 17:23 19.09.2019
1641 Clear 15 1027 44 10000 5.1 10 16:58 19.09.2019
1642 Clouds 16 1027 44 10000 4.1 10 16:39 19.09.2019
1643 Clouds 16 1027 44 10000 4.1 20 16:18 19.09.2019
1644 Clouds 16 1027 44 10000 6.2 360 15:39 19.09.2019
1645 Clouds 16 1027 44 10000 4.1 20 15:19 19.09.2019
1646 Clouds 15 1027 44 10000 4.1 30 14:42 19.09.2019
1647 Clouds 15 1027 44 10000 4.1 30 14:24 19.09.2019
1648 Clouds 15 1027 47 10000 4.1 10 13:59 19.09.2019
1649 Clear 15 1027 47 10000 4.1 20 13:40 19.09.2019
1650 Clear 15 1027 47 10000 4.1 20 13:40 19.09.2019
1651 Clouds 15 1028 44 10000 3.1 10 13:20 19.09.2019
1652 Clouds 15 1027 50 10000 4.6 30 12:40 19.09.2019
1653 Clear 14 1027 54 10000 4.6 40 12:20 19.09.2019
1654 Clear 14 1027 54 10000 4.6 40 11:59 19.09.2019
1655 Clear 13 1027 62 10000 4.1 50 11:40 19.09.2019
1656 Clear 13 1027 62 10000 4.1 50 11:21 19.09.2019
1657 Clear 12 1027 66 10000 3.6 40 10:57 19.09.2019
1658 Clouds 11 1027 70 10000 4.1 60 10:37 19.09.2019
1659 Clouds 10 1027 70 10000 4.1 60 10:18 19.09.2019
1660 Clouds 8 1027 75 10000 3.1 40 09:42 19.09.2019
1661 Clear 7 1026 81 10000 0.5 0 09:22 19.09.2019
1662 Fog 6 1026 86 10000 2.19 31.225 08:56 19.09.2019
1663 Fog 4 1026 100 10000 2.03 17.571 08:37 19.09.2019
1664 Fog 3 1027 86 1200 2.03 17.571 08:19 19.09.2019
1665 Fog 3 1025 100 10000 1 160 07:43 19.09.2019
1666 Fog 3 1025 100 10000 0.5 170 07:22 19.09.2019
1667 Fog 3 1025 93 10000 0.5 30 06:48 19.09.2019
1668 Fog 3 1025 93 10000 1 0 06:28 19.09.2019
1669 Fog 3 1025 100 10000 1.5 170 05:52 19.09.2019
1670 Fog 3 1025 93 10000 0.5 160 05:31 19.09.2019
1671 Clouds 3 1025 93 10000 1 0 03:54 19.09.2019
1672 Clear 4 1025 93 10000 1 150 03:18 19.09.2019
1673 Clear 5 1025 93 10000 1.5 160 01:34 19.09.2019
1674 Clear 5 1025 86 10000 1 200 00:51 19.09.2019
1675 Clear 6 1025 93 10000 0.5 0 00:26 19.09.2019
1676 Clear 7 1024 93 10000 1 160 23:44 18.09.2019
1677 Clear 7 1024 93 10000 1 160 23:23 18.09.2019
1678 Clear 7 1024 87 10000 1 190 22:57 18.09.2019
1679 Clear 7 1024 87 10000 1 0 22:37 18.09.2019
1680 Clear 8 1024 81 10000 2.65 32.903 22:19 18.09.2019
1681 Clear 8 1024 81 10000 2.65 32.903 21:57 18.09.2019
1682 Clouds 8 1024 66 10000 2.65 32.903 21:38 18.09.2019
1683 Clear 9 1024 53 10000 1.5 40 21:18 18.09.2019
1684 Clear 10 1024 53 10000 1.5 40 20:56 18.09.2019
1685 Clear 10 1023 57 10000 3.1 20 20:38 18.09.2019
1686 Clear 12 1023 50 10000 2.6 30 20:20 18.09.2019
1687 Clear 12 1023 50 10000 2.6 30 19:56 18.09.2019
1688 Clear 13 1023 50 10000 3.6 30 19:37 18.09.2019
1689 Clear 14 1023 44 10000 3.6 30 19:18 18.09.2019
1690 Clear 14 1023 44 10000 3.6 30 18:54 18.09.2019
1691 Clear 15 1023 44 10000 3.6 20 18:36 18.09.2019
1692 Clear 15 1023 47 10000 3.6 10 18:18 18.09.2019
1693 Clear 16 1023 47 10000 3.6 10 17:54 18.09.2019
1694 Clear 16 1023 47 10000 4.1 10 17:36 18.09.2019
1695 Clear 16 1023 47 10000 4.1 10 17:18 18.09.2019
1696 Clear 16 1023 51 10000 4.1 10 16:42 18.09.2019
1697 Clear 16 1023 51 10000 4.1 10 16:22 18.09.2019
1698 Clear 16 1023 51 10000 3.6 30 15:59 18.09.2019
1699 Clear 16 1023 51 10000 3.6 30 15:59 18.09.2019
1700 Clear 16 1023 51 10000 3.6 30 15:59 18.09.2019
1701 Clear 16 1023 51 10000 3.6 30 15:59 18.09.2019
1702 Clouds 16 1023 51 10000 3.1 10 15:40 18.09.2019
1703 Clear 16 1023 51 10000 3.1 10 15:20 18.09.2019
1704 Clear 16 1023 51 10000 3.1 10 14:58 18.09.2019
1705 Clouds 16 1023 51 10000 3.1 20 14:40 18.09.2019
1706 Clear 16 1024 54 10000 3.1 10 14:22 18.09.2019
1707 Clear 16 1024 54 10000 3.1 10 14:22 18.09.2019
1708 Clear 16 1024 54 10000 4.1 30 13:59 18.09.2019
1709 Clear 16 1024 54 10000 4.1 30 13:59 18.09.2019
1710 Clouds 16 1024 54 10000 3.1 50 13:39 18.09.2019
1711 Clear 15 1024 58 10000 4.1 20 13:18 18.09.2019
1712 Clouds 15 1024 58 10000 3.6 60 12:47 18.09.2019
1713 Clear 14 1024 66 10000 3.1 40 12:29 18.09.2019
1714 Clear 14 1024 62 10000 3.1 40 11:55 18.09.2019
1715 Clear 13 1024 66 10000 3.1 30 11:37 18.09.2019
1716 Clear 13 1024 66 10000 3.1 30 11:18 18.09.2019
1717 Clouds 12 1024 66 10000 4.1 60 10:40 18.09.2019
1718 Clear 11 1024 76 10000 3.1 40 10:21 18.09.2019
1719 Clear 10 1024 76 10000 3.6 50 09:58 18.09.2019
1720 Clear 9 1024 81 10000 3.1 30 09:38 18.09.2019
1721 Clear 9 1024 81 10000 3.1 30 09:19 18.09.2019
1722 Fog 7 1024 93 10000 1.5 20 08:42 18.09.2019
1723 Fog 7 1024 93 10000 1.5 20 08:24 18.09.2019
1724 Fog 6 1024 93 10000 1.36 17.513 07:57 18.09.2019
1725 Fog 6 1024 100 10000 1.36 17.513 07:39 18.09.2019
1726 Fog 6 1024 100 10000 1.36 17.513 07:21 18.09.2019
1727 Fog 7 1023 87 10000 1.36 17.513 06:40 18.09.2019
1728 Fog 8 1023 100 10000 0.5 330 05:50 18.09.2019
1729 Fog 8 1023 87 10000 1.6 355.111 04:57 18.09.2019
1730 Clouds 9 1022 100 10000 1 170 03:19 18.09.2019
1731 Clouds 9 1022 93 10000 0.5 0 02:29 18.09.2019
1732 Clouds 10 1022 93 10000 2.1 240 01:25 18.09.2019
1733 Clouds 10 1022 87 10000 1.5 270 00:49 18.09.2019
1734 Clouds 11 1022 87 10000 2.1 260 00:22 18.09.2019
1735 Clouds 12 1022 81 10000 2.1 300 23:46 17.09.2019
1736 Clouds 12 1021 87 10000 2.1 270 23:23 17.09.2019
1737 Clouds 13 1021 82 10000 2.1 260 22:43 17.09.2019
1738 Clouds 13 1021 82 10000 3.1 300 22:24 17.09.2019
1739 Clouds 14 1021 76 10000 2.6 280 21:56 17.09.2019
1740 Clouds 14 1021 82 10000 1.5 280 21:37 17.09.2019
1741 Clouds 14 1020 76 10000 2.1 280 21:19 17.09.2019
1742 Clouds 14 1020 76 10000 2.1 280 21:19 17.09.2019
1743 Clouds 14 1020 77 10000 2.1 260 20:58 17.09.2019
1744 Clouds 15 1020 76 10000 1.5 290 20:40 17.09.2019
1745 Clouds 15 1019 77 10000 3.6 300 20:40 17.09.2019
1746 Clouds 15 1019 77 10000 3.6 300 20:22 17.09.2019
1747 Clouds 15 1019 77 10000 2.1 290 19:59 17.09.2019
1748 Clear 17 1019 67 10000 3.1 300 19:39 17.09.2019
1749 Clear 17 1019 67 10000 5.1 290 19:20 17.09.2019
1750 Clear 17 1019 67 10000 5.1 290 18:58 17.09.2019
1751 Clouds 18 1019 67 10000 5.1 310 18:40 17.09.2019
1752 Clouds 18 1019 67 10000 5.1 310 18:21 17.09.2019
1753 Clouds 19 1019 63 10000 4.6 300 17:47 17.09.2019
1754 Clouds 19 1019 63 10000 5.1 290 17:21 17.09.2019
1755 Clouds 19 1019 72 10000 6.2 310 16:59 17.09.2019
1756 Clouds 19 1019 63 10000 5.1 280 16:41 17.09.2019
1757 Clouds 19 1018 68 10000 4.6 290 16:22 17.09.2019
1758 Clouds 19 1019 72 10000 5.7 320 15:55 17.09.2019
1759 Clouds 19 1019 64 10000 5.1 300 15:36 17.09.2019
1760 Clouds 19 1019 64 10000 5.1 300 15:18 17.09.2019
1761 Clouds 19 1019 68 10000 4.6 300 14:55 17.09.2019
1762 Clouds 19 1019 72 10000 5.1 320 14:37 17.09.2019
1763 Clouds 19 1019 72 10000 5.1 320 14:18 17.09.2019
1764 Clouds 19 1019 72 10000 5.1 320 14:18 17.09.2019
1765 Clouds 19 1019 68 10000 3.6 300 13:41 17.09.2019
1766 Clouds 19 1019 68 10000 3.6 300 13:23 17.09.2019
1767 Clouds 19 1019 63 10000 4.1 300 12:55 17.09.2019
1768 Clouds 19 1020 63 10000 4.6 310 12:37 17.09.2019
1769 Drizzle 17 1019 63 10000 3.6 260 12:18 17.09.2019
1770 Clouds 17 1019 72 10000 2.6 320 11:41 17.09.2019
1771 Clouds 18 1019 72 10000 2.6 320 11:22 17.09.2019
1772 Clouds 17 1019 72 10000 2.1 240 10:42 17.09.2019
1773 Clouds 17 1019 72 10000 2.1 240 10:24 17.09.2019
1774 Clouds 17 1019 82 10000 2.6 210 09:59 17.09.2019
1775 Clouds 16 1019 72 10000 1.5 290 09:40 17.09.2019
1776 Clouds 15 1019 82 10000 2.1 230 09:21 17.09.2019
1777 Rain 15 1019 77 10000 1 270 08:49 17.09.2019
1778 Rain 15 1019 87 10000 1.5 240 08:30 17.09.2019
1779 Rain 14 1019 87 10000 1 0 07:58 17.09.2019
1780 Rain 14 1019 87 10000 1 240 07:39 17.09.2019
1781 Rain 14 1019 87 10000 1 240 07:39 17.09.2019
1782 Rain 14 1019 87 10000 1 240 07:39 17.09.2019
1783 Rain 14 1019 93 10000 1 0 07:19 17.09.2019
1784 Rain 15 1019 87 10000 0.5 0 06:45 17.09.2019
1785 Rain 15 1019 87 10000 0.5 0 06:19 17.09.2019
1786 Clouds 15 1018 93 10000 1.5 220 05:44 17.09.2019
1787 Clouds 15 1019 87 10000 2.6 301.062 04:29 17.09.2019
1788 Clouds 15 1019 87 10000 2.6 301.062 04:29 17.09.2019
1789 Clouds 16 1019 87 10000 2.1 230 02:57 17.09.2019
1790 Clouds 16 1019 82 10000 1.5 210 02:38 17.09.2019
1791 Clouds 16 1019 82 10000 2.1 240 01:24 17.09.2019
1792 Clouds 17 1019 82 10000 1.5 260 00:40 17.09.2019
1793 Clouds 18 1020 63 10000 2.1 310 23:40 16.09.2019
1794 Clouds 18 1020 63 10000 2.1 310 23:19 16.09.2019
1795 Clouds 18 1019 63 10000 2.6 330 22:56 16.09.2019
1796 Clouds 18 1019 63 10000 2.6 330 22:56 16.09.2019
1797 Clouds 18 1019 63 10000 2.6 330 22:56 16.09.2019
1798 Clouds 19 1019 64 10000 1.5 320 22:37 16.09.2019
1799 Clouds 19 1019 64 10000 1.5 320 22:19 16.09.2019
1800 Clouds 20 1019 72 10000 2.1 310 21:41 16.09.2019
1801 Clouds 20 1019 72 10000 2.1 310 21:22 16.09.2019
1802 Clouds 20 1019 73 10000 2.1 300 20:59 16.09.2019
1803 Clouds 21 1019 73 10000 1.5 290 20:40 16.09.2019
1804 Clouds 21 1019 73 10000 1.5 290 20:40 16.09.2019
1805 Clouds 21 1019 73 10000 1.5 290 20:20 16.09.2019
1806 Clouds 21 1018 73 10000 1.5 270 19:57 16.09.2019
1807 Clouds 23 1018 68 10000 2.6 280 19:39 16.09.2019
1808 Clouds 23 1019 64 10000 3.1 300 19:19 16.09.2019
1809 Clouds 23 1018 64 10000 1.5 310 18:47 16.09.2019
1810 Clouds 24 1019 57 10000 3.1 300 18:28 16.09.2019
1811 Clouds 24 1019 53 10000 4.1 270 17:58 16.09.2019
1812 Clouds 25 1019 57 10000 4.1 270 17:39 16.09.2019
1813 Clouds 25 1019 57 10000 4.1 270 17:21 16.09.2019
1814 Clouds 25 1019 57 10000 4.1 270 17:21 16.09.2019
1815 Clouds 25 1019 53 10000 4.1 270 16:55 16.09.2019
1816 Clouds 25 1019 53 10000 4.1 280 16:37 16.09.2019
1817 Clouds 25 1019 57 10000 5.1 270 16:18 16.09.2019
1818 Clouds 25 1019 57 10000 5.1 270 15:55 16.09.2019
1819 Clouds 25 1020 53 10000 5.7 270 15:37 16.09.2019
1820 Clouds 25 1020 57 10000 4.1 270 15:18 16.09.2019
1821 Clouds 25 1020 53 10000 4.6 230 14:43 16.09.2019
1822 Clouds 25 1020 64 10000 4.6 270 14:23 16.09.2019
1823 Clouds 25 1020 60 10000 3.1 260 13:57 16.09.2019
1824 Clouds 24 1021 64 10000 3.1 250 13:38 16.09.2019
1825 Clear 24 1021 60 10000 3.1 230 13:20 16.09.2019
1826 Clouds 24 1021 57 10000 4.6 240 12:43 16.09.2019
1827 Clouds 23 1021 68 10000 3.1 230 12:24 16.09.2019
1828 Clouds 23 1021 68 10000 3.1 230 11:55 16.09.2019
1829 Clouds 22 1022 73 10000 3.6 220 11:37 16.09.2019
1830 Clouds 21 1022 73 10000 3.6 220 11:19 16.09.2019
1831 Clouds 19 1022 77 10000 2.1 240 10:38 16.09.2019
1832 Clouds 19 1022 77 10000 2.1 240 10:20 16.09.2019
1833 Clouds 18 1022 88 10000 2.1 210 09:58 16.09.2019
1834 Fog 16 1021 87 10000 1.5 220 09:39 16.09.2019
1835 Fog 16 1021 87 10000 1.5 220 09:19 16.09.2019
1836 Fog 14 1021 87 10000 2.6 200 08:46 16.09.2019
1837 Fog 13 1021 93 10000 3.1 220 08:26 16.09.2019
1838 Fog 13 1021 93 10000 0.5 0 07:56 16.09.2019
1839 Fog 13 1021 93 10000 0.5 0 07:56 16.09.2019
1840 Fog 13 1022 93 10000 2.1 220 07:38 16.09.2019
1841 Fog 12 1021 100 1600 1.68 272.898 07:20 16.09.2019
1842 Fog 12 1021 100 900 1.68 272.898 06:46 16.09.2019
1843 Fog 13 1022 93 10000 1 200 06:28 16.09.2019
1844 Fog 13 1022 100 10000 1.5 200 05:53 16.09.2019
1845 Clear 13 1022 100 10000 1 200 05:32 16.09.2019
1846 Clear 13 1022 93 10000 1.5 190 04:49 16.09.2019
1847 Fog 14 1023 93 10000 2.1 230 02:58 16.09.2019
1848 Clouds 15 1023 87 10000 1 200 00:44 16.09.2019
1849 Clear 16 1023 87 10000 2.1 200 00:26 16.09.2019
1850 Clouds 16 1023 82 10000 2.6 210 23:45 15.09.2019
1851 Clear 16 1023 93 10000 1 0 23:22 15.09.2019
1852 Clear 16 1023 88 10000 2.6 220 22:59 15.09.2019
1853 Clear 17 1023 88 10000 2.1 220 22:38 15.09.2019
1854 Clear 17 1023 88 10000 2.1 220 22:18 15.09.2019
1855 Clear 17 1023 93 10000 1.5 170 21:56 15.09.2019
1856 Clear 17 1023 93 10000 1 0 21:38 15.09.2019
1857 Clear 18 1023 87 10000 1.5 160 21:19 15.09.2019
1858 Clear 19 1023 87 10000 1.5 160 20:45 15.09.2019
1859 Clear 20 1023 82 10000 1 180 20:26 15.09.2019
1860 Clear 20 1023 82 10000 1 180 20:26 15.09.2019
1861 Clear 21 1023 77 10000 1 240 19:56 15.09.2019
1862 Clear 22 1023 60 10000 1 280 19:38 15.09.2019
1863 Clear 23 1023 57 10000 2.6 280 19:19 15.09.2019
1864 Clear 25 1023 57 10000 2.6 280 18:40 15.09.2019
1865 Clear 25 1023 53 10000 2.6 260 18:22 15.09.2019
1866 Clear 25 1023 50 10000 3.1 260 17:43 15.09.2019
1867 Clear 25 1023 50 10000 3.1 260 17:23 15.09.2019
1868 Clear 25 1024 53 10000 3.6 260 16:59 15.09.2019
1869 Clear 25 1024 57 10000 4.1 230 16:41 15.09.2019
1870 Clear 25 1024 57 10000 4.1 230 16:22 15.09.2019
1871 Clear 25 1024 57 10000 2.6 250 15:57 15.09.2019
1872 Clear 25 1024 60 10000 1.5 0 15:38 15.09.2019
1873 Clear 25 1024 60 10000 1.5 0 15:19 15.09.2019
1874 Clear 25 1024 60 10000 1.5 0 15:19 15.09.2019
1875 Clear 25 1025 60 10000 3.1 250 14:55 15.09.2019
1876 Clear 25 1025 60 10000 3.1 250 14:55 15.09.2019
1877 Clear 25 1025 60 10000 3.1 250 14:55 15.09.2019
1878 -273 0 0 0 0 0 14:55 15.09.2019
1879 Clear 24 1025 64 10000 2.1 260 14:37 15.09.2019
1880 Clear 24 1025 64 10000 2.1 260 14:19 15.09.2019
1881 Clouds 23 1025 60 10000 2.1 260 13:44 15.09.2019
1882 Clear 23 1026 73 10000 1.5 270 13:22 15.09.2019
1883 Clouds 22 1026 68 10000 2.1 190 12:43 15.09.2019
1884 Clear 21 1026 77 10000 2.6 240 12:25 15.09.2019
1885 Clear 21 1026 77 10000 2.6 240 12:25 15.09.2019
1886 Mist 21 1026 82 10000 2.1 250 11:59 15.09.2019
1887 Fog 21 1026 82 5000 1.5 170 11:41 15.09.2019
1888 Mist 19 1026 88 10000 1.5 250 11:21 15.09.2019
1889 Fog 18 1026 93 10000 2.6 230 10:55 15.09.2019
1890 Fog 17 1027 100 10000 3.1 220 10:37 15.09.2019
1891 Fog 17 1027 100 10000 3.1 220 10:18 15.09.2019
1892 Fog 14 1026 87 10000 2.6 190 09:39 15.09.2019
1893 Fog 13 1027 100 700 2.1 230 09:19 15.09.2019
1894 Fog 12 1027 100 700 2.1 230 08:47 15.09.2019
1895 Fog 11 1026 100 450 1.5 210 08:27 15.09.2019
1896 Fog 11 1026 100 200 1.5 220 07:49 15.09.2019
1897 Fog 10 1026 100 550 1.5 230 07:30 15.09.2019
1898 Fog 11 1026 93 250 1.05 154.732 06:43 15.09.2019
1899 Fog 12 1028 100 400 1 230 03:32 15.09.2019
1900 Fog 12 1028 100 50 1.5 200 02:42 15.09.2019
1901 Fog 13 1028 100 100 2.59 123.267 01:45 15.09.2019
1902 Fog 13 1028 100 600 0.5 0 01:45 15.09.2019
1903 Fog 13 1028 100 3500 1 90 01:27 15.09.2019
1904 Fog 13 1028 100 600 0.5 150 00:50 15.09.2019
1905 Clear 14 1029 100 1900 1 0 00:24 15.09.2019
1906 Clear 14 1029 100 10000 1 40 23:59 14.09.2019
1907 Clear 14 1029 100 450 2.66 111.465 23:41 14.09.2019
1908 Clear 14 1029 100 450 2.66 111.465 23:22 14.09.2019
1909 Clear 15 1029 100 1300 2.66 111.465 22:59 14.09.2019
1910 Clear 14 1029 100 1300 2.66 111.465 22:59 14.09.2019
1911 Clear 15 1029 100 1300 2.66 111.465 22:59 14.09.2019
1912 Clear 15 1029 100 7000 2.66 111.465 22:41 14.09.2019
1913 Clear 15 1029 100 7000 2.66 111.465 22:41 14.09.2019
1914 Clear 15 1029 100 10000 2.66 111.465 22:21 14.09.2019
1915 Clear 16 1029 100 10000 2.66 111.465 21:59 14.09.2019
1916 Clear 16 1029 87 350 2.66 111.465 21:39 14.09.2019
1917 Clouds 17 1029 93 10000 2.2 113.722 21:20 14.09.2019
1918 Clouds 17 1029 93 10000 2.2 113.722 20:56 14.09.2019
1919 Clouds 18 1029 82 10000 1.5 80 20:38 14.09.2019
1920 Clouds 19 1029 72 10000 2.1 60 20:19 14.09.2019
1921 Clouds 19 1029 72 10000 2.1 60 19:45 14.09.2019
1922 Clouds 20 1029 72 10000 2.1 50 19:21 14.09.2019
1923 Clouds 20 1029 72 10000 2.1 50 19:21 14.09.2019
1924 Clouds 21 1029 68 10000 2.6 60 18:57 14.09.2019
1925 Clouds 21 1029 68 10000 2.6 60 18:37 14.09.2019
1926 Clouds 22 1029 68 10000 2.6 60 18:19 14.09.2019
1927 Clouds 22 1029 64 10000 4.1 30 17:44 14.09.2019
1928 Clouds 23 1029 64 10000 3.6 30 17:23 14.09.2019
1929 Clouds 23 1029 64 10000 4.1 30 16:50 14.09.2019
1930 Clouds 23 1029 64 10000 5.1 20 16:29 14.09.2019
1931 Clouds 23 1029 64 10000 4.6 20 15:59 14.09.2019
1932 Clouds 23 1029 60 10000 3.1 30 15:40 14.09.2019
1933 Clouds 23 1030 64 10000 4.6 20 15:22 14.09.2019
1934 Clouds 23 1030 64 10000 4.1 40 15:22 14.09.2019
1935 Clouds 23 1030 64 10000 4.1 40 15:22 14.09.2019
1936 Clouds 23 1030 64 10000 3.6 10 14:45 14.09.2019
1937 Clouds 23 1030 64 10000 4.1 360 14:19 14.09.2019
1938 Clouds 23 1030 68 10000 3.1 30 13:56 14.09.2019
1939 Clouds 22 1030 68 10000 2.6 20 13:38 14.09.2019
1940 Clouds 22 1030 68 10000 2.6 20 13:20 14.09.2019
1941 Clouds 22 1031 72 10000 3.1 30 12:45 14.09.2019
1942 Clouds 21 1031 72 10000 3.1 10 12:22 14.09.2019
1943 Clouds 20 1031 77 10000 3.1 60 11:41 14.09.2019
1944 Clouds 20 1031 77 10000 3.1 40 11:20 14.09.2019
1945 Clouds 18 1032 82 10000 2.1 60 10:40 14.09.2019
1946 Clear 18 1031 88 10000 1.5 100 10:22 14.09.2019
1947 Clear 18 1031 88 10000 1.5 100 09:58 14.09.2019
1948 Clear 18 1031 88 10000 1.5 100 09:58 14.09.2019
1949 Clouds 17 1032 87 10000 1 0 09:40 14.09.2019
1950 Clouds 16 1032 100 10000 1 0 09:21 14.09.2019
1951 Clouds 16 1032 100 10000 1 0 09:21 14.09.2019
1952 Clouds 15 1032 100 10000 1 0 08:56 14.09.2019
1953 Clouds 14 1031 100 10000 1 130 08:38 14.09.2019
1954 Clouds 14 1031 100 10000 1 130 08:19 14.09.2019
1955 Clouds 14 1031 100 9000 1.5 140 07:43 14.09.2019
1956 Clouds 13 1031 100 9000 1.5 140 07:21 14.09.2019
1957 Clouds 13 1031 93 6000 0.5 0 06:33 14.09.2019
1958 Clouds 13 1031 100 250 0.5 140 05:53 14.09.2019
1959 Clouds 13 1032 100 10000 1 160 04:27 14.09.2019
1960 Clouds 13 1032 100 7000 1.5 180 03:25 14.09.2019
1961 Clouds 14 1032 100 150 1 10 02:42 14.09.2019
1962 Clouds 14 1032 93 10000 0.5 360 01:45 14.09.2019
1963 Clouds 14 1032 100 10000 1.24 19.05 01:19 14.09.2019
1964 Clouds 15 1032 93 10000 0.5 0 00:40 14.09.2019
1965 Clouds 15 1032 93 10000 0.5 0 00:22 14.09.2019
1966 Clouds 15 1032 93 10000 0.5 0 00:22 14.09.2019
1967 Clouds 15 1032 93 10000 1.5 170 23:56 13.09.2019
1968 Clouds 16 1032 93 10000 0.5 0 23:37 13.09.2019
1969 Clouds 16 1032 93 10000 0.5 0 23:18 13.09.2019
1970 Clouds 16 1032 93 10000 0.5 0 22:55 13.09.2019
1971 Clouds 16 1032 100 10000 0.5 210 22:37 13.09.2019
1972 Clouds 17 1032 93 10000 1 140 22:19 13.09.2019
1973 Clouds 17 1032 77 10000 1 0 21:40 13.09.2019
1974 Clouds 18 1032 77 10000 2 341.855 21:19 13.09.2019
1975 Clouds 18 1032 77 10000 2 341.855 20:58 13.09.2019
1976 Clouds 19 1032 68 10000 1.5 50 20:38 13.09.2019
1977 Clouds 20 1032 68 10000 1.5 50 20:20 13.09.2019
1978 Clouds 20 1031 68 10000 2.6 20 19:55 13.09.2019
1979 Clouds 22 1031 64 10000 3.1 30 19:37 13.09.2019
1980 Clouds 22 1031 60 10000 2.6 30 19:18 13.09.2019
1981 Clouds 23 1031 53 10000 2.1 360 18:38 13.09.2019
1982 Clouds 23 1031 50 10000 3.05 334.502 18:20 13.09.2019
1983 Clouds 24 1031 50 10000 3.05 334.502 17:58 13.09.2019
1984 Clouds 24 1031 56 10000 2.6 340 17:37 13.09.2019
1985 Clouds 24 1032 56 10000 2.6 340 17:18 13.09.2019
1986 Clouds 24 1031 53 10000 2.6 340 16:40 13.09.2019
1987 Clouds 24 1032 53 10000 1 0 16:20 13.09.2019
1988 Clouds 24 1032 53 10000 1 0 16:20 13.09.2019
1989 Clouds 24 1032 53 10000 2.6 270 15:46 13.09.2019
1990 Clear 24 1032 53 10000 2.6 330 15:27 13.09.2019
1991 Clear 23 1032 56 10000 2.6 320 14:57 13.09.2019
1992 Clouds 24 1032 60 10000 1.5 0 14:39 13.09.2019
1993 Clouds 23 1032 60 10000 1.5 0 14:19 13.09.2019
1994 Clouds 23 1032 60 10000 1.5 0 14:19 13.09.2019
1995 Clouds 23 1032 49 10000 2.1 290 13:46 13.09.2019
1996 Clouds 23 1032 56 10000 5.1 270 13:24 13.09.2019
1997 Clear 23 1033 60 10000 1.5 230 12:58 13.09.2019
1998 Clear 22 1033 60 10000 2.6 220 12:39 13.09.2019
1999 Clear 22 1033 60 10000 2.6 220 12:21 13.09.2019
2000 -273 0 0 0 0 0 11:55 13.09.2019
2001 Clear 20 1033 68 10000 2.6 220 11:19 13.09.2019
2002 Clear 18 1033 72 10000 2.6 220 10:39 13.09.2019
2003 Clear 17 1033 82 10000 1.5 210 10:19 13.09.2019
2004 Clouds 16 1033 77 10000 2.1 210 09:44 13.09.2019
2005 Clear 15 1033 87 10000 1.5 220 09:24 13.09.2019
2006 Clear 14 1033 93 10000 1.5 210 08:58 13.09.2019
2007 Clouds 13 1032 82 10000 2.6 190 08:40 13.09.2019
2008 Fog 12 1033 100 10000 2.1 230 08:20 13.09.2019
2009 Fog 11 1032 87 10000 2.6 190 07:46 13.09.2019
2010 Fog 11 1033 93 10000 2.1 210 07:27 13.09.2019
2011 Fog 11 1032 93 10000 1 0 06:48 13.09.2019
2012 Clear 11 1032 87 10000 2.1 200 05:49 13.09.2019
2013 Clear 12 1032 93 10000 2.1 200 04:59 13.09.2019
2014 Fog 12 1032 93 10000 1 250 03:40 13.09.2019
2015 Fog 12 1032 100 10000 0.5 0 02:21 13.09.2019
2016 Fog 12 1032 93 10000 0.5 200 01:59 13.09.2019
2017 Fog 12 1032 93 0 0.5 180 01:34 13.09.2019
2018 Fog 12 1032 93 0 0.5 180 01:34 13.09.2019
2019 Fog 12 1032 100 10000 0.5 0 00:58 13.09.2019
2020 Fog 13 1032 93 10000 0.5 190 00:23 13.09.2019
2021 Clear 14 1032 93 10000 1.57 241.719 23:39 12.09.2019
2022 Clear 14 1032 93 10000 1.57 241.719 23:20 12.09.2019
2023 Clouds 14 1032 77 10000 3.1 190 22:43 12.09.2019
2024 Clear 14 1032 87 10000 0.5 0 22:24 12.09.2019
2025 Clear 14 1031 82 10000 0.5 0 21:58 12.09.2019
2026 Clouds 15 1032 77 10000 2.1 180 21:39 12.09.2019
2027 Clear 16 1031 72 10000 1.57 241.719 21:39 12.09.2019
2028 Clear 16 1031 72 10000 0.5 330 21:20 12.09.2019
2029 Clear 16 1031 72 10000 0.5 330 21:20 12.09.2019
2030 Clear 16 1031 72 10000 0.5 330 20:58 12.09.2019
2031 Clouds 17 1032 72 10000 2.1 170 20:40 12.09.2019
2032 Clear 17 1032 82 10000 1 220 20:21 12.09.2019
2033 Clear 19 1031 56 10000 1.5 320 19:56 12.09.2019
2034 Clear 21 1031 56 10000 2.1 280 19:37 12.09.2019
2035 Clouds 21 1030 53 10000 1.5 310 19:19 12.09.2019
2036 Clear 22 1031 52 10000 2.6 310 18:38 12.09.2019
2037 Clear 22 1031 49 10000 2.6 260 18:20 12.09.2019
2038 Clear 22 1031 49 10000 2.6 260 17:59 12.09.2019
2039 Clear 23 1031 43 10000 1.5 0 17:39 12.09.2019
2040 Clear 23 1032 49 10000 2.6 270 17:20 12.09.2019
2041 Clouds 23 1031 43 10000 2.6 300 16:43 12.09.2019
2042 Clear 23 1032 43 10000 2.6 230 16:23 12.09.2019
2043 Clear 23 1032 49 10000 3.6 230 15:59 12.09.2019
2044 Clouds 23 1032 46 10000 3.1 220 15:39 12.09.2019
2045 Clear 23 1032 46 10000 3.6 220 15:21 12.09.2019
2046 Clouds 22 1032 46 10000 3.6 200 14:45 12.09.2019
2047 Clouds 22 1032 52 10000 2.6 230 14:21 12.09.2019
2048 Clouds 22 1032 52 10000 2.6 230 13:55 12.09.2019
2049 Clouds 21 1033 56 10000 2.6 270 13:37 12.09.2019
2050 Clouds 21 1033 59 10000 3.1 220 13:18 12.09.2019
2051 Clouds 20 1032 49 10000 3.1 250 12:43 12.09.2019
2052 Clouds 20 1032 59 10000 3.6 220 12:19 12.09.2019
2053 Clouds 19 1032 63 10000 2.6 240 11:55 12.09.2019
2054 Clouds 19 1032 63 10000 3.1 240 11:37 12.09.2019
2055 Clouds 18 1032 63 10000 3.1 240 11:19 12.09.2019
2056 Clear 17 1032 72 10000 2.6 230 10:44 12.09.2019
2057 Clear 17 1032 72 10000 2.6 230 10:24 12.09.2019
2058 Clouds 16 1031 77 10000 1.5 230 09:44 12.09.2019
2059 Clouds 15 1031 77 10000 1.5 230 09:23 12.09.2019
2060 Clouds 15 1031 77 10000 1.5 220 08:58 12.09.2019
2061 Clouds 14 1031 87 10000 2.1 210 08:40 12.09.2019
2062 Clouds 14 1031 87 10000 2.1 210 08:21 12.09.2019
2063 -273 0 0 0 0 0 07:40 12.09.2019
2064 Clouds 13 1030 82 10000 2.1 210 07:19 12.09.2019
2065 Clouds 13 1030 82 10000 2.1 210 06:51 12.09.2019
2066 Clouds 13 1030 82 10000 2.1 210 06:23 12.09.2019
2067 Clouds 13 1030 82 10000 2.6 190 05:51 12.09.2019
2068 Clouds 13 1030 87 10000 3.6 210 05:32 12.09.2019
2069 Clouds 13 1030 87 10000 3.1 210 04:41 12.09.2019
2070 Clouds 13 1029 76 10000 2.6 220 02:43 12.09.2019
2071 Clouds 13 1028 93 10000 3.1 240 01:37 12.09.2019
2072 Clouds 13 1028 93 10000 3.1 230 01:19 12.09.2019
2073 Clouds 13 1028 67 10000 1 0 00:44 12.09.2019
2074 Clouds 13 1028 87 10000 3.1 230 00:24 12.09.2019
2075 Clouds 13 1028 67 10000 2.1 270 23:42 11.09.2019
2076 Clouds 13 1028 87 10000 2.6 220 23:24 11.09.2019
2077 Clouds 13 1028 87 10000 3.6 220 22:57 11.09.2019
2078 Clouds 13 1027 93 10000 5.1 220 22:38 11.09.2019
2079 Clouds 13 1027 93 10000 0.5 150 22:19 11.09.2019
2080 Clouds 13 1027 93 10000 0.5 150 21:56 11.09.2019
2081 Clouds 14 1027 93 10000 1.5 150 21:38 11.09.2019
2082 Clouds 14 1027 93 10000 1.5 150 21:19 11.09.2019
2083 Clear 15 1026 87 10000 1.5 170 20:54 11.09.2019
2084 Clouds 16 1026 87 10000 1 170 20:36 11.09.2019
2085 Clouds 16 1026 87 10000 1 170 20:18 11.09.2019
2086 Clouds 17 1026 63 10000 0.5 0 19:54 11.09.2019
2087 Clouds 18 1025 55 10000 1.5 330 19:36 11.09.2019
2088 -273 0 0 0 0 0 19:18 11.09.2019
2089 Clouds 19 1025 52 10000 3.1 330 18:41 11.09.2019
2090 Clouds 20 1025 55 10000 3.6 350 18:22 11.09.2019
2091 Clear 20 1024 49 10000 2.6 330 18:22 11.09.2019
2092 Clouds 20 1025 55 10000 3.6 350 17:58 11.09.2019
2093 Clouds 20 1025 55 10000 3.6 350 17:58 11.09.2019
2094 Clouds 20 1024 55 10000 2.6 300 17:39 11.09.2019
2095 Clouds 20 1024 55 10000 2.6 300 17:20 11.09.2019
2096 Clouds 20 1024 55 10000 2.1 350 16:54 11.09.2019
2097 Clouds 20 1024 55 10000 2.1 350 16:54 11.09.2019
2098 Clouds 20 1024 52 10000 1 0 16:36 11.09.2019
2099 Clouds 20 1024 52 10000 1 0 16:18 11.09.2019
2100 Clouds 20 1024 48 10000 1.5 170 15:45 11.09.2019
2101 Clouds 20 1024 55 10000 1.5 150 15:22 11.09.2019
2102 Clouds 20 1024 52 10000 1.5 150 14:57 11.09.2019
2103 Clouds 20 1024 55 10000 1.5 220 14:38 11.09.2019
2104 Clouds 20 1024 55 10000 1.5 220 14:19 11.09.2019
2105 Clouds 19 1024 55 10000 1.5 0 13:54 11.09.2019
2106 Clear 19 1024 59 10000 1.5 0 13:36 11.09.2019
2107 Clear 19 1024 59 10000 1.5 0 13:18 11.09.2019
2108 Clouds 18 1024 55 10000 1 40 12:40 11.09.2019
2109 Clear 18 1024 59 10000 1.5 50 12:21 11.09.2019
2110 Clear 17 1024 59 10000 1.5 50 11:55 11.09.2019
2111 Clear 17 1024 59 10000 1.5 50 11:55 11.09.2019
2112 Clear 16 1024 72 10000 1 0 11:36 11.09.2019
2113 Clear 15 1024 76 10000 1 0 11:18 11.09.2019
2114 Clouds 14 1024 72 10000 1 170 10:40 11.09.2019
2115 Clear 13 1024 82 10000 1.5 200 10:22 11.09.2019
2116 Clear 12 1023 87 10000 1 0 09:56 11.09.2019
2117 Clear 11 1023 93 10000 1 260 09:36 11.09.2019
2118 Clear 11 1023 93 10000 1 260 09:18 11.09.2019
2119 Fog 10 1023 100 10000 1.31 307.377 08:40 11.09.2019
2120 Fog 9 1022 93 10000 1 0 08:21 11.09.2019
2121 Fog 9 1022 93 10000 1 0 07:49 11.09.2019
2122 Fog 9 1022 100 10000 0.5 0 07:23 11.09.2019
2123 Fog 9 1022 100 10000 0.5 0 06:56 11.09.2019
2124 Clouds 9 1022 93 10000 1.31 307.377 06:36 11.09.2019
2125 Clouds 9 1021 100 8000 1 0 05:50 11.09.2019
2126 Fog 9 1021 93 10000 0.5 140 05:30 11.09.2019
2127 Fog 9 1021 100 9000 0.96 28.297 04:52 11.09.2019
2128 Fog 8 1021 100 10000 0.5 0 03:40 11.09.2019
2129 Fog 8 1021 100 10000 0.5 0 03:40 11.09.2019
2130 Fog 8 1021 100 10000 0.5 0 03:20 11.09.2019
2131 Fog 9 1021 100 10000 1 150 02:28 11.09.2019
2132 Fog 9 1021 100 10000 0.5 0 01:28 11.09.2019
2133 Fog 9 1021 100 10000 1 160 00:32 11.09.2019
2134 Fog 10 1021 93 10000 0.5 0 23:58 10.09.2019
2135 Fog 10 1021 100 10000 1.7 27.875 23:40 10.09.2019
2136 Clouds 10 1021 100 10000 0.5 200 23:21 10.09.2019
2137 Clouds 11 1021 100 10000 1.7 27.875 22:54 10.09.2019
2138 Clouds 11 1020 93 10000 1.7 27.875 22:36 10.09.2019
2139 Clouds 11 1020 93 10000 1.7 27.875 22:18 10.09.2019
2140 Clouds 11 1020 93 10000 1.7 27.875 22:18 10.09.2019
2141 Clouds 11 1020 93 10000 1.7 27.875 21:54 10.09.2019
2142 Clouds 12 1020 87 10000 1.7 27.875 21:36 10.09.2019
2143 Clouds 12 1020 87 10000 1.89 29.88 21:18 10.09.2019
2144 Clear 13 1019 76 10000 2.6 30 20:54 10.09.2019
2145 Clear 14 1019 76 10000 3.1 30 20:36 10.09.2019
2146 Clear 14 1019 76 10000 3.1 30 20:18 10.09.2019
2147 Clear 15 1018 71 10000 3.1 30 19:55 10.09.2019
2148 Clear 16 1018 67 10000 4.1 20 19:36 10.09.2019
2149 Clear 16 1018 63 10000 4.6 20 19:18 10.09.2019
2150 Clear 17 1018 63 10000 4.1 40 18:42 10.09.2019
2151 Clear 18 1018 63 10000 4.1 40 18:22 10.09.2019
2152 Clear 18 1017 59 10000 4.6 40 17:56 10.09.2019
2153 Clear 18 1017 59 10000 3.6 60 17:38 10.09.2019
2154 Clear 18 1017 59 10000 3.6 60 17:19 10.09.2019
2155 Clear 18 1017 55 10000 4.1 40 16:57 10.09.2019
2156 Clouds 19 1017 59 10000 4.1 20 16:38 10.09.2019
2157 Clear 18 1018 59 10000 3.6 80 16:19 10.09.2019
2158 Clouds 18 1017 59 10000 3.6 30 15:43 10.09.2019
2159 Clear 18 1017 59 10000 2.6 50 15:23 10.09.2019
2160 Clear 18 1018 67 10000 2.6 60 14:57 10.09.2019
2161 Clouds 18 1017 63 10000 3.6 60 14:39 10.09.2019
2162 Clear 18 1018 63 10000 3.1 70 14:20 10.09.2019
2163 Clouds 17 1018 63 10000 4.6 60 13:47 10.09.2019
2164 Clear 17 1018 67 10000 3.1 70 13:47 10.09.2019
2165 Clear 17 1018 63 10000 4.1 50 13:23 10.09.2019
2166 Clear 16 1018 67 10000 4.1 60 12:54 10.09.2019
2167 Clouds 15 1018 67 10000 3.6 70 12:36 10.09.2019
2168 Clouds 15 1018 71 10000 3.6 70 12:18 10.09.2019
2169 Mist 14 1018 76 10000 3.1 40 11:42 10.09.2019
2170 Mist 13 1018 76 10000 3.1 40 11:22 10.09.2019
2171 Fog 12 1018 81 10000 3.1 60 10:57 10.09.2019
2172 Fog 11 1017 81 10000 2.1 80 10:36 10.09.2019
2173 Fog 11 1018 93 5000 1 30 10:18 10.09.2019
2174 Fog 9 1017 100 10000 1 0 09:44 10.09.2019
2175 Fog 8 1018 100 500 1.5 50 09:20 10.09.2019
2176 Fog 7 1017 100 10000 0.5 0 08:56 10.09.2019
2177 Fog 7 1017 100 10000 1.95 98.417 08:38 10.09.2019
2178 Fog 6 1017 100 10000 1 190 08:19 10.09.2019
2179 Fog 5 1016 100 10000 1.5 160 07:43 10.09.2019
2180 Fog 5 1016 100 10000 0.5 0 07:25 10.09.2019
2181 Fog 5 1016 100 50 0.5 170 06:46 10.09.2019
2182 Fog 5 1016 100 9000 1.5 180 06:28 10.09.2019
2183 Rain 6 1016 100 3700 1 200 04:38 10.09.2019
2184 Fog 6 1016 100 10000 1 0 02:44 10.09.2019
2185 Fog 6 1016 100 7000 1.5 170 02:22 10.09.2019
2186 Fog 6 1016 100 7000 1.5 170 02:22 10.09.2019
2187 Fog 6 1016 100 7000 1.5 170 01:52 10.09.2019
2188 Fog 6 1016 100 7000 1.5 170 01:52 10.09.2019
2189 Fog 6 1016 100 7000 1.5 170 01:52 10.09.2019
2190 Fog 6 1016 100 3900 0.5 170 01:24 10.09.2019
2191 Fog 6 1017 100 1500 1.5 180 00:44 10.09.2019
2192 Fog 6 1017 100 700 1.92 220.967 00:24 10.09.2019
2193 Fog 7 1016 100 800 0.5 0 23:43 09.09.2019
2194 Fog 7 1017 100 500 0.5 0 23:20 09.09.2019
2195 Fog 8 1016 100 750 0.5 0 22:56 09.09.2019
2196 Clouds 8 1016 100 1000 1 0 22:38 09.09.2019
2197 Clouds 8 1016 93 10000 1 0 22:20 09.09.2019
2198 Clouds 8 1016 93 10000 1 0 21:56 09.09.2019
2199 Fog 9 1016 100 10000 1 0 21:37 09.09.2019
2200 Fog 9 1016 100 10000 1.5 180 21:19 09.09.2019
2201 Fog 9 1016 100 10000 1.5 180 20:56 09.09.2019
2202 Clouds 11 1016 93 10000 1.5 190 20:37 09.09.2019
2203 Clear 11 1015 87 10000 1 0 20:19 09.09.2019
2204 Clear 12 1015 87 10000 1 0 19:58 09.09.2019
2205 Clouds 12 1016 81 10000 1.5 270 19:39 09.09.2019
2206 Clouds 13 1015 76 10000 2.1 260 19:19 09.09.2019
2207 Clouds 13 1015 76 10000 2.1 260 18:57 09.09.2019
2208 Clouds 13 1016 81 10000 3.6 260 18:39 09.09.2019
2209 Clouds 13 1016 76 10000 3.6 260 18:21 09.09.2019
2210 Clouds 13 1016 76 10000 3.6 260 17:58 09.09.2019
2211 Clouds 13 1016 81 10000 3.6 260 17:40 09.09.2019
2212 Clouds 13 1016 87 10000 3.6 250 17:21 09.09.2019
2213 Clouds 13 1016 87 10000 3.6 250 16:55 09.09.2019
2214 Rain 12 1016 87 10000 3.1 230 16:37 09.09.2019
2215 Rain 12 1016 87 10000 5.7 230 16:19 09.09.2019
2216 Rain 12 1016 87 10000 5.7 230 15:55 09.09.2019
2217 Rain 12 1016 87 10000 5.7 230 15:55 09.09.2019
2218 Rain 12 1016 87 10000 5.1 240 15:36 09.09.2019
2219 Rain 12 1016 87 8000 6.2 240 15:18 09.09.2019
2220 Rain 12 1016 87 8000 6.2 240 14:55 09.09.2019
2221 Rain 11 1016 93 7000 5.7 240 14:37 09.09.2019
2222 Rain 11 1016 93 6000 6.7 250 14:18 09.09.2019
2223 Rain 11 1016 93 6000 6.7 250 13:44 09.09.2019
2224 Rain 11 1014 87 7000 5.7 260 13:20 09.09.2019
2225 Rain 11 1016 87 8000 6.2 250 12:58 09.09.2019
2226 Rain 11 1016 93 7000 6.7 270 12:38 09.09.2019
2227 Rain 11 1015 93 4000 4.6 250 12:19 09.09.2019
2228 Rain 11 1016 93 5000 4.6 250 11:46 09.09.2019
2229 Rain 11 1015 93 3000 5.1 260 11:22 09.09.2019
2230 Rain 11 1015 93 6000 5.7 250 10:58 09.09.2019
2231 Clouds 10 1015 93 9000 4.6 260 10:40 09.09.2019
2232 Rain 10 1015 93 10000 3.6 240 10:20 09.09.2019
2233 Rain 10 1015 93 10000 4.6 260 09:56 09.09.2019
2234 Rain 10 1015 93 7000 5.7 260 09:37 09.09.2019
2235 Rain 10 1015 93 7000 5.7 260 09:37 09.09.2019
2236 Rain 10 1015 93 4500 4.1 240 09:19 09.09.2019
2237 Rain 10 1014 100 5000 4.6 260 08:38 09.09.2019
2238 Rain 10 1013 93 8000 4.1 270 08:20 09.09.2019
2239 Rain 10 1013 93 8000 4.1 270 08:20 09.09.2019
2240 Rain 10 1014 100 9000 4.1 250 07:46 09.09.2019
2241 Rain 10 1014 93 10000 4.1 270 07:23 09.09.2019
2242 Rain 10 1014 93 10000 4.1 260 06:57 09.09.2019
2243 Rain 10 1014 93 10000 4.1 260 06:57 09.09.2019
2244 Rain 10 1014 93 10000 3.6 260 06:35 09.09.2019
2245 Rain 10 1014 93 10000 4.6 230 04:56 09.09.2019
2246 Rain 9 1015 100 10000 1.5 240 02:54 09.09.2019
2247 Rain 9 1015 93 10000 3.6 240 02:34 09.09.2019
2248 Rain 9 1016 93 0 4.6 260 00:43 09.09.2019
2249 Rain 9 1016 100 5000 2.1 190 00:22 09.09.2019
2250 Rain 9 1016 93 9000 3.6 220 23:45 08.09.2019
2251 Rain 9 1016 93 10000 2.6 210 23:24 08.09.2019
2252 Rain 9 1016 93 10000 2.6 210 23:24 08.09.2019
2253 Rain 9 1016 93 10000 2.6 210 22:57 08.09.2019
2254 Rain 9 1016 93 10000 3.6 200 22:38 08.09.2019
2255 Rain 9 1016 93 10000 3.6 200 22:19 08.09.2019
2256 Rain 9 1016 93 10000 3.1 210 21:42 08.09.2019
2257 Rain 9 1016 93 10000 3.1 210 21:23 08.09.2019
2258 Rain 9 1016 93 10000 3.1 200 20:59 08.09.2019
2259 Rain 10 1016 93 10000 3.1 210 20:40 08.09.2019
2260 Rain 10 1016 93 10000 3.6 220 20:21 08.09.2019
2261 Rain 10 1016 93 10000 3.6 220 19:59 08.09.2019
2262 Rain 10 1016 87 10000 4.1 220 19:38 08.09.2019
2263 Rain 10 1016 93 10000 4.1 240 19:20 08.09.2019
2264 Rain 10 1016 93 10000 4.1 240 18:57 08.09.2019
2265 Rain 10 1016 87 0 1 170 18:38 08.09.2019
2266 Rain 10 1016 93 10000 2.1 220 18:18 08.09.2019
2267 Rain 10 1016 93 10000 2.1 220 17:56 08.09.2019
2268 Rain 11 1016 93 10000 1.5 220 17:36 08.09.2019
2269 Rain 11 1016 87 10000 1.5 170 17:18 08.09.2019
2270 Rain 11 1016 93 8000 1.5 190 16:44 08.09.2019
2271 Rain 11 1016 93 6000 2.1 210 16:22 08.09.2019
2272 Rain 11 1016 93 6000 2.1 210 15:59 08.09.2019
2273 Rain 11 1016 93 9000 3.1 240 15:41 08.09.2019
2274 Rain 11 1016 93 9000 3.1 240 15:21 08.09.2019
2275 Rain 11 1017 93 10000 2.1 240 14:58 08.09.2019
2276 Rain 11 1017 93 7000 2.1 240 14:39 08.09.2019
2277 Rain 11 1017 93 6000 0.5 0 14:20 08.09.2019
2278 Rain 11 1017 93 6000 0.5 0 13:57 08.09.2019
2279 Rain 11 1017 93 8000 0.5 0 13:38 08.09.2019
2280 Rain 11 1017 93 6000 4.15 251.792 13:19 08.09.2019
2281 Rain 11 1017 100 0 1.5 210 12:42 08.09.2019
2282 Rain 11 1017 93 10000 1 0 12:24 08.09.2019
2283 Rain 11 1017 93 10000 1 0 11:59 08.09.2019
2284 Rain 11 1017 93 10000 1 0 11:40 08.09.2019
2285 Mist 11 1017 93 10000 1 0 11:20 08.09.2019
2286 Mist 10 1016 100 3000 2.1 330 10:58 08.09.2019
2287 Fog 10 1017 100 700 2.1 320 10:40 08.09.2019
2288 Fog 10 1017 100 3000 1.5 0 10:22 08.09.2019
2289 Fog 10 1017 100 700 1 340 09:55 08.09.2019
2290 Fog 10 1016 93 10000 1 0 09:37 08.09.2019
2291 Fog 9 1016 93 10000 1 0 09:18 08.09.2019
2292 Fog 8 1016 100 10000 1 0 08:39 08.09.2019
2293 Fog 8 1017 100 10000 1 0 08:18 08.09.2019
2294 Fog 8 1017 100 10000 1 0 07:41 08.09.2019
2295 Fog 8 1017 93 1700 0.5 190 07:21 08.09.2019
2296 Fog 8 1017 93 1700 0.5 190 06:57 08.09.2019
2297 Fog 7 1017 100 600 0.5 0 06:34 08.09.2019
2298 Fog 8 1017 93 10000 1 0 05:40 08.09.2019
2299 Fog 8 1017 100 150 1.5 150 04:58 08.09.2019
2300 Fog 8 1018 100 1000 0.33 285.636 03:23 08.09.2019
2301 Fog 9 1018 93 8000 0.5 0 02:48 08.09.2019
2302 Fog 9 1018 100 10000 1.5 20 01:54 08.09.2019
2303 Fog 9 1018 100 10000 1 160 01:26 08.09.2019
2304 Clouds 9 1019 93 150 0.5 340 00:49 08.09.2019
2305 Clouds 10 1019 93 10000 1 0 00:30 08.09.2019
2306 Clouds 10 1019 93 10000 0.5 0 23:57 07.09.2019
2307 Clouds 11 1019 93 10000 1.5 130 23:37 07.09.2019
2308 Clouds 11 1019 93 10000 1.5 130 23:18 07.09.2019
2309 Clouds 11 1019 93 10000 1.5 160 22:43 07.09.2019
2310 Rain 11 1020 93 10000 1.5 130 22:25 07.09.2019
2311 Rain 11 1020 93 10000 1.5 130 21:56 07.09.2019
2312 Rain 12 1020 87 10000 1.5 120 21:38 07.09.2019
2313 Rain 12 1020 87 10000 1 90 21:20 07.09.2019
2314 Rain 12 1019 76 10000 1 210 20:41 07.09.2019
2315 Rain 12 1019 76 10000 1 210 20:22 07.09.2019
2316 Rain 13 1019 76 10000 1.5 320 19:57 07.09.2019
2317 Clouds 13 1019 76 10000 3.1 310 19:38 07.09.2019
2318 Rain 13 1019 71 10000 3.1 200 19:20 07.09.2019
2319 Rain 14 1019 71 10000 3.1 200 18:59 07.09.2019
2320 Rain 14 1019 82 10000 3.1 180 18:40 07.09.2019
2321 Rain 14 1019 72 10000 2.6 230 18:21 07.09.2019
2322 Rain 14 1019 76 10000 4.6 290 17:59 07.09.2019
2323 Rain 15 1019 76 10000 3.6 180 17:39 07.09.2019
2324 Rain 15 1019 76 10000 4.1 170 17:19 07.09.2019
2325 Rain 15 1019 76 10000 4.1 170 16:59 07.09.2019
2326 Rain 15 1019 71 10000 3.1 210 16:40 07.09.2019
2327 Clouds 15 1019 76 10000 2.1 200 16:19 07.09.2019
2328 Rain 15 1019 72 7000 2.1 220 15:47 07.09.2019
2329 Clouds 15 1020 76 10000 2.1 170 15:26 07.09.2019
2330 Clouds 15 1020 76 10000 2.1 170 14:57 07.09.2019
2331 Rain 15 1020 71 10000 1.5 180 14:37 07.09.2019
2332 Rain 15 1020 76 10000 2.1 200 14:19 07.09.2019
2333 Clouds 15 1020 62 10000 2.6 220 13:57 07.09.2019
2334 Clouds 14 1020 76 10000 2.34 226.941 13:39 07.09.2019
2335 Rain 14 1020 76 10000 1.5 270 13:21 07.09.2019
2336 Rain 14 1020 81 0 2.6 230 12:44 07.09.2019
2337 Rain 13 1020 87 9000 2.6 250 12:25 07.09.2019
2338 Rain 13 1020 87 9000 2.6 250 11:57 07.09.2019
2339 Rain 13 1020 87 9000 2.6 260 11:39 07.09.2019
2340 Rain 13 1020 87 9000 2.6 260 11:19 07.09.2019
2341 Rain 12 1020 93 10000 3.6 250 10:40 07.09.2019
2342 Rain 12 1020 93 10000 3.1 250 10:21 07.09.2019
2343 Rain 12 1020 93 10000 2.6 220 09:56 07.09.2019
2344 Rain 12 1020 93 10000 3.1 260 09:37 07.09.2019
2345 Rain 11 1020 93 8000 3.1 270 09:19 07.09.2019
2346 Rain 11 1020 93 7000 2.1 220 08:44 07.09.2019
2347 Rain 11 1020 93 9000 3.1 260 08:25 07.09.2019
2348 Rain 11 1020 93 8000 3.1 260 07:46 07.09.2019
2349 Rain 11 1020 93 8000 3.1 260 07:27 07.09.2019
2350 Rain 11 1020 93 8000 2.1 270 06:50 07.09.2019
2351 Rain 11 1019 93 8000 2.6 270 06:20 07.09.2019
2352 Rain 11 1020 93 6000 3.1 250 04:49 07.09.2019
2353 Rain 12 1020 93 6000 3.1 250 04:23 07.09.2019
2354 Rain 12 1020 93 6000 2.6 260 02:49 07.09.2019
2355 Rain 12 1020 100 6000 2.6 250 02:20 07.09.2019
2356 Rain 12 1020 93 10000 2.1 260 01:26 07.09.2019
2357 Rain 12 1020 93 7000 1 220 00:41 07.09.2019
2358 Rain 13 1021 100 8000 1.5 280 00:19 07.09.2019
2359 Rain 13 1021 100 6000 1 250 23:41 06.09.2019
2360 Rain 13 1021 93 6000 0.5 0 23:22 06.09.2019
2361 Rain 13 1021 93 6000 0.5 0 22:58 06.09.2019
2362 Rain 13 1021 93 6000 0.5 0 22:58 06.09.2019
2363 Rain 13 1021 93 8000 1.5 230 22:38 06.09.2019
2364 Rain 13 1021 93 9000 1.5 240 22:19 06.09.2019
2365 Rain 13 1021 93 9000 1.5 240 21:58 06.09.2019
2366 Rain 13 1021 93 10000 1 230 21:39 06.09.2019
2367 Clouds 13 1021 93 10000 1 230 21:21 06.09.2019
2368 Clouds 14 1021 87 10000 2.49 348.974 20:58 06.09.2019
2369 Rain 14 1021 87 10000 0.5 0 20:39 06.09.2019
2370 Rain 14 1021 87 10000 0.5 0 20:21 06.09.2019
2371 Rain 14 1021 87 10000 1.5 120 20:21 06.09.2019
2372 Clouds 14 1021 71 10000 1.5 360 19:57 06.09.2019
2373 Clouds 14 1021 82 10000 2.1 120 19:39 06.09.2019
2374 Clouds 14 1021 82 10000 2.1 50 19:20 06.09.2019
2375 Clouds 14 1021 82 10000 1 0 18:47 06.09.2019
2376 Clouds 15 1021 82 10000 1 0 18:27 06.09.2019
2377 Drizzle 15 1021 87 10000 1.5 20 17:59 06.09.2019
2378 Clouds 15 1021 87 10000 1.5 20 17:59 06.09.2019
2379 Clouds 15 1021 82 10000 1.5 70 17:38 06.09.2019
2380 Clouds 15 1021 82 10000 2.1 60 17:19 06.09.2019
2381 Clouds 15 1021 82 10000 3.1 60 16:42 06.09.2019
2382 Clouds 15 1021 82 10000 4.1 40 16:19 06.09.2019
2383 Clouds 15 1021 82 10000 4.1 40 15:56 06.09.2019
2384 Clouds 15 1021 76 10000 3.1 70 15:38 06.09.2019
2385 Clouds 15 1022 76 10000 3.1 70 15:20 06.09.2019
2386 Clouds 15 1022 76 10000 3.6 60 14:39 06.09.2019
2387 Clouds 15 1022 82 10000 4.1 80 14:18 06.09.2019
2388 Clouds 15 1022 82 10000 4.1 60 13:43 06.09.2019
2389 Clouds 15 1022 81 10000 4.6 90 13:22 06.09.2019
2390 Clouds 15 1022 82 10000 4.1 60 13:22 06.09.2019
2391 Clouds 14 1023 82 10000 4.1 80 12:41 06.09.2019
2392 Clouds 14 1023 76 10000 4.1 90 12:23 06.09.2019
2393 Clouds 14 1023 76 10000 4.6 100 11:59 06.09.2019
2394 Clouds 13 1023 87 10000 3.6 70 11:40 06.09.2019
2395 Drizzle 13 1023 87 10000 3.1 60 11:22 06.09.2019
2396 Drizzle 12 1023 87 10000 3.1 60 10:56 06.09.2019
2397 Rain 12 1023 87 10000 2.6 50 10:38 06.09.2019
2398 Rain 12 1023 87 10000 2.6 50 10:18 06.09.2019
2399 Rain 11 1023 93 9000 1.5 70 09:38 06.09.2019
2400 Rain 11 1023 100 9000 1.5 80 09:19 06.09.2019
2401 Rain 11 1023 100 9000 1.5 80 08:55 06.09.2019
2402 Rain 11 1023 93 9000 1 0 08:37 06.09.2019
2403 Rain 11 1023 93 10000 1 110 08:18 06.09.2019
2404 Fog 10 1023 93 9000 1 0 07:42 06.09.2019
2405 Fog 10 1023 93 9000 1 0 07:23 06.09.2019
2406 Clear 10 1023 100 10000 2.33 34.264 06:43 06.09.2019
2407 Rain 10 1023 93 10000 1.62 346.968 05:58 06.09.2019
2408 Rain 10 1023 87 10000 1 180 04:57 06.09.2019
2409 Clouds 10 1024 93 10000 1 220 04:26 06.09.2019
2410 Rain 10 1024 93 10000 1.5 200 03:29 06.09.2019
2411 Rain 11 1024 87 10000 2.6 220 01:49 06.09.2019
2412 Rain 11 1024 87 10000 3.1 220 00:23 06.09.2019
2413 Rain 11 1024 93 10000 2.6 210 00:23 06.09.2019
2414 Rain 11 1024 93 10000 3.1 200 23:44 05.09.2019
2415 Rain 11 1024 93 10000 2.1 190 23:24 05.09.2019
2416 Rain 11 1024 93 10000 3.1 190 22:54 05.09.2019
2417 Rain 11 1024 93 10000 2.6 190 22:36 05.09.2019
2418 Rain 11 1024 93 10000 3.1 190 22:18 05.09.2019
2419 -273 0 0 0 0 0 21:55 05.09.2019
2420 Rain 11 1024 93 10000 3.6 200 21:37 05.09.2019
2421 Rain 12 1023 93 10000 4.6 200 21:18 05.09.2019
2422 Rain 12 1023 93 10000 3.6 200 20:54 05.09.2019
2423 Rain 12 1023 93 10000 3.6 210 20:36 05.09.2019
2424 Rain 12 1022 93 10000 4.6 220 20:18 05.09.2019
2425 Rain 12 1021 87 10000 3.6 260 19:41 05.09.2019
2426 Rain 12 1021 87 10000 3.1 260 19:22 05.09.2019
2427 Rain 12 1021 87 10000 3.1 260 18:57 05.09.2019
2428 Rain 13 1021 87 10000 4.1 260 18:39 05.09.2019
2429 Rain 13 1021 76 10000 3.1 270 18:19 05.09.2019
2430 Rain 13 1021 93 10000 3.6 290 17:42 05.09.2019
2431 Rain 13 1020 87 10000 2.6 220 17:23 05.09.2019
2432 Rain 13 1020 76 10000 5.1 310 16:58 05.09.2019
2433 Rain 14 1020 93 10000 3.6 300 16:40 05.09.2019
2434 Rain 14 1020 100 7000 3.6 20 16:20 05.09.2019
2435 Rain 14 1020 100 7000 3.6 20 15:57 05.09.2019
2436 Rain 15 1020 93 7000 1.5 290 15:38 05.09.2019
2437 Rain 15 1020 87 6000 2.6 300 15:18 05.09.2019
2438 Rain 15 1020 87 6000 2.6 300 15:18 05.09.2019
2439 Rain 15 1020 93 8000 1.5 320 14:43 05.09.2019
2440 -273 0 0 0 0 0 14:22 05.09.2019
2441 Rain 16 1019 93 10000 2.1 270 13:44 05.09.2019
2442 Rain 16 1019 93 8000 2.1 240 13:23 05.09.2019
2443 Rain 16 1019 93 8000 2.1 240 12:59 05.09.2019
2444 Rain 16 1019 87 8000 1.5 180 12:41 05.09.2019
2445 Rain 16 1019 87 8000 1.5 180 12:41 05.09.2019
2446 Rain 16 1019 82 10000 2.1 270 12:22 05.09.2019
2447 Rain 16 1019 82 10000 3.1 300 11:44 05.09.2019
2448 Rain 16 1018 77 10000 2.6 300 11:20 05.09.2019
2449 Clouds 16 1019 72 10000 4.1 320 10:57 05.09.2019
2450 Clear 16 1018 77 10000 2.1 300 10:36 05.09.2019
2451 Clear 16 1018 72 10000 2.1 270 10:18 05.09.2019
2452 Clear 15 1018 72 10000 2.1 300 09:40 05.09.2019
2453 Clear 14 1017 76 10000 3.1 270 09:21 05.09.2019
2454 Clear 14 1017 76 10000 3.1 270 08:56 05.09.2019
2455 Clear 13 1017 76 10000 2.1 260 08:38 05.09.2019
2456 Clouds 13 1017 87 10000 2.6 220 08:19 05.09.2019
2457 Fog 12 1017 82 10000 3.1 240 07:44 05.09.2019
2458 Fog 12 1017 82 10000 3.1 240 07:24 05.09.2019
2459 Clouds 12 1017 71 10000 2.6 290 06:46 05.09.2019
2460 Clouds 12 1017 71 10000 2.6 290 06:26 05.09.2019
2461 Clear 12 1016 82 10000 2.6 200 05:46 05.09.2019
2462 Clear 12 1016 82 10000 3.6 210 05:27 05.09.2019
2463 Clear 12 1016 87 10000 1.5 190 04:41 05.09.2019
2464 Clear 12 1016 87 10000 2.1 200 04:18 05.09.2019
2465 Clear 13 1016 82 10000 2.1 200 02:59 05.09.2019
2466 Clear 13 1016 82 10000 2.1 200 02:59 05.09.2019
2467 Clear 13 1016 87 10000 3.1 220 02:40 05.09.2019
2468 Clear 13 1017 87 10000 4.1 220 02:18 05.09.2019
2469 Clear 14 1016 77 10000 4.1 240 01:19 05.09.2019
2470 Clear 14 1016 82 10000 1.5 200 00:40 05.09.2019
2471 Clear 14 1016 87 10000 1.5 230 00:20 05.09.2019
2472 Clear 14 1016 72 10000 3.1 200 23:45 04.09.2019
2473 Clear 14 1016 72 10000 2.1 240 23:23 04.09.2019
2474 Clear 14 1016 72 10000 2.1 240 22:57 04.09.2019
2475 Clear 14 1016 71 10000 3.6 230 22:38 04.09.2019
2476 Clear 15 1016 87 10000 2.1 190 22:18 04.09.2019
2477 Clear 16 1016 82 10000 1.5 190 21:39 04.09.2019
2478 Clear 17 1016 82 10000 1.5 190 21:20 04.09.2019
2479 -273 0 0 0 0 0 20:56 04.09.2019
2480 Clear 19 1016 63 10000 1.5 240 20:37 04.09.2019
2481 Clear 20 1016 52 10000 2.1 260 20:18 04.09.2019
2482 Clear 21 1016 52 10000 2.1 260 19:55 04.09.2019
2483 Clear 23 1015 46 10000 0.5 0 19:36 04.09.2019
2484 Clear 23 1015 47 10000 1 0 19:18 04.09.2019
2485 Clear 23 1015 41 10000 1 0 18:38 04.09.2019
2486 Clear 24 1015 38 10000 2.1 10 18:19 04.09.2019
2487 Clear 25 1016 33 10000 3.6 220 17:41 04.09.2019
2488 Clear 25 1016 33 10000 3.6 220 17:23 04.09.2019
2489 Clear 25 1016 38 10000 1.5 0 17:23 04.09.2019
2490 Clear 25 1016 40 10000 2.1 220 16:58 04.09.2019
2491 Clear 24 1017 41 10000 1 0 16:40 04.09.2019
2492 Clear 24 1017 40 10000 1.5 0 16:21 04.09.2019
2493 Clear 24 1017 40 10000 1.5 0 15:55 04.09.2019
2494 Clear 25 1017 38 10000 1 0 15:37 04.09.2019
2495 Clear 24 1018 38 10000 1 0 15:19 04.09.2019
2496 Clear 24 1018 38 10000 1 0 14:54 04.09.2019
2497 Clear 23 1018 46 10000 1.5 0 14:36 04.09.2019
2498 Clear 23 1018 49 10000 2.1 80 14:18 04.09.2019
2499 Clear 23 1019 52 10000 2.6 60 13:40 04.09.2019
2500 Clear 22 1019 56 10000 1 0 13:21 04.09.2019
2501 Clear 22 1019 56 10000 1 0 13:21 04.09.2019
2502 Clear 22 1019 56 10000 1 0 12:56 04.09.2019
2503 Clear 21 1019 56 10000 1.5 70 12:37 04.09.2019
2504 Clear 21 1020 68 10000 2.6 40 12:18 04.09.2019
2505 Clear 20 1020 68 10000 2.6 30 11:41 04.09.2019
2506 Clear 19 1020 68 10000 2.6 30 11:21 04.09.2019
2507 Clear 18 1020 67 10000 1.5 320 10:59 04.09.2019
2508 Clear 17 1020 77 10000 1 0 10:41 04.09.2019
2509 Clear 16 1021 82 10000 2.54 107.492 10:23 04.09.2019
2510 Fog 14 1021 87 10000 0.5 0 09:46 04.09.2019
2511 Fog 13 1021 87 10000 0.5 0 09:27 04.09.2019
2512 Fog 12 1021 100 10000 2.37 127.131 08:59 04.09.2019
2513 Fog 11 1021 100 10000 1 0 08:40 04.09.2019
2514 Fog 9 1021 100 10000 0.5 330 08:21 04.09.2019
2515 Fog 8 1021 93 2000 0.5 340 07:48 04.09.2019
2516 Fog 8 1021 100 10000 2.1 250 07:29 04.09.2019
2517 Fog 8 1021 100 10000 1.5 230 06:40 04.09.2019
2518 Fog 8 1021 100 10000 0.5 0 05:51 04.09.2019
2519 Fog 8 1022 93 10000 1.5 190 04:52 04.09.2019
2520 Clear 9 1023 100 10000 1.5 170 03:52 04.09.2019
2521 Clear 10 1024 87 0 1.5 250 01:39 04.09.2019
2522 Clear 10 1024 93 10000 0.5 0 00:54 04.09.2019
2523 Clear 11 1024 93 10000 0.5 0 00:32 04.09.2019
2524 Clear 11 1024 87 10000 1.5 160 23:54 03.09.2019
2525 Clear 11 1024 93 10000 1.5 150 23:28 03.09.2019
2526 Clear 11 1024 93 10000 1.5 150 22:59 03.09.2019
2527 Clear 12 1025 87 10000 1.5 170 22:40 03.09.2019
2528 Clear 13 1024 87 10000 1 160 22:22 03.09.2019
2529 Clear 13 1024 87 10000 1 160 21:56 03.09.2019
2530 Clear 13 1024 87 10000 1 160 21:56 03.09.2019
2531 -273 0 0 0 0 0 21:56 03.09.2019
2532 Clear 14 1025 87 10000 1.5 160 21:37 03.09.2019
2533 Clear 15 1024 87 10000 2.1 160 21:19 03.09.2019
2534 Clear 16 1024 55 10000 0.5 20 20:43 03.09.2019
2535 Clear 17 1024 55 10000 0.5 20 20:24 03.09.2019
2536 Clear 18 1024 45 10000 1 0 19:57 03.09.2019
2537 Clear 20 1024 42 10000 1.5 270 19:38 03.09.2019
2538 Clear 20 1024 45 10000 2.1 0 19:19 03.09.2019
2539 Clear 20 1024 40 10000 2.1 260 18:56 03.09.2019
2540 Clear 20 1024 40 10000 2.1 260 18:38 03.09.2019
2541 Clear 21 1024 37 10000 2.1 270 18:18 03.09.2019
2542 Clear 21 1025 40 10000 2.1 0 17:42 03.09.2019
2543 Clear 21 1025 37 10000 2.6 200 17:21 03.09.2019
2544 Clear 21 1025 37 10000 2.6 200 16:59 03.09.2019
2545 Clear 21 1025 37 10000 2.1 0 16:41 03.09.2019
2546 Clear 22 1025 42 10000 1.5 0 16:22 03.09.2019
2547 Clear 22 1025 40 10000 1.5 0 15:42 03.09.2019
2548 Clear 22 1025 40 10000 1.5 0 15:42 03.09.2019
2549 Clear 21 1025 45 10000 2.6 50 15:22 03.09.2019
2550 Clear 21 1025 45 10000 2.6 50 14:59 03.09.2019
2551 Clear 21 1026 48 10000 2.6 320 14:41 03.09.2019
2552 Clear 21 1026 48 10000 2.6 320 14:41 03.09.2019
2553 Clear 21 1026 48 10000 2.6 320 14:21 03.09.2019
2554 Clouds 20 1026 45 10000 1.5 90 13:58 03.09.2019
2555 Clouds 21 1026 48 10000 2.6 320 13:38 03.09.2019
2556 Clouds 20 1026 42 10000 1.5 0 13:20 03.09.2019
2557 Clouds 20 1026 42 10000 1.5 0 13:20 03.09.2019
2558 Clouds 20 1026 42 10000 1.5 0 12:57 03.09.2019
2559 Clouds 19 1026 42 10000 1.5 0 12:39 03.09.2019
2560 Clouds 20 1026 42 10000 1.5 0 12:39 03.09.2019
2561 -273 0 0 0 0 0 12:21 03.09.2019
2562 Clear 18 1026 67 10000 1 0 11:43 03.09.2019
2563 Clear 17 1026 67 10000 1 0 11:23 03.09.2019
2564 Clear 17 1026 67 10000 1 0 11:23 03.09.2019
2565 Clear 17 1026 72 10000 2.1 240 10:58 03.09.2019
2566 Fog 16 1026 77 10000 1.5 230 10:39 03.09.2019
2567 Fog 15 1026 87 10000 2.6 230 10:21 03.09.2019
2568 Fog 14 1026 82 8000 1.5 0 09:49 03.09.2019
2569 Fog 13 1026 93 10000 2.6 220 09:31 03.09.2019
2570 Fog 11 1026 93 10000 2.6 220 08:57 03.09.2019
2571 Fog 10 1026 100 10000 2.1 220 08:37 03.09.2019
2572 Fog 9 1025 100 500 1.26 260.389 08:19 03.09.2019
2573 Fog 8 1025 100 6000 2.1 210 07:43 03.09.2019
2574 Fog 8 1025 100 5000 3.1 210 07:24 03.09.2019
2575 Fog 8 1025 100 5000 3.1 210 06:50 03.09.2019
2576 Fog 8 1025 93 7000 0.5 0 06:32 03.09.2019
2577 Clear 9 1025 100 10000 2.1 180 03:44 03.09.2019
2578 Clouds 10 1025 100 10000 1.5 210 02:48 03.09.2019
2579 Clouds 10 1025 100 10000 1.5 210 02:29 03.09.2019
2580 Clouds 10 1025 93 10000 2.1 180 01:58 03.09.2019
2581 Clear 11 1025 100 10000 2.1 270 01:39 03.09.2019
2582 Clear 11 1025 93 10000 2.1 270 01:20 03.09.2019
2583 Clear 11 1025 93 10000 3.1 270 00:28 03.09.2019
2584 Clouds 12 1025 87 10000 2.6 180 23:56 02.09.2019
2585 Clear 12 1026 87 10000 2.6 210 23:36 02.09.2019
2586 Clear 12 1026 87 10000 2.6 210 23:36 02.09.2019
2587 Clear 12 1025 81 10000 2.6 210 23:18 02.09.2019
2588 Clear 12 1025 81 10000 2.6 210 23:18 02.09.2019
2589 Clear 12 1025 81 10000 2.6 210 23:18 02.09.2019
2590 Clear 13 1025 81 10000 2.6 210 23:18 02.09.2019
2591 Clouds 13 1025 87 10000 2.6 190 22:54 02.09.2019
2592 Clear 13 1025 87 10000 3.1 220 22:36 02.09.2019
2593 Clear 13 1025 87 10000 3.1 210 22:18 02.09.2019
2594 Clouds 14 1025 87 10000 3.1 200 21:54 02.09.2019
2595 Clear 14 1025 82 10000 3.6 210 21:36 02.09.2019
2596 Clear 14 1024 82 10000 3.6 210 21:18 02.09.2019
2597 Clear 15 1024 87 10000 3.6 220 20:41 02.09.2019
2598 Clear 15 1023 77 10000 4.6 210 20:22 02.09.2019
2599 Clear 16 1023 77 10000 4.6 210 19:58 02.09.2019
2600 Rain 16 1024 82 10000 3.1 210 19:40 02.09.2019
2601 Rain 16 1023 82 10000 3.6 230 19:21 02.09.2019
2602 Clear 17 1022 72 10000 4.1 200 18:56 02.09.2019
2603 Rain 17 1022 72 10000 4.1 200 18:36 02.09.2019
2604 Clear 17 1022 72 10000 3.6 180 18:18 02.09.2019
2605 Clear 17 1023 77 10000 2.1 200 17:40 02.09.2019
2606 Clear 18 1023 72 10000 1.5 200 17:21 02.09.2019
2607 Clear 18 1023 72 10000 1.5 200 16:59 02.09.2019
2608 Clear 18 1023 72 10000 1.5 200 16:59 02.09.2019
2609 Clear 18 1023 67 10000 0.5 0 16:39 02.09.2019
2610 Clouds 18 1023 77 10000 1 0 16:20 02.09.2019
2611 Clouds 17 1023 63 10000 1.5 150 15:49 02.09.2019
2612 Clouds 17 1023 72 10000 1.5 360 15:29 02.09.2019
2613 Clouds 17 1023 82 10000 2.1 340 14:58 02.09.2019
2614 Clouds 17 1023 82 10000 1.5 30 14:40 02.09.2019
2615 Clouds 17 1023 82 10000 1.5 30 14:22 02.09.2019
2616 Clouds 17 1022 67 10000 3.1 30 13:56 02.09.2019
2617 Clouds 17 1022 82 10000 3.1 360 13:38 02.09.2019
2618 Clouds 17 1022 82 10000 2.1 360 13:20 02.09.2019
2619 Clouds 16 1022 82 10000 2.1 360 12:45 02.09.2019
2620 Clouds 16 1022 82 10000 2.1 330 12:26 02.09.2019
2621 Clouds 16 1022 82 10000 2.1 330 11:59 02.09.2019
2622 Clouds 16 1022 82 10000 2.1 330 11:59 02.09.2019
2623 Clouds 16 1022 87 10000 1.5 340 11:39 02.09.2019
2624 Rain 16 1022 87 10000 2.1 350 11:21 02.09.2019
2625 Rain 15 1022 87 10000 2.1 350 10:58 02.09.2019
2626 Rain 15 1022 93 10000 1.5 330 10:39 02.09.2019
2627 Rain 15 1022 93 10000 1.5 330 10:20 02.09.2019
2628 Rain 15 1021 82 10000 2.6 330 09:57 02.09.2019
2629 Rain 15 1021 87 10000 1.5 320 09:37 02.09.2019
2630 Rain 15 1021 93 9000 2.1 320 09:18 02.09.2019
2631 Rain 14 1020 93 8000 2.1 310 08:39 02.09.2019
2632 Rain 15 1020 93 8000 2.1 310 08:18 02.09.2019
2633 Rain 15 1020 93 9000 2.6 280 07:41 02.09.2019
2634 Rain 15 1019 77 10000 3.1 300 07:21 02.09.2019
2635 Rain 15 1019 77 10000 2.6 300 06:48 02.09.2019
2636 Rain 15 1019 77 10000 2.6 300 06:30 02.09.2019
2637 Rain 15 1019 93 10000 2.6 250 05:49 02.09.2019
2638 Rain 16 1019 93 10000 3.1 250 05:19 02.09.2019
2639 Clouds 16 1019 93 10000 2.6 270 04:34 02.09.2019
2640 Rain 17 1018 88 10000 2.6 200 01:48 02.09.2019
2641 Rain 17 1018 88 10000 2.1 190 00:53 02.09.2019
2642 Rain 17 1018 88 10000 2.1 190 00:32 02.09.2019
2643 Rain 18 1018 93 10000 2.1 260 23:48 01.09.2019
2644 Rain 18 1018 88 10000 1.5 180 23:23 01.09.2019
2645 Rain 18 1018 88 10000 1.5 180 22:59 01.09.2019
2646 Rain 18 1018 88 10000 1.5 180 22:59 01.09.2019
2647 Rain 18 1018 82 10000 1 0 22:40 01.09.2019
2648 -273 0 0 0 0 0 22:20 01.09.2019
2649 Clouds 19 1017 82 10000 2.6 300 21:59 01.09.2019
2650 Clouds 19 1017 68 10000 3.1 300 21:40 01.09.2019
2651 Rain 20 1017 68 10000 3.6 300 21:22 01.09.2019
2652 Rain 20 1017 68 10000 3.6 300 20:57 01.09.2019
2653 Clear 20 1016 56 10000 3.6 290 20:38 01.09.2019
2654 Clear 20 1015 60 10000 3.6 290 20:19 01.09.2019
2655 Clear 20 1015 60 10000 3.6 290 19:58 01.09.2019
2656 Rain 21 1016 68 10000 3.1 290 19:39 01.09.2019
2657 Rain 21 1015 64 10000 3.6 300 19:20 01.09.2019
2658 Rain 21 1015 56 10000 3.6 320 18:44 01.09.2019
2659 Clouds 23 1014 57 10000 4.6 320 18:26 01.09.2019
2660 Clouds 24 1015 64 10000 2.6 290 17:58 01.09.2019
2661 Rain 24 1015 53 10000 3.6 300 17:39 01.09.2019
2662 Rain 24 1015 50 10000 4.6 300 17:20 01.09.2019
2663 Clouds 25 1015 50 10000 5.1 280 16:41 01.09.2019
2664 Clouds 25 1015 50 10000 5.1 280 16:41 01.09.2019
2665 Rain 25 1015 50 10000 4.6 270 16:21 01.09.2019
2666 Rain 25 1015 50 10000 4.6 270 15:59 01.09.2019
2667 Rain 25 1015 50 10000 5.7 290 15:41 01.09.2019
2668 Rain 25 1015 53 10000 5.1 290 15:22 01.09.2019
2669 Rain 26 1015 57 10000 4.6 280 14:44 01.09.2019
2670 Rain 26 1016 53 10000 5.1 300 14:26 01.09.2019
2671 Rain 26 1016 53 10000 5.1 300 13:59 01.09.2019
2672 Rain 25 1016 57 10000 5.7 270 13:40 01.09.2019
2673 Rain 25 1016 60 10000 5.7 270 13:21 01.09.2019
2674 Rain 25 1016 60 10000 6.2 250 12:44 01.09.2019
2675 Clear 24 1016 60 10000 7.7 230 12:26 01.09.2019
2676 Rain 24 1016 60 10000 5.1 230 11:57 01.09.2019
2677 Clear 24 1016 60 10000 7.7 240 11:38 01.09.2019
2678 Clear 23 1016 60 10000 5.1 250 11:18 01.09.2019
2679 Rain 23 1015 56 10000 7.2 220 10:45 01.09.2019
2680 Clear 22 1015 60 10000 5.1 240 10:23 01.09.2019
2681 Clear 21 1015 68 10000 3.6 260 09:48 01.09.2019
2682 Clouds 20 1015 68 10000 3.6 210 09:26 01.09.2019
2683 Clouds 19 1015 72 10000 3.6 220 08:56 01.09.2019
2684 Clouds 18 1015 82 10000 3.1 210 08:38 01.09.2019
2685 Clouds 17 1015 82 10000 3.1 210 08:20 01.09.2019
2686 Clouds 16 1014 72 10000 3.6 190 07:41 01.09.2019
2687 Clear 16 1014 82 10000 0.5 0 07:21 01.09.2019
2688 Clear 15 1014 87 10000 1 0 06:39 01.09.2019
2689 Clear 16 1014 77 10000 1 0 05:59 01.09.2019
2690 Clear 16 1014 77 10000 1 0 05:59 01.09.2019
2691 Rain 16 1014 67 10000 3.6 200 04:43 01.09.2019
2692 Rain 17 1014 72 10000 1.5 210 03:50 01.09.2019
2693 Rain 17 1014 72 10000 1.5 210 03:32 01.09.2019
2694 Clouds 17 1014 72 10000 3.6 150 02:40 01.09.2019
2695 Clouds 18 1014 68 10000 1.5 170 02:19 01.09.2019
2696 Clouds 18 1015 67 0 2.1 260 01:30 01.09.2019
2697 Clouds 19 1015 68 10000 1.5 190 00:59 01.09.2019
2698 Clear 19 1014 68 10000 1.5 160 00:40 01.09.2019
2699 Clouds 20 1015 60 10000 4.1 200 00:20 01.09.2019
2700 Clouds 20 1015 60 10000 4.1 190 23:43 31.08.2019
2701 Clouds 20 1015 60 10000 4.6 190 23:21 31.08.2019
2702 Clouds 20 1015 60 10000 4.6 190 22:56 31.08.2019
2703 Clouds 21 1015 73 10000 4.1 190 22:37 31.08.2019
2704 Clouds 21 1015 73 10000 4.1 190 22:19 31.08.2019
2705 Clouds 21 1015 68 10000 2.6 190 21:54 31.08.2019
2706 Clouds 21 1015 77 10000 2.1 170 21:36 31.08.2019
2707 Clouds 21 1015 77 10000 2.1 170 21:18 31.08.2019
2708 Clouds 23 1015 77 10000 1.5 210 20:42 31.08.2019
2709 Clouds 24 1015 77 10000 1.5 210 20:23 31.08.2019
2710 Clouds 26 1016 64 0 1.5 250 19:43 31.08.2019
2711 Clear 27 1014 51 10000 1 0 19:23 31.08.2019
2712 Clear 28 1014 45 10000 1 0 18:58 31.08.2019
2713 Clear 28 1014 45 10000 1 0 18:39 31.08.2019
2714 Clear 28 1015 51 10000 3.1 240 18:19 31.08.2019
2715 Clear 29 1014 47 10000 2.1 180 17:55 31.08.2019
2716 Clear 29 1015 54 10000 2.6 240 17:37 31.08.2019
2717 Clear 29 1015 47 10000 2.6 240 17:18 31.08.2019
2718 Clear 29 1015 47 10000 1.5 350 16:55 31.08.2019
2719 Clear 29 1016 42 10000 2.1 200 16:37 31.08.2019
2720 Clear 28 1016 47 10000 2.6 210 16:18 31.08.2019
2721 Clear 28 1016 47 10000 1 0 15:42 31.08.2019
2722 Clear 28 1017 51 10000 1 0 15:19 31.08.2019
2723 Clear 28 1017 51 10000 1 0 14:56 31.08.2019
2724 Clear 28 1017 57 10000 1.5 280 14:37 31.08.2019
2725 Clouds 28 1016 54 10000 2.1 150 14:19 31.08.2019
2726 Clouds 28 1016 54 10000 2.1 150 14:19 31.08.2019
2727 Clear 27 1018 61 0 2.1 60 13:41 31.08.2019
2728 Clear 26 1018 69 10000 1.5 0 13:22 31.08.2019
2729 Clear 26 1018 69 10000 1.5 0 12:58 31.08.2019
2730 Clear 25 1018 64 0 1.5 60 12:39 31.08.2019
2731 Clear 25 1018 69 10000 1 0 12:20 31.08.2019
2732 Clear 25 1018 69 10000 1 0 11:54 31.08.2019
2733 Clear 24 1018 73 10000 1.5 350 11:36 31.08.2019
2734 Clear 24 1018 73 10000 1 0 11:18 31.08.2019
2735 Clear 22 1019 77 10000 0.5 0 10:41 31.08.2019
2736 Clear 22 1019 83 10000 2.47 111.064 10:19 31.08.2019
2737 Clear 21 1019 82 10000 2.47 111.064 09:56 31.08.2019
2738 Fog 20 1019 88 10000 0.5 0 09:37 31.08.2019
2739 Fog 19 1019 93 10000 0.5 0 09:19 31.08.2019
2740 Fog 16 1019 100 10000 1 0 08:42 31.08.2019
2741 Fog 16 1019 100 10000 1 0 08:42 31.08.2019
2742 Fog 16 1019 100 10000 1 0 08:23 31.08.2019
2743 Fog 15 1019 100 7000 0.5 150 07:40 31.08.2019
2744 Fog 14 1019 100 7000 0.5 150 07:22 31.08.2019
2745 Fog 14 1019 93 8000 0.5 0 06:41 31.08.2019
2746 Fog 15 1019 93 500 0.5 0 06:18 31.08.2019
2747 Fog 15 1020 100 6000 1 0 05:33 31.08.2019
2748 Clear 15 1020 100 10000 1 140 04:36 31.08.2019
2749 Clear 15 1021 100 10000 0.5 140 03:45 31.08.2019
2750 Clear 16 1021 100 10000 1.33 103.408 02:37 31.08.2019
2751 Clear 17 1021 93 10000 0.5 120 01:55 31.08.2019
2752 Clear 17 1021 93 10000 1 300 01:34 31.08.2019
2753 Clear 17 1022 93 10000 1 170 00:52 31.08.2019
2754 Clear 18 1021 93 10000 0.5 0 00:30 31.08.2019
2755 Clear 18 1022 93 10000 0.5 0 23:59 30.08.2019
2756 Rain 19 1022 93 10000 1 160 23:39 30.08.2019
2757 Rain 19 1022 88 10000 1 120 23:18 30.08.2019
2758 Rain 19 1023 88 10000 0.5 190 22:42 30.08.2019
2759 Rain 20 1023 88 10000 0.5 190 22:24 30.08.2019
2760 Rain 20 1022 88 10000 1 0 21:59 30.08.2019
2761 Clouds 21 1022 77 10000 1.5 90 21:38 30.08.2019
2762 Rain 22 1022 73 10000 1.5 80 21:20 30.08.2019
2763 Rain 22 1022 77 10000 1.5 90 21:20 30.08.2019
2764 Rain 22 1022 73 10000 1.5 80 20:59 30.08.2019
2765 Rain 23 1022 73 10000 2.6 70 20:41 30.08.2019
2766 Rain 24 1022 60 10000 2.6 70 20:20 30.08.2019
2767 Rain 24 1022 60 10000 2.6 70 19:59 30.08.2019
2768 Clear 25 1022 54 10000 2.1 90 19:40 30.08.2019
2769 Rain 25 1022 61 10000 3.1 60 19:19 30.08.2019
2770 Clear 26 1021 47 10000 3.1 90 18:55 30.08.2019
2771 Clear 26 1021 47 10000 3.1 90 18:55 30.08.2019
2772 Clear 26 1021 47 10000 3.1 90 18:37 30.08.2019
2773 Clear 27 1021 47 10000 2.6 80 18:18 30.08.2019
2774 Clear 27 1021 47 10000 2.6 80 17:55 30.08.2019
2775 Clear 27 1021 47 10000 2.6 80 17:55 30.08.2019
2776 Clear 27 1022 54 10000 3.6 90 17:37 30.08.2019
2777 Clear 28 1023 54 10000 2.1 70 17:18 30.08.2019
2778 Clouds 28 1023 57 10000 2.1 80 16:43 30.08.2019
2779 Clouds 28 1023 57 10000 2.1 80 16:24 30.08.2019
2780 Clouds 27 1023 54 10000 2.6 140 15:45 30.08.2019
2781 Clouds 27 1023 54 10000 2.6 140 15:25 30.08.2019
2782 Clouds 27 1023 50 10000 3.1 120 14:59 30.08.2019
2783 Clouds 27 1024 54 10000 3.1 90 14:41 30.08.2019
2784 Clouds 27 1024 54 10000 3.1 90 14:23 30.08.2019
2785 Clouds 27 1024 54 10000 3.1 90 14:23 30.08.2019
2786 Clouds 27 1024 61 10000 2.6 60 13:44 30.08.2019
2787 Clouds 26 1024 64 10000 1.5 0 13:23 30.08.2019
2788 Clouds 26 1024 60 10000 2.1 90 12:58 30.08.2019
2789 Clouds 25 1025 56 10000 3.6 100 12:40 30.08.2019
2790 Clear 25 1024 69 10000 3.1 100 12:22 30.08.2019
2791 Clear 25 1024 69 10000 3.1 100 12:22 30.08.2019
2792 Clear 24 1024 68 10000 2.6 110 11:43 30.08.2019
2793 Clear 23 1024 68 10000 1.5 110 11:24 30.08.2019
2794 Clouds 23 1024 68 10000 2.1 90 10:57 30.08.2019
2795 Clear 22 1024 68 10000 1.16 139.967 10:36 30.08.2019
2796 Fog 21 1024 73 10000 1.16 139.967 10:18 30.08.2019
2797 Fog 19 1024 82 10000 1 0 09:42 30.08.2019
2798 Fog 18 1024 93 6000 0.5 130 09:20 30.08.2019
2799 Fog 18 1024 93 10000 0.5 0 08:58 30.08.2019
2800 Fog 17 1024 93 10000 1.5 120 08:39 30.08.2019
2801 Fog 16 1024 93 10000 1.5 120 08:21 30.08.2019
2802 Fog 14 1024 93 10000 1.5 130 07:43 30.08.2019
2803 Fog 14 1023 93 2200 1 130 07:23 30.08.2019
2804 Fog 14 1023 100 200 0.5 270 06:47 30.08.2019
2805 Fog 14 1024 100 10000 1.5 240 06:29 30.08.2019
2806 Fog 15 1023 100 10000 1.5 190 05:54 30.08.2019
2807 Fog 15 1023 93 10000 1 0 04:27 30.08.2019
2808 Clear 15 1023 100 10000 1 0 03:55 30.08.2019
2809 Clouds 16 1023 100 10000 1.5 210 03:33 30.08.2019
2810 Clouds 16 1023 93 10000 3.1 210 02:34 30.08.2019
2811 Clouds 17 1024 93 10000 1 0 01:38 30.08.2019
2812 Clear 17 1023 93 10000 1 290 00:46 30.08.2019
2813 Clouds 17 1023 100 10000 1.5 170 00:18 30.08.2019
2814 Clouds 17 1023 100 10000 1.5 170 00:18 30.08.2019
2815 Clouds 17 1023 100 10000 1 150 23:42 29.08.2019
2816 Clouds 17 1023 100 10000 1 150 23:21 29.08.2019
2817 Clouds 18 1023 93 10000 2.6 150 22:45 29.08.2019
2818 Clouds 18 1023 93 10000 2.6 150 22:45 29.08.2019
2819 Clouds 18 1023 93 10000 2.6 150 22:45 29.08.2019
2820 Clouds 18 1023 93 10000 2.6 150 22:26 29.08.2019
2821 Clouds 19 1023 93 10000 1.5 150 22:26 29.08.2019
2822 Clouds 19 1023 93 10000 1.5 150 21:58 29.08.2019
2823 Clouds 19 1023 93 10000 1.5 150 21:58 29.08.2019
2824 Clouds 19 1023 100 10000 1 0 21:40 29.08.2019
2825 Clouds 20 1022 93 10000 1.5 220 21:21 29.08.2019
2826 Clouds 20 1022 93 10000 1.5 220 20:57 29.08.2019
2827 Clear 22 1022 88 10000 1 190 20:38 29.08.2019
2828 Clear 22 1022 88 10000 1 190 20:18 29.08.2019
2829 Clear 23 1022 83 10000 1 160 19:47 29.08.2019
2830 Clear 23 1022 69 10000 1 0 19:26 29.08.2019
2831 Clear 24 1022 77 10000 1.5 200 18:57 29.08.2019
2832 Clouds 24 1021 57 10000 2.1 140 18:39 29.08.2019
2833 Clouds 25 1021 65 10000 2.1 150 18:18 29.08.2019
2834 Clear 25 1022 68 10000 2.6 210 17:54 29.08.2019
2835 Clear 25 1022 68 10000 2.6 210 17:36 29.08.2019
2836 Clouds 25 1022 68 10000 3.6 240 17:18 29.08.2019
2837 Clouds 25 1022 64 10000 3.1 230 16:42 29.08.2019
2838 Clouds 25 1022 73 10000 2.6 260 16:23 29.08.2019
2839 Clouds 25 1022 73 10000 2.6 260 15:54 29.08.2019
2840 Clouds 24 1022 69 10000 2.6 250 15:36 29.08.2019
2841 Clouds 24 1023 73 10000 3.1 250 15:18 29.08.2019
2842 Clouds 23 1023 73 10000 1.5 240 14:42 29.08.2019
2843 Clouds 23 1023 82 10000 3.1 230 14:21 29.08.2019
2844 Clouds 23 1023 82 10000 3.1 230 13:57 29.08.2019
2845 Clouds 22 1022 82 10000 3.1 230 13:39 29.08.2019
2846 Clouds 22 1022 82 10000 3.1 230 13:39 29.08.2019
2847 Clouds 22 1022 88 10000 3.6 260 13:19 29.08.2019
2848 Clouds 22 1022 88 10000 3.6 260 12:57 29.08.2019
2849 Rain 21 1023 82 10000 5.1 240 12:38 29.08.2019
2850 Rain 21 1021 82 10000 3.6 250 12:20 29.08.2019
2851 Rain 20 1022 82 10000 2.1 190 11:56 29.08.2019
2852 Rain 20 1022 88 10000 2.1 250 11:36 29.08.2019
2853 Rain 20 1022 88 10000 2.1 230 11:18 29.08.2019
2854 Rain 20 1021 82 10000 2.6 240 10:41 29.08.2019
2855 Rain 20 1021 82 10000 2.6 210 10:23 29.08.2019
2856 Rain 19 1021 82 10000 2.1 220 09:42 29.08.2019
2857 Rain 19 1021 93 10000 3.6 220 09:20 29.08.2019
2858 Rain 19 1020 93 10000 4.6 200 08:58 29.08.2019
2859 Rain 18 1020 88 10000 2.6 220 08:39 29.08.2019
2860 Rain 18 1020 93 10000 2.1 220 08:21 29.08.2019
2861 Rain 18 1020 88 10000 4.6 210 07:48 29.08.2019
2862 Rain 18 1020 93 10000 3.1 240 07:26 29.08.2019
2863 Rain 18 1020 93 10000 2.1 170 06:47 29.08.2019
2864 Rain 18 1020 93 10000 2.1 170 06:28 29.08.2019
2865 Rain 18 1019 93 10000 2.6 230 05:41 29.08.2019
2866 Rain 18 1019 82 10000 0.5 230 04:50 29.08.2019
2867 Rain 18 1020 93 10000 5.7 170 04:29 29.08.2019
2868 Rain 19 1020 88 10000 3.1 150 03:20 29.08.2019
2869 Rain 19 1020 82 10000 2.6 200 01:49 29.08.2019
2870 Clouds 19 1019 88 10000 5.1 230 01:30 29.08.2019
2871 Clouds 19 1018 82 10000 1 0 00:42 29.08.2019
2872 Rain 20 1019 82 10000 2.6 160 00:21 29.08.2019
2873 Rain 20 1019 64 10000 3.6 200 23:44 28.08.2019
2874 Rain 20 1019 77 10000 4.6 220 23:25 28.08.2019
2875 Clouds 20 1019 77 10000 4.6 220 22:59 28.08.2019
2876 Clouds 21 1019 73 10000 6.2 220 22:39 28.08.2019
2877 Clouds 21 1018 88 10000 2.6 210 22:18 28.08.2019
2878 Thunderstorm 21 1017 77 10000 0.5 0 21:58 28.08.2019
2879 Rain 22 1018 82 10000 0.65 148.183 21:39 28.08.2019
2880 Rain 22 1017 83 10000 0.5 0 21:20 28.08.2019
2881 Thunderstorm 24 1019 64 10000 4.6 250 20:45 28.08.2019
2882 Thunderstorm 24 1019 64 10000 4.6 250 20:27 28.08.2019
2883 Clear 25 1017 54 10000 2.6 110 19:59 28.08.2019
2884 Clear 26 1017 54 10000 2.6 110 19:39 28.08.2019
2885 Clear 27 1017 48 10000 2.1 110 19:21 28.08.2019
2886 Clear 27 1017 51 10000 3.6 30 18:42 28.08.2019
2887 Clouds 28 1016 51 10000 2.1 40 18:22 28.08.2019
2888 Clear 28 1017 42 10000 2.1 120 17:59 28.08.2019
2889 Clear 28 1017 42 10000 1 0 17:37 28.08.2019
2890 Clear 29 1017 42 10000 1 0 17:19 28.08.2019
2891 Clear 29 1018 42 10000 2.6 90 16:43 28.08.2019
2892 Clear 29 1018 48 10000 1 0 16:19 28.08.2019
2893 Clear 29 1018 48 10000 1 0 15:59 28.08.2019
2894 Clouds 28 1018 51 10000 1 0 15:37 28.08.2019
2895 Clouds 28 1019 48 10000 1 0 15:19 28.08.2019
2896 Clouds 28 1019 48 10000 1 0 14:56 28.08.2019
2897 Clear 28 1019 51 10000 1 0 14:37 28.08.2019
2898 Clear 28 1019 51 10000 1 0 14:37 28.08.2019
2899 Clear 28 1019 51 10000 1 0 14:19 28.08.2019
2900 Clear 27 1019 57 10000 1.5 190 13:57 28.08.2019
2901 Clear 27 1019 54 10000 3.1 210 13:37 28.08.2019
2902 Clear 26 1019 57 10000 2.6 260 13:18 28.08.2019
2903 Clear 26 1019 60 10000 2.6 220 12:41 28.08.2019
2904 Clear 25 1019 60 10000 2.1 220 12:23 28.08.2019
2905 Clear 25 1019 60 10000 2.1 220 12:23 28.08.2019
2906 Clouds 24 1019 60 10000 2.6 260 11:55 28.08.2019
2907 -273 0 0 0 0 0 11:36 28.08.2019
2908 Clear 23 1020 64 10000 2.6 230 11:18 28.08.2019
2909 Clear 22 1019 77 10000 1 0 10:41 28.08.2019
2910 Clear 22 1019 77 10000 1 0 10:21 28.08.2019
2911 Clear 21 1019 77 10000 1.5 220 09:59 28.08.2019
2912 Clear 20 1019 82 10000 1.5 210 09:40 28.08.2019
2913 Clear 19 1019 88 10000 1.5 200 09:19 28.08.2019
2914 Mist 17 1019 88 10000 1 180 08:39 28.08.2019
2915 Mist 17 1019 88 10000 1 180 08:20 28.08.2019
2916 Fog 16 1018 100 1600 1 180 07:43 28.08.2019
2917 Fog 16 1018 100 3000 1.5 170 07:24 28.08.2019
2918 Fog 16 1019 93 10000 1.5 190 06:56 28.08.2019
2919 Fog 15 1020 87 10000 1.5 260 06:37 28.08.2019
2920 Fog 16 1019 93 10000 2.1 170 05:44 28.08.2019
2921 Fog 16 1019 93 10000 1.5 180 03:32 28.08.2019
2922 Clouds 17 1019 77 10000 3.6 190 01:50 28.08.2019
2923 Clouds 17 1019 93 10000 1.5 190 01:29 28.08.2019
2924 Clouds 18 1020 77 0 1.5 270 00:41 28.08.2019
2925 Clouds 18 1019 93 10000 2.1 160 00:18 28.08.2019
2926 Clouds 18 1019 93 10000 2.1 210 23:40 27.08.2019
2927 Clouds 18 1019 93 10000 2.1 210 23:40 27.08.2019
2928 Clouds 18 1019 93 10000 2.1 210 23:21 27.08.2019
2929 Clouds 18 1019 88 10000 2.1 170 22:57 27.08.2019
2930 Clouds 19 1019 88 10000 1.5 160 22:38 27.08.2019
2931 Clouds 19 1019 88 10000 1.5 160 22:20 27.08.2019
2932 Clouds 20 1018 77 10000 1.5 190 21:55 27.08.2019
2933 Clouds 21 1018 82 10000 1 170 21:37 27.08.2019
2934 Clear 21 1018 88 10000 2.1 160 21:18 27.08.2019
2935 Clear 24 1018 69 10000 1 190 20:42 27.08.2019
2936 Clear 25 1018 50 10000 1 220 20:21 27.08.2019
2937 Clear 25 1018 50 10000 1 220 19:58 27.08.2019
2938 Clouds 26 1019 50 10000 2.1 40 19:40 27.08.2019
2939 Clear 27 1017 57 10000 1.5 50 19:22 27.08.2019
2940 Clear 27 1017 57 10000 1.5 50 18:54 27.08.2019
2941 Clear 28 1017 45 10000 0.5 0 18:36 27.08.2019
2942 Clouds 28 1017 48 10000 0.5 0 18:18 27.08.2019
2943 Clear 28 1018 48 10000 0.5 0 17:42 27.08.2019
2944 Clear 28 1018 48 10000 0.5 0 17:22 27.08.2019
2945 Clouds 28 1018 39 10000 2.1 240 16:48 27.08.2019
2946 Clouds 28 1019 42 10000 2.6 280 16:28 27.08.2019
2947 Clouds 28 1019 44 10000 2.1 0 15:58 27.08.2019
2948 Clouds 28 1019 51 10000 2.6 230 15:40 27.08.2019
2949 Clouds 28 1019 51 10000 2.6 230 15:21 27.08.2019
2950 Clouds 28 1019 50 10000 3.1 280 14:58 27.08.2019
2951 Clouds 28 1020 50 10000 2.1 250 14:40 27.08.2019
2952 Clouds 27 1020 50 10000 2.1 250 14:20 27.08.2019
2953 Clouds 27 1019 54 10000 2.6 270 13:42 27.08.2019
2954 Clouds 27 1020 61 10000 1 0 13:42 27.08.2019
2955 Clouds 26 1020 61 10000 1 0 13:23 27.08.2019
2956 Clear 26 1019 61 10000 1.5 0 12:55 27.08.2019
2957 Clear 25 1020 53 10000 0.5 0 12:37 27.08.2019
2958 Clear 25 1020 64 10000 2.1 230 12:18 27.08.2019
2959 Clear 24 1020 69 10000 2.6 220 11:43 27.08.2019
2960 Clear 24 1020 69 10000 0.5 0 11:24 27.08.2019
2961 Clear 22 1020 73 10000 2.1 230 10:42 27.08.2019
2962 Clear 21 1020 82 10000 1.5 230 10:21 27.08.2019
2963 Clear 21 1020 82 10000 1.5 230 09:58 27.08.2019
2964 Clear 20 1020 82 10000 2.1 220 09:39 27.08.2019
2965 Clouds 19 1019 82 9000 0.5 110 09:20 27.08.2019
2966 Fog 18 1019 88 4000 1 0 08:55 27.08.2019
2967 Fog 17 1019 93 10000 1 0 08:37 27.08.2019
2968 Fog 17 1019 93 3000 0.5 0 08:18 27.08.2019
2969 Fog 16 1019 93 10000 1.5 170 07:40 27.08.2019
2970 Mist 15 1018 100 800 0.5 0 07:19 27.08.2019
2971 Mist 15 1019 93 10000 1 0 06:54 27.08.2019
2972 Mist 16 1019 93 8000 2.1 180 06:25 27.08.2019
2973 Clear 16 1019 100 10000 1.6 212.808 05:42 27.08.2019
2974 Clear 16 1019 93 10000 1 0 04:43 27.08.2019
2975 Clear 17 1019 93 10000 1.5 130 03:35 27.08.2019
2976 Rain 18 1019 88 10000 2.1 160 02:23 27.08.2019
2977 Rain 18 1020 100 0 1.5 250 01:40 27.08.2019
2978 Thunderstorm 18 1020 93 10000 1.5 0 01:21 27.08.2019
2979 Thunderstorm 18 1020 100 0 2.6 270 00:43 27.08.2019
2980 Thunderstorm 19 1019 93 10000 1 0 00:23 27.08.2019
2981 Thunderstorm 19 1019 93 10000 2.1 160 23:39 26.08.2019
2982 Rain 19 1020 88 10000 1.5 150 23:20 26.08.2019
2983 Clouds 19 1019 88 10000 0.5 0 22:41 26.08.2019
2984 Clouds 20 1019 88 10000 0.5 0 22:20 26.08.2019
2985 Clouds 20 1019 82 10000 0.63 181.906 21:59 26.08.2019
2986 Clouds 21 1019 77 10000 2.1 140 21:38 26.08.2019
2987 Rain 22 1019 77 10000 2.1 140 21:20 26.08.2019
2988 Rain 22 1019 77 10000 2.1 100 20:57 26.08.2019
2989 Rain 23 1019 69 10000 2.6 60 20:38 26.08.2019
2990 Rain 23 1019 69 10000 2.6 60 20:19 26.08.2019
2991 Rain 24 1019 61 10000 1.5 330 19:43 26.08.2019
2992 Rain 25 1019 57 10000 1 0 19:20 26.08.2019
2993 Rain 26 1019 54 10000 1 0 18:59 26.08.2019
2994 Rain 26 1019 54 10000 1 0 18:38 26.08.2019
2995 Clear 26 1019 54 10000 1 0 18:19 26.08.2019
2996 Clear 27 1019 54 10000 1 0 18:19 26.08.2019
2997 Clear 26 1019 53 10000 1 0 17:55 26.08.2019
2998 Clear 27 1019 53 10000 1 0 17:36 26.08.2019
2999 Clear 27 1019 61 10000 1.5 0 17:18 26.08.2019
3000 Clouds 27 1019 54 10000 1 0 16:55 26.08.2019
3001 Clouds 27 1019 54 10000 1 0 16:37 26.08.2019
3002 Clouds 27 1019 54 10000 1.5 0 16:18 26.08.2019
3003 Clouds 27 1019 53 10000 1.5 0 15:41 26.08.2019
3004 Clouds 27 1020 53 10000 2.1 70 15:21 26.08.2019
3005 Clouds 27 1020 57 10000 1.5 0 14:45 26.08.2019
3006 Clouds 26 1020 61 10000 1.5 0 14:23 26.08.2019
3007 Clouds 26 1020 57 10000 2.6 0 13:59 26.08.2019
3008 Clouds 26 1020 64 10000 3.1 20 13:38 26.08.2019
3009 Clear 25 1020 64 10000 2.1 0 13:19 26.08.2019
3010 Clear 25 1021 60 10000 2.1 60 12:43 26.08.2019
3011 Clear 25 1021 60 10000 2.1 60 12:43 26.08.2019
3012 Clear 25 1021 64 10000 2.1 110 12:25 26.08.2019
3013 Clear 24 1021 73 10000 1.5 70 11:56 26.08.2019
3014 Clear 23 1021 73 10000 1.5 70 11:36 26.08.2019
3015 Clear 23 1021 68 10000 1 0 11:18 26.08.2019
3016 Clear 22 1021 77 10000 0.5 0 10:44 26.08.2019
3017 Clear 21 1021 73 10000 0.5 0 10:22 26.08.2019
3018 Clear 21 1021 73 10000 0.5 0 10:22 26.08.2019
3019 Clear 21 1021 77 10000 1.5 220 09:57 26.08.2019
3020 Clear 20 1021 77 10000 1.5 220 09:39 26.08.2019
3021 Mist 18 1021 88 10000 1.5 140 09:19 26.08.2019
3022 Mist 18 1021 88 10000 2.1 170 08:55 26.08.2019
3023 Fog 17 1021 88 10000 2.1 170 08:36 26.08.2019
3024 Fog 16 1021 93 10000 2.1 160 08:18 26.08.2019
3025 Fog 15 1020 93 10000 2.1 170 07:41 26.08.2019
3026 Fog 14 1020 100 10000 1 0 07:23 26.08.2019
3027 Fog 14 1020 93 10000 1 0 06:48 26.08.2019
3028 Fog 14 1020 100 10000 1 180 06:25 26.08.2019
3029 Fog 14 1020 100 10000 1 0 05:49 26.08.2019
3030 Fog 15 1021 93 10000 0.5 0 04:31 26.08.2019
3031 Fog 15 1021 93 10000 0.84 199.539 03:19 26.08.2019
3032 Clouds 16 1021 93 10000 2.1 170 01:40 26.08.2019
3033 Clouds 16 1021 93 10000 2.1 180 01:21 26.08.2019
3034 Clouds 17 1021 88 10000 1.5 210 00:42 26.08.2019
3035 Clouds 17 1021 93 10000 1.5 200 00:23 26.08.2019
3036 Clouds 18 1021 88 10000 1.5 210 23:43 25.08.2019
3037 Clouds 18 1021 88 10000 3.1 210 23:19 25.08.2019
3038 Clouds 18 1021 88 10000 3.1 210 22:57 25.08.2019
3039 Clouds 18 1021 88 10000 3.1 210 22:57 25.08.2019
3040 Clouds 18 1022 88 10000 1.5 170 22:39 25.08.2019
3041 Clouds 19 1022 88 10000 1.5 170 22:20 25.08.2019
3042 Clouds 19 1021 82 10000 1 0 21:57 25.08.2019
3043 Clouds 19 1021 82 10000 1 0 21:38 25.08.2019
3044 Rain 19 1021 88 10000 1.5 200 21:18 25.08.2019
3045 Rain 20 1021 88 10000 1.5 170 20:40 25.08.2019
3046 Rain 20 1021 88 10000 2.1 200 20:20 25.08.2019
3047 Thunderstorm 21 1021 88 10000 2.6 210 19:58 25.08.2019
3048 Thunderstorm 21 1021 88 10000 1 0 19:39 25.08.2019
3049 Thunderstorm 21 1021 88 10000 1 0 19:20 25.08.2019
3050 Rain 21 1021 88 10000 2.1 170 18:58 25.08.2019
3051 Thunderstorm 22 1021 88 10000 3.6 190 18:39 25.08.2019
3052 Thunderstorm 23 1021 88 10000 3.6 190 18:21 25.08.2019
3053 Thunderstorm 23 1021 82 10000 4.1 130 17:45 25.08.2019
3054 Rain 24 1020 83 10000 2.1 180 17:25 25.08.2019
3055 Thunderstorm 25 1020 77 10000 3.1 270 16:59 25.08.2019
3056 Thunderstorm 25 1020 77 10000 3.1 270 16:37 25.08.2019
3057 Thunderstorm 25 1020 68 10000 5.1 270 16:18 25.08.2019
3058 Rain 26 1020 61 10000 2.6 330 15:43 25.08.2019
3059 Rain 26 1020 69 10000 2.1 210 15:25 25.08.2019
3060 Rain 27 1020 69 10000 2.1 270 14:54 25.08.2019
3061 Clouds 27 1020 57 10000 2.1 0 14:36 25.08.2019
3062 Clouds 27 1020 57 10000 2.1 20 14:18 25.08.2019
3063 Rain 26 1020 69 10000 2.6 310 13:42 25.08.2019
3064 Clear 26 1021 69 10000 1.5 0 13:20 25.08.2019
3065 Clear 25 1021 69 10000 2.1 240 12:48 25.08.2019
3066 Rain 25 1021 69 10000 2.6 240 12:26 25.08.2019
3067 Rain 24 1021 73 10000 3.1 240 11:59 25.08.2019
3068 Rain 23 1021 73 10000 3.1 240 11:41 25.08.2019
3069 Rain 23 1021 77 10000 3.1 240 11:22 25.08.2019
3070 Rain 22 1021 73 10000 3.1 240 10:59 25.08.2019
3071 Rain 21 1021 73 10000 3.1 240 10:40 25.08.2019
3072 Rain 20 1021 77 10000 2.6 230 10:20 25.08.2019
3073 Rain 19 1021 82 10000 3.1 230 09:56 25.08.2019
3074 Rain 19 1021 82 10000 3.1 230 09:37 25.08.2019
3075 Clear 18 1021 88 10000 1.5 210 09:19 25.08.2019
3076 Mist 17 1021 88 10000 2.6 220 08:42 25.08.2019
3077 Mist 16 1020 88 10000 2.1 210 08:21 25.08.2019
3078 Fog 15 1020 93 10000 2.1 210 07:35 25.08.2019
3079 Fog 15 1020 100 10000 2.6 210 06:51 25.08.2019
3080 Fog 15 1020 93 10000 2.1 210 06:22 25.08.2019
3081 Fog 16 1020 93 10000 3.1 220 04:41 25.08.2019
3082 Fog 16 1020 93 10000 2.1 190 03:36 25.08.2019
3083 Clouds 17 1020 93 10000 0.5 0 02:39 25.08.2019
3084 Clouds 17 1020 93 10000 2.1 180 01:28 25.08.2019
3085 Clouds 17 1020 93 10000 1.5 130 00:40 25.08.2019
3086 Clouds 18 1020 88 10000 1.5 220 00:21 25.08.2019
3087 Clouds 18 1020 77 10000 2.1 200 23:52 24.08.2019
3088 Clouds 19 1021 88 10000 2.6 210 23:22 24.08.2019
3089 Clouds 19 1021 82 10000 1.5 190 22:56 24.08.2019
3090 Clouds 20 1021 82 10000 1.5 190 22:38 24.08.2019
3091 Clouds 20 1021 77 10000 2.1 220 22:19 24.08.2019
3092 Clouds 20 1021 77 10000 2.1 220 22:19 24.08.2019
3093 Clouds 20 1021 77 10000 2.6 150 21:56 24.08.2019
3094 Clouds 21 1021 77 10000 2.6 150 21:38 24.08.2019
3095 Rain 21 1021 68 10000 1 0 21:19 24.08.2019
3096 Rain 22 1021 64 10000 3.1 180 20:55 24.08.2019
3097 Rain 24 1021 68 10000 5.7 180 20:37 24.08.2019
3098 Rain 24 1021 68 10000 5.7 180 20:18 24.08.2019
3099 Rain 24 1021 68 10000 5.7 180 20:18 24.08.2019
3100 Rain 24 1021 65 8000 1.5 20 19:55 24.08.2019
3101 Rain 25 1021 65 8000 1.5 20 19:37 24.08.2019
3102 Rain 26 1021 61 10000 2.1 40 19:18 24.08.2019
3103 Rain 26 1020 57 10000 1 0 18:42 24.08.2019
3104 Clouds 26 1020 50 10000 1.5 50 18:23 24.08.2019
3105 Clouds 27 1020 61 10000 2.1 50 17:45 24.08.2019
3106 Clouds 27 1020 61 10000 3.1 10 17:25 24.08.2019
3107 Clouds 27 1020 61 10000 3.1 340 16:56 24.08.2019
3108 Clouds 27 1020 61 10000 3.1 340 16:36 24.08.2019
3109 Clouds 27 1021 65 10000 2.6 20 16:18 24.08.2019
3110 Clouds 27 1021 61 10000 2.6 330 15:43 24.08.2019
3111 Clouds 26 1021 61 10000 1 0 15:24 24.08.2019
3112 Clouds 26 1021 61 10000 1.5 330 14:56 24.08.2019
3113 Clouds 26 1021 61 10000 1.5 330 14:37 24.08.2019
3114 Clouds 25 1021 64 10000 1 0 14:18 24.08.2019
3115 Clouds 25 1021 64 10000 1.5 240 13:42 24.08.2019
3116 Clear 24 1021 69 10000 1 0 13:22 24.08.2019
3117 Clear 24 1022 73 10000 1.5 0 12:58 24.08.2019
3118 Clear 24 1022 73 10000 1.5 0 12:39 24.08.2019
3119 Clear 24 1022 73 10000 1.5 0 12:39 24.08.2019
3120 Clouds 23 1021 69 10000 2.1 0 12:21 24.08.2019
3121 Clouds 22 1022 77 10000 1.5 240 11:46 24.08.2019
3122 Clouds 22 1022 77 10000 1 0 11:24 24.08.2019
3123 Clouds 22 1022 77 10000 2.97 91.989 10:59 24.08.2019
3124 Clouds 20 1022 88 9000 1 0 10:38 24.08.2019
3125 Clouds 20 1022 88 9000 1 0 10:19 24.08.2019
3126 Clear 18 1022 82 6000 0.5 0 09:41 24.08.2019
3127 Clear 17 1022 100 3600 0.5 0 09:18 24.08.2019
3128 Clear 17 1022 100 3600 0.5 0 09:18 24.08.2019
3129 Mist 16 1022 93 4500 1.71 85.869 08:43 24.08.2019
3130 Mist 15 1022 100 4500 1.71 85.869 08:24 24.08.2019
3131 Fog 15 1021 100 10000 1 0 07:52 24.08.2019
3132 Fog 14 1022 100 3400 0.5 200 07:30 24.08.2019
3133 Clouds 14 1022 100 800 1 140 06:39 24.08.2019
3134 Clouds 14 1022 100 800 1 140 06:21 24.08.2019
3135 Clear 14 1022 100 500 2.09 63.973 05:35 24.08.2019
3136 Clear 16 1022 100 7000 0.5 0 03:48 24.08.2019
3137 Clouds 16 1022 100 1300 2.42 59.235 03:28 24.08.2019
3138 Clouds 17 1023 93 10000 1 350 02:18 24.08.2019
3139 Clouds 17 1023 93 10000 1.5 170 01:25 24.08.2019
3140 Clouds 17 1023 93 10000 0.5 0 00:47 24.08.2019
3141 Clouds 18 1023 88 10000 2.65 41.131 00:23 24.08.2019
3142 Clouds 18 1023 88 10000 2.65 41.131 00:23 24.08.2019
3143 Clouds 18 1023 93 10000 0.5 0 23:45 23.08.2019
3144 Clouds 18 1024 88 10000 2.1 40 23:21 23.08.2019
3145 Clouds 19 1024 88 10000 1.5 60 22:46 23.08.2019
3146 Clouds 19 1024 88 10000 0.5 0 22:27 23.08.2019
3147 Clouds 19 1024 88 10000 1.5 110 21:57 23.08.2019
3148 Clouds 19 1024 88 10000 1.5 110 21:37 23.08.2019
3149 Clouds 19 1024 77 10000 1.5 60 21:19 23.08.2019
3150 Clouds 20 1024 82 10000 2.1 60 20:53 23.08.2019
3151 Clouds 20 1024 82 10000 2.1 60 20:35 23.08.2019
3152 Clouds 21 1024 77 10000 2.6 60 19:58 23.08.2019
3153 Clouds 20 1024 77 10000 2.6 60 19:40 23.08.2019
3154 Clouds 21 1024 72 10000 3.1 60 19:18 23.08.2019
3155 Clouds 21 1024 72 10000 3.1 50 18:42 23.08.2019
3156 Clouds 22 1024 72 10000 3.1 70 18:24 23.08.2019
3157 Clouds 22 1024 72 10000 3.6 70 17:46 23.08.2019
3158 Clouds 22 1024 73 10000 4.1 60 17:28 23.08.2019
3159 Clouds 22 1025 73 10000 4.1 60 16:59 23.08.2019
3160 Clouds 22 1025 73 10000 4.1 60 16:40 23.08.2019
3161 Clouds 22 1025 73 10000 3.6 80 16:22 23.08.2019
3162 Clouds 22 1025 64 10000 4.6 90 15:41 23.08.2019
3163 Clouds 22 1025 72 10000 4.6 70 15:22 23.08.2019
3164 Clouds 22 1025 72 10000 4.1 80 14:59 23.08.2019
3165 Clouds 22 1025 72 10000 4.1 80 14:40 23.08.2019
3166 Clouds 22 1025 68 10000 4.1 70 14:20 23.08.2019
3167 Clouds 21 1025 72 10000 4.6 50 13:56 23.08.2019
3168 Clouds 22 1025 72 10000 4.6 50 13:38 23.08.2019
3169 Clouds 21 1026 68 10000 4.1 70 13:19 23.08.2019
3170 Clouds 21 1026 72 10000 3.6 60 12:54 23.08.2019
3171 Clouds 21 1026 72 10000 5.1 90 12:36 23.08.2019
3172 Clouds 21 1026 72 10000 5.1 90 12:18 23.08.2019
3173 Clouds 20 1026 77 10000 3.6 100 11:54 23.08.2019
3174 Clouds 20 1026 77 10000 3.6 100 11:36 23.08.2019
3175 Clouds 20 1026 77 10000 3.1 70 11:18 23.08.2019
3176 Clouds 19 1026 82 10000 4.1 80 10:42 23.08.2019
3177 Clouds 18 1026 88 9000 3.6 70 10:21 23.08.2019
3178 Mist 17 1026 87 8000 3.1 70 09:56 23.08.2019
3179 Mist 16 1026 87 8000 3.1 70 09:38 23.08.2019
3180 Mist 15 1026 93 8000 2.6 70 09:18 23.08.2019
3181 Mist 14 1026 100 5000 0.5 0 08:40 23.08.2019
3182 Mist 13 1026 100 5000 2.46 95.228 08:19 23.08.2019
3183 Mist 12 1026 100 6000 2.46 95.228 07:43 23.08.2019
3184 Mist 12 1026 93 6000 2.46 95.228 07:24 23.08.2019
3185 Fog 12 1026 100 6000 1 160 06:57 23.08.2019
3186 Fog 12 1026 100 6000 1 160 06:38 23.08.2019
3187 Mist 11 1026 93 6000 1 150 06:20 23.08.2019
3188 Mist 11 1026 100 5000 1.5 150 05:34 23.08.2019
3189 Fog 11 1026 100 4400 1 0 04:45 23.08.2019
3190 Fog 11 1026 100 2700 1.5 150 03:21 23.08.2019
3191 Fog 12 1026 100 4100 0.5 0 02:23 23.08.2019
3192 Fog 12 1026 100 3000 1 170 01:40 23.08.2019
3193 Clear 13 1027 100 4300 1 220 00:45 23.08.2019
3194 Clear 13 1027 100 10000 0.5 0 00:20 23.08.2019
3195 Clear 14 1027 100 2500 1 170 23:49 22.08.2019
3196 Clear 14 1027 100 9000 1.5 220 23:31 22.08.2019
3197 Clear 14 1027 93 10000 2.1 230 22:58 22.08.2019
3198 Clear 15 1027 93 10000 2.1 230 22:40 22.08.2019
3199 Clear 15 1027 100 10000 1 180 22:21 22.08.2019
3200 Clear 16 1027 87 10000 1.5 230 21:56 22.08.2019
3201 Clear 16 1027 87 10000 1.5 230 21:37 22.08.2019
3202 Clear 17 1027 87 10000 1 170 21:19 22.08.2019
3203 Clouds 18 1026 77 10000 2.1 180 20:56 22.08.2019
3204 Clear 18 1026 87 10000 1.5 160 20:38 22.08.2019
3205 Clear 18 1026 87 10000 1.5 160 20:18 22.08.2019
3206 Clear 18 1026 77 10000 2.1 130 19:54 22.08.2019
3207 Clouds 19 1026 77 10000 2.6 140 19:36 22.08.2019
3208 Clouds 19 1026 77 10000 2.6 140 19:18 22.08.2019
3209 Clouds 20 1026 72 10000 3.1 120 18:55 22.08.2019
3210 Clouds 20 1026 72 10000 2.6 140 18:36 22.08.2019
3211 Clouds 20 1026 72 10000 2.6 140 18:18 22.08.2019
3212 Clouds 21 1026 77 10000 2.6 130 17:41 22.08.2019
3213 Clouds 21 1026 72 10000 3.6 110 17:21 22.08.2019
3214 Clouds 21 1026 72 10000 3.6 110 16:58 22.08.2019
3215 Clouds 21 1026 72 10000 3.1 100 16:39 22.08.2019
3216 Clouds 21 1026 72 10000 3.1 100 16:20 22.08.2019
3217 Clouds 20 1026 77 10000 3.1 90 15:57 22.08.2019
3218 Clouds 20 1026 77 10000 3.1 90 15:57 22.08.2019
3219 Clouds 20 1026 77 10000 3.6 80 15:38 22.08.2019
3220 Clouds 20 1026 77 10000 3.6 80 15:38 22.08.2019
3221 Clouds 20 1026 77 10000 3.6 80 15:20 22.08.2019
3222 Clouds 20 1026 77 10000 3.6 80 15:20 22.08.2019
3223 Clouds 20 1026 77 10000 3.1 70 14:56 22.08.2019
3224 Clouds 20 1026 77 10000 3.1 70 14:38 22.08.2019
3225 Clouds 19 1026 77 10000 3.6 60 14:18 22.08.2019
3226 Clouds 19 1026 72 10000 3.1 50 13:42 22.08.2019
3227 Clouds 19 1026 77 10000 4.6 80 13:24 22.08.2019
3228 Clouds 19 1026 77 10000 3.6 80 12:59 22.08.2019
3229 Clouds 18 1026 77 10000 4.1 100 12:40 22.08.2019
3230 Clouds 18 1026 77 10000 4.1 100 12:21 22.08.2019
3231 Clouds 17 1026 77 10000 4.6 70 11:55 22.08.2019
3232 Clouds 17 1026 82 10000 4.1 70 11:36 22.08.2019
3233 Clouds 17 1026 82 10000 4.1 70 11:18 22.08.2019
3234 Clouds 17 1026 87 10000 3.1 70 10:57 22.08.2019
3235 Clouds 16 1026 87 10000 3.1 80 10:36 22.08.2019
3236 Mist 15 1026 87 10000 3.1 80 10:18 22.08.2019
3237 Mist 14 1025 87 10000 3.1 50 09:40 22.08.2019
3238 Mist 14 1026 87 10000 3.1 40 09:21 22.08.2019
3239 Mist 14 1026 93 10000 2.6 40 08:58 22.08.2019
3240 Mist 13 1026 93 10000 2.6 40 08:39 22.08.2019
3241 Mist 12 1025 93 10000 3.1 30 08:20 22.08.2019
3242 Mist 12 1025 93 10000 2.6 30 07:42 22.08.2019
3243 Mist 12 1025 93 10000 2.6 30 07:23 22.08.2019
3244 Mist 12 1025 93 10000 2.6 30 06:58 22.08.2019
3245 Mist 12 1025 93 10000 2.1 90 06:40 22.08.2019
3246 Mist 12 1025 93 10000 2.1 90 06:19 22.08.2019
3247 Clouds 12 1025 93 10000 2.6 60 04:42 22.08.2019
3248 Clouds 13 1025 87 10000 4.1 60 02:56 22.08.2019
3249 Clouds 13 1026 87 10000 3.6 70 02:34 22.08.2019
3250 Clouds 14 1026 87 10000 3.1 70 01:27 22.08.2019
3251 Clouds 14 1026 87 10000 3.6 60 00:49 22.08.2019
3252 Clouds 14 1027 87 10000 4.1 70 00:30 22.08.2019
3253 Clouds 14 1027 87 10000 3.1 60 23:58 21.08.2019
3254 Clouds 14 1027 87 10000 2.6 60 23:39 21.08.2019
3255 Clouds 15 1027 87 10000 2.6 60 23:20 21.08.2019
3256 Clouds 15 1027 82 10000 3.1 60 22:57 21.08.2019
3257 Clouds 15 1027 82 10000 3.1 60 22:38 21.08.2019
3258 Clouds 15 1027 82 10000 3.1 60 22:20 21.08.2019
3259 Clouds 16 1028 82 10000 3.1 70 21:55 21.08.2019
3260 Clouds 16 1027 77 10000 3.6 60 21:37 21.08.2019
3261 Clouds 16 1027 77 10000 3.6 60 21:18 21.08.2019
3262 Clouds 17 1027 82 10000 2.6 70 20:44 21.08.2019
3263 Clouds 17 1027 77 10000 2.1 80 20:25 21.08.2019
3264 Clouds 17 1027 77 10000 3.1 70 20:00 21.08.2019
3265 Clouds 17 1027 77 10000 3.1 70 19:41 21.08.2019
3266 Clouds 18 1027 72 10000 2.6 80 19:23 21.08.2019
3267 Clouds 18 1027 72 10000 3.1 70 18:56 21.08.2019
3268 Clouds 18 1027 72 10000 3.1 70 18:56 21.08.2019
3269 Clouds 18 1027 72 10000 3.1 70 18:56 21.08.2019
3270 Clouds 19 1028 77 10000 2.6 100 18:38 21.08.2019
3271 Clouds 18 1028 77 10000 2.6 100 18:20 21.08.2019
3272 Clouds 19 1028 72 10000 2.1 80 17:44 21.08.2019
3273 Clouds 19 1028 72 10000 2.6 80 17:22 21.08.2019
3274 Clouds 19 1028 72 10000 3.1 70 16:57 21.08.2019
3275 Clouds 19 1028 72 10000 3.1 70 16:39 21.08.2019
3276 Clouds 19 1028 72 10000 3.1 90 16:18 21.08.2019
3277 Clouds 19 1028 72 10000 4.1 90 15:56 21.08.2019
3278 Clouds 18 1028 72 10000 4.1 90 15:38 21.08.2019
3279 Clouds 18 1028 72 10000 4.1 90 15:19 21.08.2019
3280 Clouds 18 1028 72 10000 4.1 90 15:19 21.08.2019
3281 Clouds 18 1028 72 10000 4.1 90 15:19 21.08.2019
3282 Clouds 18 1028 72 10000 4.1 80 14:55 21.08.2019
3283 Clouds 18 1028 72 10000 3.6 80 14:37 21.08.2019
3284 Clouds 18 1028 72 10000 3.6 80 14:18 21.08.2019
3285 Clouds 18 1028 72 10000 3.6 60 13:43 21.08.2019
3286 Clouds 18 1028 72 10000 3.1 70 13:20 21.08.2019
3287 Clouds 18 1029 72 10000 3.6 80 12:58 21.08.2019
3288 Clouds 17 1029 72 10000 3.6 80 12:40 21.08.2019
3289 Clouds 18 1029 72 10000 4.1 80 12:20 21.08.2019
3290 Clouds 17 1029 72 10000 3.1 70 11:56 21.08.2019
3291 Clouds 17 1029 72 10000 3.1 70 11:37 21.08.2019
3292 Clouds 16 1029 82 10000 2.1 60 11:18 21.08.2019
3293 Clouds 16 1029 82 10000 2.6 60 10:56 21.08.2019
3294 Clouds 15 1029 82 10000 2.6 60 10:37 21.08.2019
3295 Clouds 15 1029 87 10000 1.5 40 10:19 21.08.2019
3296 Clouds 14 1029 87 10000 2.6 50 09:42 21.08.2019
3297 Clouds 14 1029 87 10000 2.1 50 09:23 21.08.2019
3298 Mist 13 1029 93 10000 1 0 08:58 21.08.2019
3299 Mist 13 1029 93 10000 1 120 08:39 21.08.2019
3300 Mist 13 1029 93 10000 1 120 08:20 21.08.2019
3301 Mist 13 1029 93 10000 1.5 280 07:40 21.08.2019
3302 Mist 12 1029 100 10000 1 100 07:20 21.08.2019
3303 Clouds 13 1029 93 10000 1 0 06:48 21.08.2019
3304 Mist 12 1029 100 10000 1.29 195.769 06:21 21.08.2019
3305 Rain 12 1029 100 10000 1 160 05:41 21.08.2019
3306 Rain 12 1029 93 10000 1.5 150 05:19 21.08.2019
3307 Rain 13 1029 100 10000 1.5 290 03:28 21.08.2019
3308 Rain 13 1028 100 10000 0.5 0 01:42 21.08.2019
3309 Rain 13 1028 93 10000 2.1 270 00:45 21.08.2019
3310 Rain 13 1028 93 10000 2.1 290 00:24 21.08.2019
3311 Rain 13 1028 93 10000 2.6 310 23:57 20.08.2019
3312 Rain 13 1027 93 10000 3.6 300 23:38 20.08.2019
3313 Rain 13 1027 93 10000 3.6 300 23:18 20.08.2019
3314 Rain 14 1027 93 8000 4.1 290 22:56 20.08.2019
3315 Rain 14 1027 93 8000 4.1 290 22:37 20.08.2019
3316 Rain 14 1027 93 10000 5.1 290 22:19 20.08.2019
3317 Rain 14 1026 100 10000 3.6 290 21:57 20.08.2019
3318 Rain 14 1026 100 10000 3.1 310 21:37 20.08.2019
3319 Rain 14 1026 100 10000 3.1 310 21:19 20.08.2019
3320 Rain 14 1025 100 7000 3.1 310 20:43 20.08.2019
3321 Rain 14 1025 100 7000 3.1 310 20:43 20.08.2019
3322 Rain 15 1025 93 10000 3.6 290 20:24 20.08.2019
3323 Rain 15 1025 93 9000 5.1 320 19:59 20.08.2019
3324 Rain 15 1025 93 9000 5.1 320 19:39 20.08.2019
3325 Rain 15 1024 93 4000 5.7 290 19:20 20.08.2019
3326 Rain 15 1025 93 4000 3.6 280 18:55 20.08.2019
3327 Rain 16 1022 93 8000 3.6 320 18:37 20.08.2019
3328 Rain 16 1022 93 8000 3.6 320 18:18 20.08.2019
3329 Rain 16 1023 93 5000 4.6 310 17:55 20.08.2019
3330 Rain 17 1022 93 8000 4.6 310 17:37 20.08.2019
3331 Rain 17 1022 100 3000 4.6 300 17:18 20.08.2019
3332 Rain 17 1021 93 8000 2.6 30 16:41 20.08.2019
3333 Rain 17 1021 93 8000 2.6 30 16:23 20.08.2019
3334 Rain 18 1022 93 5000 4.6 310 15:42 20.08.2019
3335 Rain 18 1022 93 5000 4.6 310 15:19 20.08.2019
3336 Rain 18 1021 88 5000 0.5 60 14:57 20.08.2019
3337 Rain 18 1021 93 8000 2.6 10 14:39 20.08.2019
3338 Rain 18 1021 88 4500 4.46 302.679 14:20 20.08.2019
3339 Rain 18 1022 93 8000 2.6 10 13:56 20.08.2019
3340 Rain 18 1022 93 8000 2.6 30 13:37 20.08.2019
3341 Rain 18 1021 93 5000 1 50 13:19 20.08.2019
3342 Rain 18 1022 88 10000 1.5 40 12:50 20.08.2019
3343 Rain 18 1022 93 7000 1.5 10 12:25 20.08.2019
3344 Rain 18 1022 93 7000 1.5 10 12:25 20.08.2019
3345 Rain 18 1022 93 7000 1.5 10 11:56 20.08.2019
3346 Rain 18 1022 93 9000 2.1 340 11:38 20.08.2019
3347 Rain 18 1021 88 7000 0.5 0 11:18 20.08.2019
3348 Rain 18 1022 93 9000 1.5 10 10:56 20.08.2019
3349 Rain 18 1021 93 9000 2.1 60 10:38 20.08.2019
3350 Rain 18 1021 93 9000 1.5 50 10:19 20.08.2019
3351 Rain 18 1021 93 8000 1.5 40 09:43 20.08.2019
3352 Clouds 18 1021 93 8000 1.5 40 09:24 20.08.2019
3353 Clouds 18 1021 93 9000 1 0 08:57 20.08.2019
3354 Fog 17 1021 93 8000 1.5 60 08:39 20.08.2019
3355 Fog 17 1022 100 6000 1 50 08:20 20.08.2019
3356 Fog 17 1022 100 6000 1 50 07:55 20.08.2019
3357 Mist 16 1022 100 5000 1.5 350 07:37 20.08.2019
3358 Mist 16 1021 93 5000 1 0 07:18 20.08.2019
3359 Mist 16 1021 100 5000 2.1 10 06:25 20.08.2019
3360 Clouds 17 1021 100 10000 1 320 05:49 20.08.2019
3361 Rain 17 1021 93 10000 1 340 05:18 20.08.2019
3362 Rain 17 1021 93 7000 3.6 120 04:18 20.08.2019
3363 Rain 17 1021 93 10000 1 340 02:44 20.08.2019
3364 Rain 17 1021 93 8000 2.6 340 01:39 20.08.2019
3365 Rain 17 1021 93 4000 3.6 280 00:59 20.08.2019
3366 Rain 17 1021 93 10000 1.5 120 00:40 20.08.2019
3367 Rain 18 1021 93 10000 1 0 00:21 20.08.2019
3368 Rain 18 1021 93 10000 0.5 0 23:40 19.08.2019
3369 Rain 18 1020 100 7000 4.6 80 23:18 19.08.2019
3370 Rain 18 1020 100 7000 4.6 80 22:57 19.08.2019
3371 Rain 19 1021 88 10000 3.1 350 22:39 19.08.2019
3372 Rain 19 1020 82 10000 3.6 10 22:18 19.08.2019
3373 Rain 19 1020 82 10000 3.6 10 21:56 19.08.2019
3374 Rain 19 1020 82 10000 1 0 21:37 19.08.2019
3375 Rain 20 1020 82 10000 3.6 360 21:19 19.08.2019
3376 Rain 20 1019 82 10000 4.1 360 20:40 19.08.2019
3377 Rain 20 1019 82 10000 4.1 360 20:20 19.08.2019
3378 Rain 21 1019 77 10000 3.1 10 19:59 19.08.2019
3379 Rain 21 1019 77 10000 3.1 10 19:40 19.08.2019
3380 Clouds 22 1019 68 10000 2.1 340 19:19 19.08.2019
3381 Clouds 22 1019 68 10000 2.1 340 18:58 19.08.2019
3382 Clouds 22 1019 64 10000 1.5 20 18:39 19.08.2019
3383 Clouds 22 1019 68 10000 1.5 260 18:21 19.08.2019
3384 Clouds 23 1019 68 10000 1.5 260 17:55 19.08.2019
3385 Clouds 23 1019 68 10000 2.6 250 17:36 19.08.2019
3386 Clouds 23 1019 64 10000 2.6 260 17:18 19.08.2019
3387 Rain 23 1019 64 10000 2.6 260 16:38 19.08.2019
3388 Rain 23 1019 64 10000 3.1 240 16:20 19.08.2019
3389 Rain 23 1019 64 10000 1.5 0 15:56 19.08.2019
3390 Rain 23 1019 64 10000 1.5 0 15:38 19.08.2019
3391 Rain 23 1019 68 10000 2.6 190 15:19 19.08.2019
3392 Clouds 22 1019 73 10000 2.1 210 14:43 19.08.2019
3393 Clouds 22 1019 64 10000 2.1 230 14:23 19.08.2019
3394 Clouds 21 1019 73 10000 1.5 130 13:58 19.08.2019
3395 Clouds 21 1019 73 10000 2.1 210 13:39 19.08.2019
3396 Clouds 21 1019 73 10000 2.1 210 13:20 19.08.2019
3397 Clouds 21 1019 73 10000 1.5 230 12:58 19.08.2019
3398 Clouds 21 1019 73 10000 1.5 230 12:40 19.08.2019
3399 Clear 20 1019 77 10000 1.5 200 12:20 19.08.2019
3400 Clear 19 1019 82 10000 2.1 210 11:40 19.08.2019
3401 Rain 19 1019 88 10000 2.6 190 11:22 19.08.2019
3402 Rain 18 1019 88 10000 2.6 180 10:58 19.08.2019
3403 Rain 18 1019 88 10000 2.6 180 10:39 19.08.2019
3404 Rain 18 1018 88 10000 3.6 160 10:19 19.08.2019
3405 Rain 17 1019 93 10000 2.6 180 09:54 19.08.2019
3406 Rain 17 1019 93 10000 3.1 220 09:36 19.08.2019
3407 Rain 17 1019 93 10000 3.1 220 09:18 19.08.2019
3408 Rain 17 1019 93 10000 3.6 180 08:42 19.08.2019
3409 Rain 16 1018 93 10000 3.1 150 08:21 19.08.2019
3410 Rain 16 1018 93 10000 1.5 190 07:54 19.08.2019
3411 Rain 16 1018 93 10000 3.1 190 07:34 19.08.2019
3412 Rain 16 1018 93 10000 2.1 210 06:59 19.08.2019
3413 Rain 16 1018 93 10000 3.6 210 06:36 19.08.2019
3414 Rain 16 1018 93 10000 3.6 180 05:28 19.08.2019
3415 Rain 17 1019 88 8000 4.6 230 04:34 19.08.2019
3416 Rain 17 1019 93 7000 3.1 260 03:27 19.08.2019
3417 Rain 19 1018 72 10000 9.3 300 02:53 19.08.2019
3418 Thunderstorm 19 1014 82 10000 2.1 230 01:37 19.08.2019
3419 Thunderstorm 20 1014 72 10000 1 10 00:59 19.08.2019
3420 Thunderstorm 21 1013 68 10000 2.1 350 00:37 19.08.2019
3421 Thunderstorm 21 1013 68 10000 2.1 350 00:18 19.08.2019
3422 Thunderstorm 22 1013 64 10000 2.6 340 23:39 18.08.2019
3423 Thunderstorm 22 1013 64 10000 2.6 340 23:20 18.08.2019
3424 Clouds 22 1012 56 10000 3.6 310 22:40 18.08.2019
3425 Thunderstorm 21 1012 82 10000 0.5 0 22:21 18.08.2019
3426 Clouds 24 1012 64 10000 1.5 220 21:57 18.08.2019
3427 Clouds 25 1012 64 10000 1.5 220 21:39 18.08.2019
3428 Clear 25 1011 68 10000 1 250 21:20 18.08.2019
3429 Clear 26 1011 64 10000 1.5 170 20:58 18.08.2019
3430 Clear 29 1010 45 10000 2.6 180 20:40 18.08.2019
3431 Clear 29 1011 44 10000 1.5 150 20:22 18.08.2019
3432 Clear 30 1011 42 10000 2.1 170 19:42 18.08.2019
3433 Clear 31 1011 45 10000 3.1 170 19:23 18.08.2019
3434 Clear 31 1011 33 10000 2.1 200 18:57 18.08.2019
3435 Clear 31 1011 33 10000 2.1 200 18:39 18.08.2019
3436 Clear 31 1011 33 10000 2.1 200 18:39 18.08.2019
3437 Clear 31 1011 35 10000 2.1 190 18:21 18.08.2019
3438 Clear 31 1011 35 10000 2.1 190 18:21 18.08.2019
3439 Clear 31 1012 31 10000 2.1 210 17:55 18.08.2019
3440 Clear 31 1012 33 10000 2.6 210 17:37 18.08.2019
3441 Clear 31 1012 33 10000 2.6 210 17:18 18.08.2019
3442 Clear 32 1012 31 10000 3.1 220 16:55 18.08.2019
3443 Clear 31 1012 35 10000 3.1 230 16:36 18.08.2019
3444 Clear 32 1012 35 10000 3.1 230 16:18 18.08.2019
3445 Clear 31 1012 40 10000 3.6 260 15:40 18.08.2019
3446 Clear 31 1012 40 10000 3.6 260 15:20 18.08.2019
3447 Clear 31 1013 45 10000 3.1 250 14:58 18.08.2019
3448 Clear 30 1013 40 10000 1.5 0 14:39 18.08.2019
3449 Clear 30 1013 40 10000 1.5 0 14:19 18.08.2019
3450 Clear 30 1013 42 10000 1.5 200 13:57 18.08.2019
3451 Clear 28 1013 42 10000 1.5 250 13:39 18.08.2019
3452 Clear 28 1013 42 10000 1.5 250 13:20 18.08.2019
3453 Clear 27 1013 44 10000 2.6 230 12:54 18.08.2019
3454 Clear 27 1013 47 10000 2.1 250 12:36 18.08.2019
3455 Clear 27 1013 47 10000 2.1 250 12:18 18.08.2019
3456 Clear 25 1013 53 10000 3.6 220 11:41 18.08.2019
3457 Clear 25 1013 53 10000 3.6 220 11:21 18.08.2019
3458 Clear 24 1014 53 10000 3.1 220 10:56 18.08.2019
3459 Clear 22 1014 53 10000 4.6 220 10:38 18.08.2019
3460 Clear 22 1014 53 10000 4.6 220 10:18 18.08.2019
3461 Clear 20 1014 56 10000 4.6 220 09:42 18.08.2019
3462 Clouds 19 1014 60 10000 3.6 220 09:19 18.08.2019
3463 Clear 17 1013 77 10000 1 0 08:43 18.08.2019
3464 Clear 16 1013 88 10000 1 0 08:25 18.08.2019
3465 Clouds 16 1013 77 10000 3.6 220 07:53 18.08.2019
3466 Clouds 16 1013 87 10000 3.6 220 07:29 18.08.2019
3467 Clouds 16 1013 82 10000 1.5 220 06:32 18.08.2019
3468 Clouds 15 1013 87 10000 0.5 0 05:41 18.08.2019
3469 Clouds 16 1014 82 10000 1 0 03:51 18.08.2019
3470 Clouds 16 1014 77 10000 1 0 02:52 18.08.2019
3471 Clouds 16 1014 87 10000 1.5 150 02:34 18.08.2019
3472 Clouds 17 1014 77 10000 2.6 160 01:57 18.08.2019
3473 Clouds 17 1015 82 10000 3.1 150 01:26 18.08.2019
3474 Clouds 17 1015 87 10000 1.5 110 00:42 18.08.2019
3475 Rain 17 1015 82 10000 0.5 0 00:20 18.08.2019
3476 Rain 17 1015 87 10000 2.6 160 23:58 17.08.2019
3477 Rain 18 1015 82 10000 1 0 23:38 17.08.2019
3478 Rain 18 1015 82 10000 1 0 23:19 17.08.2019
3479 Rain 19 1015 77 10000 1 0 22:57 17.08.2019
3480 Rain 19 1015 88 10000 2.1 160 22:39 17.08.2019
3481 Rain 19 1015 88 10000 2.1 160 22:21 17.08.2019
3482 Rain 18 1015 82 10000 1 0 21:55 17.08.2019
3483 Rain 19 1015 82 10000 1 0 21:37 17.08.2019
3484 Rain 20 1016 82 10000 1 190 21:18 17.08.2019
3485 Rain 22 1015 72 10000 1 200 20:39 17.08.2019
3486 Rain 22 1015 72 10000 1 200 20:20 17.08.2019
3487 Rain 22 1016 64 10000 2.1 240 19:56 17.08.2019
3488 Rain 22 1016 64 10000 2.1 240 19:37 17.08.2019
3489 Rain 22 1015 64 10000 2.1 210 19:19 17.08.2019
3490 Clouds 23 1015 53 10000 3.1 230 18:39 17.08.2019
3491 Clouds 23 1015 53 10000 3.1 230 18:19 17.08.2019
3492 Clouds 24 1015 49 10000 3.1 220 17:56 17.08.2019
3493 Clouds 24 1015 46 10000 3.6 260 17:37 17.08.2019
3494 Clouds 24 1015 46 10000 3.6 260 17:19 17.08.2019
3495 Clouds 24 1015 49 10000 3.1 260 16:43 17.08.2019
3496 Rain 24 1015 47 10000 2.6 260 16:25 17.08.2019
3497 Rain 24 1016 49 10000 4.1 270 15:58 17.08.2019
3498 Rain 24 1016 50 10000 5.1 260 15:39 17.08.2019
3499 Rain 25 1016 50 10000 5.1 260 15:20 17.08.2019
3500 Rain 24 1016 50 10000 4.1 240 14:41 17.08.2019
3501 Rain 24 1016 47 10000 5.1 240 14:22 17.08.2019
3502 Rain 24 1016 49 10000 2.6 250 13:48 17.08.2019
3503 Clouds 24 1016 53 10000 3.6 250 13:23 17.08.2019
3504 Clouds 24 1016 53 10000 3.6 250 13:23 17.08.2019
3505 Clouds 24 1016 53 10000 4.6 210 12:58 17.08.2019
3506 Clouds 24 1016 53 10000 4.6 210 12:40 17.08.2019
3507 Clouds 23 1016 53 10000 4.6 210 12:19 17.08.2019
3508 Clouds 23 1016 53 10000 4.6 230 11:56 17.08.2019
3509 Clouds 22 1016 53 10000 4.6 230 11:36 17.08.2019
3510 Clouds 21 1016 60 10000 4.6 230 11:18 17.08.2019
3511 Clouds 20 1017 60 10000 5.1 260 10:39 17.08.2019
3512 Clouds 20 1017 64 10000 3.1 230 10:19 17.08.2019
3513 Clouds 19 1017 77 10000 1.5 220 09:50 17.08.2019
3514 Clouds 17 1017 72 10000 1 0 09:31 17.08.2019
3515 Clouds 16 1016 77 10000 2.1 210 08:54 17.08.2019
3516 Clouds 14 1016 82 10000 2.6 150 08:26 17.08.2019
3517 Clouds 13 1016 93 10000 0.5 0 07:55 17.08.2019
3518 Fog 12 1016 87 10000 1.5 200 07:36 17.08.2019
3519 Fog 12 1016 87 10000 1.5 200 07:18 17.08.2019
3520 Fog 12 1016 87 10000 1 160 05:57 17.08.2019
3521 Fog 11 1016 93 10000 1.5 200 04:31 17.08.2019
3522 Fog 11 1017 93 10000 2.6 210 03:37 17.08.2019
3523 Fog 12 1017 93 10000 1 170 01:59 17.08.2019
3524 Clouds 12 1017 93 10000 1 170 01:36 17.08.2019
3525 Clouds 12 1017 93 10000 1 170 01:18 17.08.2019
3526 Clouds 13 1017 93 10000 1.5 140 00:39 17.08.2019
3527 Clouds 13 1017 87 10000 2.1 150 23:58 16.08.2019
3528 Clouds 14 1017 87 10000 1.5 140 23:39 16.08.2019
3529 Clouds 14 1017 87 10000 1.5 140 23:20 16.08.2019
3530 Clouds 14 1018 82 10000 1 0 22:42 16.08.2019
3531 Clouds 14 1018 87 10000 1.5 0 22:19 16.08.2019
3532 Clouds 15 1018 76 10000 2.1 140 21:56 16.08.2019
3533 Clouds 16 1018 76 10000 2.1 140 21:38 16.08.2019
3534 Clouds 17 1018 77 10000 2.1 170 21:18 16.08.2019
3535 Clouds 19 1018 63 10000 1 140 20:42 16.08.2019
3536 Clouds 21 1018 45 10000 1 160 20:20 16.08.2019
3537 Clouds 21 1018 49 10000 0.5 0 19:56 16.08.2019
3538 Clouds 21 1018 49 10000 0.5 0 19:38 16.08.2019
3539 Clear 22 1018 43 10000 0.81 46.005 19:19 16.08.2019
3540 Clear 22 1018 46 10000 1 0 18:42 16.08.2019
3541 Clear 22 1018 46 10000 2.6 220 18:23 16.08.2019
3542 Clear 22 1018 46 10000 1.5 310 17:48 16.08.2019
3543 Clear 22 1018 49 10000 2.6 300 17:28 16.08.2019
3544 Clear 22 1019 46 10000 2.1 0 16:59 16.08.2019
3545 Clear 22 1019 46 10000 2.1 0 16:59 16.08.2019
3546 Clouds 22 1019 49 10000 3.1 250 16:40 16.08.2019
3547 Clouds 22 1019 49 10000 3.1 250 16:19 16.08.2019
3548 Clouds 22 1019 49 10000 2.6 280 15:56 16.08.2019
3549 Clouds 22 1019 49 10000 2.6 280 15:56 16.08.2019
3550 Clouds 22 1019 52 10000 4.6 240 15:37 16.08.2019
3551 Clouds 22 1019 52 10000 4.6 240 15:19 16.08.2019
3552 Clouds 21 1020 52 10000 3.6 210 14:56 16.08.2019
3553 Clouds 21 1020 52 10000 3.6 210 14:56 16.08.2019
3554 Clouds 21 1020 60 10000 3.6 230 14:37 16.08.2019
3555 Clouds 21 1020 60 10000 3.6 230 14:18 16.08.2019
3556 Clouds 20 1020 60 10000 3.1 230 13:40 16.08.2019
3557 Clouds 20 1020 59 10000 2.6 260 13:21 16.08.2019
3558 Clouds 20 1021 55 10000 3.6 250 12:41 16.08.2019
3559 Clouds 19 1021 59 10000 4.1 260 12:23 16.08.2019
3560 Clouds 19 1021 59 10000 4.6 230 11:59 16.08.2019
3561 Clouds 19 1021 59 10000 4.6 230 11:40 16.08.2019
3562 Clouds 19 1021 68 10000 3.1 260 11:22 16.08.2019
3563 Clouds 18 1021 67 10000 4.6 240 10:43 16.08.2019
3564 Clouds 17 1021 63 10000 4.6 230 10:22 16.08.2019
3565 Clouds 17 1021 72 10000 3.6 260 09:55 16.08.2019
3566 Clear 16 1021 77 10000 4.6 230 09:37 16.08.2019
3567 Clear 16 1021 77 10000 4.6 230 09:18 16.08.2019
3568 Clear 15 1021 82 10000 4.1 230 08:40 16.08.2019
3569 Clear 15 1021 82 10000 4.1 230 08:20 16.08.2019
3570 Clear 14 1021 87 10000 4.6 240 07:52 16.08.2019
3571 Clear 14 1021 87 10000 4.1 240 07:30 16.08.2019
3572 Clear 14 1021 87 10000 4.1 240 06:56 16.08.2019
3573 Clear 14 1021 93 10000 4.1 240 06:21 16.08.2019
3574 Clear 14 1021 87 10000 4.1 240 05:40 16.08.2019
3575 Rain 14 1020 87 10000 3.6 240 04:27 16.08.2019
3576 Rain 14 1020 93 10000 4.1 230 02:28 16.08.2019
3577 Rain 15 1020 93 10000 5.1 230 01:30 16.08.2019
3578 Rain 15 1020 93 10000 4.1 220 00:59 16.08.2019
3579 Rain 15 1020 93 10000 4.1 220 00:40 16.08.2019
3580 Rain 15 1019 93 10000 5.1 230 00:20 16.08.2019
3581 Rain 15 1019 93 10000 5.1 220 23:44 15.08.2019
3582 Rain 15 1019 87 10000 4.6 220 23:21 15.08.2019
3583 Rain 15 1019 93 10000 5.7 230 22:58 15.08.2019
3584 Rain 15 1019 93 10000 5.7 230 22:39 15.08.2019
3585 Rain 15 1019 93 10000 5.7 230 22:39 15.08.2019
3586 Rain 15 1019 93 10000 5.7 230 22:39 15.08.2019
3587 Rain 15 1019 93 10000 5.7 230 22:39 15.08.2019
3588 Rain 15 1018 87 10000 4.1 220 22:20 15.08.2019
3589 Rain 16 1018 87 10000 4.6 230 21:54 15.08.2019
3590 Rain 16 1018 87 10000 4.6 230 21:36 15.08.2019
3591 Thunderstorm 16 1018 82 10000 7.7 240 21:18 15.08.2019
3592 Thunderstorm 17 1017 82 10000 4.6 220 20:42 15.08.2019
3593 Thunderstorm 17 1017 82 10000 4.6 220 20:42 15.08.2019
3594 Rain 17 1017 82 10000 4.6 200 20:21 15.08.2019
3595 Rain 17 1017 77 10000 5.1 230 19:57 15.08.2019
3596 Rain 18 1017 77 10000 5.1 230 19:39 15.08.2019
3597 Rain 18 1016 68 10000 5.1 240 19:20 15.08.2019
3598 Rain 18 1016 68 10000 7.2 240 18:47 15.08.2019
3599 Rain 19 1016 82 10000 3.6 290 18:23 15.08.2019
3600 Rain 19 1016 77 10000 4.6 230 17:58 15.08.2019
3601 Rain 19 1016 72 10000 5.7 220 17:38 15.08.2019
3602 Rain 19 1016 72 10000 5.7 220 17:19 15.08.2019
3603 Thunderstorm 19 1016 72 10000 5.7 200 16:57 15.08.2019
3604 Clouds 20 1016 64 10000 4.6 220 16:38 15.08.2019
3605 Rain 20 1016 77 10000 4.1 210 16:20 15.08.2019
3606 Rain 19 1017 72 10000 3.6 240 15:38 15.08.2019
3607 Rain 18 1017 87 10000 2.6 210 15:20 15.08.2019
3608 Rain 18 1017 77 10000 3.1 220 14:57 15.08.2019
3609 Rain 18 1017 72 10000 2.6 200 14:38 15.08.2019
3610 Rain 18 1017 72 10000 2.6 200 14:19 15.08.2019
3611 Rain 18 1017 72 10000 2.1 280 13:56 15.08.2019
3612 Rain 18 1017 72 10000 2.1 280 13:38 15.08.2019
3613 Rain 18 1017 77 10000 2.1 290 13:19 15.08.2019
3614 Rain 19 1017 72 10000 4.6 290 12:40 15.08.2019
3615 Rain 19 1017 63 10000 5.7 270 12:21 15.08.2019
3616 Rain 19 1017 63 10000 3.6 260 11:59 15.08.2019
3617 Clouds 19 1016 59 10000 4.1 260 11:39 15.08.2019
3618 Clouds 19 1016 59 10000 4.1 260 11:20 15.08.2019
3619 Clouds 19 1016 59 10000 2.1 230 10:59 15.08.2019
3620 Clouds 18 1016 77 10000 1.5 230 10:37 15.08.2019
3621 Clouds 18 1016 77 10000 1.5 230 10:19 15.08.2019
3622 Clouds 16 1016 72 10000 1.5 220 09:44 15.08.2019
3623 Clouds 15 1016 77 10000 1.5 200 09:23 15.08.2019
3624 Clouds 14 1017 76 10000 2.6 180 08:55 15.08.2019
3625 Fog 13 1017 76 10000 2.6 180 08:36 15.08.2019
3626 Clouds 12 1017 82 10000 1.5 210 08:18 15.08.2019
3627 Clouds 10 1017 87 10000 2.6 220 07:42 15.08.2019
3628 Fog 9 1017 87 10000 2.6 230 07:22 15.08.2019
3629 Fog 8 1017 87 10000 2.6 190 06:53 15.08.2019
3630 Fog 9 1017 81 10000 2.1 170 06:32 15.08.2019
3631 Fog 9 1017 93 10000 1.5 170 05:43 15.08.2019
3632 Fog 9 1017 93 10000 2.1 200 05:23 15.08.2019
3633 Fog 9 1017 93 10000 2.6 210 04:30 15.08.2019
3634 Fog 9 1018 100 10000 1.5 170 03:37 15.08.2019
3635 Clear 10 1018 87 10000 1 200 02:37 15.08.2019
3636 Clear 10 1019 93 10000 1.5 170 01:50 15.08.2019
3637 Clear 11 1019 93 10000 2.6 170 01:30 15.08.2019
3638 Clear 11 1019 100 10000 1.5 140 00:41 15.08.2019
3639 Clear 11 1019 100 10000 1.5 140 00:21 15.08.2019
3640 Clear 11 1019 93 10000 1 0 23:57 14.08.2019
3641 Clear 12 1019 93 10000 1 140 23:37 14.08.2019
3642 Clear 12 1019 93 10000 1 140 23:19 14.08.2019
3643 Clear 12 1019 93 10000 1 140 23:19 14.08.2019
3644 Clear 12 1019 93 10000 1 150 22:57 14.08.2019
3645 Clear 13 1019 87 10000 1.5 160 22:38 14.08.2019
3646 Clear 13 1019 87 10000 1.5 160 22:19 14.08.2019
3647 Clear 14 1019 93 10000 1 0 21:55 14.08.2019
3648 Clouds 15 1019 87 10000 1.5 150 21:37 14.08.2019
3649 Clouds 15 1019 87 10000 1.5 150 21:37 14.08.2019
3650 Rain 16 1019 87 10000 1.5 150 21:18 14.08.2019
3651 Rain 18 1019 59 10000 2.41 3.456 20:41 14.08.2019
3652 Rain 19 1019 52 10000 1 0 20:21 14.08.2019
3653 Clear 20 1019 40 10000 1.5 270 19:56 14.08.2019
3654 Clear 20 1019 45 10000 1.5 0 19:38 14.08.2019
3655 Clear 20 1019 45 10000 1.5 0 19:19 14.08.2019
3656 Clear 20 1019 45 10000 2.6 290 18:57 14.08.2019
3657 Clear 20 1019 45 10000 1.5 0 18:38 14.08.2019
3658 Clear 20 1019 45 10000 1.5 0 18:20 14.08.2019
3659 Clear 20 1019 42 10000 1.5 230 17:56 14.08.2019
3660 Clear 20 1019 45 10000 2.1 260 17:37 14.08.2019
3661 Clear 20 1019 45 10000 2.1 260 17:19 14.08.2019
3662 Clear 20 1019 48 10000 2.1 240 16:43 14.08.2019
3663 Clear 20 1020 45 10000 2.1 280 16:21 14.08.2019
3664 Clear 20 1020 45 10000 2.1 280 16:20 14.08.2019
3665 Clear 19 1020 48 10000 1.5 0 15:59 14.08.2019
3666 Clear 19 1020 48 10000 1.5 0 15:40 14.08.2019
3667 Clear 19 1020 45 10000 2.6 300 15:18 14.08.2019
3668 Clouds 19 1020 48 10000 3.6 310 14:54 14.08.2019
3669 Clouds 19 1021 48 10000 2.6 250 14:36 14.08.2019
3670 Clouds 19 1021 48 10000 2.6 250 14:18 14.08.2019
3671 Clouds 18 1021 48 10000 2.6 190 13:43 14.08.2019
3672 Clouds 18 1021 51 10000 3.1 290 13:23 14.08.2019
3673 Clouds 18 1021 51 10000 3.1 240 12:56 14.08.2019
3674 Clouds 18 1021 51 10000 3.1 240 12:38 14.08.2019
3675 Clouds 18 1021 59 10000 2.6 240 12:20 14.08.2019
3676 Clouds 17 1021 48 10000 3.6 230 11:55 14.08.2019
3677 Clouds 17 1021 48 10000 3.6 230 11:37 14.08.2019
3678 Clouds 17 1021 63 10000 2.1 280 11:18 14.08.2019
3679 Clouds 16 1021 63 10000 2.6 270 10:42 14.08.2019
3680 Clear 16 1021 67 10000 2.6 260 10:23 14.08.2019
3681 Clear 15 1021 77 10000 2.6 240 09:56 14.08.2019
3682 Fog 14 1021 77 10000 2.6 240 09:37 14.08.2019
3683 Fog 13 1021 87 10000 3.1 220 09:19 14.08.2019
3684 Fog 12 1021 87 10000 2.6 220 08:37 14.08.2019
3685 Fog 12 1021 93 10000 2.1 210 08:19 14.08.2019
3686 Fog 10 1021 100 10000 1.5 210 07:50 14.08.2019
3687 Fog 10 1020 100 10000 1.5 210 07:31 14.08.2019
3688 Fog 10 1020 100 4600 2.1 210 06:45 14.08.2019
3689 Fog 10 1020 93 10000 2.1 230 05:52 14.08.2019
3690 Clouds 11 1020 100 10000 2.6 220 04:54 14.08.2019
3691 Clouds 12 1020 93 10000 2.6 220 03:37 14.08.2019
3692 Clouds 13 1020 93 10000 2.1 210 02:33 14.08.2019
3693 Clouds 13 1020 100 10000 2.6 220 01:45 14.08.2019
3694 Clouds 13 1020 100 10000 2.6 220 00:59 14.08.2019
3695 Rain 14 1020 93 10000 2.1 190 23:50 13.08.2019
3696 Rain 14 1021 93 10000 2.6 160 23:25 13.08.2019
3697 Rain 14 1021 93 10000 2.1 180 22:59 13.08.2019
3698 Rain 14 1021 93 10000 2.1 180 22:39 13.08.2019
3699 Rain 14 1021 93 10000 2.1 190 22:21 13.08.2019
3700 Rain 14 1021 93 6000 4.1 220 21:58 13.08.2019
3701 Rain 14 1021 93 6000 4.1 220 21:38 13.08.2019
3702 Rain 14 1020 87 10000 3.6 250 21:19 13.08.2019
3703 Rain 14 1020 93 10000 3.1 170 20:56 13.08.2019
3704 Rain 15 1020 93 10000 3.1 170 20:37 13.08.2019
3705 Rain 15 1019 87 10000 3.6 150 20:18 13.08.2019
3706 Rain 15 1019 77 10000 2.1 150 19:43 13.08.2019
3707 Rain 16 1019 77 10000 1.5 160 19:22 13.08.2019
3708 Rain 16 1019 77 10000 1.5 160 19:22 13.08.2019
3709 Rain 16 1019 67 10000 2.6 320 18:59 13.08.2019
3710 Drizzle 16 1019 67 10000 2.6 320 18:41 13.08.2019
3711 Drizzle 17 1019 67 10000 3.1 320 18:20 13.08.2019
3712 Rain 18 1019 67 10000 2.6 320 17:43 13.08.2019
3713 Rain 18 1019 63 10000 2.6 310 17:22 13.08.2019
3714 Rain 18 1019 63 10000 2.6 320 16:58 13.08.2019
3715 Rain 18 1019 63 10000 2.6 320 16:40 13.08.2019
3716 Rain 18 1019 67 10000 2.1 330 16:21 13.08.2019
3717 Rain 18 1019 63 10000 3.1 300 15:59 13.08.2019
3718 Clouds 18 1020 67 10000 5.1 300 15:38 13.08.2019
3719 Clouds 18 1020 67 10000 5.1 300 15:19 13.08.2019
3720 Rain 19 1020 55 10000 3.1 280 14:43 13.08.2019
3721 Rain 19 1020 59 10000 3.6 300 14:20 13.08.2019
3722 Rain 19 1020 55 10000 2.6 240 13:58 13.08.2019
3723 Rain 19 1020 55 10000 2.6 240 13:58 13.08.2019
3724 Clouds 19 1020 55 10000 3.6 250 13:39 13.08.2019
3725 Clouds 19 1020 55 10000 3.6 250 13:18 13.08.2019
3726 Clouds 19 1020 59 10000 2.6 260 12:56 13.08.2019
3727 Clouds 19 1020 59 10000 2.6 260 12:38 13.08.2019
3728 Clouds 19 1020 68 10000 2.6 260 12:19 13.08.2019
3729 Clouds 18 1020 63 10000 3.1 240 11:42 13.08.2019
3730 Clouds 17 1021 72 10000 3.6 260 11:22 13.08.2019
3731 Clouds 17 1020 77 10000 3.6 240 10:57 13.08.2019
3732 Clouds 17 1021 82 10000 3.6 250 10:38 13.08.2019
3733 Clouds 16 1021 82 10000 3.6 250 10:19 13.08.2019
3734 Clouds 16 1021 82 10000 3.6 250 10:19 13.08.2019
3735 Clouds 16 1021 82 10000 3.6 230 09:46 13.08.2019
3736 Clouds 16 1021 82 10000 3.6 230 09:46 13.08.2019
3737 Clouds 15 1021 87 10000 4.1 250 09:25 13.08.2019
3738 Clouds 15 1020 87 10000 2.6 250 08:59 13.08.2019
3739 Clouds 15 1020 87 10000 2.6 230 08:39 13.08.2019
3740 Clouds 14 1020 87 10000 2.6 230 08:20 13.08.2019
3741 Clouds 14 1020 93 10000 2.1 200 07:46 13.08.2019
3742 Clouds 13 1020 93 10000 2.1 190 07:25 13.08.2019
3743 Clouds 13 1019 100 10000 2.1 210 06:44 13.08.2019
3744 Rain 14 1019 93 10000 3.1 220 05:58 13.08.2019
3745 Rain 14 1019 93 10000 3.1 240 05:32 13.08.2019
3746 Rain 15 1019 93 10000 2.6 210 02:22 13.08.2019
3747 Rain 15 1019 93 10000 2.6 210 01:41 13.08.2019
3748 Rain 15 1019 100 10000 2.6 220 00:52 13.08.2019
3749 Rain 15 1019 100 10000 2.1 220 00:22 13.08.2019
3750 Rain 15 1019 100 6000 1.5 150 23:47 12.08.2019
3751 Rain 15 1019 100 5000 2.1 250 23:21 12.08.2019
3752 Rain 15 1019 100 10000 0.5 0 22:57 12.08.2019
3753 Rain 15 1018 100 6000 1 330 22:38 12.08.2019
3754 Rain 15 1018 100 6000 1 330 22:19 12.08.2019
3755 Rain 15 1018 100 6000 1 10 21:55 12.08.2019
3756 Rain 15 1018 100 6000 1 10 21:36 12.08.2019
3757 Rain 15 1018 100 10000 1.5 340 21:18 12.08.2019
3758 Rain 15 1017 93 10000 3.1 140 20:55 12.08.2019
3759 Rain 15 1017 93 10000 3.1 140 20:36 12.08.2019
3760 Rain 15 1017 93 10000 2.6 110 20:18 12.08.2019
3761 Rain 16 1017 93 10000 1 0 19:54 12.08.2019
3762 Rain 16 1017 93 9000 1 0 19:36 12.08.2019
3763 Rain 16 1017 93 9000 1 0 19:18 12.08.2019
3764 Rain 16 1016 87 10000 2.6 50 18:41 12.08.2019
3765 Clouds 16 1017 87 10000 3.1 90 18:21 12.08.2019
3766 Clouds 17 1017 93 10000 2.6 60 17:58 12.08.2019
3767 Clouds 16 1017 93 10000 2.6 60 17:40 12.08.2019
3768 Clouds 16 1017 87 10000 1.5 80 17:21 12.08.2019
3769 -273 0 0 0 0 0 16:55 12.08.2019
3770 Rain 15 1018 93 10000 2.1 120 16:37 12.08.2019
3771 Rain 15 1017 100 10000 3.6 130 16:18 12.08.2019
3772 Rain 15 1018 100 6000 3.1 100 15:54 12.08.2019
3773 Rain 14 1020 100 4900 1 0 15:36 12.08.2019
3774 Rain 14 1020 100 4900 1 0 15:18 12.08.2019
3775 Rain 15 1020 93 6000 4.1 300 14:41 12.08.2019
3776 Rain 15 1019 93 6000 3.1 330 14:40 12.08.2019
3777 Rain 15 1019 93 6000 3.1 330 14:22 12.08.2019
3778 Rain 15 1019 93 7000 2.6 310 13:57 12.08.2019
3779 Rain 15 1018 93 10000 3.6 30 13:39 12.08.2019
3780 Rain 14 1018 93 10000 3.6 30 13:20 12.08.2019
3781 Rain 15 1019 93 10000 2.1 330 12:43 12.08.2019
3782 Rain 15 1019 93 10000 2.1 330 12:43 12.08.2019
3783 Rain 15 1019 87 10000 2.6 360 12:21 12.08.2019
3784 Rain 15 1019 82 10000 2.1 40 11:45 12.08.2019
3785 Rain 15 1019 82 10000 2.1 40 11:44 12.08.2019
3786 Rain 15 1019 82 10000 2.1 40 11:44 12.08.2019
3787 Rain 15 1019 82 10000 2.1 30 11:26 12.08.2019
3788 Rain 15 1019 77 10000 1 0 10:56 12.08.2019
3789 Rain 15 1019 77 10000 1 0 10:56 12.08.2019
3790 Rain 15 1018 82 10000 3.1 70 10:37 12.08.2019
3791 Rain 15 1018 82 10000 3.1 70 10:19 12.08.2019
3792 Rain 15 1019 87 10000 3.1 40 09:42 12.08.2019
3793 Rain 15 1019 87 8000 1.5 0 09:23 12.08.2019
3794 Rain 14 1019 93 10000 2.1 290 08:59 12.08.2019
3795 Rain 14 1019 93 10000 2.1 290 08:58 12.08.2019
3796 Rain 14 1019 93 9000 1.5 70 08:39 12.08.2019
3797 Rain 14 1019 93 8000 2.6 20 08:21 12.08.2019
3798 Rain 14 1019 93 8000 2.6 20 08:21 12.08.2019
3799 Rain 14 1019 93 10000 2.6 330 07:56 12.08.2019
3800 Rain 15 1019 87 10000 3.1 350 07:33 12.08.2019
3801 Drizzle 15 1019 100 10000 2.6 320 06:53 12.08.2019
3802 Rain 15 1018 100 6000 2.6 310 05:46 12.08.2019
3803 Rain 17 1018 100 10000 3.6 300 03:30 12.08.2019
3804 Rain 17 1018 100 10000 2.6 290 02:42 12.08.2019
3805 Rain 18 1017 93 10000 3.6 250 01:23 12.08.2019
3806 Rain 18 1017 93 10000 4.1 220 00:58 12.08.2019
3807 Rain 18 1017 93 10000 4.1 220 00:40 12.08.2019
3808 Rain 18 1017 93 10000 4.6 220 00:20 12.08.2019
3809 Rain 19 1016 93 10000 2.1 230 23:58 11.08.2019
3810 Rain 19 1016 93 10000 2.1 230 23:39 11.08.2019
3811 Rain 19 1016 88 10000 3.6 300 23:39 11.08.2019
3812 Rain 19 1016 88 10000 3.6 300 23:19 11.08.2019
3813 Thunderstorm 19 1016 88 10000 6.7 300 22:55 11.08.2019
3814 Thunderstorm 20 1015 73 10000 8.7 300 22:36 11.08.2019
3815 Thunderstorm 20 1015 73 10000 8.7 300 22:36 11.08.2019
3816 Thunderstorm 20 1015 73 10000 8.7 300 22:18 11.08.2019
3817 Rain 21 1014 64 10000 4.6 290 21:55 11.08.2019
3818 Rain 22 1014 64 10000 4.6 290 21:36 11.08.2019
3819 Thunderstorm 23 1012 60 10000 6.2 290 21:18 11.08.2019
3820 Clouds 24 1010 60 10000 3.6 100 20:42 11.08.2019
3821 Clouds 24 1010 60 10000 3.6 100 20:42 11.08.2019
3822 Clouds 25 1011 57 10000 4.6 100 20:23 11.08.2019
3823 Clouds 25 1011 57 10000 4.6 100 19:55 11.08.2019
3824 Clouds 25 1011 57 10000 4.6 100 19:36 11.08.2019
3825 Clouds 26 1011 57 10000 6.7 80 19:18 11.08.2019
3826 Clouds 26 1011 54 10000 6.7 70 18:39 11.08.2019
3827 Clouds 27 1012 54 10000 5.7 70 18:19 11.08.2019
3828 Clouds 27 1013 50 10000 5.7 70 17:54 11.08.2019
3829 Clouds 27 1013 50 10000 5.7 70 17:36 11.08.2019
3830 Clear 27 1014 50 10000 5.1 90 17:18 11.08.2019
3831 Clear 27 1014 47 10000 6.2 100 16:40 11.08.2019
3832 Clouds 27 1014 47 10000 5.1 70 16:22 11.08.2019
3833 Clouds 27 1015 50 10000 6.7 90 15:59 11.08.2019
3834 Clouds 27 1015 50 10000 6.7 90 15:41 11.08.2019
3835 Clouds 27 1015 53 10000 5.7 80 15:22 11.08.2019
3836 Clouds 26 1016 50 10000 5.7 80 14:56 11.08.2019
3837 Clouds 26 1016 50 10000 5.7 80 14:37 11.08.2019
3838 Clouds 26 1016 50 10000 5.1 80 14:19 11.08.2019
3839 Clouds 26 1017 57 10000 3.6 90 13:43 11.08.2019
3840 Clear 26 1017 50 10000 4.6 80 13:24 11.08.2019
3841 Clear 25 1018 57 10000 4.6 60 12:46 11.08.2019
3842 Clear 25 1018 57 10000 4.1 90 12:22 11.08.2019
3843 Clear 24 1018 56 10000 4.6 70 11:54 11.08.2019
3844 Clear 24 1019 60 10000 4.1 60 11:36 11.08.2019
3845 Clear 24 1019 60 10000 4.1 60 11:18 11.08.2019
3846 Clear 22 1019 64 10000 3.6 70 10:41 11.08.2019
3847 Clear 22 1019 64 10000 3.1 70 10:22 11.08.2019
3848 Clear 21 1020 64 10000 3.1 70 09:58 11.08.2019
3849 Clear 19 1020 64 10000 1.5 90 09:38 11.08.2019
3850 Clouds 19 1020 64 10000 1.5 90 09:19 11.08.2019
3851 Clouds 18 1020 72 10000 0.5 0 08:44 11.08.2019
3852 Clouds 17 1020 82 10000 1.5 160 08:26 11.08.2019
3853 Fog 16 1020 93 10000 2.6 160 07:54 11.08.2019
3854 Fog 15 1021 93 10000 1.5 140 07:23 11.08.2019
3855 Fog 14 1021 93 10000 2.6 160 06:44 11.08.2019
3856 Clouds 15 1021 93 10000 1.5 170 05:39 11.08.2019
3857 Clouds 16 1021 87 10000 1.5 160 03:43 11.08.2019
3858 Clouds 16 1021 72 10000 0.5 0 02:49 11.08.2019
3859 Clouds 16 1021 82 10000 2.1 180 01:39 11.08.2019
3860 Clouds 16 1021 82 10000 2.1 180 01:20 11.08.2019
3861 Clouds 16 1021 82 10000 2.1 180 01:20 11.08.2019
3862 Clouds 16 1021 82 10000 3.1 180 00:44 11.08.2019
3863 Clouds 17 1021 77 10000 3.1 190 00:25 11.08.2019
3864 Clouds 17 1021 77 10000 3.1 190 23:45 10.08.2019
3865 Clouds 17 1021 82 10000 3.1 220 23:27 10.08.2019
3866 Clouds 18 1021 88 10000 3.1 220 22:44 10.08.2019
3867 Clouds 18 1021 93 10000 2.1 220 22:25 10.08.2019
3868 Clouds 18 1020 93 10000 1 0 21:58 10.08.2019
3869 Clouds 19 1020 93 10000 1 0 21:39 10.08.2019
3870 Clouds 19 1020 93 10000 2.6 170 21:20 10.08.2019
3871 Clouds 19 1020 93 10000 3.1 160 20:56 10.08.2019
3872 Clouds 20 1020 93 10000 3.1 160 20:37 10.08.2019
3873 Clouds 20 1019 82 10000 2.1 190 20:18 10.08.2019
3874 Clouds 21 1019 77 10000 1.5 210 19:40 10.08.2019
3875 Clouds 21 1019 82 10000 2.6 210 19:21 10.08.2019
3876 Clouds 21 1019 77 10000 3.6 220 18:42 10.08.2019
3877 Clouds 21 1020 73 10000 4.6 220 18:23 10.08.2019
3878 Clouds 20 1020 77 10000 4.1 210 17:55 10.08.2019
3879 Rain 19 1020 82 10000 3.6 210 17:37 10.08.2019
3880 Rain 19 1020 82 10000 3.6 210 17:18 10.08.2019
3881 Rain 18 1020 88 10000 4.1 210 16:42 10.08.2019
3882 Rain 18 1020 93 10000 4.1 220 16:20 10.08.2019
3883 Rain 19 1020 93 10000 4.6 240 15:44 10.08.2019
3884 Rain 19 1020 88 9000 5.1 250 15:22 10.08.2019
3885 Rain 20 1020 88 8000 2.6 270 14:44 10.08.2019
3886 Rain 20 1020 88 8000 2.6 270 14:44 10.08.2019
3887 Rain 20 1020 77 10000 3.6 260 14:19 10.08.2019
3888 Clouds 20 1020 88 10000 3.1 220 13:41 10.08.2019
3889 Clouds 20 1020 82 10000 3.6 230 13:20 10.08.2019
3890 Clouds 20 1019 82 10000 4.1 230 12:54 10.08.2019
3891 Rain 20 1019 82 10000 4.1 230 12:36 10.08.2019
3892 Rain 20 1019 88 10000 3.1 240 12:18 10.08.2019
3893 Rain 20 1019 88 10000 3.6 240 11:41 10.08.2019
3894 Rain 19 1020 93 8000 4.1 270 11:22 10.08.2019
3895 Rain 19 1019 88 10000 5.1 270 10:55 10.08.2019
3896 Rain 19 1019 88 10000 5.1 270 10:36 10.08.2019
3897 Rain 20 1019 88 10000 4.1 300 10:18 10.08.2019
3898 Rain 21 1017 88 10000 3.1 270 09:41 10.08.2019
3899 Rain 21 1018 88 10000 4.6 280 09:41 10.08.2019
3900 Rain 21 1017 88 10000 3.1 270 09:23 10.08.2019
3901 Rain 21 1017 88 10000 3.1 250 08:42 10.08.2019
3902 Rain 21 1016 88 10000 2.1 230 08:22 10.08.2019
3903 Rain 20 1016 94 10000 1.5 220 07:54 10.08.2019
3904 Rain 20 1016 94 10000 1 0 07:29 10.08.2019
3905 Rain 20 1016 94 10000 1 0 07:29 10.08.2019
3906 Rain 20 1015 93 10000 1 140 06:49 10.08.2019
3907 Rain 20 1015 88 10000 2.1 180 06:30 10.08.2019
3908 Rain 20 1015 88 10000 2.6 170 05:44 10.08.2019
3909 Rain 21 1015 88 10000 1.5 250 05:18 10.08.2019
3910 Rain 21 1015 83 10000 1 0 03:32 10.08.2019
3911 Rain 22 1015 69 10000 3.6 310 02:32 10.08.2019
3912 Rain 22 1015 60 10000 3.1 310 01:44 10.08.2019
3913 Rain 22 1014 60 10000 3.6 320 01:23 10.08.2019
3914 Rain 22 1013 64 10000 2.6 0 00:58 10.08.2019
3915 Rain 23 1013 64 10000 3.1 150 00:40 10.08.2019
3916 Rain 23 1013 64 10000 3.1 150 00:18 10.08.2019
3917 Rain 24 1013 64 10000 3.6 150 23:39 09.08.2019
3918 Rain 24 1013 64 10000 3.6 150 23:20 09.08.2019
3919 Rain 24 1013 64 10000 3.6 150 23:20 09.08.2019
3920 Rain 24 1013 69 10000 3.1 160 22:55 09.08.2019
3921 Clouds 24 1013 69 10000 3.1 160 22:37 09.08.2019
3922 Clouds 24 1013 73 10000 3.1 160 22:18 09.08.2019
3923 Clouds 25 1013 69 10000 3.1 160 21:40 09.08.2019
3924 Clouds 25 1012 69 10000 1.5 150 21:21 09.08.2019
3925 Clouds 27 1012 54 10000 2.1 150 20:57 09.08.2019
3926 Clouds 28 1012 57 10000 2.1 170 20:39 09.08.2019
3927 Clouds 29 1012 57 10000 2.1 170 20:18 09.08.2019
3928 Clear 30 1012 48 10000 2.1 200 19:43 09.08.2019
3929 Clear 30 1013 40 10000 2.1 210 19:23 09.08.2019
3930 Clear 31 1013 40 10000 3.1 220 18:58 09.08.2019
3931 Clear 31 1013 40 10000 3.1 220 18:38 09.08.2019
3932 Clear 31 1013 42 10000 3.6 240 18:19 09.08.2019
3933 Clear 31 1013 40 10000 5.1 250 17:45 09.08.2019
3934 Clear 31 1013 40 10000 4.6 240 17:25 09.08.2019
3935 -273 0 0 0 0 0 16:56 09.08.2019
3936 Clear 31 1014 40 10000 2.1 240 16:38 09.08.2019
3937 Clear 31 1014 40 10000 2.1 240 16:20 09.08.2019
3938 Clear 31 1014 42 10000 2.6 280 15:42 09.08.2019
3939 Clear 31 1014 42 10000 2.6 280 15:42 09.08.2019
3940 Clear 30 1014 45 10000 3.6 220 15:22 09.08.2019
3941 Clear 30 1014 42 10000 2.1 240 14:59 09.08.2019
3942 Clear 30 1014 42 10000 2.1 240 14:58 09.08.2019
3943 Clear 30 1014 42 10000 2.1 240 14:40 09.08.2019
3944 Clear 29 1014 42 10000 1.5 190 14:21 09.08.2019
3945 Clear 29 1014 45 10000 2.6 230 13:55 09.08.2019
3946 Clear 29 1014 45 10000 2.6 230 13:37 09.08.2019
3947 Clear 28 1014 42 10000 2.6 210 13:18 09.08.2019
3948 Clear 28 1014 45 10000 1.5 170 12:41 09.08.2019
3949 Clear 27 1014 42 10000 1.5 160 12:22 09.08.2019
3950 Clear 26 1015 47 10000 1 0 11:42 09.08.2019
3951 Clear 25 1014 57 10000 1 0 11:21 09.08.2019
3952 Clear 25 1015 60 10000 2.1 140 10:59 09.08.2019
3953 Clear 23 1015 64 10000 1 0 10:39 09.08.2019
3954 Clear 23 1015 64 10000 1 0 10:21 09.08.2019
3955 Clear 21 1015 68 10000 1.5 220 09:43 09.08.2019
3956 Clear 19 1015 68 10000 2.6 170 09:20 09.08.2019
3957 Clear 18 1015 72 10000 2.1 180 08:56 09.08.2019
3958 Clear 18 1015 72 10000 2.1 180 08:37 09.08.2019
3959 Clear 17 1015 88 10000 1 0 08:18 09.08.2019
3960 Fog 14 1015 93 10000 1 210 07:43 09.08.2019
3961 Fog 13 1015 93 10000 1 210 07:22 09.08.2019
3962 Fog 13 1015 93 10000 2.1 210 06:55 09.08.2019
3963 Fog 12 1015 100 10000 3.1 220 06:27 09.08.2019
3964 Fog 12 1015 100 10000 1 0 05:55 09.08.2019
3965 Clouds 14 1015 93 10000 2.1 220 03:19 09.08.2019
3966 Clouds 14 1016 93 10000 2.6 150 01:45 09.08.2019
3967 Clouds 15 1016 87 10000 2.1 140 00:45 09.08.2019
3968 Clouds 15 1016 93 10000 1.5 150 00:26 09.08.2019
3969 Clouds 15 1016 93 10000 1 150 23:59 08.08.2019
3970 Clouds 16 1016 87 10000 0.5 0 23:38 08.08.2019
3971 Clouds 16 1016 87 10000 0.5 0 23:19 08.08.2019
3972 Clouds 16 1016 93 10000 1.5 150 22:58 08.08.2019
3973 Clouds 17 1016 93 10000 1.5 150 22:37 08.08.2019
3974 Clouds 18 1016 87 10000 1.5 150 22:18 08.08.2019
3975 Clouds 18 1016 87 10000 1.5 150 22:18 08.08.2019
3976 Clouds 18 1016 82 10000 1 0 21:58 08.08.2019
3977 Clouds 19 1016 82 10000 1 0 21:40 08.08.2019
3978 Clouds 20 1015 68 10000 1.5 150 21:21 08.08.2019
3979 Clouds 21 1015 64 10000 1 0 20:55 08.08.2019
3980 Clear 23 1015 46 10000 2.1 330 20:36 08.08.2019
3981 Clear 23 1015 46 10000 2.1 330 20:18 08.08.2019
3982 Clear 24 1015 49 10000 2.6 320 19:42 08.08.2019
3983 Clear 24 1015 47 10000 2.1 310 19:21 08.08.2019
3984 Clear 25 1015 44 10000 3.6 280 18:43 08.08.2019
3985 Clear 25 1015 47 10000 3.1 310 18:23 08.08.2019
3986 Clear 25 1015 50 10000 3.1 300 17:58 08.08.2019
3987 Clear 25 1015 50 10000 3.1 300 17:39 08.08.2019
3988 Clouds 25 1015 47 10000 2.1 320 17:21 08.08.2019
3989 Clouds 25 1015 50 10000 1.5 290 16:55 08.08.2019
3990 Clouds 25 1015 53 10000 1.5 0 16:37 08.08.2019
3991 Clouds 25 1015 53 10000 1.5 0 16:18 08.08.2019
3992 Clouds 24 1015 56 10000 3.1 270 15:41 08.08.2019
3993 Clouds 24 1016 56 10000 3.6 270 15:23 08.08.2019
3994 Clouds 24 1016 53 10000 3.6 260 14:56 08.08.2019
3995 Clouds 24 1016 53 10000 3.6 260 14:37 08.08.2019
3996 Clouds 24 1016 60 10000 4.6 230 14:18 08.08.2019
3997 Clouds 23 1016 60 10000 3.1 220 13:40 08.08.2019
3998 Clouds 23 1016 64 10000 3.1 240 13:20 08.08.2019
3999 Clouds 22 1016 68 10000 2.1 0 12:40 08.08.2019
4000 Clouds 22 1016 68 10000 2.1 0 12:21 08.08.2019
4001 Clouds 21 1016 72 10000 1.5 0 11:59 08.08.2019
4002 Clouds 21 1016 77 10000 2.6 190 11:39 08.08.2019
4003 Clouds 20 1016 77 10000 2.6 190 11:21 08.08.2019
4004 Clouds 19 1016 82 10000 2.1 270 10:41 08.08.2019
4005 Clouds 19 1016 82 10000 2.1 270 10:22 08.08.2019
4006 Clouds 18 1016 82 10000 2.1 230 09:53 08.08.2019
4007 Clouds 18 1016 88 10000 1.5 0 09:32 08.08.2019
4008 Mist 17 1016 93 10000 1.5 220 08:59 08.08.2019
4009 Mist 17 1016 93 10000 1.5 220 08:40 08.08.2019
4010 Mist 16 1015 93 10000 2.1 130 08:20 08.08.2019
4011 Fog 15 1015 93 10000 1 190 07:41 08.08.2019
4012 Fog 15 1016 93 9000 2.6 200 07:20 08.08.2019
4013 Fog 15 1015 100 10000 2.1 180 06:56 08.08.2019
4014 Fog 15 1015 100 10000 1.5 150 06:38 08.08.2019
4015 Clear 15 1015 100 10000 1.5 230 05:54 08.08.2019
4016 Clear 15 1015 93 10000 1.5 260 05:27 08.08.2019
4017 Clear 15 1014 93 10000 2.1 230 03:54 08.08.2019
4018 Clear 15 1014 93 10000 2.1 230 03:35 08.08.2019
4019 Rain 16 1015 93 10000 3.6 210 01:39 08.08.2019
4020 Clouds 16 1014 93 10000 3.6 210 00:46 08.08.2019
4021 Rain 16 1014 87 10000 4.1 210 00:20 08.08.2019
4022 Rain 16 1014 100 10000 3.1 220 23:23 07.08.2019
4023 Rain 16 1014 100 10000 3.1 220 22:59 07.08.2019
4024 Rain 16 1014 100 10000 3.1 220 22:41 07.08.2019
4025 Rain 16 1014 100 10000 4.1 210 22:21 07.08.2019
4026 Rain 16 1014 100 10000 2.6 240 21:57 07.08.2019
4027 Rain 16 1014 100 10000 2.6 240 21:39 07.08.2019
4028 Rain 16 1013 93 10000 1.5 280 21:20 07.08.2019
4029 Rain 16 1013 93 10000 5.1 330 20:59 07.08.2019
4030 Rain 17 1013 93 10000 5.1 330 20:40 07.08.2019
4031 Rain 17 1012 88 10000 2.1 260 20:20 07.08.2019
4032 Rain 17 1012 88 10000 2.1 260 20:20 07.08.2019
4033 Rain 17 1012 88 10000 3.1 210 19:55 07.08.2019
4034 Rain 18 1012 88 10000 4.1 220 19:36 07.08.2019
4035 Rain 18 1012 88 10000 4.1 220 19:18 07.08.2019
4036 Rain 18 1012 88 10000 3.6 220 18:40 07.08.2019
4037 Rain 19 1012 88 10000 4.1 210 18:20 07.08.2019
4038 Rain 19 1012 88 10000 3.6 220 17:56 07.08.2019
4039 Rain 19 1012 88 10000 3.6 220 17:38 07.08.2019
4040 Rain 18 1012 88 10000 3.6 200 17:19 07.08.2019
4041 Rain 18 1013 88 10000 4.1 220 16:56 07.08.2019
4042 Rain 18 1013 88 10000 4.1 220 16:56 07.08.2019
4043 Rain 19 1012 88 10000 3.1 220 16:37 07.08.2019
4044 Rain 19 1012 88 10000 3.1 220 16:19 07.08.2019
4045 Rain 19 1013 88 9000 4.1 230 15:42 07.08.2019
4046 Rain 19 1013 88 9000 6.2 240 15:20 07.08.2019
4047 Rain 19 1013 88 9000 6.2 240 15:20 07.08.2019
4048 Rain 19 1013 88 10000 5.7 260 14:50 07.08.2019
4049 Rain 21 1013 72 10000 8.2 270 14:30 07.08.2019
4050 Rain 22 1012 60 10000 4.1 270 13:59 07.08.2019
4051 Rain 23 1012 60 10000 4.6 250 13:40 07.08.2019
4052 Rain 23 1012 60 10000 4.6 250 13:19 07.08.2019
4053 Rain 24 1012 57 10000 1 0 12:57 07.08.2019
4054 Rain 24 1012 64 10000 1.5 0 12:38 07.08.2019
4055 Rain 23 1012 64 10000 1.5 0 12:19 07.08.2019
4056 Rain 23 1011 64 10000 3.6 100 11:57 07.08.2019
4057 Thunderstorm 23 1011 64 10000 3.6 100 11:39 07.08.2019
4058 Thunderstorm 22 1011 64 10000 3.1 80 11:18 07.08.2019
4059 Rain 22 1012 72 10000 3.6 60 10:40 07.08.2019
4060 Rain 21 1012 68 10000 4.6 360 10:20 07.08.2019
4061 Rain 20 1012 72 10000 5.1 350 09:59 07.08.2019
4062 Thunderstorm 20 1012 72 10000 5.1 350 09:39 07.08.2019
4063 Rain 19 1011 68 10000 0.5 0 09:18 07.08.2019
4064 Rain 19 1011 77 10000 1 240 08:45 07.08.2019
4065 Rain 18 1011 82 10000 2.1 150 08:24 07.08.2019
4066 Rain 18 1011 88 10000 2.1 160 07:51 07.08.2019
4067 Clear 18 1011 82 10000 1.5 140 07:30 07.08.2019
4068 Rain 17 1011 82 10000 0.5 0 06:47 07.08.2019
4069 Rain 17 1012 87 10000 1 190 06:26 07.08.2019
4070 Rain 18 1012 68 10000 1 0 05:42 07.08.2019
4071 Rain 18 1013 68 10000 3.1 210 04:40 07.08.2019
4072 Rain 18 1013 72 10000 3.1 200 03:18 07.08.2019
4073 Rain 19 1013 77 10000 3.6 220 02:39 07.08.2019
4074 Rain 19 1013 60 10000 3.6 220 01:52 07.08.2019
4075 Rain 19 1013 68 10000 3.6 210 01:22 07.08.2019
4076 Rain 19 1013 82 10000 3.6 220 00:37 07.08.2019
4077 Rain 19 1013 82 10000 3.6 220 00:18 07.08.2019
4078 Rain 19 1013 77 10000 2.6 210 23:38 06.08.2019
4079 Rain 19 1012 77 10000 1 0 23:20 06.08.2019
4080 Rain 20 1012 77 10000 2.1 180 22:42 06.08.2019
4081 Rain 20 1012 72 10000 3.6 190 22:22 06.08.2019
4082 Rain 21 1012 64 10000 5.1 190 21:59 06.08.2019
4083 Clear 21 1012 60 10000 2.6 270 21:40 06.08.2019
4084 Rain 22 1013 68 10000 5.1 210 21:19 06.08.2019
4085 Rain 22 1013 68 10000 5.1 210 21:19 06.08.2019
4086 Rain 22 1013 68 10000 5.1 210 21:19 06.08.2019
4087 Rain 22 1013 68 10000 5.1 210 21:19 06.08.2019
4088 Rain 23 1013 64 10000 3.6 220 20:47 06.08.2019
4089 Rain 23 1013 68 10000 2.6 200 20:29 06.08.2019
4090 Clear 23 1013 64 10000 2.1 230 19:59 06.08.2019
4091 Rain 24 1013 64 10000 2.1 230 19:41 06.08.2019
4092 Rain 24 1013 60 10000 4.1 240 19:22 06.08.2019
4093 Rain 25 1013 53 10000 3.6 220 18:45 06.08.2019
4094 Rain 25 1013 56 10000 6.2 220 18:26 06.08.2019
4095 Rain 26 1013 50 10000 5.1 220 17:58 06.08.2019
4096 Rain 26 1013 50 10000 5.1 220 17:39 06.08.2019
4097 Rain 26 1013 57 10000 6.7 220 17:20 06.08.2019
4098 Rain 26 1014 56 10000 6.7 220 16:59 06.08.2019
4099 Clear 26 1014 56 10000 6.7 220 16:38 06.08.2019
4100 Clear 26 1014 53 10000 8.2 220 16:19 06.08.2019
4101 Clear 26 1015 53 10000 6.7 210 15:56 06.08.2019
4102 Clear 26 1015 53 10000 6.7 210 15:38 06.08.2019
4103 Clear 26 1015 57 10000 7.2 220 15:19 06.08.2019
4104 Clear 26 1015 57 10000 7.2 220 15:19 06.08.2019
4105 Clear 26 1015 60 10000 7.7 230 14:43 06.08.2019
4106 Clear 26 1015 53 10000 8.2 220 14:25 06.08.2019
4107 Clear 26 1015 60 10000 6.2 220 13:58 06.08.2019
4108 Clear 26 1015 60 10000 6.2 220 13:38 06.08.2019
4109 Clear 25 1015 60 10000 5.1 210 13:20 06.08.2019
4110 Clear 25 1016 68 10000 5.7 220 12:56 06.08.2019
4111 Clear 24 1016 68 10000 4.6 220 12:38 06.08.2019
4112 Clear 23 1016 68 10000 4.6 220 12:20 06.08.2019
4113 Clear 22 1016 64 10000 5.7 210 11:41 06.08.2019
4114 Clear 22 1016 72 10000 4.6 210 11:19 06.08.2019
4115 Clear 21 1016 72 10000 4.1 200 10:42 06.08.2019
4116 Clear 21 1016 77 10000 7.2 210 10:23 06.08.2019
4117 Clear 20 1016 77 10000 5.1 200 09:58 06.08.2019
4118 Clear 20 1016 77 10000 5.1 200 09:38 06.08.2019
4119 Clouds 19 1016 77 10000 6.7 190 09:19 06.08.2019
4120 Thunderstorm 18 1016 88 10000 8.2 210 08:42 06.08.2019
4121 Rain 18 1016 82 10000 7.7 200 08:24 06.08.2019
4122 Rain 18 1016 88 10000 8.2 200 07:40 06.08.2019
4123 Rain 18 1016 77 10000 8.2 210 07:22 06.08.2019
4124 Rain 18 1015 82 10000 7.7 210 06:43 06.08.2019
4125 Thunderstorm 17 1015 82 10000 4.1 210 05:55 06.08.2019
4126 Rain 17 1015 93 10000 3.1 170 04:35 06.08.2019
4127 Rain 18 1015 77 10000 3.6 210 01:59 06.08.2019
4128 Rain 18 1015 88 10000 2.6 180 01:24 06.08.2019
4129 Rain 18 1015 87 10000 2.1 180 00:37 06.08.2019
4130 Rain 18 1015 88 10000 0.5 0 23:51 05.08.2019
4131 Rain 19 1014 88 10000 1.5 170 23:19 05.08.2019
4132 Rain 20 1015 82 10000 2.1 160 22:42 05.08.2019
4133 Rain 20 1015 77 10000 1.5 140 22:23 05.08.2019
4134 Rain 21 1014 77 10000 1.5 160 21:58 05.08.2019
4135 Rain 22 1014 77 10000 2.1 160 21:39 05.08.2019
4136 Rain 22 1014 77 10000 2.1 160 21:19 05.08.2019
4137 Rain 23 1014 56 10000 1 280 20:56 05.08.2019
4138 Thunderstorm 24 1014 56 10000 1 280 20:37 05.08.2019
4139 Thunderstorm 24 1014 53 10000 2.1 290 20:19 05.08.2019
4140 Rain 25 1014 50 10000 1.5 290 19:43 05.08.2019
4141 Rain 25 1014 50 10000 2.1 280 19:25 05.08.2019
4142 Rain 25 1014 53 10000 2.1 220 18:59 05.08.2019
4143 Clouds 26 1014 53 10000 2.1 220 18:40 05.08.2019
4144 Rain 26 1014 60 10000 3.1 210 18:19 05.08.2019
4145 Rain 26 1014 60 10000 3.1 210 18:19 05.08.2019
4146 Rain 27 1014 50 10000 2.6 200 17:46 05.08.2019
4147 Clear 27 1014 44 10000 2.6 220 17:27 05.08.2019
4148 Clear 27 1014 47 10000 4.1 230 16:47 05.08.2019
4149 Clear 27 1014 44 10000 1.5 0 16:27 05.08.2019
4150 Clear 27 1015 41 10000 2.6 290 15:58 05.08.2019
4151 Clear 27 1015 41 10000 2.6 290 15:40 05.08.2019
4152 Clear 27 1015 44 10000 3.6 280 15:20 05.08.2019
4153 Clear 26 1015 44 10000 3.1 210 14:40 05.08.2019
4154 Clear 26 1015 44 10000 1.5 0 14:21 05.08.2019
4155 Rain 26 1015 50 10000 1.5 210 13:48 05.08.2019
4156 Rain 25 1016 50 10000 2.6 270 13:24 05.08.2019
4157 Rain 25 1016 50 10000 2.1 220 12:50 05.08.2019
4158 Rain 24 1016 53 10000 2.6 230 12:22 05.08.2019
4159 Rain 23 1016 56 10000 2.6 190 11:58 05.08.2019
4160 Clear 23 1016 56 10000 2.6 190 11:40 05.08.2019
4161 Clouds 22 1016 64 10000 4.1 220 11:22 05.08.2019
4162 Clear 21 1016 64 10000 4.1 210 10:44 05.08.2019
4163 Clear 20 1016 68 10000 2.6 190 10:26 05.08.2019
4164 Clear 20 1016 77 10000 2.1 210 09:55 05.08.2019
4165 Clear 19 1016 72 10000 1.5 230 09:36 05.08.2019
4166 Clear 18 1016 72 10000 1.5 230 09:18 05.08.2019
4167 Clear 17 1016 72 10000 2.1 170 08:41 05.08.2019
4168 Clear 16 1016 82 10000 2.1 220 08:20 05.08.2019
4169 Clear 15 1016 87 10000 2.6 220 07:47 05.08.2019
4170 Clear 14 1016 87 10000 2.6 200 07:27 05.08.2019
4171 Clouds 14 1016 77 10000 2.6 210 06:41 05.08.2019
4172 Clouds 14 1016 82 10000 2.6 200 05:53 05.08.2019
4173 Clouds 14 1016 87 10000 1.5 150 05:22 05.08.2019
4174 Clouds 14 1016 87 10000 2.1 160 04:35 05.08.2019
4175 Clouds 14 1017 93 10000 1.5 150 03:47 05.08.2019
4176 Clouds 13 1017 93 10000 1.5 160 02:37 05.08.2019
4177 Clouds 14 1017 87 10000 1 190 01:41 05.08.2019
4178 Clouds 15 1017 82 10000 1.5 170 00:59 05.08.2019
4179 Clouds 15 1017 87 10000 2.1 160 00:39 05.08.2019
4180 Clear 15 1017 87 10000 2.1 160 00:18 05.08.2019
4181 Clear 15 1017 87 10000 2.1 160 23:41 04.08.2019
4182 Clear 16 1017 87 10000 2.1 170 23:22 04.08.2019
4183 Clear 16 1017 87 10000 1.5 160 22:57 04.08.2019
4184 Clear 17 1017 87 10000 1.5 160 22:38 04.08.2019
4185 Clear 17 1017 87 10000 2.1 170 22:19 04.08.2019
4186 Clear 19 1017 77 10000 2.1 150 21:45 04.08.2019
4187 Clear 21 1017 68 10000 1.5 210 21:24 04.08.2019
4188 Clouds 22 1016 49 10000 1.5 320 20:58 04.08.2019
4189 Clouds 23 1016 49 10000 1.5 320 20:40 04.08.2019
4190 Clouds 23 1016 43 10000 1.5 330 20:18 04.08.2019
4191 Clouds 25 1016 36 10000 0.8 331.258 19:48 04.08.2019
4192 Clouds 25 1016 38 10000 2.1 360 19:27 04.08.2019
4193 Clouds 25 1016 41 10000 1 0 18:58 04.08.2019
4194 Clouds 25 1016 41 10000 1 0 18:40 04.08.2019
4195 Clear 25 1016 38 10000 2.1 260 18:20 04.08.2019
4196 Clear 25 1017 38 10000 2.6 270 17:43 04.08.2019
4197 Clouds 25 1017 41 10000 2.6 260 17:22 04.08.2019
4198 Clouds 25 1017 38 10000 2.1 0 16:45 04.08.2019
4199 Clouds 25 1017 44 10000 2.1 0 16:26 04.08.2019
4200 Clouds 25 1017 47 10000 1 0 15:55 04.08.2019
4201 Clouds 25 1017 44 10000 1.5 0 15:37 04.08.2019
4202 Clouds 25 1017 44 10000 1.5 0 15:37 04.08.2019
4203 Clouds 25 1017 44 10000 1.5 0 15:37 04.08.2019
4204 Rain 25 1017 44 10000 1.5 0 15:18 04.08.2019
4205 Rain 24 1018 49 10000 1 0 14:42 04.08.2019
4206 Rain 24 1018 53 10000 1 0 14:21 04.08.2019
4207 Rain 24 1018 56 10000 1 0 13:43 04.08.2019
4208 Rain 23 1018 56 10000 1 0 13:24 04.08.2019
4209 Rain 23 1018 56 10000 2.1 340 12:55 04.08.2019
4210 Rain 23 1018 56 10000 2.1 190 12:37 04.08.2019
4211 Rain 22 1018 56 10000 2.1 190 12:18 04.08.2019
4212 Rain 22 1018 60 10000 1.5 0 11:41 04.08.2019
4213 Rain 21 1018 64 10000 1 0 11:22 04.08.2019
4214 Rain 20 1018 68 10000 0.5 0 10:43 04.08.2019
4215 Rain 20 1018 68 10000 0.5 0 10:43 04.08.2019
4216 Rain 19 1018 72 10000 1 0 10:21 04.08.2019
4217 Rain 18 1018 72 10000 1 0 09:46 04.08.2019
4218 Clear 17 1018 77 10000 1.5 230 09:25 04.08.2019
4219 Clear 16 1018 77 10000 1.5 230 08:57 04.08.2019
4220 Fog 15 1018 87 10000 0.98 252.084 08:33 04.08.2019
4221 Fog 14 1018 100 10000 0.5 0 07:54 04.08.2019
4222 Fog 12 1018 100 10000 1.5 180 07:23 04.08.2019
4223 Fog 12 1018 93 10000 0.98 252.084 06:40 04.08.2019
4224 Fog 12 1018 93 10000 1 210 06:18 04.08.2019
4225 Clear 13 1018 100 10000 1.5 190 03:36 04.08.2019
4226 Clear 14 1018 87 10000 1.5 190 01:52 04.08.2019
4227 Clear 14 1018 93 10000 2.1 230 01:32 04.08.2019
4228 Clear 15 1018 93 10000 2.6 220 00:42 04.08.2019
4229 Rain 15 1018 93 10000 3.1 220 00:23 04.08.2019
4230 Rain 15 1019 87 10000 3.1 210 23:42 03.08.2019
4231 Rain 16 1019 87 10000 2.6 220 23:19 03.08.2019
4232 Rain 16 1018 87 10000 2.6 230 22:59 03.08.2019
4233 Rain 16 1018 87 10000 2.6 230 22:39 03.08.2019
4234 Rain 16 1018 87 10000 2.6 220 22:19 03.08.2019
4235 Rain 17 1018 77 10000 2.1 260 21:39 03.08.2019
4236 Rain 18 1018 77 10000 3.1 280 21:21 03.08.2019
4237 Rain 18 1018 72 10000 3.6 250 20:45 03.08.2019
4238 Rain 18 1018 72 10000 2.1 300 20:24 03.08.2019
4239 Rain 19 1017 68 10000 3.1 290 19:55 03.08.2019
4240 Rain 19 1017 68 10000 3.6 290 19:37 03.08.2019
4241 Rain 19 1017 68 10000 3.6 290 19:18 03.08.2019
4242 Rain 19 1017 68 10000 5.7 290 18:40 03.08.2019
4243 Rain 19 1017 68 10000 5.7 290 18:22 03.08.2019
4244 Rain 19 1017 63 10000 5.7 290 17:42 03.08.2019
4245 Rain 19 1017 68 10000 4.6 300 17:20 03.08.2019
4246 Rain 19 1017 68 10000 3.6 300 16:39 03.08.2019
4247 Rain 20 1017 68 10000 3.6 300 16:21 03.08.2019
4248 Rain 20 1017 72 10000 4.1 290 15:46 03.08.2019
4249 Rain 19 1017 72 10000 6.2 300 15:26 03.08.2019
4250 Rain 20 1016 60 10000 5.7 280 14:50 03.08.2019
4251 Rain 20 1016 63 10000 4.6 310 14:24 03.08.2019
4252 Rain 20 1016 72 10000 7.2 330 13:59 03.08.2019
4253 Rain 20 1016 72 10000 7.2 330 13:41 03.08.2019
4254 Rain 20 1016 52 10000 8.2 250 13:23 03.08.2019
4255 Rain 20 1016 60 10000 5.7 250 12:54 03.08.2019
4256 Rain 20 1016 60 10000 5.7 250 12:36 03.08.2019
4257 Rain 20 1016 60 10000 6.7 270 12:18 03.08.2019
4258 Thunderstorm 20 1016 68 10000 5.1 280 11:38 03.08.2019
4259 Thunderstorm 20 1016 68 10000 4.6 290 11:19 03.08.2019
4260 Rain 19 1016 64 10000 5.1 250 10:38 03.08.2019
4261 Rain 19 1016 72 10000 5.7 240 10:19 03.08.2019
4262 Rain 17 1016 72 10000 5.1 250 09:37 03.08.2019
4263 Rain 17 1016 72 10000 5.7 250 09:18 03.08.2019
4264 Clear 16 1016 77 10000 4.6 230 08:43 03.08.2019
4265 Rain 14 1016 93 10000 4.88 276.666 07:40 03.08.2019
4266 Rain 13 1016 93 10000 1 0 06:57 03.08.2019
4267 Rain 13 1015 93 10000 3.1 170 06:20 03.08.2019
4268 Rain 15 1016 82 10000 4.1 220 03:35 03.08.2019
4269 Rain 15 1016 77 10000 4.6 240 02:26 03.08.2019
4270 Rain 16 1016 82 10000 4.1 220 00:59 03.08.2019
4271 Rain 16 1016 82 10000 4.1 230 00:32 03.08.2019
4272 Rain 16 1016 82 10000 4.1 230 00:32 03.08.2019
4273 Rain 16 1016 77 10000 4.6 230 23:55 02.08.2019
4274 Rain 17 1016 77 10000 4.6 230 23:36 02.08.2019
4275 Rain 17 1016 77 10000 3.6 210 23:18 02.08.2019
4276 Rain 17 1016 77 10000 4.1 220 22:40 02.08.2019
4277 Rain 17 1016 72 10000 4.1 220 22:22 02.08.2019
4278 Rain 17 1016 72 10000 4.6 230 21:57 02.08.2019
4279 Rain 17 1016 72 10000 4.6 230 21:39 02.08.2019
4280 Rain 18 1016 72 10000 6.2 230 21:21 02.08.2019
4281 Rain 18 1016 77 10000 6.2 220 20:44 02.08.2019
4282 Rain 19 1016 72 10000 6.2 220 20:26 02.08.2019
4283 Rain 20 1016 72 10000 6.2 210 19:55 02.08.2019
4284 Rain 20 1016 77 10000 7.7 220 19:33 02.08.2019
4285 Rain 21 1016 77 10000 7.2 220 18:57 02.08.2019
4286 Clear 21 1016 72 10000 6.2 210 18:38 02.08.2019
4287 Clear 22 1016 72 10000 6.2 210 18:18 02.08.2019
4288 Rain 22 1016 77 10000 6.7 220 17:41 02.08.2019
4289 Rain 23 1016 72 10000 8.7 220 17:22 02.08.2019
4290 Rain 23 1015 46 10000 2.6 300 16:40 02.08.2019
4291 Rain 23 1015 46 10000 2.6 300 16:21 02.08.2019
4292 Rain 24 1015 49 10000 2.1 340 15:58 02.08.2019
4293 Rain 24 1015 49 10000 2.1 340 15:38 02.08.2019
4294 Rain 24 1015 46 10000 3.1 20 15:18 02.08.2019
4295 Clear 24 1015 46 10000 4.1 360 14:45 02.08.2019
4296 Clear 24 1015 46 10000 5.1 30 14:18 02.08.2019
4297 Clear 24 1015 50 10000 2.6 40 13:47 02.08.2019
4298 Rain 23 1015 46 10000 3.1 40 13:23 02.08.2019
4299 Rain 23 1015 46 10000 3.6 10 12:44 02.08.2019
4300 Rain 23 1015 46 10000 3.6 20 12:21 02.08.2019
4301 Rain 22 1016 49 10000 3.6 360 11:46 02.08.2019
4302 Rain 22 1016 49 10000 3.1 10 11:26 02.08.2019
4303 Rain 21 1016 49 10000 3.6 20 10:55 02.08.2019
4304 Clear 20 1015 52 10000 3.6 20 10:37 02.08.2019
4305 Clear 20 1015 52 10000 3.6 20 10:19 02.08.2019
4306 Clouds 20 1015 68 10000 2.6 330 09:48 02.08.2019
4307 Clouds 19 1016 63 10000 1 0 09:24 02.08.2019
4308 Clouds 17 1015 77 10000 0.5 0 08:46 02.08.2019
4309 Clear 16 1015 87 10000 0.5 180 08:21 02.08.2019
4310 Clear 16 1015 93 10000 0.5 0 07:48 02.08.2019
4311 Clear 15 1015 93 10000 0.5 130 07:29 02.08.2019
4312 Clouds 14 1015 93 10000 1.5 150 06:44 02.08.2019
4313 Clouds 14 1016 87 10000 1 0 05:52 02.08.2019
4314 Clouds 15 1016 87 10000 1 140 05:21 02.08.2019
4315 Clouds 15 1017 93 10000 1 160 03:27 02.08.2019
4316 Clouds 15 1017 93 10000 2.1 180 02:33 02.08.2019
4317 Clouds 15 1017 93 10000 1 160 00:40 02.08.2019
4318 Clouds 17 1017 93 10000 1 140 23:47 01.08.2019
4319 Clouds 17 1017 87 10000 0.5 0 23:28 01.08.2019
4320 Clouds 17 1017 82 10000 1 0 22:59 01.08.2019
4321 Clouds 18 1017 87 10000 1 160 22:39 01.08.2019
4322 Clouds 18 1017 87 10000 1 160 22:20 01.08.2019
4323 Clouds 19 1017 77 10000 1 0 21:44 01.08.2019
4324 Clouds 21 1016 60 10000 2.1 350 21:24 01.08.2019
4325 Clear 21 1017 56 10000 3.1 350 20:59 01.08.2019
4326 Clear 22 1017 56 10000 3.1 350 20:40 01.08.2019
4327 Clouds 23 1017 53 10000 3.1 40 20:21 01.08.2019
4328 Clear 23 1017 56 10000 3.1 30 19:42 01.08.2019
4329 Clouds 24 1017 53 10000 3.1 320 19:20 01.08.2019
4330 Clouds 24 1017 49 10000 2.6 0 18:46 01.08.2019
4331 Clouds 25 1017 53 10000 4.1 30 18:25 01.08.2019
4332 Clouds 25 1017 56 10000 3.6 40 17:57 01.08.2019
4333 Clouds 25 1017 56 10000 3.6 40 17:39 01.08.2019
4334 Clouds 25 1017 49 10000 3.6 350 17:20 01.08.2019
4335 Clouds 25 1017 53 10000 3.1 320 16:44 01.08.2019
4336 Clouds 25 1018 53 10000 4.1 330 16:21 01.08.2019
4337 Clouds 24 1018 53 10000 2.1 0 15:45 01.08.2019
4338 Clouds 24 1018 56 10000 3.1 360 15:20 01.08.2019
4339 Clouds 24 1018 56 10000 2.1 0 14:44 01.08.2019
4340 Clouds 23 1018 60 10000 2.6 0 14:22 01.08.2019
4341 Clouds 23 1018 60 10000 1 0 13:59 01.08.2019
4342 Clouds 23 1018 60 10000 1.5 0 13:41 01.08.2019
4343 Clouds 23 1018 60 10000 1.5 0 13:21 01.08.2019
4344 Clouds 23 1019 68 10000 1.5 0 12:58 01.08.2019
4345 Clouds 23 1019 68 10000 1.5 0 12:40 01.08.2019
4346 Clouds 22 1019 72 10000 2.1 360 12:21 01.08.2019
4347 Clouds 22 1019 72 10000 1.5 310 11:41 01.08.2019
4348 Clouds 21 1019 68 10000 1 0 11:22 01.08.2019
4349 Clouds 21 1019 68 10000 1 0 11:22 01.08.2019
4350 Clouds 20 1019 72 10000 1 0 10:45 01.08.2019
4351 Clouds 19 1019 82 10000 1.5 250 10:27 01.08.2019
4352 Clouds 19 1019 82 10000 2.6 250 09:59 01.08.2019
4353 Clouds 18 1019 82 10000 2.6 250 09:39 01.08.2019
4354 Clouds 17 1019 93 10000 2.6 250 09:21 01.08.2019
4355 Fog 16 1020 93 10000 2.6 240 08:42 01.08.2019
4356 Fog 15 1020 93 10000 3.1 230 08:19 01.08.2019
4357 Fog 14 1019 93 10000 2.1 220 07:47 01.08.2019
4358 Fog 13 1019 100 10000 1 0 07:24 01.08.2019
4359 Fog 13 1019 100 10000 2.6 210 06:47 01.08.2019
4360 Fog 12 1019 93 10000 2.1 210 05:48 01.08.2019
4361 Fog 13 1019 100 10000 2.1 180 04:18 01.08.2019
4362 Rain 14 1020 100 10000 1.5 170 02:32 01.08.2019
4363 Clear 15 1020 100 10000 1.5 160 00:42 01.08.2019
4364 Clear 15 1020 100 5000 1 210 00:24 01.08.2019
4365 Clear 15 1020 100 1500 1.5 160 23:42 31.07.2019
4366 Clear 15 1020 93 5000 1 160 23:20 31.07.2019
4367 Clear 16 1020 100 4800 2.1 160 22:47 31.07.2019
4368 Clear 16 1020 93 7000 1.5 160 22:29 31.07.2019
4369 Clear 17 1019 93 10000 1.5 100 21:56 31.07.2019
4370 Clear 17 1019 93 10000 1 120 21:37 31.07.2019
4371 Clouds 18 1019 93 10000 1 120 21:18 31.07.2019
4372 Clouds 18 1019 93 10000 1 120 21:18 31.07.2019
4373 Clouds 19 1019 93 10000 1 140 20:41 31.07.2019
4374 Clouds 19 1019 82 10000 2.1 170 20:21 31.07.2019
4375 Clear 20 1019 82 10000 2.6 170 19:41 31.07.2019
4376 Clouds 20 1019 82 10000 2.1 180 19:23 31.07.2019
4377 Clouds 20 1019 77 10000 2.6 190 18:53 31.07.2019
4378 Clouds 20 1019 72 10000 2.6 190 18:26 31.07.2019
4379 Rain 20 1019 72 10000 3.1 200 17:59 31.07.2019
4380 Rain 20 1019 82 10000 2.6 190 17:40 31.07.2019
4381 Rain 19 1019 82 10000 2.6 190 17:19 31.07.2019
4382 Rain 19 1019 77 10000 2.6 190 16:43 31.07.2019
4383 Rain 19 1019 82 10000 2.6 210 16:20 31.07.2019
4384 Rain 18 1020 82 10000 3.6 200 15:45 31.07.2019
4385 -273 0 0 0 0 0 15:26 31.07.2019
4386 Rain 18 1020 93 10000 3.1 220 15:26 31.07.2019
4387 Rain 18 1020 93 9000 1.5 220 14:54 31.07.2019
4388 Rain 18 1020 93 10000 3.1 220 14:36 31.07.2019
4389 Rain 18 1020 93 10000 3.1 220 14:18 31.07.2019
4390 Rain 18 1020 87 10000 1 0 13:42 31.07.2019
4391 Rain 17 1020 93 10000 1.5 260 13:23 31.07.2019
4392 Rain 17 1020 82 10000 3.6 250 12:56 31.07.2019
4393 Rain 17 1020 87 10000 1.5 290 12:37 31.07.2019
4394 Rain 17 1020 93 10000 2.1 290 12:18 31.07.2019
4395 Rain 16 1020 100 6000 2.6 260 11:38 31.07.2019
4396 Rain 16 1020 100 6000 2.6 260 11:19 31.07.2019
4397 Rain 17 1019 93 10000 2.6 270 10:42 31.07.2019
4398 Rain 17 1019 93 10000 2.1 270 10:20 31.07.2019
4399 Rain 17 1019 93 10000 2.6 280 09:54 31.07.2019
4400 Rain 16 1019 93 10000 3.1 280 09:36 31.07.2019
4401 Rain 16 1019 93 10000 3.1 280 09:18 31.07.2019
4402 Rain 16 1018 93 10000 2.6 270 08:40 31.07.2019
4403 Rain 16 1018 93 10000 2.6 270 08:20 31.07.2019
4404 Rain 16 1018 93 10000 3.1 260 07:35 31.07.2019
4405 Rain 16 1018 100 10000 4.1 250 06:34 31.07.2019
4406 Rain 17 1017 93 10000 3.6 280 04:52 31.07.2019
4407 Rain 17 1017 100 10000 4.1 270 03:24 31.07.2019
4408 Thunderstorm 19 1016 93 10000 1 150 23:58 30.07.2019
4409 Thunderstorm 19 1016 93 10000 1 150 23:40 30.07.2019
4410 Thunderstorm 19 1015 93 10000 1.5 140 23:19 30.07.2019
4411 Rain 20 1015 93 10000 1 0 22:46 30.07.2019
4412 Rain 20 1015 88 10000 1.5 160 22:25 30.07.2019
4413 Rain 21 1015 93 10000 1 0 21:56 30.07.2019
4414 Rain 23 1015 73 10000 1.82 292.797 21:36 30.07.2019
4415 Rain 23 1015 73 10000 2.1 312.972 21:18 30.07.2019
4416 Rain 25 1014 57 10000 1 340 20:42 30.07.2019
4417 Rain 25 1014 60 10000 2.6 330 20:24 30.07.2019
4418 Rain 25 1014 60 10000 2.6 330 20:24 30.07.2019
4419 Clouds 25 1014 53 10000 2.6 340 19:58 30.07.2019
4420 Clouds 25 1014 53 10000 2.6 340 19:39 30.07.2019
4421 Clouds 26 1014 50 10000 1.5 320 18:58 30.07.2019
4422 Clouds 26 1014 50 10000 1 0 18:39 30.07.2019
4423 Clouds 26 1014 50 10000 1 0 18:19 30.07.2019
4424 Clouds 26 1014 57 10000 2.6 20 17:42 30.07.2019
4425 Clouds 27 1014 53 10000 1 0 17:19 30.07.2019
4426 Clouds 27 1015 57 10000 3.1 350 16:52 30.07.2019
4427 Clouds 26 1015 53 10000 1.5 350 16:22 30.07.2019
4428 Clouds 26 1015 64 10000 2.6 320 15:58 30.07.2019
4429 Clouds 26 1015 65 10000 1.5 0 15:38 30.07.2019
4430 Clouds 26 1015 65 10000 1.5 0 15:19 30.07.2019
4431 Clouds 25 1015 60 10000 1 0 14:42 30.07.2019
4432 Clouds 25 1016 69 10000 1 0 14:21 30.07.2019
4433 Clouds 24 1015 60 10000 3.1 270 13:48 30.07.2019
4434 Clouds 24 1016 68 10000 1.5 110 13:29 30.07.2019
4435 Clouds 23 1016 73 10000 2.1 290 12:59 30.07.2019
4436 Clouds 23 1016 68 10000 1.5 120 12:41 30.07.2019
4437 Clouds 23 1016 68 10000 1.5 120 12:23 30.07.2019
4438 Clouds 22 1016 68 10000 1.5 60 11:44 30.07.2019
4439 Clouds 22 1016 77 10000 1 0 11:21 30.07.2019
4440 Clouds 22 1016 77 10000 1 0 11:21 30.07.2019
4441 Clear 21 1016 82 10000 1.5 280 10:55 30.07.2019
4442 Clear 21 1016 88 10000 2.1 220 10:37 30.07.2019
4443 Clear 20 1016 88 10000 2.1 220 10:19 30.07.2019
4444 Mist 19 1016 88 9000 1 0 09:45 30.07.2019
4445 Mist 19 1016 93 9000 0.5 0 09:26 30.07.2019
4446 Mist 18 1015 100 9000 1 0 08:35 30.07.2019
4447 Mist 17 1015 93 10000 1 110 07:53 30.07.2019
4448 Mist 16 1015 100 9000 1 0 07:34 30.07.2019
4449 Fog 16 1014 93 3600 1.5 160 06:52 30.07.2019
4450 Fog 16 1014 100 3800 1 0 06:33 30.07.2019
4451 Mist 15 1014 100 4200 1 220 05:35 30.07.2019
4452 Clouds 16 1014 100 1600 2.1 200 04:29 30.07.2019
4453 Clouds 18 1014 100 7000 0.5 120 01:23 30.07.2019
4454 Clouds 18 1014 93 7000 1 180 00:27 30.07.2019
4455 Clouds 18 1014 93 7000 1 180 00:27 30.07.2019
4456 Clouds 18 1014 93 7000 1 180 00:27 30.07.2019
4457 Clouds 18 1014 93 5000 2.1 170 23:59 29.07.2019
4458 Clouds 18 1014 93 5000 2.1 170 23:40 29.07.2019
4459 Clouds 18 1014 100 6000 1.5 170 23:21 29.07.2019
4460 Clouds 18 1014 93 5000 2.1 170 22:55 29.07.2019
4461 Clouds 18 1014 100 6000 1 160 22:37 29.07.2019
4462 Clouds 18 1014 100 6000 1 160 22:18 29.07.2019
4463 Clouds 19 1014 93 10000 0.5 110 21:42 29.07.2019
4464 Clouds 19 1013 88 10000 0.5 0 21:23 29.07.2019
4465 Clouds 19 1013 88 8000 1.5 340 20:58 29.07.2019
4466 Clouds 20 1013 88 8000 1.5 340 20:39 29.07.2019
4467 Clouds 20 1013 88 8000 1.5 340 20:20 29.07.2019
4468 Clouds 20 1012 88 7000 1 0 19:50 29.07.2019
4469 Clouds 20 1012 77 10000 1.5 290 19:24 29.07.2019
4470 Clouds 20 1012 82 10000 2.1 270 18:59 29.07.2019
4471 Clouds 20 1012 82 10000 2.1 270 18:40 29.07.2019
4472 Clouds 20 1012 82 10000 2.1 290 18:20 29.07.2019
4473 Clouds 20 1013 88 7000 0.5 0 17:49 29.07.2019
4474 Clouds 20 1013 82 7000 1 0 17:31 29.07.2019
4475 Clouds 20 1013 82 7000 1 0 16:57 29.07.2019
4476 Clouds 19 1013 82 7000 1 0 16:38 29.07.2019
4477 Clouds 19 1013 88 10000 3.6 250 16:20 29.07.2019
4478 Clouds 19 1013 88 10000 3.6 260 15:49 29.07.2019
4479 Clouds 18 1013 82 10000 4.1 250 15:30 29.07.2019
4480 Drizzle 18 1013 93 8000 3.1 210 14:44 29.07.2019
4481 Drizzle 17 1013 93 8000 3.1 240 14:21 29.07.2019
4482 Drizzle 17 1013 93 7000 3.6 240 13:57 29.07.2019
4483 Mist 17 1013 93 5000 3.6 240 13:36 29.07.2019
4484 Mist 17 1013 93 5000 3.6 240 13:18 29.07.2019
4485 Mist 16 1013 100 4000 4.1 240 12:41 29.07.2019
4486 Drizzle 16 1013 93 6000 3.6 240 12:21 29.07.2019
4487 Drizzle 16 1013 93 6000 4.6 240 11:42 29.07.2019
4488 Rain 16 1013 93 4200 4.6 240 11:21 29.07.2019
4489 Rain 16 1013 93 4000 4.6 240 10:45 29.07.2019
4490 Rain 16 1013 93 3400 4.6 240 10:23 29.07.2019
4491 Rain 16 1012 93 6000 5.1 250 09:45 29.07.2019
4492 Rain 16 1012 93 4300 5.7 250 09:25 29.07.2019
4493 -273 0 0 0 0 0 08:57 29.07.2019
4494 Rain 15 1011 100 6000 6.7 250 08:28 29.07.2019
4495 Rain 16 1011 93 4800 5.7 250 07:56 29.07.2019
4496 Rain 16 1011 93 8000 7.2 250 07:32 29.07.2019
4497 Rain 16 1011 93 8000 7.2 250 06:44 29.07.2019
4498 Rain 16 1010 93 8000 7.2 250 05:39 29.07.2019
4499 Rain 16 1010 93 4700 6.7 260 04:49 29.07.2019
4500 Rain 17 1009 93 10000 5.7 260 01:57 29.07.2019
4501 Rain 17 1009 93 10000 5.7 260 01:39 29.07.2019
4502 Rain 17 1009 100 9000 6.7 270 01:18 29.07.2019
4503 Rain 18 1009 93 7000 5.7 280 00:41 29.07.2019
4504 Rain 18 1008 93 10000 6.7 290 00:18 29.07.2019
4505 Rain 18 1008 93 10000 6.2 280 23:40 28.07.2019
4506 Rain 18 1007 93 10000 5.7 290 23:18 28.07.2019
4507 Rain 18 1007 93 10000 4.6 290 22:38 28.07.2019
4508 Rain 18 1007 93 10000 6.2 300 22:38 28.07.2019
4509 Rain 18 1007 93 10000 4.6 290 22:19 28.07.2019
4510 Rain 18 1007 100 8000 3.6 280 21:46 28.07.2019
4511 Rain 18 1006 93 8000 3.6 280 21:18 28.07.2019
4512 Rain 18 1006 93 10000 4.1 310 20:45 28.07.2019
4513 Rain 19 1005 93 10000 5.1 310 20:27 28.07.2019
4514 Rain 18 1005 93 8000 3.6 300 19:42 28.07.2019
4515 Rain 19 1004 93 7000 3.6 310 19:22 28.07.2019
4516 Rain 19 1004 93 7000 4.6 310 18:51 28.07.2019
4517 Rain 19 1004 93 8000 5.1 320 18:32 28.07.2019
4518 Rain 19 1004 93 8000 5.1 320 18:32 28.07.2019
4519 Rain 20 1003 93 8000 3.1 290 17:59 28.07.2019
4520 Rain 20 1003 93 8000 3.1 290 17:41 28.07.2019
4521 Rain 20 1003 77 9000 4.1 300 17:21 28.07.2019
4522 Rain 21 1003 77 10000 4.6 290 16:57 28.07.2019
4523 Rain 21 1002 77 10000 4.1 290 16:38 28.07.2019
4524 Rain 21 1002 77 10000 4.1 290 16:19 28.07.2019
4525 Rain 22 1002 77 10000 4.1 300 15:42 28.07.2019
4526 Rain 21 1002 73 10000 4.1 300 15:21 28.07.2019
4527 Rain 21 1002 77 10000 3.6 290 14:37 28.07.2019
4528 Rain 21 1002 77 10000 3.6 290 14:37 28.07.2019
4529 Rain 21 1002 77 10000 3.6 290 14:37 28.07.2019
4530 Rain 21 1002 77 10000 3.6 290 14:37 28.07.2019
4531 Rain 21 1002 77 10000 3.6 290 14:19 28.07.2019
4532 Rain 21 1002 88 10000 4.6 320 13:45 28.07.2019
4533 Rain 21 1002 82 10000 4.1 300 13:25 28.07.2019
4534 Rain 21 1002 82 10000 3.6 280 12:59 28.07.2019
4535 Rain 21 1001 82 10000 3.1 290 12:40 28.07.2019
4536 Rain 20 1001 82 10000 3.1 290 12:22 28.07.2019
4537 Rain 20 1001 82 10000 3.1 300 11:47 28.07.2019
4538 Rain 20 1001 82 10000 2.6 270 11:27 28.07.2019
4539 Rain 19 1001 88 10000 2.1 250 10:41 28.07.2019
4540 Rain 19 1001 88 10000 3.1 250 10:22 28.07.2019
4541 Rain 19 1001 88 10000 3.6 250 09:54 28.07.2019
4542 Rain 19 1001 88 10000 3.6 260 09:36 28.07.2019
4543 Rain 19 1001 88 10000 3.6 260 09:18 28.07.2019
4544 Rain 18 1001 88 10000 3.1 270 08:41 28.07.2019
4545 Rain 18 1001 82 10000 2.6 260 08:18 28.07.2019
4546 Rain 18 1001 82 10000 2.6 240 07:39 28.07.2019
4547 Rain 17 1000 88 10000 2.6 250 06:47 28.07.2019
4548 Rain 17 1001 88 10000 3.1 240 05:59 28.07.2019
4549 Rain 17 1001 88 10000 3.1 250 05:18 28.07.2019
4550 Rain 17 1001 93 10000 2.6 210 02:24 28.07.2019
4551 Clouds 18 1002 88 10000 3.6 250 01:25 28.07.2019
4552 Clouds 18 1002 82 10000 3.1 250 00:49 28.07.2019
4553 Rain 19 1002 77 10000 4.1 260 00:25 28.07.2019
4554 Rain 19 1002 93 10000 3.1 250 23:48 27.07.2019
4555 Rain 19 1002 88 10000 2.6 250 23:26 27.07.2019
4556 Rain 19 1002 93 10000 1.5 250 22:43 27.07.2019
4557 Rain 20 1002 82 10000 0.5 0 22:23 27.07.2019
4558 Rain 21 1002 77 10000 1.5 120 21:45 27.07.2019
4559 Rain 22 1002 77 10000 1.5 50 21:23 27.07.2019
4560 Rain 22 1002 77 10000 1.5 100 20:56 27.07.2019
4561 Thunderstorm 23 1002 73 10000 2.6 160 20:37 27.07.2019
4562 Thunderstorm 23 1002 73 10000 2.6 160 20:19 27.07.2019
4563 Rain 24 1003 69 10000 3.6 140 19:39 27.07.2019
4564 Rain 24 1003 64 10000 4.1 140 19:21 27.07.2019
4565 Rain 24 1003 60 10000 3.6 140 18:46 27.07.2019
4566 Rain 24 1002 60 10000 3.1 100 18:28 27.07.2019
4567 Rain 24 1003 60 10000 3.1 90 17:50 27.07.2019
4568 Rain 24 1004 60 10000 1.5 0 17:32 27.07.2019
4569 Rain 24 1004 53 10000 2.1 350 16:55 27.07.2019
4570 Rain 24 1004 64 10000 2.1 330 16:37 27.07.2019
4571 Clouds 24 1005 64 10000 0.5 0 15:56 27.07.2019
4572 Rain 25 1005 64 10000 2.1 300 15:38 27.07.2019
4573 Rain 25 1005 64 10000 2.1 300 15:18 27.07.2019
4574 Clear 25 1005 64 10000 3.1 320 14:45 27.07.2019
4575 Clear 25 1006 64 10000 3.6 310 14:25 27.07.2019
4576 Clear 25 1006 69 10000 3.6 320 13:48 27.07.2019
4577 Clouds 24 1006 64 10000 2.6 360 13:23 27.07.2019
4578 Rain 24 1006 69 10000 2.6 350 12:50 27.07.2019
4579 Rain 23 1006 68 10000 2.6 350 12:27 27.07.2019
4580 Rain 23 1007 69 10000 1.5 360 11:56 27.07.2019
4581 Rain 23 1007 69 10000 1.5 360 11:38 27.07.2019
4582 Clear 23 1007 68 10000 1 0 11:19 27.07.2019
4583 Rain 23 1007 68 10000 1 0 10:40 27.07.2019
4584 Rain 22 1007 77 10000 1 0 10:21 27.07.2019
4585 Rain 21 1007 77 10000 1.5 270 09:41 27.07.2019
4586 Rain 21 1007 77 10000 2.1 270 09:23 27.07.2019
4587 Rain 21 1007 82 10000 3.1 280 08:49 27.07.2019
4588 Rain 20 1008 82 10000 4.1 260 08:29 27.07.2019
4589 Rain 20 1008 82 10000 5.1 260 07:55 27.07.2019
4590 Rain 20 1007 72 10000 5.1 250 07:33 27.07.2019
4591 Rain 20 1007 68 10000 6.2 240 06:56 27.07.2019
4592 Rain 20 1007 68 10000 4.6 240 06:31 27.07.2019
4593 Rain 20 1007 82 10000 3.6 220 05:53 27.07.2019
4594 Clouds 20 1007 88 10000 2.1 180 05:28 27.07.2019
4595 Rain 20 1007 82 10000 1.5 190 04:33 27.07.2019
4596 Rain 21 1007 72 10000 2.1 190 03:29 27.07.2019
4597 Rain 21 1008 68 10000 2.6 250 02:40 27.07.2019
4598 Rain 21 1008 53 10000 3.6 340 01:49 27.07.2019
4599 Rain 22 1007 53 10000 2.6 90 01:21 27.07.2019
4600 Rain 23 1007 49 10000 5.7 260 00:33 27.07.2019
4601 Rain 23 1008 41 10000 10.8 350 23:58 26.07.2019
4602 Rain 24 1008 60 10000 6.2 290 23:38 26.07.2019
4603 Rain 24 1008 60 10000 6.2 290 23:20 26.07.2019
4604 Rain 24 1009 68 10000 7.7 310 22:42 26.07.2019
4605 Rain 25 1009 50 10000 5.7 10 22:23 26.07.2019
4606 Rain 25 1008 57 10000 3.6 220 21:49 26.07.2019
4607 Thunderstorm 27 1009 47 10000 3.1 200 21:20 26.07.2019
4608 Rain 27 1009 47 10000 3.1 170 20:48 26.07.2019
4609 Rain 29 1009 45 10000 3.1 190 20:30 26.07.2019
4610 Thunderstorm 30 1009 42 10000 3.6 180 19:45 26.07.2019
4611 Thunderstorm 31 1009 38 10000 2.1 130 19:26 26.07.2019
4612 Clear 32 1009 43 10000 1 0 18:59 26.07.2019
4613 Thunderstorm 33 1009 31 10000 2.6 170 18:41 26.07.2019
4614 Thunderstorm 33 1009 31 10000 2.6 170 18:20 26.07.2019
4615 Clear 34 1009 31 10000 3.6 50 17:48 26.07.2019
4616 Clear 34 1010 29 10000 2.1 0 17:20 26.07.2019
4617 Clear 34 1010 31 10000 1.5 0 16:59 26.07.2019
4618 Clear 34 1010 31 10000 1.5 0 16:41 26.07.2019
4619 Clear 34 1010 33 10000 3.6 20 16:21 26.07.2019
4620 Clear 34 1011 29 10000 2.1 350 15:59 26.07.2019
4621 Clear 34 1011 29 10000 2.1 350 15:40 26.07.2019
4622 Clear 34 1011 29 10000 2.1 30 15:20 26.07.2019
4623 Clear 34 1012 33 10000 1.5 0 14:44 26.07.2019
4624 Clear 34 1012 35 10000 1.5 0 14:25 26.07.2019
4625 Clear 33 1012 31 10000 1.5 0 13:47 26.07.2019
4626 Clear 33 1013 31 10000 2.1 0 13:28 26.07.2019
4627 Clear 33 1013 35 10000 1 0 12:54 26.07.2019
4628 Clear 32 1013 35 10000 1 0 12:36 26.07.2019
4629 Clear 32 1013 43 10000 1 0 12:18 26.07.2019
4630 Clear 31 1013 45 10000 1 0 11:38 26.07.2019
4631 Clear 30 1014 48 10000 1.5 230 11:18 26.07.2019
4632 Clear 29 1014 54 10000 1 0 10:47 26.07.2019
4633 Clear 27 1014 54 10000 1.5 230 10:28 26.07.2019
4634 Clear 26 1014 57 10000 1 0 09:53 26.07.2019
4635 Clear 24 1014 57 10000 0.5 0 09:34 26.07.2019
4636 Clear 23 1014 69 10000 1 0 08:42 26.07.2019
4637 Clear 21 1014 78 10000 1.5 170 08:22 26.07.2019
4638 Clear 20 1014 88 10000 1.5 160 07:57 26.07.2019
4639 Clear 18 1014 88 10000 1 0 07:27 26.07.2019
4640 Clouds 17 1014 100 10000 2.1 210 06:41 26.07.2019
4641 Clouds 17 1014 87 10000 1 0 05:21 26.07.2019
4642 Clouds 18 1015 87 10000 1 0 04:22 26.07.2019
4643 Clear 19 1015 77 10000 1 200 02:41 26.07.2019
4644 Clear 20 1015 77 10000 1 180 01:42 26.07.2019
4645 Clouds 22 1016 68 10000 0.8 139.29 00:45 26.07.2019
4646 Clear 23 1015 64 10000 1.5 150 23:57 25.07.2019
4647 Clear 24 1016 64 10000 1 150 23:24 25.07.2019
4648 Clear 24 1016 60 10000 1.5 130 22:57 25.07.2019
4649 Clear 25 1016 60 10000 1.5 130 22:39 25.07.2019
4650 Clear 25 1016 53 10000 1.5 130 22:20 25.07.2019
4651 Clear 27 1016 42 10000 2.1 100 21:44 25.07.2019
4652 Clear 29 1016 42 10000 2.6 110 21:21 25.07.2019
4653 Clear 30 1016 39 10000 3.1 100 20:48 25.07.2019
4654 Clear 31 1016 35 10000 4.1 80 20:23 25.07.2019
4655 Clear 32 1016 33 10000 5.1 50 19:54 25.07.2019
4656 Clear 32 1016 29 10000 5.1 60 19:36 25.07.2019
4657 Clear 32 1016 29 10000 5.1 60 19:18 25.07.2019
4658 Clear 34 1016 31 10000 5.1 50 18:39 25.07.2019
4659 Clear 34 1016 29 10000 4.6 40 18:20 25.07.2019
4660 Clear 34 1016 29 10000 5.7 40 17:44 25.07.2019
4661 Clear 34 1016 29 10000 5.1 40 17:24 25.07.2019
4662 Clear 34 1017 29 10000 4.1 60 16:45 25.07.2019
4663 Clear 34 1017 27 10000 5.1 40 16:26 25.07.2019
4664 Clear 34 1017 26 10000 4.1 50 15:56 25.07.2019
4665 Clear 34 1017 26 10000 4.1 50 15:36 25.07.2019
4666 Clear 34 1017 27 10000 5.7 50 15:18 25.07.2019
4667 Clear 34 1017 31 10000 4.1 100 14:41 25.07.2019
4668 Clear 34 1018 33 10000 4.6 80 14:22 25.07.2019
4669 Clear 33 1018 31 10000 4.1 50 13:44 25.07.2019
4670 Clear 33 1018 35 10000 5.1 80 13:25 25.07.2019
4671 Clear 33 1018 38 10000 4.6 90 12:54 25.07.2019
4672 Clear 32 1018 38 10000 3.6 80 12:28 25.07.2019
4673 Clear 31 1018 35 10000 3.6 60 11:43 25.07.2019
4674 Clear 31 1019 42 10000 3.1 100 11:23 25.07.2019
4675 Clear 31 1019 42 10000 3.1 100 11:23 25.07.2019
4676 Clear 30 1019 48 10000 1.5 0 10:46 25.07.2019
4677 Clear 28 1019 54 10000 0.5 0 10:26 25.07.2019
4678 Clear 27 1019 57 10000 0.5 0 09:59 25.07.2019
4679 Clear 26 1019 57 10000 0.5 0 09:40 25.07.2019
4680 Clear 24 1019 69 10000 1.5 220 08:59 25.07.2019
4681 Clear 23 1019 69 10000 1.5 220 08:40 25.07.2019
4682 Clear 21 1019 88 10000 1.5 190 07:55 25.07.2019
4683 Clear 19 1019 88 10000 1 170 07:30 25.07.2019
4684 Clear 18 1019 93 10000 1 150 06:42 25.07.2019
4685 Clear 17 1019 93 10000 0.5 0 05:37 25.07.2019
4686 Clear 17 1019 93 10000 1.5 180 04:57 25.07.2019
4687 Clear 18 1019 88 10000 1 0 04:19 25.07.2019
4688 Clouds 20 1019 82 10000 1.38 131.288 01:31 25.07.2019
4689 Clouds 21 1019 82 10000 2.1 160 00:45 25.07.2019
4690 Clouds 22 1019 77 10000 0.5 0 00:19 25.07.2019
4691 Clouds 22 1019 77 10000 0.5 0 23:45 24.07.2019
4692 Clouds 23 1019 73 10000 1 0 23:27 24.07.2019
4693 Clouds 23 1019 77 10000 2.1 150 22:48 24.07.2019
4694 Clouds 24 1018 69 10000 1.5 140 22:27 24.07.2019
4695 Clouds 25 1018 61 10000 1 130 21:59 24.07.2019
4696 Clouds 27 1018 61 10000 1 130 21:41 24.07.2019
4697 Clear 29 1018 65 10000 1.43 113.567 21:21 24.07.2019
4698 Clear 30 1018 40 10000 1 330 20:55 24.07.2019
4699 Clear 31 1018 40 10000 1 330 20:37 24.07.2019
4700 Clear 31 1018 35 10000 2.1 330 20:19 24.07.2019
4701 Clear 32 1018 38 10000 2.6 340 19:42 24.07.2019
4702 Clear 33 1018 35 10000 3.1 330 19:22 24.07.2019
4703 Clear 33 1018 33 10000 2.1 330 18:58 24.07.2019
4704 Clear 33 1018 38 10000 3.6 330 18:37 24.07.2019
4705 Clear 33 1018 38 10000 3.6 330 18:19 24.07.2019
4706 Clear 34 1018 33 10000 1.5 340 17:42 24.07.2019
4707 Clear 34 1018 35 10000 4.1 300 17:19 24.07.2019
4708 Clear 34 1018 35 10000 2.6 270 16:41 24.07.2019
4709 Clear 34 1019 35 10000 2.1 0 16:21 24.07.2019
4710 Clear 34 1019 35 10000 2.1 0 16:21 24.07.2019
4711 Clear 34 1019 35 10000 3.1 250 15:40 24.07.2019
4712 Clear 33 1019 35 10000 3.1 320 15:21 24.07.2019
4713 Clear 33 1019 38 10000 3.6 270 14:56 24.07.2019
4714 Clear 33 1019 40 10000 3.1 240 14:38 24.07.2019
4715 Clear 33 1019 40 10000 3.1 240 14:18 24.07.2019
4716 Clear 32 1019 42 10000 3.6 260 13:37 24.07.2019
4717 Clear 32 1019 42 10000 3.6 260 13:18 24.07.2019
4718 Clear 31 1019 51 10000 3.1 270 12:49 24.07.2019
4719 Clear 30 1019 45 10000 3.1 270 12:26 24.07.2019
4720 Clear 30 1019 51 10000 1.5 210 11:39 24.07.2019
4721 Clear 29 1019 54 10000 1.5 220 11:20 24.07.2019
4722 Clear 28 1019 57 10000 1 0 10:44 24.07.2019
4723 Clear 27 1019 57 10000 0.5 0 10:25 24.07.2019
4724 Clear 26 1019 61 10000 1 0 09:48 24.07.2019
4725 Clear 24 1019 64 10000 2.38 101.409 09:25 24.07.2019
4726 Clear 23 1019 73 10000 0.5 0 08:58 24.07.2019
4727 Clear 21 1019 73 10000 2.49 108.871 08:32 24.07.2019
4728 Clear 20 1019 82 10000 1 160 07:52 24.07.2019
4729 Clear 19 1019 88 10000 0.5 0 07:30 24.07.2019
4730 Clear 16 1019 93 10000 0.5 0 06:36 24.07.2019
4731 Clear 16 1019 87 10000 1 0 05:56 24.07.2019
4732 Clear 18 1020 82 10000 1 120 02:54 24.07.2019
4733 Clear 19 1020 87 10000 1 0 01:44 24.07.2019
4734 Clear 19 1020 77 10000 1 90 00:57 24.07.2019
4735 Clear 20 1020 88 10000 1 160 00:24 24.07.2019
4736 Clear 21 1020 77 10000 1.5 160 23:46 23.07.2019
4737 Clear 21 1020 82 10000 1 0 23:25 23.07.2019
4738 Clear 21 1020 82 10000 1 0 23:25 23.07.2019
4739 Clear 22 1020 88 10000 1 130 22:56 23.07.2019
4740 Clear 23 1020 60 10000 1.5 100 22:36 23.07.2019
4741 Clear 23 1020 60 10000 1.5 100 22:18 23.07.2019
4742 Clear 27 1020 50 10000 2.6 100 21:44 23.07.2019
4743 Clear 26 1020 50 10000 2.6 70 21:25 23.07.2019
4744 Clear 28 1020 44 10000 3.1 60 20:49 23.07.2019
4745 Clear 29 1020 42 10000 3.6 50 20:29 23.07.2019
4746 Clear 30 1020 39 10000 3.6 50 19:43 23.07.2019
4747 Clear 30 1021 39 10000 3.6 50 19:24 23.07.2019
4748 Clear 30 1021 42 10000 3.6 40 18:57 23.07.2019
4749 Clear 30 1021 42 10000 3.6 40 18:39 23.07.2019
4750 Clear 31 1021 37 10000 3.1 60 18:19 23.07.2019
4751 Clear 31 1021 37 10000 3.6 50 17:42 23.07.2019
4752 Clear 31 1021 37 10000 3.6 50 17:21 23.07.2019
4753 Clear 31 1021 37 10000 5.7 80 16:44 23.07.2019
4754 Clear 31 1022 37 10000 4.1 60 16:25 23.07.2019
4755 Clear 31 1022 35 10000 3.6 60 15:51 23.07.2019
4756 Clear 31 1022 35 10000 3.6 60 15:32 23.07.2019
4757 Clear 30 1022 39 10000 3.6 40 14:55 23.07.2019
4758 Clear 30 1023 37 10000 2.6 50 14:36 23.07.2019
4759 Clear 30 1023 37 10000 2.6 50 14:18 23.07.2019
4760 Clear 30 1023 42 10000 4.1 40 13:55 23.07.2019
4761 Clear 30 1023 42 10000 1.5 0 13:36 23.07.2019
4762 Clear 29 1023 42 10000 1.5 0 13:18 23.07.2019
4763 Clear 29 1023 42 10000 3.6 80 12:42 23.07.2019
4764 Clear 28 1023 42 10000 3.1 40 12:22 23.07.2019
4765 Clear 28 1023 44 10000 1.5 0 11:41 23.07.2019
4766 Clear 27 1024 50 10000 3.6 60 11:21 23.07.2019
4767 Clear 26 1024 53 10000 2.1 70 10:49 23.07.2019
4768 Clear 25 1024 57 10000 2.1 70 10:23 23.07.2019
4769 Clear 24 1024 57 10000 1 0 09:43 23.07.2019
4770 Clear 22 1024 68 10000 2.1 20 09:22 23.07.2019
4771 Clear 21 1024 77 10000 0.5 0 08:56 23.07.2019
4772 Clear 19 1024 82 10000 1.58 61.589 08:38 23.07.2019
4773 Clear 18 1024 82 10000 1.58 61.589 08:18 23.07.2019
4774 Clear 17 1024 93 10000 1 0 07:44 23.07.2019
4775 Clear 16 1024 93 10000 1 190 07:26 23.07.2019
4776 Fog 14 1024 93 10000 1.5 210 06:37 23.07.2019
4777 Clear 14 1024 93 10000 1 160 04:51 23.07.2019
4778 Clouds 16 1025 93 10000 1.5 190 01:55 23.07.2019
4779 Clouds 17 1025 87 10000 1.5 160 00:54 23.07.2019
4780 Clouds 18 1025 88 10000 1.5 170 00:27 23.07.2019
4781 Clouds 19 1025 88 10000 1 160 23:41 22.07.2019
4782 Clouds 20 1024 88 10000 1 0 23:21 22.07.2019
4783 Clouds 20 1025 88 10000 1.5 170 22:58 22.07.2019
4784 Clouds 21 1025 88 10000 1.5 170 22:40 22.07.2019
4785 Clouds 22 1025 88 10000 2.1 180 22:20 22.07.2019
4786 Clouds 22 1025 88 10000 2.1 180 22:20 22.07.2019
4787 Clouds 24 1025 77 10000 1 180 21:41 22.07.2019
4788 Clouds 25 1024 64 10000 0.5 0 21:21 22.07.2019
4789 Clear 26 1024 42 10000 1.5 330 20:48 22.07.2019
4790 Clear 27 1024 44 10000 2.1 330 20:29 22.07.2019
4791 Clear 28 1024 44 10000 2.1 320 19:54 22.07.2019
4792 Clear 28 1024 44 10000 2.1 280 19:36 22.07.2019
4793 Clear 28 1024 44 10000 2.1 280 19:18 22.07.2019
4794 Clear 28 1024 39 10000 3.6 300 18:40 22.07.2019
4795 Clear 28 1024 39 10000 3.6 300 18:22 22.07.2019
4796 Clear 29 1024 39 10000 2.6 0 17:42 22.07.2019
4797 Clear 29 1025 42 10000 2.6 320 17:24 22.07.2019
4798 Clear 29 1025 42 10000 2.6 0 16:42 22.07.2019
4799 Clear 29 1025 42 10000 3.1 290 16:22 22.07.2019
4800 Clear 29 1025 39 10000 2.1 270 15:59 22.07.2019
4801 Clear 29 1025 42 10000 3.1 220 15:38 22.07.2019
4802 Clear 28 1025 42 10000 3.1 220 15:18 22.07.2019
4803 Clear 28 1025 41 10000 2.6 310 14:43 22.07.2019
4804 Clear 28 1026 39 10000 3.1 290 14:22 22.07.2019
4805 Clear 28 1026 47 10000 4.1 250 13:50 22.07.2019
4806 Clear 28 1025 44 10000 3.1 260 13:30 22.07.2019
4807 Clouds 27 1026 41 10000 2.1 280 12:50 22.07.2019
4808 Clouds 27 1026 50 10000 1.5 0 12:31 22.07.2019
4809 Clear 26 1026 57 10000 2.1 230 11:46 22.07.2019
4810 Clear 25 1026 57 10000 2.6 220 11:27 22.07.2019
4811 Clear 25 1026 69 10000 2.1 230 10:59 22.07.2019
4812 Clear 23 1026 73 10000 2.1 240 10:34 22.07.2019
4813 Clear 22 1026 83 10000 1.5 240 09:46 22.07.2019
4814 Clear 21 1026 82 10000 2.1 230 09:26 22.07.2019
4815 Clear 20 1026 88 10000 1.5 230 08:59 22.07.2019
4816 Clear 18 1025 93 10000 1.5 230 08:38 22.07.2019
4817 Clear 18 1025 93 10000 1.5 230 08:19 22.07.2019
4818 Fog 17 1025 93 10000 1 210 07:47 22.07.2019
4819 Fog 16 1025 100 10000 1.02 219.633 07:27 22.07.2019
4820 Clouds 15 1025 93 1700 1 180 05:30 22.07.2019
4821 Clouds 16 1025 100 10000 1 0 03:44 22.07.2019
4822 Clouds 18 1025 93 10000 1.5 250 01:28 22.07.2019
4823 Clouds 18 1025 93 10000 1 0 00:49 22.07.2019
4824 Clouds 18 1025 93 10000 2.1 160 00:21 22.07.2019
4825 Clouds 18 1025 93 10000 2.1 170 23:49 21.07.2019
4826 Clouds 19 1025 93 10000 2.1 160 22:59 21.07.2019
4827 Clouds 19 1025 93 10000 2.1 160 22:40 21.07.2019
4828 Clouds 20 1025 93 10000 2.6 160 22:21 21.07.2019
4829 Clouds 21 1024 88 10000 2.6 160 21:55 21.07.2019
4830 Clouds 21 1024 88 10000 2.6 160 21:36 21.07.2019
4831 Rain 22 1024 83 10000 1.5 90 21:18 21.07.2019
4832 Rain 22 1024 78 10000 2.5 302.946 20:41 21.07.2019
4833 Rain 23 1024 69 10000 1 180 20:23 21.07.2019
4834 Rain 24 1024 64 10000 1 0 19:53 21.07.2019
4835 Rain 24 1023 64 10000 1 0 19:29 21.07.2019
4836 Clear 24 1023 64 10000 1.5 230 18:56 21.07.2019
4837 Clear 24 1023 68 10000 2.6 280 18:37 21.07.2019
4838 Clear 24 1023 68 10000 2.6 280 18:19 21.07.2019
4839 Clouds 24 1023 73 10000 1.5 280 17:40 21.07.2019
4840 Rain 24 1023 60 10000 1.5 330 17:19 21.07.2019
4841 Rain 24 1023 88 10000 2.6 310 16:42 21.07.2019
4842 Rain 24 1023 77 10000 3.6 330 16:24 21.07.2019
4843 Rain 24 1023 68 10000 5.1 330 15:45 21.07.2019
4844 Rain 24 1023 64 10000 5.1 230 15:24 21.07.2019
4845 Rain 24 1023 64 10000 4.6 220 14:58 21.07.2019
4846 Rain 24 1023 64 10000 4.6 220 14:39 21.07.2019
4847 Rain 24 1024 73 10000 5.7 220 14:18 21.07.2019
4848 Rain 24 1024 78 10000 4.6 220 13:42 21.07.2019
4849 Clouds 24 1024 78 10000 4.1 230 13:24 21.07.2019
4850 Clouds 23 1024 78 10000 4.6 220 12:42 21.07.2019
4851 Clouds 22 1024 83 10000 4.6 210 12:24 21.07.2019
4852 Rain 21 1024 88 10000 3.1 200 11:46 21.07.2019
4853 Rain 20 1023 93 10000 2.6 190 11:28 21.07.2019
4854 Rain 19 1023 88 10000 3.6 190 10:47 21.07.2019
4855 Rain 18 1023 93 10000 4.6 190 10:26 21.07.2019
4856 Rain 18 1023 93 10000 4.6 190 10:26 21.07.2019
4857 Rain 18 1023 93 10000 5.1 170 09:56 21.07.2019
4858 Rain 18 1023 93 10000 4.1 180 09:36 21.07.2019
4859 Rain 18 1023 93 10000 4.1 180 09:36 21.07.2019
4860 Rain 17 1023 93 9000 4.1 200 08:52 21.07.2019
4861 Rain 17 1023 93 9000 4.1 200 08:34 21.07.2019
4862 Rain 17 1023 93 10000 4.1 210 07:59 21.07.2019
4863 Rain 18 1022 93 10000 2.1 240 07:32 21.07.2019
4864 Rain 18 1022 93 10000 3.6 260 06:38 21.07.2019
4865 Rain 19 1018 72 10000 2.6 150 04:21 21.07.2019
4866 Clouds 19 1019 68 10000 1.5 160 01:57 21.07.2019
4867 Rain 20 1019 64 10000 1.5 180 00:48 21.07.2019
4868 Rain 21 1019 64 10000 2.1 170 00:22 21.07.2019
4869 Rain 21 1019 64 10000 2.1 170 00:22 21.07.2019
4870 Rain 22 1018 56 10000 4.1 180 23:54 20.07.2019
4871 Rain 22 1018 60 10000 5.1 170 23:36 20.07.2019
4872 Rain 22 1018 60 10000 5.1 170 23:18 20.07.2019
4873 Rain 22 1018 60 10000 4.1 170 22:41 20.07.2019
4874 Rain 23 1018 56 10000 5.1 170 22:19 20.07.2019
4875 Rain 24 1017 56 10000 3.1 190 21:44 20.07.2019
4876 Clouds 25 1017 53 10000 3.1 210 21:24 20.07.2019
4877 Clouds 27 1017 50 10000 3.1 200 20:44 20.07.2019
4878 Clouds 28 1016 47 10000 3.1 260 20:23 20.07.2019
4879 Clouds 28 1016 42 10000 3.6 270 19:52 20.07.2019
4880 Clouds 29 1016 37 10000 3.6 270 19:33 20.07.2019
4881 Clouds 29 1016 37 10000 3.1 250 18:58 20.07.2019
4882 Clouds 30 1016 37 10000 3.1 250 18:40 20.07.2019
4883 Clouds 30 1016 37 10000 4.1 280 18:19 20.07.2019
4884 Clouds 31 1016 35 10000 2.6 270 17:47 20.07.2019
4885 Clouds 31 1016 37 10000 4.1 240 17:20 20.07.2019
4886 Clouds 31 1016 37 10000 3.6 240 16:42 20.07.2019
4887 Clouds 31 1016 37 10000 4.1 280 16:24 20.07.2019
4888 Clouds 30 1017 42 10000 4.1 290 15:56 20.07.2019
4889 Clear 30 1017 37 10000 4.6 290 15:37 20.07.2019
4890 Clear 30 1017 37 10000 4.6 290 15:18 20.07.2019
4891 Clear 30 1017 35 10000 4.1 270 14:43 20.07.2019
4892 Clear 30 1017 37 10000 5.1 260 14:20 20.07.2019
4893 Clear 29 1017 42 10000 3.6 240 13:38 20.07.2019
4894 Clear 29 1017 42 10000 3.6 240 13:19 20.07.2019
4895 Clear 29 1017 45 10000 2.6 230 12:52 20.07.2019
4896 Clear 28 1017 44 10000 2.6 210 12:21 20.07.2019
4897 Clear 27 1016 50 10000 2.1 0 11:55 20.07.2019
4898 Clear 27 1017 57 10000 1.5 240 11:23 20.07.2019
4899 Clear 26 1017 61 10000 1.5 240 10:55 20.07.2019
4900 Clear 24 1017 57 10000 1.5 150 10:36 20.07.2019
4901 Clear 24 1017 57 10000 1.5 150 10:18 20.07.2019
4902 Clouds 23 1017 60 10000 1.5 150 09:43 20.07.2019
4903 Clear 21 1017 68 10000 1 0 09:18 20.07.2019
4904 Clear 19 1017 73 10000 1.95 149.665 08:44 20.07.2019
4905 Clear 18 1017 82 10000 0.5 0 08:20 20.07.2019
4906 Fog 14 1016 93 10000 1 0 07:20 20.07.2019
4907 Fog 13 1016 93 10000 1 0 06:41 20.07.2019
4908 Clouds 14 1017 93 10000 1 150 04:31 20.07.2019
4909 Clouds 14 1017 93 10000 0.5 0 03:40 20.07.2019
4910 Clouds 16 1017 93 10000 1.5 160 01:21 20.07.2019
4911 Clouds 16 1017 93 10000 1.5 160 01:21 20.07.2019
4912 Clouds 17 1017 93 10000 1 180 00:47 20.07.2019
4913 Clouds 18 1017 93 10000 1 190 00:21 20.07.2019
4914 Clouds 18 1017 88 10000 1.5 160 23:45 19.07.2019
4915 Clouds 19 1017 88 10000 0.5 200 23:26 19.07.2019
4916 Clouds 19 1017 77 10000 0.82 322.5 22:50 19.07.2019
4917 Clouds 20 1017 82 10000 0.82 322.5 22:26 19.07.2019
4918 Clouds 21 1017 64 10000 1.5 30 21:52 19.07.2019
4919 Rain 23 1016 60 10000 2.6 30 21:34 19.07.2019
4920 Rain 24 1016 64 10000 2.1 40 20:59 19.07.2019
4921 Clear 24 1016 53 10000 2.1 40 20:40 19.07.2019
4922 Clear 25 1016 53 10000 2.1 40 20:22 19.07.2019
4923 Clear 25 1016 53 10000 1.5 360 19:35 19.07.2019
4924 Clear 26 1016 53 10000 3.1 360 18:47 19.07.2019
4925 Clear 26 1016 53 10000 4.1 360 18:25 19.07.2019
4926 Clear 26 1016 50 10000 4.6 330 17:58 19.07.2019
4927 Clear 26 1016 44 10000 2.6 290 17:40 19.07.2019
4928 Clear 26 1016 44 10000 2.6 290 17:21 19.07.2019
4929 Clear 26 1016 47 10000 3.1 300 16:47 19.07.2019
4930 Rain 27 1016 44 10000 2.6 290 16:24 19.07.2019
4931 Rain 27 1017 50 10000 3.1 290 15:47 19.07.2019
4932 Rain 27 1017 44 10000 2.1 0 15:29 19.07.2019
4933 Thunderstorm 26 1017 47 10000 3.1 230 14:55 19.07.2019
4934 Clear 26 1017 47 10000 3.1 310 14:37 19.07.2019
4935 Clear 26 1017 47 10000 3.1 310 14:19 19.07.2019
4936 Clear 26 1017 47 10000 3.6 290 13:43 19.07.2019
4937 Clear 26 1017 47 10000 3.6 290 13:22 19.07.2019
4938 Clouds 25 1017 44 10000 3.1 260 12:49 19.07.2019
4939 Clear 25 1017 53 10000 3.1 250 12:29 19.07.2019
4940 Clear 24 1017 49 10000 4.1 250 11:47 19.07.2019
4941 Clear 23 1017 53 10000 3.1 220 11:20 19.07.2019
4942 Clear 22 1017 56 10000 2.1 150 10:58 19.07.2019
4943 Clear 21 1017 56 10000 2.1 150 10:39 19.07.2019
4944 Rain 21 1017 60 10000 1.5 180 10:20 19.07.2019
4945 Clear 20 1017 68 10000 1.5 190 09:44 19.07.2019
4946 Clear 19 1017 63 10000 3.1 200 09:22 19.07.2019
4947 Clear 19 1017 63 10000 3.1 200 09:22 19.07.2019
4948 Clear 19 1017 63 10000 3.1 200 09:22 19.07.2019
4949 Clear 18 1017 63 10000 2.1 190 08:56 19.07.2019
4950 Clear 18 1017 63 10000 2.1 190 08:56 19.07.2019
4951 Clear 17 1017 72 10000 3.1 170 08:38 19.07.2019
4952 Rain 16 1017 82 10000 3.1 170 07:43 19.07.2019
4953 Rain 16 1017 82 10000 2.1 120 07:25 19.07.2019
4954 Rain 16 1016 82 10000 2.1 150 05:55 19.07.2019
4955 Rain 15 1016 87 10000 2.1 160 02:23 19.07.2019
4956 Rain 15 1016 87 10000 1.5 170 00:59 19.07.2019
4957 Clouds 16 1016 76 10000 1.5 180 00:31 19.07.2019
4958 Clouds 17 1016 82 10000 1.5 170 23:43 18.07.2019
4959 Clouds 18 1016 82 10000 1.5 180 23:23 18.07.2019
4960 Clouds 18 1015 87 10000 2.1 180 22:59 18.07.2019
4961 Clouds 18 1015 87 10000 2.1 180 22:39 18.07.2019
4962 Clouds 19 1015 72 10000 1 190 22:18 18.07.2019
4963 Clouds 21 1015 55 10000 1.5 280 21:43 18.07.2019
4964 Rain 22 1014 60 10000 2.1 250 21:24 18.07.2019
4965 Rain 22 1014 60 10000 2.1 250 21:24 18.07.2019
4966 Rain 23 1014 49 10000 2.1 270 20:49 18.07.2019
4967 Clear 24 1014 44 10000 2.1 270 20:29 18.07.2019
4968 Clear 25 1014 41 10000 2.6 280 19:53 18.07.2019
4969 Clear 25 1014 38 10000 4.6 290 19:32 18.07.2019
4970 Clear 25 1013 36 10000 4.6 280 18:58 18.07.2019
4971 Clear 25 1013 36 10000 4.6 280 18:38 18.07.2019
4972 Rain 25 1013 36 10000 3.6 280 18:19 18.07.2019
4973 Rain 26 1014 36 10000 4.6 250 17:42 18.07.2019
4974 Rain 26 1014 36 10000 4.6 250 17:42 18.07.2019
4975 Clear 27 1014 36 10000 4.6 250 17:24 18.07.2019
4976 Clear 26 1014 38 10000 5.7 270 16:55 18.07.2019
4977 Clear 26 1014 39 10000 5.1 260 16:29 18.07.2019
4978 Clear 26 1014 38 10000 4.6 260 15:58 18.07.2019
4979 Clear 26 1014 38 10000 4.6 260 15:39 18.07.2019
4980 Clear 26 1014 41 10000 3.6 250 15:21 18.07.2019
4981 Clear 26 1014 41 10000 3.6 290 14:43 18.07.2019
4982 Clear 26 1014 41 10000 3.6 290 14:25 18.07.2019
4983 Clear 25 1014 44 10000 3.6 240 13:48 18.07.2019
4984 Clear 25 1014 46 10000 1.5 0 13:23 18.07.2019
4985 Clear 25 1014 43 10000 1.5 0 12:50 18.07.2019
4986 Clear 24 1014 40 10000 1.5 240 12:21 18.07.2019
4987 Clear 24 1014 43 10000 2.1 210 11:58 18.07.2019
4988 Clear 23 1014 46 10000 2.1 220 11:39 18.07.2019
4989 Clear 23 1014 46 10000 2.1 220 11:20 18.07.2019
4990 Clear 22 1014 46 10000 2.1 240 10:41 18.07.2019
4991 Clear 20 1014 56 10000 2.6 220 09:50 18.07.2019
4992 Clear 18 1014 72 10000 2.1 220 09:26 18.07.2019
4993 Clear 17 1014 77 10000 2.1 220 08:52 18.07.2019
4994 Clear 16 1014 77 10000 2.1 220 08:25 18.07.2019
4995 Clear 15 1014 87 10000 1 160 07:57 18.07.2019
4996 Clouds 14 1014 82 10000 1.5 250 07:35 18.07.2019
4997 Fog 12 1013 93 10000 2.1 210 06:48 18.07.2019
4998 Fog 11 1013 93 10000 2.1 210 06:20 18.07.2019
4999 Clouds 13 1014 82 10000 3.1 200 03:34 18.07.2019
5000 Clouds 14 1014 87 10000 1 0 02:23 18.07.2019
5001 Clear 14 1014 87 10000 2.6 220 01:36 18.07.2019
5002 Clouds 16 1014 82 10000 2.1 210 23:59 17.07.2019
5003 Clouds 17 1014 77 10000 2.6 220 23:22 17.07.2019
5004 Clouds 17 1013 72 10000 1 190 22:59 17.07.2019
5005 Clouds 18 1013 72 10000 1 190 22:41 17.07.2019
5006 Clouds 18 1014 52 10000 2.04 304.096 22:22 17.07.2019
5007 Clouds 19 1014 60 10000 5.1 220 21:58 17.07.2019
5008 Clouds 21 1014 60 10000 5.1 220 21:38 17.07.2019
5009 Rain 22 1013 49 10000 3.1 350 21:19 17.07.2019
5010 Clouds 23 1013 49 10000 3.1 10 20:56 17.07.2019
5011 Clouds 23 1013 49 10000 3.1 10 20:38 17.07.2019
5012 Clear 24 1013 43 10000 3.6 330 20:18 17.07.2019
5013 Clouds 25 1014 46 10000 2.1 280 19:42 17.07.2019
5014 Clear 25 1013 38 10000 4.1 320 19:20 17.07.2019
5015 Clear 25 1013 41 10000 3.6 310 18:45 17.07.2019
5016 Clear 26 1013 41 10000 3.6 310 18:21 17.07.2019
5017 Clouds 26 1013 33 10000 3.1 280 17:59 17.07.2019
5018 Clear 26 1013 38 10000 3.6 280 17:41 17.07.2019
5019 Clear 26 1013 38 10000 3.6 280 17:22 17.07.2019
5020 Clear 26 1014 41 10000 6.2 290 16:41 17.07.2019
5021 Clear 26 1014 41 10000 6.2 290 16:22 17.07.2019
5022 Clouds 26 1014 36 10000 3.1 270 15:51 17.07.2019
5023 Clouds 25 1014 47 10000 4.1 290 15:31 17.07.2019
5024 Clouds 26 1014 50 10000 4.1 270 14:57 17.07.2019
5025 Clouds 25 1014 47 10000 3.1 280 14:39 17.07.2019
5026 Clear 25 1014 47 10000 4.1 260 14:20 17.07.2019
5027 Clear 25 1014 47 10000 4.1 260 13:51 17.07.2019
5028 Clear 25 1015 50 10000 3.1 300 13:31 17.07.2019
5029 Clear 25 1015 49 10000 2.6 320 13:00 17.07.2019
5030 Clear 24 1015 53 10000 1.5 0 12:38 17.07.2019
5031 Clear 24 1015 53 10000 1 0 12:19 17.07.2019
5032 Clouds 23 1015 53 10000 2.1 290 11:41 17.07.2019
5033 Clear 22 1015 60 10000 1.5 0 11:19 17.07.2019
5034 Clear 22 1015 60 10000 1.5 0 10:49 17.07.2019
5035 Clear 21 1015 59 10000 1.5 300 10:24 17.07.2019
5036 Clouds 19 1015 68 10000 1 0 09:46 17.07.2019
5037 Clear 18 1015 72 10000 1.5 250 09:28 17.07.2019
5038 Clear 17 1015 82 10000 2.1 220 08:58 17.07.2019
5039 Clear 15 1015 87 10000 1.5 250 08:39 17.07.2019
5040 Clear 15 1015 87 10000 1.5 250 08:21 17.07.2019
5041 Clear 12 1016 93 10000 2.6 220 07:41 17.07.2019
5042 Clouds 12 1016 93 10000 1 200 07:22 17.07.2019
5043 Clouds 12 1016 93 10000 1 200 07:22 17.07.2019
5044 Clouds 11 1016 93 10000 2.1 220 06:46 17.07.2019
5045 Clouds 10 1016 93 10000 2.1 220 06:28 17.07.2019
5046 Clouds 11 1016 93 10000 1.5 180 05:43 17.07.2019
5047 Clouds 11 1016 93 10000 1.5 180 05:23 17.07.2019
5048 Clouds 11 1016 87 10000 1 180 04:29 17.07.2019
5049 Clouds 12 1017 87 10000 1.5 190 02:47 17.07.2019
5050 Clouds 12 1017 87 10000 1.5 160 01:59 17.07.2019
5051 Clear 13 1017 87 10000 1 190 01:24 17.07.2019
5052 Clouds 13 1017 87 10000 1.5 190 00:47 17.07.2019
5053 Clear 14 1017 87 10000 1.5 170 00:24 17.07.2019
5054 Clear 14 1017 87 10000 1.5 170 23:55 16.07.2019
5055 Clear 15 1017 93 10000 1.5 170 23:29 16.07.2019
5056 Clear 16 1017 87 10000 1 0 22:58 16.07.2019
5057 Clear 17 1017 82 10000 1 0 22:40 16.07.2019
5058 Clear 18 1017 59 10000 0.5 0 22:20 16.07.2019
5059 Clear 21 1016 52 10000 2.6 340 21:45 16.07.2019
5060 Clear 21 1016 52 10000 2.6 340 21:21 16.07.2019
5061 Clear 22 1016 49 10000 2.6 310 20:58 16.07.2019
5062 Clear 23 1016 49 10000 3.1 300 20:39 16.07.2019
5063 Clear 23 1016 43 10000 3.6 290 20:20 16.07.2019
5064 Clouds 23 1016 43 10000 2.6 310 19:50 16.07.2019
5065 Clouds 23 1016 46 10000 3.6 280 19:27 16.07.2019
5066 Clear 23 1016 43 10000 3.6 280 18:56 16.07.2019
5067 Clear 24 1016 43 10000 3.6 280 18:37 16.07.2019
5068 Clouds 24 1017 40 10000 4.1 290 18:19 16.07.2019
5069 Clouds 24 1017 43 10000 4.1 270 17:40 16.07.2019
5070 Clouds 24 1017 49 10000 4.1 280 17:21 16.07.2019
5071 Clouds 24 1017 49 10000 4.1 270 16:44 16.07.2019
5072 Clouds 24 1017 49 10000 4.1 270 16:21 16.07.2019
5073 Clouds 24 1017 53 10000 4.6 270 15:42 16.07.2019
5074 Clouds 23 1017 53 10000 4.1 280 15:21 16.07.2019
5075 Clouds 23 1017 53 10000 4.1 280 14:59 16.07.2019
5076 Clouds 23 1017 56 10000 4.6 260 14:41 16.07.2019
5077 Clouds 23 1017 56 10000 4.6 260 14:23 16.07.2019
5078 Clouds 22 1018 60 10000 4.1 260 13:46 16.07.2019
5079 Clouds 22 1018 60 10000 4.1 260 13:27 16.07.2019
5080 Clouds 21 1018 63 10000 3.6 310 12:56 16.07.2019
5081 Clouds 21 1018 63 10000 3.6 300 12:38 16.07.2019
5082 Clouds 20 1018 63 10000 2.6 220 12:19 16.07.2019
5083 Clouds 19 1018 68 10000 1.5 0 11:44 16.07.2019
5084 Clouds 19 1018 68 10000 1.5 0 11:24 16.07.2019
5085 Clouds 19 1018 72 10000 1.5 0 10:57 16.07.2019
5086 Clouds 18 1018 72 10000 2.1 250 10:38 16.07.2019
5087 Clear 18 1018 77 10000 1 0 10:18 16.07.2019
5088 Clear 16 1018 77 10000 1 0 09:42 16.07.2019
5089 Clear 16 1018 77 10000 1 0 09:20 16.07.2019
5090 Clear 14 1018 87 10000 2.1 270 08:46 16.07.2019
5091 Clear 14 1018 87 10000 2.1 270 08:24 16.07.2019
5092 Clouds 13 1018 82 10000 1.5 240 07:51 16.07.2019
5093 Clear 12 1018 93 10000 1.5 220 07:32 16.07.2019
5094 Clear 12 1017 93 10000 3.1 260 06:58 16.07.2019
5095 Clear 12 1018 93 10000 2.81 282.041 06:35 16.07.2019
5096 Clear 11 1018 93 10000 2.6 230 05:51 16.07.2019
5097 Clear 12 1018 93 10000 2.6 220 05:26 16.07.2019
5098 Clear 11 1017 100 10000 2.6 230 04:32 16.07.2019
5099 Clear 12 1017 87 10000 1 230 03:42 16.07.2019
5100 Clear 13 1017 93 10000 2.1 250 02:44 16.07.2019
5101 Clear 13 1017 93 10000 2.1 250 02:22 16.07.2019
5102 Clear 13 1017 87 10000 2.1 230 01:26 16.07.2019
5103 Clear 15 1017 87 10000 2.1 230 00:24 16.07.2019
5104 Clear 15 1017 87 10000 2.1 230 23:58 15.07.2019
5105 Clear 16 1017 87 10000 1 0 23:38 15.07.2019
5106 Clear 16 1017 82 10000 2.1 230 23:18 15.07.2019
5107 Clear 17 1017 77 10000 1 220 22:43 15.07.2019
5108 Clear 17 1017 77 10000 1 220 22:20 15.07.2019
5109 Clear 17 1016 63 10000 1.5 330 21:57 15.07.2019
5110 Rain 19 1016 63 10000 1 0 21:39 15.07.2019
5111 Rain 19 1016 63 10000 1 0 21:19 15.07.2019
5112 Rain 20 1016 56 10000 3.6 360 20:44 15.07.2019
5113 Rain 21 1016 52 10000 4.6 10 20:24 15.07.2019
5114 Rain 21 1016 52 10000 4.6 10 19:58 15.07.2019
5115 Rain 21 1015 56 10000 4.6 360 19:38 15.07.2019
5116 Rain 22 1015 49 10000 4.6 20 19:18 15.07.2019
5117 Rain 22 1015 46 10000 2.1 40 18:45 15.07.2019
5118 Rain 23 1015 43 10000 3.1 80 18:21 15.07.2019
5119 Rain 23 1015 43 10000 3.1 80 17:57 15.07.2019
5120 Rain 22 1015 46 10000 3.1 50 17:38 15.07.2019
5121 Rain 23 1016 46 10000 4.6 40 17:20 15.07.2019
5122 Rain 23 1016 46 10000 4.6 40 16:57 15.07.2019
5123 Rain 23 1016 52 10000 3.1 30 16:36 15.07.2019
5124 Rain 22 1016 56 10000 4.6 60 16:18 15.07.2019
5125 Rain 22 1016 56 10000 4.6 20 15:40 15.07.2019
5126 Rain 22 1016 56 10000 4.6 20 15:22 15.07.2019
5127 Rain 22 1016 52 10000 4.1 80 14:59 15.07.2019
5128 Clouds 22 1015 59 10000 3.6 50 14:38 15.07.2019
5129 Clouds 21 1016 49 10000 3.1 40 14:19 15.07.2019
5130 Clouds 21 1016 63 10000 3.6 80 13:47 15.07.2019
5131 Clouds 21 1016 63 10000 3.6 80 13:19 15.07.2019
5132 Clouds 20 1016 68 10000 4.1 80 12:47 15.07.2019
5133 Clouds 20 1016 60 10000 3.1 70 12:27 15.07.2019
5134 Clouds 19 1016 67 10000 4.6 90 11:58 15.07.2019
5135 Clouds 19 1016 72 10000 4.1 100 11:40 15.07.2019
5136 Clouds 18 1017 77 10000 4.1 90 11:19 15.07.2019
5137 Clouds 17 1016 82 10000 3.6 70 10:42 15.07.2019
5138 Clouds 17 1016 82 10000 3.6 70 10:24 15.07.2019
5139 Clouds 16 1016 87 9000 3.1 100 09:43 15.07.2019
5140 Clouds 15 1016 87 8000 1.5 80 09:22 15.07.2019
5141 Mist 14 1015 87 6000 2.6 50 08:47 15.07.2019
5142 Mist 14 1015 87 6000 2.6 50 08:25 15.07.2019
5143 Fog 13 1015 93 8000 3.6 60 07:55 15.07.2019
5144 Fog 13 1015 93 6000 3.6 60 07:33 15.07.2019
5145 Fog 12 1015 93 6000 4.1 20 06:50 15.07.2019
5146 Fog 12 1015 93 7000 2.37 81.34 06:30 15.07.2019
5147 Clear 12 1015 100 10000 1.5 180 05:43 15.07.2019
5148 Clear 12 1015 100 10000 1.5 30 04:52 15.07.2019
5149 Clear 12 1015 93 10000 1 0 04:34 15.07.2019
5150 Clear 12 1015 100 6000 1 0 03:30 15.07.2019
5151 Clouds 12 1016 100 10000 1 10 02:26 15.07.2019
5152 Clouds 13 1016 100 10000 2.61 65.288 01:38 15.07.2019
5153 Clouds 13 1016 100 10000 2.61 65.288 01:20 15.07.2019
5154 Clouds 13 1016 87 10000 3.1 350 00:46 15.07.2019
5155 Rain 14 1016 100 10000 2.23 17.297 00:19 15.07.2019
5156 Rain 14 1016 93 10000 1 180 23:41 14.07.2019
5157 Rain 15 1016 93 10000 1 30 23:21 14.07.2019
5158 Rain 15 1016 93 10000 1 30 22:58 14.07.2019
5159 Rain 15 1016 82 10000 1.5 80 22:39 14.07.2019
5160 Rain 16 1015 72 10000 2.1 60 22:21 14.07.2019
5161 Clouds 16 1015 82 10000 2.6 40 21:54 14.07.2019
5162 Rain 16 1015 77 10000 2.1 70 21:36 14.07.2019
5163 Rain 17 1015 72 10000 3.1 80 21:18 14.07.2019
5164 Rain 18 1015 72 10000 3.1 80 20:39 14.07.2019
5165 Rain 18 1015 72 10000 3.1 80 20:21 14.07.2019
5166 Rain 18 1015 72 10000 3.1 80 20:21 14.07.2019
5167 Rain 19 1015 63 10000 2.6 70 19:59 14.07.2019
5168 Rain 19 1015 63 10000 4.1 70 19:39 14.07.2019
5169 Rain 19 1015 59 10000 3.6 60 19:21 14.07.2019
5170 Rain 19 1015 60 10000 3.1 90 18:43 14.07.2019
5171 Rain 20 1015 68 10000 3.6 90 18:25 14.07.2019
5172 Rain 20 1015 68 10000 3.6 90 17:58 14.07.2019
5173 Rain 20 1015 60 10000 2.6 0 17:39 14.07.2019
5174 Rain 20 1015 68 10000 3.1 70 17:18 14.07.2019
5175 Rain 20 1015 52 10000 3.6 60 16:44 14.07.2019
5176 Rain 20 1015 59 10000 2.1 320 16:21 14.07.2019
5177 Rain 20 1016 59 10000 3.1 90 15:43 14.07.2019
5178 Rain 20 1016 59 10000 3.1 90 15:24 14.07.2019
5179 Rain 20 1016 52 10000 1 20 14:47 14.07.2019
5180 Rain 19 1016 68 10000 3.1 40 14:21 14.07.2019
5181 Clouds 20 1017 68 10000 3.1 40 13:47 14.07.2019
5182 Clouds 19 1017 68 10000 3.1 40 13:25 14.07.2019
5183 Rain 19 1017 67 10000 3.6 40 12:58 14.07.2019
5184 Rain 19 1017 67 10000 2.6 350 12:40 14.07.2019
5185 Rain 18 1016 67 10000 4.1 330 12:19 14.07.2019
5186 Rain 18 1017 63 10000 3.1 20 11:51 14.07.2019
5187 Rain 17 1016 77 10000 2.6 320 11:22 14.07.2019
5188 Rain 17 1017 67 10000 3.6 20 10:49 14.07.2019
5189 Clouds 17 1017 77 10000 1.5 290 10:22 14.07.2019
5190 Clouds 16 1017 82 10000 1.5 340 09:51 14.07.2019
5191 Clouds 15 1017 82 10000 2.1 340 09:30 14.07.2019
5192 Rain 15 1018 87 10000 2.1 300 08:57 14.07.2019
5193 Rain 14 1017 87 10000 1.5 280 08:39 14.07.2019
5194 Rain 14 1017 87 10000 1.5 280 07:47 14.07.2019
5195 Rain 13 1017 87 10000 1.68 310.657 07:22 14.07.2019
5196 Rain 13 1017 93 10000 2.1 240 06:23 14.07.2019
5197 Rain 13 1017 93 10000 3.1 230 05:43 14.07.2019
5198 Clouds 13 1018 93 10000 2.6 220 03:45 14.07.2019
5199 Rain 13 1018 93 10000 3.1 230 03:27 14.07.2019
5200 Rain 14 1018 100 10000 3.1 220 02:39 14.07.2019
5201 Rain 14 1018 100 10000 3.1 220 02:20 14.07.2019
5202 Rain 14 1018 93 10000 2.1 240 01:31 14.07.2019
5203 Rain 14 1018 82 10000 1.5 270 00:55 14.07.2019
5204 Rain 14 1018 93 10000 1 0 00:37 14.07.2019
5205 Rain 14 1018 100 10000 1 0 00:19 14.07.2019
5206 Rain 14 1018 100 10000 1 0 23:43 13.07.2019
5207 Rain 14 1018 100 10000 1 180 23:23 13.07.2019
5208 Rain 14 1018 93 10000 1 130 22:43 13.07.2019
5209 Rain 15 1018 93 10000 1.5 190 22:22 13.07.2019
5210 Rain 15 1018 77 10000 1.5 270 21:54 13.07.2019
5211 Rain 15 1018 87 10000 1 0 21:23 13.07.2019
5212 Rain 15 1018 87 10000 1 0 21:23 13.07.2019
5213 Rain 15 1018 87 10000 1 0 20:59 13.07.2019
5214 Rain 15 1017 82 10000 3.1 250 20:40 13.07.2019
5215 Rain 15 1017 77 10000 2.6 270 20:21 13.07.2019
5216 Rain 16 1018 77 10000 2.1 230 19:43 13.07.2019
5217 Thunderstorm 16 1017 77 10000 2.6 250 19:23 13.07.2019
5218 Rain 17 1017 82 10000 1 0 18:41 13.07.2019
5219 Rain 17 1017 87 4000 3.1 350 18:20 13.07.2019
5220 Rain 17 1017 72 10000 5.7 230 17:38 13.07.2019
5221 Rain 16 1017 82 3500 5.7 340 17:19 13.07.2019
5222 Rain 18 1017 59 10000 5.1 290 16:46 13.07.2019
5223 Rain 17 1018 77 10000 3.1 270 16:26 13.07.2019
5224 Rain 17 1018 77 10000 3.1 270 15:59 13.07.2019
5225 Rain 17 1018 87 10000 3.1 290 15:40 13.07.2019
5226 Rain 16 1017 93 9000 5.7 280 15:20 13.07.2019
5227 Rain 16 1017 77 10000 4.1 280 14:41 13.07.2019
5228 Rain 16 1017 77 10000 4.1 280 14:21 13.07.2019
5229 Rain 17 1018 72 10000 6.2 290 13:45 13.07.2019
5230 Rain 16 1017 72 10000 6.2 270 13:24 13.07.2019
5231 Rain 16 1017 72 10000 5.7 280 12:42 13.07.2019
5232 Rain 16 1017 77 4000 5.7 280 12:23 13.07.2019
5233 Rain 16 1017 72 10000 5.7 270 11:59 13.07.2019
5234 Rain 16 1017 77 10000 4.6 280 11:39 13.07.2019
5235 Rain 15 1017 77 10000 4.6 280 11:19 13.07.2019
5236 Rain 15 1017 82 10000 5.7 280 10:42 13.07.2019
5237 Rain 15 1017 82 10000 5.7 280 10:23 13.07.2019
5238 Rain 15 1017 82 2600 5.1 260 09:52 13.07.2019
5239 Rain 15 1017 87 10000 4.6 260 09:30 13.07.2019
5240 Rain 14 1016 87 10000 5.1 250 08:57 13.07.2019
5241 Rain 14 1016 93 10000 4.6 250 08:29 13.07.2019
5242 Rain 14 1016 93 10000 5.1 250 07:56 13.07.2019
5243 Rain 13 1016 93 10000 4.6 260 07:29 13.07.2019
5244 Rain 13 1015 87 10000 4.6 230 06:37 13.07.2019
5245 Rain 13 1015 93 10000 4.6 230 05:57 13.07.2019
5246 Rain 13 1015 93 10000 5.1 250 04:42 13.07.2019
5247 Rain 13 1015 93 10000 4.6 240 04:22 13.07.2019
5248 Rain 13 1015 93 10000 4.6 240 03:55 13.07.2019
5249 Rain 13 1015 93 10000 5.7 230 03:37 13.07.2019
5250 Rain 14 1014 93 10000 4.6 220 01:55 13.07.2019
5251 Rain 14 1015 93 10000 4.6 230 01:37 13.07.2019
5252 Rain 14 1015 87 10000 4.1 270 01:18 13.07.2019
5253 Rain 14 1014 93 10000 4.1 240 00:51 13.07.2019
5254 Rain 14 1014 93 10000 3.6 230 00:19 13.07.2019
5255 Rain 15 1014 82 10000 3.1 220 23:44 12.07.2019
5256 Rain 15 1014 82 10000 3.1 220 23:25 12.07.2019
5257 Thunderstorm 16 1013 82 10000 3.1 230 22:46 12.07.2019
5258 Thunderstorm 16 1013 77 10000 3.1 210 22:24 12.07.2019
5259 Rain 17 1013 68 10000 4.6 230 21:43 12.07.2019
5260 Clouds 18 1013 77 10000 2.1 260 21:22 12.07.2019
5261 Clouds 18 1013 77 10000 2.1 260 20:57 12.07.2019
5262 Clouds 18 1013 72 10000 1.5 280 20:38 12.07.2019
5263 Clear 19 1012 72 10000 2.6 220 20:20 12.07.2019
5264 Clear 19 1013 63 10000 3.6 220 19:42 12.07.2019
5265 Clouds 19 1013 63 10000 1.5 210 19:23 12.07.2019
5266 Rain 19 1014 72 10000 4.6 260 18:45 12.07.2019
5267 Rain 19 1014 63 10000 6.2 250 18:21 12.07.2019
5268 Rain 19 1014 63 10000 6.2 250 17:53 12.07.2019
5269 Rain 19 1014 63 10000 6.2 240 17:29 12.07.2019
5270 Rain 19 1015 68 10000 6.7 220 16:51 12.07.2019
5271 Rain 19 1015 68 10000 7.2 220 16:23 12.07.2019
5272 Rain 19 1015 72 10000 7.7 220 15:56 12.07.2019
5273 Rain 18 1016 82 10000 5.7 210 15:36 12.07.2019
5274 Rain 18 1015 82 10000 6.2 210 15:18 12.07.2019
5275 Rain 17 1016 87 10000 4.1 260 14:43 12.07.2019
5276 Rain 17 1016 87 8000 4.1 260 14:20 12.07.2019
5277 Rain 18 1016 87 9000 4.1 250 13:43 12.07.2019
5278 Rain 18 1016 87 9000 4.1 250 13:23 12.07.2019
5279 Rain 19 1015 72 10000 4.6 240 12:42 12.07.2019
5280 Rain 19 1014 68 10000 6.7 270 12:23 12.07.2019
5281 Clear 19 1015 72 10000 5.7 230 11:47 12.07.2019
5282 Clear 19 1015 72 10000 5.7 230 11:24 12.07.2019
5283 Clear 19 1015 77 10000 5.7 220 10:58 12.07.2019
5284 Rain 18 1015 77 10000 4.1 220 10:40 12.07.2019
5285 Rain 18 1015 77 10000 2.6 210 10:22 12.07.2019
5286 Rain 17 1015 77 10000 2.6 210 09:51 12.07.2019
5287 Rain 16 1015 82 10000 1.5 190 09:25 12.07.2019
5288 Mist 15 1015 87 10000 1.5 160 08:47 12.07.2019
5289 Mist 15 1014 100 4000 1 220 08:24 12.07.2019
5290 Mist 14 1014 93 3000 1 210 07:51 12.07.2019
5291 Fog 14 1015 93 10000 1.5 150 07:29 12.07.2019
5292 Fog 13 1015 93 10000 2.08 222.588 06:32 12.07.2019
5293 Fog 13 1015 87 10000 2.1 150 05:52 12.07.2019
5294 Clouds 13 1015 93 10000 2.1 190 04:52 12.07.2019
5295 Rain 14 1016 93 10000 3.1 200 01:54 12.07.2019
5296 Clouds 14 1016 93 9000 1.5 230 01:34 12.07.2019
5297 Clouds 14 1016 93 10000 2.1 250 00:37 12.07.2019
5298 Rain 14 1017 93 10000 1 0 00:19 12.07.2019
5299 Drizzle 14 1016 93 10000 1.5 210 23:42 11.07.2019
5300 Rain 14 1016 93 10000 1.5 220 23:22 11.07.2019
5301 Rain 14 1016 93 10000 1.5 190 22:47 11.07.2019
5302 Rain 14 1016 93 10000 1.5 190 22:24 11.07.2019
5303 Rain 14 1016 87 10000 1.5 270 21:55 11.07.2019
5304 Rain 14 1016 87 10000 3.1 260 21:36 11.07.2019
5305 Rain 14 1016 93 8000 2.6 270 21:18 11.07.2019
5306 Rain 14 1016 93 10000 2.6 240 20:41 11.07.2019
5307 Rain 14 1016 93 10000 2.1 230 20:22 11.07.2019
5308 Rain 14 1016 93 10000 2.1 230 20:22 11.07.2019
5309 Rain 14 1016 93 10000 2.1 230 19:56 11.07.2019
5310 Rain 15 1016 87 10000 2.1 210 19:37 11.07.2019
5311 Rain 15 1016 87 10000 2.1 210 19:19 11.07.2019
5312 Rain 15 1016 93 10000 4.1 220 18:41 11.07.2019
5313 Rain 15 1016 93 10000 4.1 220 18:23 11.07.2019
5314 Rain 15 1016 87 10000 3.6 190 17:49 11.07.2019
5315 Rain 15 1016 87 7000 2.6 270 17:30 11.07.2019
5316 Rain 15 1016 87 10000 2.6 270 16:55 11.07.2019
5317 Rain 15 1016 87 10000 3.6 300 16:37 11.07.2019
5318 Rain 15 1016 87 10000 3.6 300 16:18 11.07.2019
5319 Rain 17 1016 59 10000 3.1 310 15:40 11.07.2019
5320 Rain 18 1016 59 10000 3.1 310 15:20 11.07.2019
5321 Rain 19 1016 82 10000 2.6 290 14:44 11.07.2019
5322 Clear 21 1016 45 10000 3.1 280 14:25 11.07.2019
5323 Clear 21 1016 45 10000 3.1 280 13:56 11.07.2019
5324 Clear 21 1016 49 10000 3.1 260 13:37 11.07.2019
5325 Clear 21 1016 49 10000 2.6 260 13:18 11.07.2019
5326 Clear 21 1016 42 10000 2.6 290 12:38 11.07.2019
5327 Clear 21 1016 42 10000 2.1 230 12:19 11.07.2019
5328 Clear 20 1017 45 10000 1.5 0 11:45 11.07.2019
5329 Clear 20 1017 45 10000 1.5 0 11:24 11.07.2019
5330 Clear 19 1016 48 10000 1.5 190 10:51 11.07.2019
5331 Clear 18 1016 59 10000 1.5 210 10:20 11.07.2019
5332 Clear 17 1016 67 10000 2.1 210 09:52 11.07.2019
5333 Clear 16 1016 67 10000 2.1 210 09:32 11.07.2019
5334 Clear 15 1017 72 10000 2.1 200 08:59 11.07.2019
5335 Clear 15 1016 72 10000 1 0 08:39 11.07.2019
5336 Clear 14 1016 72 10000 1 0 08:19 11.07.2019
5337 Clear 13 1017 81 10000 1 210 07:43 11.07.2019
5338 Clouds 12 1016 87 10000 0.5 0 06:55 11.07.2019
5339 Rain 12 1017 81 10000 1.5 220 06:18 11.07.2019
5340 Clouds 11 1017 87 10000 1 0 05:32 11.07.2019
5341 Clouds 11 1017 81 10000 1.5 190 04:56 11.07.2019
5342 Clouds 10 1017 81 10000 1.5 210 03:57 11.07.2019
5343 Clouds 10 1018 87 10000 1.5 180 02:25 11.07.2019
5344 Clouds 12 1018 87 10000 2.1 160 00:42 11.07.2019
5345 Clouds 13 1018 71 10000 2.1 190 23:51 10.07.2019
5346 Clear 13 1019 81 10000 2.1 180 23:28 10.07.2019
5347 Clear 13 1018 87 10000 1.5 160 22:58 10.07.2019
5348 Clear 15 1018 67 10000 1 270 22:26 10.07.2019
5349 Clear 16 1018 67 10000 1 270 21:57 10.07.2019
5350 Clear 18 1018 42 10000 1.5 310 21:39 10.07.2019
5351 Clouds 19 1018 42 10000 1.5 260 21:21 10.07.2019
5352 Clouds 20 1018 34 10000 2.6 280 20:48 10.07.2019
5353 Clouds 20 1018 34 10000 2.6 280 20:26 10.07.2019
5354 Clear 20 1018 37 10000 3.1 280 19:59 10.07.2019
5355 Clear 21 1018 40 10000 2.6 330 19:40 10.07.2019
5356 Clear 21 1018 40 10000 2.6 330 19:21 10.07.2019
5357 Clouds 21 1018 37 10000 2.6 360 18:46 10.07.2019
5358 Clear 21 1018 42 10000 2.1 30 18:24 10.07.2019
5359 Clear 21 1018 34 10000 2.1 330 17:50 10.07.2019
5360 Clear 21 1018 34 10000 2.1 330 17:30 10.07.2019
5361 Clear 21 1018 34 10000 1.5 0 16:58 10.07.2019
5362 Clear 21 1019 42 10000 3.1 260 16:22 10.07.2019
5363 Clear 21 1019 37 10000 2.6 0 15:54 10.07.2019
5364 Clear 20 1019 37 10000 2.1 0 15:36 10.07.2019
5365 Clear 20 1019 36 10000 2.6 330 15:18 10.07.2019
5366 Clear 20 1020 39 10000 1.5 0 14:39 10.07.2019
5367 Clear 20 1020 39 10000 1.5 0 14:19 10.07.2019
5368 Clear 19 1019 42 10000 2.1 0 13:41 10.07.2019
5369 Clear 19 1020 45 10000 1.5 0 13:19 10.07.2019
5370 Clouds 19 1020 45 10000 1.5 0 12:42 10.07.2019
5371 Clouds 18 1020 48 10000 2.1 360 12:22 10.07.2019
5372 Clouds 18 1020 48 10000 2.1 360 11:56 10.07.2019
5373 Clouds 18 1020 48 10000 2.6 40 11:38 10.07.2019
5374 Clouds 17 1020 54 10000 3.1 20 11:20 10.07.2019
5375 Clear 16 1020 54 10000 2.6 30 10:40 10.07.2019
5376 Clear 16 1020 54 10000 2.6 30 10:19 10.07.2019
5377 Clear 15 1020 62 10000 3.1 30 09:42 10.07.2019
5378 Clouds 13 1020 62 10000 3.6 20 09:20 10.07.2019
5379 Clouds 13 1020 62 10000 3.6 20 08:49 10.07.2019
5380 Clear 12 1020 62 10000 3.1 30 08:28 10.07.2019
5381 Clouds 11 1020 71 10000 1.5 350 07:53 10.07.2019
5382 Clear 9 1020 76 10000 2.1 330 07:28 10.07.2019
5383 Fog 8 1019 76 10000 1 300 06:42 10.07.2019
5384 Clear 8 1019 81 10000 1 220 05:44 10.07.2019
5385 Clear 8 1019 76 10000 1 240 04:35 10.07.2019
5386 Clear 10 1019 62 10000 1 320 03:20 10.07.2019
5387 Clear 12 1019 66 10000 1.5 360 00:45 10.07.2019
5388 Clear 13 1019 62 10000 2.1 340 23:59 09.07.2019
5389 Clear 13 1019 66 10000 2.6 330 23:39 09.07.2019
5390 Clear 13 1019 81 10000 0.5 0 23:21 09.07.2019
5391 Clear 14 1018 81 10000 2.65 350.534 22:40 09.07.2019
5392 Clear 15 1018 54 10000 2.1 330 22:22 09.07.2019
5393 Clouds 15 1018 58 10000 2.6 330 21:56 09.07.2019
5394 Clear 17 1018 55 10000 2.6 340 21:37 09.07.2019
5395 Clouds 17 1018 51 10000 3.6 360 21:19 09.07.2019
5396 Clouds 18 1017 51 10000 4.6 340 20:43 09.07.2019
5397 Clouds 18 1017 51 10000 4.6 340 20:24 09.07.2019
5398 Clouds 19 1017 48 10000 4.6 350 19:40 09.07.2019
5399 Clouds 19 1017 48 10000 4.6 350 19:21 09.07.2019
5400 Clouds 19 1017 48 10000 3.1 340 18:45 09.07.2019
5401 Clouds 19 1017 48 10000 3.1 340 18:45 09.07.2019
5402 Clouds 19 1017 48 10000 4.6 330 18:23 09.07.2019
5403 Clouds 20 1017 48 10000 4.6 330 17:56 09.07.2019
5404 Clouds 20 1017 48 10000 4.1 310 17:37 09.07.2019
5405 Clouds 20 1017 48 10000 4.1 310 17:37 09.07.2019
5406 Clouds 20 1017 48 10000 4.1 310 17:19 09.07.2019
5407 Clouds 20 1018 45 10000 3.1 310 16:47 09.07.2019
5408 Clouds 20 1018 52 10000 4.6 320 16:24 09.07.2019
5409 Clouds 20 1018 52 10000 3.6 330 15:50 09.07.2019
5410 Clouds 19 1018 52 10000 2.6 310 15:31 09.07.2019
5411 Clouds 19 1018 52 10000 2.1 20 14:57 09.07.2019
5412 Clouds 19 1018 52 10000 2.6 0 14:39 09.07.2019
5413 Clouds 19 1018 55 10000 2.6 350 14:18 09.07.2019
5414 Clouds 19 1018 55 10000 3.6 330 13:43 09.07.2019
5415 Clouds 18 1018 55 10000 2.6 0 13:24 09.07.2019
5416 Clouds 18 1018 55 10000 2.1 360 12:41 09.07.2019
5417 Clouds 18 1018 55 10000 2.1 360 12:22 09.07.2019
5418 Clouds 18 1018 55 10000 2.1 360 12:22 09.07.2019
5419 Clouds 18 1018 55 10000 2.1 350 11:58 09.07.2019
5420 Clouds 18 1018 58 10000 1.5 0 11:39 09.07.2019
5421 Clouds 17 1019 58 10000 1.5 0 11:21 09.07.2019
5422 Clouds 17 1019 58 10000 1.5 0 10:54 09.07.2019
5423 Clouds 16 1019 58 10000 1.5 0 10:33 09.07.2019
5424 Clouds 15 1018 62 10000 2.1 30 09:42 09.07.2019
5425 Clouds 14 1018 66 10000 2.6 10 09:22 09.07.2019
5426 Clouds 14 1018 66 10000 2.1 30 08:57 09.07.2019
5427 Clouds 13 1018 71 10000 1.5 350 08:39 09.07.2019
5428 Clear 12 1019 87 10000 1 0 04:18 05.07.2019
5429 Clear 12 1019 87 10000 1 0 03:38 05.07.2019
5430 Clear 12 1019 87 10000 1 0 03:19 05.07.2019
5431 Clouds 12 1020 82 10000 2.1 190 02:49 05.07.2019
5432 Clear 13 1019 87 10000 1 190 01:52 05.07.2019
5433 Clear 13 1019 81 10000 1 140 01:25 05.07.2019
5434 Clouds 14 1020 87 10000 1.5 190 00:48 05.07.2019
5435 Clear 15 1019 76 10000 2.1 240 00:25 05.07.2019
5436 Clear 17 1019 59 10000 2.1 280 23:23 04.07.2019
5437 Clear 17 1019 59 10000 2.1 280 23:23 04.07.2019
5438 Clear 17 1019 59 10000 2.1 280 23:23 04.07.2019
5439 Clear 17 1019 59 10000 2.1 280 22:59 04.07.2019
5440 Clear 18 1019 43 10000 1.5 290 22:40 04.07.2019
5441 Clear 19 1019 46 10000 2.6 270 22:19 04.07.2019
5442 Clear 22 1019 40 10000 2.6 270 21:44 04.07.2019
5443 Clear 23 1019 31 10000 1 320 21:25 04.07.2019
5444 Clear 23 1019 31 10000 1 320 20:58 04.07.2019
5445 Clear 24 1020 40 10000 2.6 330 20:37 04.07.2019
5446 Clear 24 1020 33 10000 3.1 330 20:18 04.07.2019
5447 Clear 25 1019 33 10000 2.1 320 19:41 04.07.2019
5448 Clear 25 1020 33 10000 1.5 0 19:21 04.07.2019
5449 Clear 25 1020 31 10000 2.6 310 18:47 04.07.2019
5450 Clear 26 1020 31 10000 2.6 310 18:28 04.07.2019
5451 Clear 26 1020 31 10000 3.1 320 17:58 04.07.2019
5452 Clear 26 1020 33 10000 3.1 330 17:40 04.07.2019
5453 Clear 25 1021 36 10000 4.1 330 17:18 04.07.2019
5454 Clear 25 1021 36 10000 2.1 330 15:45 04.07.2019
5455 Clear 25 1021 36 10000 2.1 330 15:25 04.07.2019
5456 Clear 25 1022 36 10000 2.6 0 14:59 04.07.2019
5457 Clear 25 1022 40 10000 2.1 0 14:39 04.07.2019
5458 Clear 24 1022 38 10000 3.1 320 14:20 04.07.2019
5459 Clear 25 1022 38 10000 3.1 320 13:57 04.07.2019
5460 Clear 24 1022 38 10000 3.1 0 13:38 04.07.2019
5461 Clear 24 1022 38 10000 3.1 0 13:19 04.07.2019
5462 Clear 23 1023 43 10000 3.6 10 12:39 04.07.2019
5463 Clear 23 1023 43 10000 3.6 10 12:39 04.07.2019
5464 Clear 22 1023 46 10000 2.6 40 12:20 04.07.2019
5465 Clouds 22 1023 52 10000 3.6 20 11:55 04.07.2019
5466 Clear 22 1023 56 10000 2.6 320 11:37 04.07.2019
5467 Clear 21 1023 56 10000 2.6 320 11:18 04.07.2019
5468 Clear 20 1023 59 10000 2.1 320 10:39 04.07.2019
5469 Clear 19 1022 59 10000 2.1 80 10:18 04.07.2019
5470 Clear 18 1023 63 10000 1 0 09:39 04.07.2019
5471 Clear 17 1022 67 10000 1 0 09:20 04.07.2019
5472 Clouds 16 1022 62 10000 2.6 360 08:54 04.07.2019
5473 Clear 15 1022 67 10000 1.5 330 08:19 04.07.2019
5474 Clear 13 1022 87 10000 1.5 230 07:43 04.07.2019
5475 Clear 13 1022 87 10000 1.5 230 07:21 04.07.2019
5476 Clear 11 1021 81 10000 0.5 0 06:38 04.07.2019
5477 Clouds 11 1022 76 10000 2.16 3.268 05:50 04.07.2019
5478 Clear 11 1021 76 10000 1.5 350 05:31 04.07.2019
5479 Clear 14 1021 62 10000 0.5 0 02:41 04.07.2019
5480 Clear 14 1021 82 10000 1.5 350 01:41 04.07.2019
5481 Clear 15 1021 87 10000 1.5 340 01:19 04.07.2019
5482 Clear 16 1021 82 10000 1.5 360 23:56 03.07.2019
5483 Clear 17 1021 82 10000 1 0 23:36 03.07.2019
5484 Clear 17 1021 82 10000 0.5 0 23:18 03.07.2019
5485 Clear 18 1020 77 10000 1 70 22:40 03.07.2019
5486 Clear 19 1020 63 10000 0.5 300 22:21 03.07.2019
5487 Clear 18 1020 63 10000 0.5 300 21:58 03.07.2019
5488 Clear 21 1020 60 10000 1.5 270 21:39 03.07.2019
5489 Clear 22 1020 49 10000 1.5 270 21:20 03.07.2019
5490 Clear 23 1020 53 10000 1.5 280 20:43 03.07.2019
5491 Clear 23 1020 49 10000 2.1 50 20:23 03.07.2019
5492 Clouds 23 1021 49 10000 2.1 40 19:50 03.07.2019
5493 Clouds 23 1021 49 10000 2.1 40 19:50 03.07.2019
5494 Clear 24 1021 49 10000 2.1 0 19:32 03.07.2019
5495 Clouds 24 1021 43 10000 2.1 50 18:48 03.07.2019
5496 Clear 24 1021 43 10000 2.6 350 18:29 03.07.2019
5497 Clear 24 1021 46 10000 3.1 350 17:57 03.07.2019
5498 Clear 24 1021 49 10000 3.1 360 17:37 03.07.2019
5499 Clear 24 1021 46 10000 2.1 360 17:18 03.07.2019
5500 Clear 24 1021 46 10000 3.1 20 16:43 03.07.2019
5501 Clear 24 1021 46 10000 2.6 0 16:22 03.07.2019
5502 Clear 24 1021 46 10000 2.6 0 15:49 03.07.2019
5503 Clear 24 1022 43 10000 2.1 350 15:31 03.07.2019
5504 Clear 24 1021 43 10000 3.1 0 14:57 03.07.2019
5505 Clear 23 1021 43 10000 4.1 360 14:38 03.07.2019
5506 Clear 23 1021 43 10000 4.1 360 14:18 03.07.2019
5507 Clear 23 1022 49 10000 3.6 40 13:39 03.07.2019
5508 Clear 23 1022 52 10000 3.6 20 13:18 03.07.2019
5509 Clear 22 1022 52 10000 3.6 20 12:43 03.07.2019
5510 Clear 22 1021 56 10000 3.1 40 12:18 03.07.2019
5511 Clear 22 1022 52 10000 2.1 20 11:42 03.07.2019
5512 Clear 21 1022 59 10000 2.6 30 11:21 03.07.2019
5513 Clear 20 1022 63 10000 2.1 360 10:43 03.07.2019
5514 Clear 20 1022 63 10000 2.1 360 10:24 03.07.2019
5515 Clear 19 1021 63 10000 1.5 40 09:56 03.07.2019
5516 Clear 18 1021 63 10000 3.1 40 09:38 03.07.2019
5517 Clear 17 1021 67 10000 2.1 10 09:19 03.07.2019
5518 Clouds 17 1021 63 10000 3.6 10 08:46 03.07.2019
5519 Clear 16 1021 63 10000 2.6 10 08:25 03.07.2019
5520 Clear 15 1021 76 10000 2.1 360 07:39 03.07.2019
5521 Clear 14 1021 82 10000 1 0 07:18 03.07.2019
5522 Clear 13 1021 87 10000 1 0 06:20 03.07.2019
5523 Clear 14 1020 81 10000 0.5 0 05:30 03.07.2019
5524 Clear 14 1020 76 10000 1 0 04:34 03.07.2019
5525 Clear 15 1020 71 10000 2.1 340 03:23 03.07.2019
5526 Clear 15 1020 82 10000 0.5 0 01:46 03.07.2019
5527 Clear 16 1020 82 10000 0.5 0 01:21 03.07.2019
5528 Clear 16 1020 82 10000 0.5 0 01:21 03.07.2019
5529 Clear 17 1020 77 10000 1 0 00:42 03.07.2019
5530 Clear 18 1020 59 10000 1.5 330 23:59 02.07.2019
5531 Clear 19 1020 59 10000 1.5 330 23:37 02.07.2019
5532 Clear 19 1020 59 10000 1.5 340 23:19 02.07.2019
5533 Clear 19 1020 59 10000 1.5 340 22:56 02.07.2019
5534 Clear 19 1019 52 10000 1.5 340 22:38 02.07.2019
5535 Clear 20 1019 49 10000 2.1 320 22:19 02.07.2019
5536 Clear 20 1019 40 10000 2.6 320 21:43 02.07.2019
5537 Clear 23 1019 40 10000 2.1 310 21:23 02.07.2019
5538 Clear 23 1019 43 10000 3.1 350 20:58 02.07.2019
5539 Clear 23 1019 43 10000 3.1 350 20:39 02.07.2019
5540 Clear 24 1019 46 10000 2.6 340 20:21 02.07.2019
5541 Clear 24 1019 49 10000 3.6 10 19:43 02.07.2019
5542 Clouds 25 1019 53 10000 2.6 320 19:23 02.07.2019
5543 Clouds 25 1020 53 10000 2.6 320 18:50 02.07.2019
5544 Clouds 25 1019 53 10000 3.1 320 18:19 02.07.2019
5545 Clouds 25 1020 56 10000 4.1 330 17:45 02.07.2019
5546 Clouds 25 1020 56 10000 4.1 330 17:45 02.07.2019
5547 Clear 25 1019 41 10000 2.6 340 17:24 02.07.2019
5548 Clouds 25 1020 53 10000 3.6 330 16:57 02.07.2019
5549 Clouds 25 1020 56 10000 3.6 340 16:39 02.07.2019
5550 Clouds 25 1020 53 10000 2.1 300 16:21 02.07.2019
5551 Clouds 25 1020 53 10000 2.1 320 15:40 02.07.2019
5552 Clouds 24 1021 56 10000 2.6 330 15:21 02.07.2019
5553 Clouds 24 1021 64 10000 3.6 20 14:46 02.07.2019
5554 Clouds 24 1021 64 10000 2.6 330 14:27 02.07.2019
5555 Clouds 24 1021 64 10000 2.6 270 13:44 02.07.2019
5556 Clouds 23 1021 68 10000 1.5 270 13:20 02.07.2019
5557 Clouds 23 1021 68 10000 2.6 310 12:45 02.07.2019
5558 Clouds 23 1022 73 10000 1.5 260 12:24 02.07.2019
5559 Clouds 22 1021 64 10000 2.1 260 11:55 02.07.2019
5560 Clouds 22 1020 77 10000 2.6 290 11:37 02.07.2019
5561 Clouds 21 1020 77 10000 1.5 360 11:18 02.07.2019
5562 Clouds 20 1022 77 10000 1 0 10:42 02.07.2019
5563 Clouds 20 1021 77 10000 1.5 350 10:23 02.07.2019
5564 Clouds 19 1021 82 10000 1.5 340 09:44 02.07.2019
5565 Clouds 19 1020 93 10000 2.1 270 09:21 02.07.2019
5566 Clouds 18 1021 93 10000 3.1 330 08:42 02.07.2019
5567 Clouds 17 1020 93 10000 0.5 0 08:20 02.07.2019
5568 Clouds 17 1020 93 10000 1.5 240 07:53 02.07.2019
5569 Rain 17 1020 93 10000 2.1 290 07:21 02.07.2019
5570 Rain 17 1020 82 10000 1 0 06:49 02.07.2019
5571 Rain 17 1020 88 10000 2.1 330 06:26 02.07.2019
5572 Rain 18 1021 93 10000 3.1 210 04:57 02.07.2019
5573 Clear 18 1018 93 10000 0.5 0 01:37 02.07.2019
5574 Clouds 19 1019 93 10000 2.1 110 23:50 01.07.2019
5575 Thunderstorm 18 1018 88 10000 1.5 270 23:22 01.07.2019
5576 Rain 19 1018 88 10000 3.1 240 22:46 01.07.2019
5577 Rain 19 1018 82 10000 5.7 210 22:27 01.07.2019
5578 Thunderstorm 19 1019 88 10000 3.1 210 21:48 01.07.2019
5579 Thunderstorm 19 1019 88 10000 3.1 210 21:48 01.07.2019
5580 Thunderstorm 19 1019 88 10000 3.1 210 21:26 01.07.2019
5581 Thunderstorm 20 1019 77 10000 3.1 160 20:53 01.07.2019
5582 Thunderstorm 20 1017 77 10000 3.1 190 20:23 01.07.2019
5583 Thunderstorm 20 1017 77 10000 3.1 190 19:59 01.07.2019
5584 Rain 19 1017 82 10000 7.7 150 19:41 01.07.2019
5585 Rain 19 1021 82 10000 5.7 230 19:23 01.07.2019
5586 Rain 20 1017 83 10000 1.5 90 18:53 01.07.2019
5587 Thunderstorm 21 1020 77 10000 2.6 0 18:31 01.07.2019
5588 Thunderstorm 22 1020 77 10000 6.2 280 18:00 01.07.2019
5589 Thunderstorm 24 1019 73 10000 2.1 50 17:41 01.07.2019
5590 Thunderstorm 24 1019 73 10000 2.1 50 17:21 01.07.2019
5591 Thunderstorm 23 1020 78 10000 2.1 220 16:47 01.07.2019
5592 Thunderstorm 23 1018 73 10000 3.1 120 16:26 01.07.2019
5593 Thunderstorm 23 1018 73 10000 3.1 120 16:26 01.07.2019
5594 Thunderstorm 23 1017 88 8000 5.1 120 15:55 01.07.2019
5595 Thunderstorm 24 1019 77 10000 4.1 130 15:36 01.07.2019
5596 Thunderstorm 26 1019 77 10000 4.1 130 15:18 01.07.2019
5597 Rain 28 1018 54 10000 4.1 230 14:42 01.07.2019
5598 Thunderstorm 29 1018 61 10000 6.2 130 14:19 01.07.2019
5599 Thunderstorm 30 1018 54 6000 4.1 330 13:42 01.07.2019
5600 Thunderstorm 31 1018 51 10000 5.7 320 13:22 01.07.2019
5601 Thunderstorm 31 1018 43 10000 4.6 280 12:49 01.07.2019
5602 Clear 31 1019 52 10000 2.6 260 12:30 01.07.2019
5603 Clear 31 1019 55 10000 3.1 250 11:59 01.07.2019
5604 Clear 30 1019 58 10000 5.1 240 11:39 01.07.2019
5605 Clear 30 1019 58 10000 5.1 240 11:19 01.07.2019
5606 Clear 30 1020 54 10000 4.1 230 10:47 01.07.2019
5607 Clear 29 1020 54 10000 3.6 250 10:23 01.07.2019
5608 Clear 27 1020 54 10000 4.6 230 09:45 01.07.2019
5609 Clear 27 1020 54 10000 4.6 230 09:45 01.07.2019
5610 Clear 25 1019 57 10000 5.1 220 09:27 01.07.2019
5611 Clear 25 1019 57 10000 4.1 220 08:59 01.07.2019
5612 Clear 23 1018 60 10000 3.6 240 08:37 01.07.2019
5613 Clear 21 1019 64 10000 4.6 220 07:39 01.07.2019
5614 Clear 19 1017 82 10000 1 0 06:52 01.07.2019
5615 Clouds 19 1017 82 10000 1.5 120 05:43 01.07.2019
5616 Clear 20 1016 93 10000 2.71 213.983 01:29 01.07.2019
5617 Clear 21 1018 85 10000 1 0 00:47 01.07.2019
5618 Clear 22 1018 83 10000 0.5 0 00:24 01.07.2019
5619 Clear 23 1018 83 10000 1.5 250 23:52 30.06.2019
5620 Clear 23 1018 78 10000 1 0 23:21 30.06.2019
5621 Clear 23 1017 73 10000 0.5 0 22:44 30.06.2019
5622 Clear 24 1017 65 10000 1.5 220 22:20 30.06.2019
5623 Clear 24 1017 65 10000 1.5 220 22:20 30.06.2019
5624 Clear 24 1017 65 10000 1.5 220 22:20 30.06.2019
5625 Clear 27 1017 57 10000 1 0 21:42 30.06.2019
5626 Clear 29 1017 42 10000 2.1 280 21:20 30.06.2019
5627 Clear 30 1017 35 10000 1.5 250 20:56 30.06.2019
5628 Clear 31 1017 35 10000 1.5 250 20:38 30.06.2019
5629 Clear 31 1017 31 10000 0.5 0 20:38 30.06.2019
5630 Clear 32 1017 31 10000 0.5 0 20:19 30.06.2019
5631 Clear 32 1017 31 10000 1 0 19:44 30.06.2019
5632 Clear 32 1017 31 10000 3.1 280 19:25 30.06.2019
5633 Clear 33 1017 27 10000 4.1 270 18:39 30.06.2019
5634 Clear 33 1017 27 10000 4.1 270 18:20 30.06.2019
5635 Clear 34 1018 24 10000 5.1 280 17:39 30.06.2019
5636 Clear 34 1017 30 10000 4.1 280 17:18 30.06.2019
5637 Clear 34 1017 29 10000 4.6 260 16:50 30.06.2019
5638 Clear 34 1017 28 10000 4.6 270 16:31 30.06.2019
5639 Clear 33 1017 24 10000 6.2 270 15:38 30.06.2019
5640 Clear 33 1017 26 10000 5.1 270 15:19 30.06.2019
5641 Clear 33 1018 29 10000 4.1 270 14:56 30.06.2019
5642 Clear 33 1018 29 10000 4.1 270 14:56 30.06.2019
5643 Clear 33 1018 36 10000 5.1 280 14:38 30.06.2019
5644 Clear 33 1018 40 10000 4.1 270 13:57 30.06.2019
5645 Clear 32 1018 43 10000 2.6 280 13:38 30.06.2019
5646 Clear 32 1018 43 10000 2.6 280 13:18 30.06.2019
5647 Clear 31 1018 48 10000 3.1 280 12:44 30.06.2019
5648 Clear 31 1020 45 10000 6.2 250 12:21 30.06.2019
5649 Clear 30 1018 45 10000 3.6 260 11:47 30.06.2019
5650 Clear 30 1018 54 10000 2.1 250 11:22 30.06.2019
5651 Clear 28 1018 57 10000 1.5 0 10:56 30.06.2019
5652 Clear 27 1019 44 10000 3.6 230 10:37 30.06.2019
5653 Clear 26 1019 44 10000 3.6 230 10:18 30.06.2019
5654 Clear 26 1019 44 10000 3.6 230 10:18 30.06.2019
5655 Clear 24 1019 50 10000 3.1 230 09:43 30.06.2019
5656 Clear 23 1019 57 10000 2.6 220 09:22 30.06.2019
5657 Clear 21 1018 64 10000 0.5 0 08:47 30.06.2019
5658 Clear 20 1018 68 10000 1 0 08:27 30.06.2019
5659 Clear 19 1018 67 10000 0.5 0 07:54 30.06.2019
5660 Clear 15 1018 87 10000 1 0 07:27 30.06.2019
5661 Fog 13 1018 93 10000 0.5 180 06:40 30.06.2019
5662 Fog 13 1018 93 10000 0.5 60 05:33 30.06.2019
5663 Clear 15 1018 87 10000 0.5 0 02:52 30.06.2019
5664 Clear 16 1019 82 10000 1 0 01:28 30.06.2019
5665 Clear 17 1019 77 10000 1 40 00:30 30.06.2019
5666 Clear 18 1019 77 10000 2.1 50 23:55 29.06.2019
5667 Clear 19 1019 72 10000 1.5 40 23:24 29.06.2019
5668 Clear 19 1019 68 10000 0.5 0 22:57 29.06.2019
5669 Clear 21 1019 68 10000 0.5 0 22:38 29.06.2019
5670 Clear 21 1019 60 10000 1 50 22:19 29.06.2019
5671 Clear 24 1019 49 10000 1 60 21:42 29.06.2019
5672 Clear 25 1019 41 10000 2.1 80 21:22 29.06.2019
5673 Clear 26 1019 39 10000 2.6 90 20:41 29.06.2019
5674 Clear 27 1019 36 10000 3.6 90 20:23 29.06.2019
5675 Clear 28 1019 34 10000 3.6 90 19:48 29.06.2019
5676 Clear 28 1019 32 10000 3.6 80 19:24 29.06.2019
5677 Clear 28 1019 32 10000 4.1 80 18:51 29.06.2019
5678 Clear 29 1020 30 10000 5.1 60 18:26 29.06.2019
5679 Clear 29 1020 32 10000 5.1 40 17:43 29.06.2019
5680 Clear 29 1020 32 10000 4.1 100 17:23 29.06.2019
5681 Clear 29 1020 32 10000 4.1 100 17:23 29.06.2019
5682 Clear 29 1020 37 10000 4.1 90 16:58 29.06.2019
5683 Clear 29 1020 37 10000 4.1 90 16:39 29.06.2019
5684 Clear 29 1020 34 10000 4.1 90 15:53 29.06.2019
5685 Clear 29 1020 34 10000 4.1 80 15:31 29.06.2019
5686 Clear 29 1020 32 10000 5.1 60 14:45 29.06.2019
5687 Clear 28 1021 34 10000 5.1 50 14:26 29.06.2019
5688 Clear 28 1021 39 10000 4.1 90 13:50 29.06.2019
5689 Clear 28 1021 44 10000 3.6 90 13:27 29.06.2019
5690 Clear 27 1021 47 10000 3.6 90 12:57 29.06.2019
5691 Clear 27 1021 47 10000 3.6 90 12:38 29.06.2019
5692 Clear 26 1021 34 10000 5.1 70 12:20 29.06.2019
5693 Clear 25 1021 38 10000 4.6 80 11:42 29.06.2019
5694 Clear 25 1021 38 10000 4.6 80 11:21 29.06.2019
5695 Clear 24 1022 47 10000 4.1 40 10:46 29.06.2019
5696 Clear 23 1022 49 10000 4.1 80 10:21 29.06.2019
5697 Clear 22 1022 60 10000 3.1 80 09:50 29.06.2019
5698 Clear 19 1022 68 10000 3.1 80 08:55 29.06.2019
5699 Clear 19 1022 72 10000 2.1 60 08:30 29.06.2019
5700 Clear 16 1022 77 10000 1.5 50 07:45 29.06.2019
5701 Clear 13 1022 100 10000 1 0 06:49 29.06.2019
5702 Clear 12 1022 93 10000 1 90 06:25 29.06.2019
5703 Clear 12 1021 93 10000 0.5 0 05:18 29.06.2019
5704 Clear 15 1022 87 10000 1 170 01:42 29.06.2019
5705 Clear 16 1022 82 10000 1 170 00:49 29.06.2019
5706 Clear 17 1022 77 10000 1.5 310 23:48 28.06.2019
5707 Clear 19 1022 72 10000 1 0 23:21 28.06.2019
5708 Clear 20 1022 68 10000 1 0 22:47 28.06.2019
5709 Clear 21 1022 49 10000 1.5 70 22:21 28.06.2019
5710 Clear 23 1022 49 10000 1.5 30 21:45 28.06.2019
5711 Clear 24 1021 41 10000 0.5 340 21:19 28.06.2019
5712 Clear 26 1022 36 10000 2.6 30 20:42 28.06.2019
5713 Clear 26 1022 36 10000 2.6 30 20:19 28.06.2019
5714 Clear 27 1022 34 10000 3.6 30 19:42 28.06.2019
5715 Clear 27 1022 34 10000 3.6 30 19:23 28.06.2019
5716 Clear 27 1022 34 10000 3.6 20 18:42 28.06.2019
5717 Clear 28 1022 36 10000 3.1 340 18:22 28.06.2019
5718 Clear 28 1022 34 10000 2.6 330 17:54 28.06.2019
5719 Clear 28 1022 36 10000 3.6 350 17:28 28.06.2019
5720 Clear 28 1022 36 10000 3.1 330 16:47 28.06.2019
5721 Clear 28 1022 39 10000 2.1 330 16:20 28.06.2019
5722 Clear 28 1022 36 10000 3.1 0 15:47 28.06.2019
5723 Clear 27 1023 39 10000 3.6 330 15:18 28.06.2019
5724 Clear 27 1023 31 10000 3.1 330 14:42 28.06.2019
5725 Clear 27 1023 31 10000 3.1 330 14:21 28.06.2019
5726 Clear 27 1023 36 10000 3.6 340 13:49 28.06.2019
5727 Clear 27 1023 41 10000 2.6 10 13:29 28.06.2019
5728 Clear 26 1023 41 10000 2.1 0 12:53 28.06.2019
5729 Clear 26 1024 41 10000 2.1 50 12:35 28.06.2019
5730 Clear 24 1023 41 10000 2.1 0 11:47 28.06.2019
5731 Clear 24 1024 46 10000 2.1 0 11:19 28.06.2019
5732 Clear 22 1024 46 10000 1.5 360 10:43 28.06.2019
5733 Clear 23 1024 43 10000 1 0 10:21 28.06.2019
5734 Clear 21 1024 49 10000 1.5 20 09:47 28.06.2019
5735 Clear 20 1024 49 10000 1 0 09:29 28.06.2019
5736 Clear 19 1023 45 10000 1 0 08:44 28.06.2019
5737 Clear 18 1023 55 10000 0.5 0 08:24 28.06.2019
5738 Clear 16 1024 72 10000 1 0 07:45 28.06.2019
5739 Clear 13 1024 93 10000 1 170 06:57 28.06.2019
5740 Clear 13 1023 93 10000 1 170 05:42 28.06.2019
5741 Clear 19 1024 59 10000 1.85 16.307 01:22 28.06.2019
5742 Clear 20 1024 72 10000 0.5 0 00:26 28.06.2019
5743 Clear 21 1024 77 10000 2.92 338.326 23:48 27.06.2019
5744 Clear 22 1024 56 10000 2.1 320 23:25 27.06.2019
5745 Clear 23 1023 53 10000 2.1 320 22:55 27.06.2019
5746 Clear 25 1023 53 10000 2.6 320 22:36 27.06.2019
5747 Clear 25 1023 53 10000 2.6 320 22:18 27.06.2019
5748 Clear 26 1023 60 10000 3.1 330 21:47 27.06.2019
5749 Clear 26 1023 57 10000 4.1 330 21:29 27.06.2019
5750 Clear 27 1022 57 10000 4.6 330 20:55 27.06.2019
5751 Clear 28 1022 65 10000 5.7 330 20:36 27.06.2019
5752 Clear 28 1022 65 10000 5.7 330 20:18 27.06.2019
5753 Clouds 30 1022 54 10000 4.1 320 19:41 27.06.2019
5754 Clouds 30 1022 54 10000 4.1 320 19:23 27.06.2019
5755 Clear 30 1022 55 10000 4.6 320 18:42 27.06.2019
5756 Clear 31 1022 55 10000 4.1 330 18:19 27.06.2019
5757 Clear 31 1023 58 10000 5.1 330 17:43 27.06.2019
5758 Clear 32 1021 46 10000 4.1 310 17:22 27.06.2019
5759 Clouds 32 1023 55 10000 3.6 320 16:40 27.06.2019
5760 Clouds 32 1023 55 10000 3.6 320 16:19 27.06.2019
5761 Clouds 32 1023 55 10000 3.6 320 16:19 27.06.2019
5762 Clouds 32 1022 49 10000 3.6 320 15:55 27.06.2019
5763 Clouds 32 1022 49 10000 3.6 320 15:35 27.06.2019
5764 Clear 32 1024 55 10000 4.6 340 14:58 27.06.2019
5765 Clear 32 1024 55 10000 5.1 350 14:38 27.06.2019
5766 Clear 32 1024 55 10000 5.1 350 14:18 27.06.2019
5767 Clear 31 1024 58 10000 4.1 10 13:42 27.06.2019
5768 Clear 31 1024 58 10000 4.1 10 13:42 27.06.2019
5769 Clear 31 1024 55 10000 4.1 350 13:24 27.06.2019
5770 Clear 31 1024 51 10000 4.1 340 12:49 27.06.2019
5771 Clear 31 1024 51 10000 4.1 340 12:49 27.06.2019
5772 Clear 30 1024 58 10000 3.1 350 12:28 27.06.2019
5773 Clear 30 1024 58 10000 3.6 330 11:47 27.06.2019
5774 Clear 30 1024 61 10000 1.5 320 11:24 27.06.2019
5775 Clear 29 1024 61 10000 3.1 300 10:58 27.06.2019
5776 Clear 29 1024 61 10000 3.1 300 10:40 27.06.2019
5777 Clear 28 1024 61 10000 3.6 260 10:19 27.06.2019
5778 Clear 26 1024 65 10000 3.1 240 09:41 27.06.2019
5779 Clear 26 1024 61 10000 3.1 230 09:20 27.06.2019
5780 -273 0 0 0 0 0 08:50 27.06.2019
5781 Clear 24 1024 78 10000 3.1 210 08:28 27.06.2019
5782 Fog 22 1024 78 10000 2.6 210 07:48 27.06.2019
5783 Fog 20 1023 93 10000 0.5 0 06:59 27.06.2019
5784 Fog 19 1023 93 10000 1.5 160 06:37 27.06.2019
5785 Clear 20 1023 94 10000 2.09 326.242 03:52 27.06.2019
5786 Clear 21 1023 100 10000 1 50 02:43 27.06.2019
5787 Clear 21 1023 94 10000 0.5 0 01:46 27.06.2019
5788 Clear 22 1023 94 10000 1 220 00:54 27.06.2019
5789 Clear 23 1023 88 10000 1 300 00:29 27.06.2019
5790 Clear 23 1023 94 10000 0.5 0 23:52 26.06.2019
5791 Clear 24 1023 88 10000 0.88 280.276 23:23 26.06.2019
5792 Clear 24 1023 83 10000 0.5 0 22:59 26.06.2019
5793 Clear 25 1023 83 10000 0.5 0 22:40 26.06.2019
5794 Clear 26 1023 83 10000 0.5 0 22:20 26.06.2019
5795 Clear 27 1023 78 10000 0.5 300 21:55 26.06.2019
5796 Clear 28 1023 78 10000 0.5 300 21:37 26.06.2019
5797 Clear 30 1023 62 10000 0.5 0 21:18 26.06.2019
5798 Clear 31 1024 48 10000 2.6 30 20:40 26.06.2019
5799 Clear 32 1024 48 10000 2.6 30 20:22 26.06.2019
5800 Clear 32 1024 45 10000 3.1 20 19:44 26.06.2019
5801 Clear 33 1024 40 10000 3.6 350 19:25 26.06.2019
5802 Clear 33 1024 40 10000 3.1 30 18:54 26.06.2019
5803 Clear 33 1024 41 10000 3.1 40 18:36 26.06.2019
5804 Clear 34 1024 41 10000 3.1 40 18:18 26.06.2019
5805 Clear 34 1024 38 10000 2.6 10 17:38 26.06.2019
5806 Clear 34 1024 38 10000 2.6 10 17:19 26.06.2019
5807 Clear 34 1025 33 10000 2.6 30 16:50 26.06.2019
5808 Clear 34 1025 36 10000 3.1 350 16:26 26.06.2019
5809 Clear 34 1025 36 10000 2.1 50 15:48 26.06.2019
5810 Clear 34 1025 36 10000 1.5 0 15:27 26.06.2019
5811 Clear 33 1025 31 10000 2.1 20 14:39 26.06.2019
5812 Clear 33 1025 31 10000 2.1 20 14:20 26.06.2019
5813 Clear 33 1025 35 10000 1 0 13:45 26.06.2019
5814 Clear 33 1026 35 10000 1.5 360 13:21 26.06.2019
5815 Clear 32 1026 43 10000 0.5 0 12:45 26.06.2019
5816 Clear 31 1026 51 10000 1 0 12:26 26.06.2019
5817 Clear 31 1026 54 10000 1 0 11:55 26.06.2019
5818 Clear 30 1025 54 10000 1 0 11:24 26.06.2019
5819 Clear 28 1025 57 10000 1 0 10:49 26.06.2019
5820 Clear 27 1025 61 10000 2.1 220 10:31 26.06.2019
5821 Clear 27 1025 61 10000 2.1 220 10:31 26.06.2019
5822 Clear 26 1025 65 10000 2.6 230 09:51 26.06.2019
5823 Clear 25 1025 69 10000 1 0 09:29 26.06.2019
5824 Clear 23 1025 78 10000 2.6 210 08:52 26.06.2019
5825 Clear 21 1025 78 10000 2.1 250 08:22 26.06.2019
5826 Clear 20 1024 88 10000 2.1 220 07:57 26.06.2019
5827 Fog 19 1024 93 10000 3.1 230 07:38 26.06.2019
5828 Fog 17 1024 93 10000 1.5 220 06:33 26.06.2019
5829 Clouds 19 1024 93 10000 1.5 180 01:59 26.06.2019
5830 Clouds 21 1023 93 10000 0.91 100.31 00:35 26.06.2019
5831 Clouds 21 1023 93 10000 1.69 132.166 23:57 25.06.2019
5832 Clouds 22 1023 93 10000 1 160 23:38 25.06.2019
5833 Clouds 22 1023 93 10000 1 160 23:19 25.06.2019
5834 Clouds 23 1023 88 10000 1.5 150 22:41 25.06.2019
5835 Clouds 24 1023 83 10000 1 140 22:22 25.06.2019
5836 Clouds 26 1023 69 10000 1 90 21:46 25.06.2019
5837 Clouds 27 1023 61 10000 2.1 30 21:26 25.06.2019
5838 Clear 28 1023 54 10000 2.1 30 20:49 25.06.2019
5839 Clear 28 1023 54 10000 2.1 30 20:49 25.06.2019
5840 Clear 28 1023 54 10000 2.1 30 20:49 25.06.2019
5841 Clear 29 1023 58 10000 3.1 30 20:24 25.06.2019
5842 Clear 30 1023 51 10000 3.1 360 19:57 25.06.2019
5843 Clear 30 1023 45 10000 2.6 330 19:38 25.06.2019
5844 Clear 30 1023 45 10000 2.6 330 19:20 25.06.2019
5845 Clear 31 1023 38 10000 2.1 0 18:42 25.06.2019
5846 Clear 31 1023 40 10000 1 0 18:24 25.06.2019
5847 Clear 31 1023 38 10000 1.5 70 17:46 25.06.2019
5848 Clear 32 1023 43 10000 1.5 60 17:26 25.06.2019
5849 Clear 31 1023 43 10000 1.5 60 17:26 25.06.2019
5850 -273 0 0 0 0 0 17:26 25.06.2019
5851 Clear 31 1023 40 10000 2.1 30 16:44 25.06.2019
5852 Clear 31 1023 43 10000 2.6 330 16:26 25.06.2019
5853 Clear 31 1023 48 10000 1 0 15:59 25.06.2019
5854 Clear 31 1023 48 10000 1 0 15:39 25.06.2019
5855 Clear 30 1023 48 10000 2.1 60 15:20 25.06.2019
5856 Clear 30 1023 51 10000 2.1 10 14:45 25.06.2019
5857 Clear 30 1022 54 10000 1 0 14:26 25.06.2019
5858 Clear 29 1022 54 10000 1.5 0 13:43 25.06.2019
5859 Clear 29 1022 61 10000 1 0 13:24 25.06.2019
5860 Clear 28 1022 58 10000 1 0 12:43 25.06.2019
5861 Clear 27 1022 57 10000 1 0 12:24 25.06.2019
5862 Clear 27 1022 61 10000 1 0 11:46 25.06.2019
5863 Clear 26 1022 65 10000 1 0 11:24 25.06.2019
5864 -273 0 0 0 0 0 10:58 25.06.2019
5865 Clear 25 1022 64 10000 0.5 0 10:37 25.06.2019
5866 Clear 25 1022 64 10000 0.5 0 10:19 25.06.2019
5867 Clear 23 1021 73 10000 3.1 90 09:40 25.06.2019
5868 Clear 22 1021 73 10000 1.5 50 09:22 25.06.2019
5869 Clear 21 1021 77 10000 1.5 70 08:59 25.06.2019
5870 Clear 20 1021 82 10000 1.5 90 08:31 25.06.2019
5871 Fog 19 1021 82 10000 1 0 07:52 25.06.2019
5872 Fog 18 1021 88 10000 1 0 07:31 25.06.2019
5873 Fog 16 1021 87 10000 1.5 30 06:51 25.06.2019
5874 Fog 16 1021 100 10000 1 30 06:24 25.06.2019
5875 Clouds 17 1021 87 10000 1 110 02:45 25.06.2019
5876 Clear 19 1021 88 10000 1 100 01:26 25.06.2019
5877 Clouds 19 1022 82 10000 1.5 120 00:28 25.06.2019
5878 Clouds 20 1022 77 10000 2.1 100 23:53 24.06.2019
5879 Clouds 20 1022 77 10000 1.5 80 23:33 24.06.2019
5880 Clouds 21 1022 77 10000 2.6 80 22:59 24.06.2019
5881 Clouds 21 1022 73 10000 2.6 80 22:39 24.06.2019
5882 Clouds 21 1022 73 10000 2.6 80 22:18 24.06.2019
5883 Clouds 23 1021 64 10000 3.1 70 21:39 24.06.2019
5884 Clear 24 1021 60 10000 3.6 80 21:19 24.06.2019
5885 Clear 24 1021 57 10000 3.6 90 20:56 24.06.2019
5886 Clear 25 1021 57 10000 4.1 70 20:37 24.06.2019
5887 Clear 25 1021 57 10000 4.1 70 20:19 24.06.2019
5888 Clear 26 1021 50 10000 5.7 60 19:43 24.06.2019
5889 Clear 26 1021 50 10000 5.7 60 19:21 24.06.2019
5890 Clear 27 1021 51 10000 5.7 60 18:45 24.06.2019
5891 Clear 27 1021 50 10000 5.1 60 18:26 24.06.2019
5892 Clear 27 1021 51 10000 6.7 50 17:47 24.06.2019
5893 Clear 27 1021 51 10000 6.2 60 17:25 24.06.2019
5894 Clear 27 1021 47 10000 6.7 50 16:48 24.06.2019
5895 Clear 27 1021 44 10000 5.1 100 16:21 24.06.2019
5896 Clear 27 1021 51 10000 5.1 80 15:56 24.06.2019
5897 Clear 27 1021 51 10000 5.1 80 15:38 24.06.2019
5898 Clear 27 1021 50 10000 5.7 70 15:19 24.06.2019
5899 Clear 27 1021 57 10000 5.7 80 14:33 24.06.2019
5900 -273 0 0 0 0 0 13:50 24.06.2019
5901 Clear 26 1021 53 10000 6.7 100 13:24 24.06.2019
5902 Clear 26 1021 53 10000 5.1 100 12:44 24.06.2019
5903 Clear 25 1021 60 10000 5.7 90 12:22 24.06.2019
5904 Clear 25 1021 60 10000 5.1 90 11:56 24.06.2019
5905 Clear 24 1021 64 10000 5.1 60 11:37 24.06.2019
5906 Clear 24 1021 64 10000 5.1 60 11:18 24.06.2019
5907 Clear 23 1021 68 10000 4.6 70 10:42 24.06.2019
5908 Clear 23 1022 68 10000 4.1 80 10:20 24.06.2019
5909 Clear 22 1022 73 10000 3.6 70 09:48 24.06.2019
5910 Clear 21 1022 82 10000 3.1 70 09:20 24.06.2019
5911 Clear 20 1022 82 10000 2.6 60 08:51 24.06.2019
5912 Fog 19 1021 88 10000 2.1 60 08:25 24.06.2019
5913 Fog 17 1021 88 6000 1.5 90 07:45 24.06.2019
5914 Fog 16 1021 93 9000 1.5 40 07:26 24.06.2019
5915 Fog 16 1021 100 6000 1.5 80 06:39 24.06.2019
5916 Fog 15 1021 100 8000 3.1 90 06:19 24.06.2019
5917 Fog 15 1021 100 9000 1 50 05:24 24.06.2019
5918 Clear 16 1021 93 5000 1.5 110 04:24 24.06.2019
5919 Clear 16 1021 93 10000 2.6 40 02:56 24.06.2019
5920 Clear 16 1021 100 10000 1 80 02:32 24.06.2019
5921 Clear 17 1021 100 10000 1.5 80 01:53 24.06.2019
5922 Clear 17 1021 93 10000 2.1 70 01:22 24.06.2019
5923 Clear 17 1021 93 10000 1.5 110 00:40 24.06.2019
5924 Clear 17 1021 93 10000 1.5 110 00:19 24.06.2019
5925 Clear 17 1021 93 10000 1.5 110 00:19 24.06.2019
5926 Clear 18 1021 93 10000 1 70 23:44 23.06.2019
5927 Clear 18 1021 93 10000 2.1 110 23:23 23.06.2019
5928 Clear 18 1020 88 10000 3.1 60 22:43 23.06.2019
5929 Clear 19 1020 82 10000 2.6 70 22:20 23.06.2019
5930 Clear 19 1020 88 10000 1.5 30 21:56 23.06.2019
5931 Clear 19 1020 88 10000 1.5 30 21:56 23.06.2019
5932 Clear 19 1020 88 10000 1.5 30 21:36 23.06.2019
5933 Rain 20 1020 82 10000 3.1 30 21:18 23.06.2019
5934 Rain 21 1020 77 10000 2.6 50 20:41 23.06.2019
5935 Clear 22 1020 73 10000 4.6 20 20:22 23.06.2019
5936 Clouds 22 1019 68 10000 3.6 20 19:44 23.06.2019
5937 Rain 23 1019 60 10000 3.1 50 19:21 23.06.2019
5938 Rain 22 1019 68 10000 3.1 70 18:54 23.06.2019
5939 Rain 22 1019 68 10000 2.6 70 18:24 23.06.2019
5940 Rain 22 1019 73 10000 2.1 50 17:51 23.06.2019
5941 Rain 22 1019 68 10000 2.6 70 17:26 23.06.2019
5942 Rain 22 1019 77 10000 4.1 40 16:59 23.06.2019
5943 Rain 23 1019 73 10000 5.1 30 16:40 23.06.2019
5944 Rain 23 1019 73 10000 5.1 30 16:21 23.06.2019
5945 Rain 22 1020 68 10000 1 0 15:41 23.06.2019
5946 Rain 22 1020 72 10000 1.5 40 15:22 23.06.2019
5947 Rain 22 1020 72 10000 2.6 140 14:42 23.06.2019
5948 Rain 22 1019 72 10000 1.5 0 14:23 23.06.2019
5949 Rain 22 1020 72 10000 2.1 60 13:59 23.06.2019
5950 Rain 21 1019 77 10000 2.6 60 13:40 23.06.2019
5951 Rain 21 1019 77 10000 2.6 60 13:19 23.06.2019
5952 Rain 21 1019 77 10000 2.6 60 13:19 23.06.2019
5953 Rain 21 1019 77 10000 2.6 60 13:19 23.06.2019
5954 Clouds 20 1019 72 10000 3.1 30 12:46 23.06.2019
5955 Rain 20 1019 77 10000 3.1 30 12:23 23.06.2019
5956 Rain 19 1019 82 10000 2.6 10 11:57 23.06.2019
5957 Clouds 19 1019 82 10000 2.6 330 11:38 23.06.2019
5958 Clouds 19 1019 82 10000 2.6 330 11:19 23.06.2019
5959 Clouds 18 1019 82 10000 1 0 10:44 23.06.2019
5960 Rain 18 1019 82 10000 1 0 10:19 23.06.2019
5961 Rain 17 1019 88 10000 1 0 09:44 23.06.2019
5962 Clouds 17 1019 88 10000 2.1 20 09:21 23.06.2019
5963 Rain 16 1018 93 6000 1 0 08:45 23.06.2019
5964 Rain 16 1018 93 4000 1 0 08:27 23.06.2019
5965 Rain 15 1018 100 4000 1 260 07:55 23.06.2019
5966 Mist 15 1018 100 5000 0.5 0 07:24 23.06.2019
5967 Mist 15 1017 100 5000 0.5 0 06:54 23.06.2019
5968 Rain 15 1017 100 7000 1.34 88.756 05:55 23.06.2019
5969 Mist 15 1017 93 7000 0.5 0 04:38 23.06.2019
5970 Rain 15 1017 100 9000 1.5 90 02:20 23.06.2019
5971 Rain 15 1017 100 6000 0.5 0 01:37 23.06.2019
5972 Rain 15 1017 93 10000 1 150 00:37 23.06.2019
5973 Rain 16 1017 100 10000 1 180 23:58 22.06.2019
5974 Rain 16 1017 100 10000 1 180 23:39 22.06.2019
5975 Rain 16 1017 100 10000 0.5 0 23:20 22.06.2019
5976 Rain 16 1017 100 10000 2.1 210 22:45 22.06.2019
5977 Rain 16 1017 93 10000 2.1 190 22:24 22.06.2019
5978 Rain 16 1017 100 10000 1 0 21:41 22.06.2019
5979 Rain 16 1017 93 10000 2.1 30 21:20 22.06.2019
5980 Rain 16 1017 93 10000 1 0 20:53 22.06.2019
5981 Rain 17 1016 93 8000 3.1 260 20:27 22.06.2019
5982 Rain 17 1016 93 8000 4.1 270 19:58 22.06.2019
5983 Rain 18 1016 93 8000 4.1 270 19:39 22.06.2019
5984 Rain 19 1016 93 6000 7.2 250 19:19 22.06.2019
5985 Rain 20 1015 82 10000 3.6 150 18:41 22.06.2019
5986 Thunderstorm 21 1015 68 10000 1 0 18:19 22.06.2019
5987 Thunderstorm 22 1015 68 10000 2.6 110 17:40 22.06.2019
5988 Thunderstorm 23 1015 68 10000 3.1 90 17:22 22.06.2019
5989 Clouds 23 1016 68 10000 3.6 60 16:40 22.06.2019
5990 Clouds 23 1016 68 10000 3.6 60 16:22 22.06.2019
5991 Thunderstorm 23 1016 68 10000 5.1 70 15:43 22.06.2019
5992 Thunderstorm 23 1016 68 10000 5.1 70 15:25 22.06.2019
5993 Clouds 23 1016 73 10000 4.1 100 14:51 22.06.2019
5994 Clouds 23 1017 73 10000 4.1 90 14:31 22.06.2019
5995 Clouds 22 1017 73 10000 4.6 80 13:57 22.06.2019
5996 Rain 22 1017 77 10000 3.6 70 13:38 22.06.2019
5997 Rain 22 1017 77 10000 3.6 70 13:38 22.06.2019
5998 Rain 22 1017 77 10000 3.6 70 13:18 22.06.2019
5999 Rain 21 1017 72 10000 4.6 60 12:42 22.06.2019
6000 Clouds 21 1017 82 10000 5.1 90 12:19 22.06.2019
6001 Clouds 20 1017 82 10000 4.6 70 11:41 22.06.2019
6002 Clouds 20 1017 88 10000 5.1 60 11:19 22.06.2019
6003 Clouds 19 1018 93 10000 3.6 80 10:22 22.06.2019
6004 Clouds 19 1018 88 10000 3.1 80 09:58 22.06.2019
6005 Clouds 18 1018 88 10000 2.6 90 09:35 22.06.2019
6006 Clouds 18 1018 88 10000 2.6 90 09:35 22.06.2019
6007 Clouds 17 1018 93 10000 2.6 80 08:49 22.06.2019
6008 Clouds 17 1018 100 9000 2.6 100 08:31 22.06.2019
6009 Clouds 16 1018 100 6000 2.1 100 07:52 22.06.2019
6010 Clouds 16 1018 100 1700 2.1 80 07:24 22.06.2019
6011 Fog 15 1018 100 2700 2.6 70 06:41 22.06.2019
6012 Clouds 15 1018 93 900 1 0 04:37 22.06.2019
6013 Rain 15 1019 100 550 1.5 40 02:26 22.06.2019
6014 Rain 16 1020 93 10000 2.6 120 00:54 22.06.2019
6015 Rain 16 1020 93 10000 2.1 120 00:31 22.06.2019
6016 Rain 16 1020 100 10000 1.5 130 23:50 21.06.2019
6017 Rain 17 1020 93 9000 1 0 23:24 21.06.2019
6018 Rain 17 1020 100 10000 2.1 110 22:58 21.06.2019
6019 -273 0 0 0 0 0 22:58 21.06.2019
6020 Rain 17 1020 100 10000 2.1 130 22:39 21.06.2019
6021 Rain 17 1020 100 10000 2.1 130 22:20 21.06.2019
6022 Rain 18 1020 100 6000 2.1 90 21:40 21.06.2019
6023 Rain 18 1020 100 6000 2.1 90 21:20 21.06.2019
6024 Rain 19 1020 93 5000 2.6 190 20:48 21.06.2019
6025 Rain 19 1019 93 4500 3.1 230 20:26 21.06.2019
6026 Rain 21 1018 93 10000 2.6 150 19:54 21.06.2019
6027 Clouds 21 1018 88 10000 0.5 0 19:22 21.06.2019
6028 Rain 22 1018 88 10000 2.1 320 18:43 21.06.2019
6029 Rain 22 1018 82 10000 1.5 290 18:24 21.06.2019
6030 Rain 23 1018 68 10000 2.6 30 17:36 21.06.2019
6031 Clouds 23 1018 60 10000 4.6 350 16:59 21.06.2019
6032 Clouds 23 1017 60 10000 3.1 10 16:37 21.06.2019
6033 Clouds 24 1018 56 10000 4.6 350 16:19 21.06.2019
6034 Clouds 24 1018 60 10000 4.6 30 15:39 21.06.2019
6035 Clouds 24 1018 50 10000 1.5 0 15:18 21.06.2019
6036 Clouds 24 1019 60 10000 2.6 350 14:44 21.06.2019
6037 Clouds 24 1019 60 10000 2.6 350 14:24 21.06.2019
6038 Clouds 23 1019 64 10000 3.1 40 13:44 21.06.2019
6039 Clouds 23 1019 68 10000 3.1 360 13:25 21.06.2019
6040 Clouds 23 1019 68 10000 2.6 0 12:54 21.06.2019
6041 Clouds 22 1019 68 10000 1.5 0 12:23 21.06.2019
6042 Clouds 22 1019 68 10000 2.1 300 11:59 21.06.2019
6043 Clouds 22 1019 68 10000 2.1 300 11:40 21.06.2019
6044 Clouds 21 1019 68 10000 1.5 330 11:22 21.06.2019
6045 Clouds 20 1019 72 10000 1.5 0 10:47 21.06.2019
6046 Clear 20 1019 72 10000 1.5 20 10:21 21.06.2019
6047 Clear 20 1019 72 10000 1.5 20 10:21 21.06.2019
6048 Clear 19 1019 77 10000 1.5 300 09:55 21.06.2019
6049 Clear 18 1019 82 10000 1 0 09:37 21.06.2019
6050 Clear 18 1019 82 10000 1 0 09:18 21.06.2019
6051 Clear 17 1018 82 10000 1.5 220 08:42 21.06.2019
6052 Clear 16 1018 93 10000 2.1 200 08:21 21.06.2019
6053 Fog 15 1018 93 10000 2.1 240 07:46 21.06.2019
6054 Fog 14 1018 93 10000 1.5 210 07:26 21.06.2019
6055 Fog 13 1018 100 10000 1 0 06:51 21.06.2019
6056 Fog 13 1018 100 7000 1.5 180 06:19 21.06.2019
6057 Fog 13 1018 93 10000 2.1 200 04:58 21.06.2019
6058 Fog 13 1018 93 10000 1.5 160 04:22 21.06.2019
6059 Clouds 14 1018 100 10000 2.1 200 03:33 21.06.2019
6060 Clouds 14 1018 100 10000 2.6 190 02:47 21.06.2019
6061 Clouds 14 1018 100 10000 2.6 200 01:48 21.06.2019
6062 Clouds 15 1018 100 10000 2.98 220.532 00:55 21.06.2019
6063 Rain 15 1017 100 10000 1 200 00:22 21.06.2019
6064 Rain 15 1017 100 10000 2.72 219.117 23:47 20.06.2019
6065 Rain 16 1017 100 10000 1.5 190 23:22 20.06.2019
6066 Rain 16 1017 93 10000 0.5 0 22:57 20.06.2019
6067 Rain 16 1017 93 10000 0.5 0 22:38 20.06.2019
6068 Rain 16 1016 93 10000 2.1 190 22:20 20.06.2019
6069 Rain 17 1016 93 10000 2.1 180 21:48 20.06.2019
6070 Rain 18 1016 88 10000 2.6 150 21:19 20.06.2019
6071 Rain 18 1016 93 10000 2.6 120 20:48 20.06.2019
6072 Rain 18 1016 88 10000 1.5 150 20:27 20.06.2019
6073 Rain 18 1016 77 10000 2.6 230 19:59 20.06.2019
6074 Rain 18 1016 77 10000 2.6 230 19:39 20.06.2019
6075 Rain 19 1016 77 10000 4.1 220 19:18 20.06.2019
6076 Rain 19 1015 77 10000 4.6 200 18:43 20.06.2019
6077 Rain 19 1015 82 10000 4.1 230 18:23 20.06.2019
6078 Rain 19 1015 93 10000 2.6 210 17:56 20.06.2019
6079 Rain 19 1015 93 10000 5.7 280 17:38 20.06.2019
6080 Rain 19 1016 88 9000 10.8 240 16:57 20.06.2019
6081 Rain 20 1015 72 10000 5.7 270 16:39 20.06.2019
6082 Thunderstorm 20 1015 72 10000 5.7 270 16:18 20.06.2019
6083 Rain 22 1014 64 10000 5.1 310 15:42 20.06.2019
6084 Rain 23 1014 64 10000 5.1 310 15:23 20.06.2019
6085 Rain 24 1014 60 10000 4.1 300 14:52 20.06.2019
6086 Rain 23 1015 56 10000 2.6 0 14:24 20.06.2019
6087 Rain 24 1015 56 10000 1 0 13:59 20.06.2019
6088 Rain 23 1015 56 10000 1 0 13:37 20.06.2019
6089 Rain 23 1015 60 10000 1 0 13:18 20.06.2019
6090 Rain 22 1015 68 10000 1.5 0 12:41 20.06.2019
6091 Rain 22 1015 60 10000 2.1 160 12:19 20.06.2019
6092 Rain 21 1015 68 10000 1 0 11:40 20.06.2019
6093 Rain 21 1015 68 10000 1 0 11:22 20.06.2019
6094 Rain 20 1015 77 10000 1.5 180 10:43 20.06.2019
6095 Rain 20 1015 82 10000 2.1 270 10:23 20.06.2019
6096 Rain 20 1016 72 10000 2.6 280 09:55 20.06.2019
6097 Rain 19 1016 72 10000 2.6 280 09:36 20.06.2019
6098 Rain 18 1015 68 10000 2.1 240 09:18 20.06.2019
6099 Rain 18 1015 68 10000 1.5 160 08:43 20.06.2019
6100 Rain 18 1015 77 10000 2.1 150 08:22 20.06.2019
6101 Rain 17 1015 82 10000 1.5 170 07:44 20.06.2019
6102 Rain 17 1015 87 10000 1 0 07:24 20.06.2019
6103 Rain 17 1014 82 10000 1.5 280 06:19 20.06.2019
6104 Rain 18 1013 59 10000 8.2 230 03:40 20.06.2019
6105 Clouds 19 1013 60 10000 8.7 230 02:26 20.06.2019
6106 Rain 17 1012 82 10000 0.5 0 00:33 20.06.2019
6107 Rain 19 1012 77 10000 0.5 0 23:48 19.06.2019
6108 Rain 19 1012 87 10000 2.6 170 23:29 19.06.2019
6109 Rain 21 1012 77 10000 1.5 120 22:49 19.06.2019
6110 Rain 21 1012 77 10000 1 160 22:25 19.06.2019
6111 Rain 21 1011 68 10000 1.5 170 21:58 19.06.2019
6112 Rain 24 1011 64 10000 1 120 21:39 19.06.2019
6113 Clouds 25 1011 64 10000 1 120 21:21 19.06.2019
6114 Clouds 27 1011 34 10000 2.27 118.364 20:42 19.06.2019
6115 Clouds 27 1011 34 10000 1 0 20:21 19.06.2019
6116 Clouds 28 1011 36 10000 2.1 290 19:46 19.06.2019
6117 Clear 28 1011 32 10000 2.6 280 19:28 19.06.2019
6118 Clear 28 1011 30 10000 2.6 310 18:57 19.06.2019
6119 Clear 29 1011 30 10000 3.6 230 18:26 19.06.2019
6120 Clear 29 1012 34 10000 2.6 240 17:53 19.06.2019
6121 Clear 29 1012 32 10000 2.1 0 17:27 19.06.2019
6122 Clear 29 1012 34 10000 2.1 0 16:56 19.06.2019
6123 Clear 29 1012 34 10000 2.6 280 16:38 19.06.2019
6124 Clear 29 1012 34 10000 2.6 280 16:19 19.06.2019
6125 Clear 29 1013 37 10000 2.6 230 15:46 19.06.2019
6126 Clear 28 1013 34 10000 2.1 0 15:25 19.06.2019
6127 Clear 28 1013 39 10000 3.6 230 14:48 19.06.2019
6128 Clear 28 1013 39 10000 2.6 0 14:29 19.06.2019
6129 Clear 28 1013 34 10000 3.1 270 13:59 19.06.2019
6130 Clear 27 1014 36 10000 2.6 240 13:38 19.06.2019
6131 Clear 27 1014 36 10000 2.6 240 13:20 19.06.2019
6132 Clear 27 1014 44 10000 1 0 12:42 19.06.2019
6133 Clear 26 1014 44 10000 1.5 60 12:20 19.06.2019
6134 Clear 25 1014 41 10000 1 0 11:44 19.06.2019
6135 Clear 24 1014 41 10000 1 0 11:25 19.06.2019
6136 Clear 24 1014 57 10000 1 0 10:57 19.06.2019
6137 Clear 24 1014 57 10000 1 0 10:38 19.06.2019
6138 Clear 23 1014 56 10000 1 0 10:19 19.06.2019
6139 Clear 21 1014 72 10000 2.6 170 09:39 19.06.2019
6140 Clear 21 1014 72 10000 2.6 170 09:19 19.06.2019
6141 Clear 19 1014 72 10000 1 180 08:48 19.06.2019
6142 Clear 19 1014 72 10000 1 0 08:28 19.06.2019
6143 Clear 18 1014 77 10000 1 0 07:47 19.06.2019
6144 Clear 17 1014 82 10000 1.5 160 07:23 19.06.2019
6145 Clouds 16 1014 82 10000 1.5 150 06:52 19.06.2019
6146 Rain 16 1014 82 10000 2.1 150 06:26 19.06.2019
6147 Rain 16 1014 72 10000 0.5 0 05:49 19.06.2019
6148 Rain 17 1014 63 10000 3.1 230 04:34 19.06.2019
6149 Rain 18 1014 68 10000 5.1 190 03:30 19.06.2019
6150 Rain 18 1015 72 10000 3.1 190 02:26 19.06.2019
6151 Rain 18 1016 63 10000 6.2 220 01:23 19.06.2019
6152 Rain 19 1016 64 10000 7.2 230 00:43 19.06.2019
6153 Clouds 19 1016 72 10000 5.7 230 00:20 19.06.2019
6154 Clouds 19 1016 77 10000 5.1 220 23:53 18.06.2019
6155 Clouds 19 1015 87 10000 2.1 220 23:28 18.06.2019
6156 Clouds 19 1015 87 10000 1.5 160 22:55 18.06.2019
6157 Clouds 19 1015 77 10000 1.5 230 22:37 18.06.2019
6158 Clouds 20 1015 77 10000 1.5 230 22:18 18.06.2019
6159 Clouds 22 1015 53 10000 1.5 360 21:42 18.06.2019
6160 Clear 23 1015 53 10000 1.5 360 21:21 18.06.2019
6161 Clear 23 1015 53 10000 1.5 360 21:21 18.06.2019
6162 Clear 23 1015 53 10000 1.5 360 21:21 18.06.2019
6163 Clear 25 1015 53 10000 2.6 20 20:44 18.06.2019
6164 Clear 26 1015 50 10000 3.1 30 20:25 18.06.2019
6165 Clear 26 1015 47 10000 3.1 30 19:56 18.06.2019
6166 Clear 26 1015 44 10000 2.6 20 19:37 18.06.2019
6167 Clear 27 1015 44 10000 2.6 20 19:19 18.06.2019
6168 Clear 27 1015 41 10000 2.6 340 18:45 18.06.2019
6169 Clear 27 1015 41 10000 3.1 320 18:24 18.06.2019
6170 Clear 27 1015 44 10000 4.1 350 17:42 18.06.2019
6171 Clear 28 1015 44 10000 4.1 350 17:21 18.06.2019
6172 Clear 28 1015 44 10000 3.1 350 16:47 18.06.2019
6173 Clear 27 1015 39 10000 2.1 260 16:28 18.06.2019
6174 Clear 28 1016 39 10000 3.6 280 15:58 18.06.2019
6175 Clear 27 1016 44 10000 2.1 0 15:38 18.06.2019
6176 Clear 27 1016 44 10000 2.1 0 15:19 18.06.2019
6177 Clear 27 1016 44 10000 3.1 260 14:55 18.06.2019
6178 Clouds 26 1016 41 10000 3.1 220 14:36 18.06.2019
6179 Clouds 26 1016 41 10000 3.1 220 14:18 18.06.2019
6180 Clouds 27 1016 47 10000 3.1 0 13:41 18.06.2019
6181 Clouds 26 1017 47 10000 3.1 240 13:22 18.06.2019
6182 Clouds 26 1017 57 10000 2.1 320 12:44 18.06.2019
6183 Clouds 25 1017 60 10000 1.5 100 12:25 18.06.2019
6184 Clear 24 1017 60 10000 1.5 0 11:47 18.06.2019
6185 Clear 24 1017 68 10000 1.5 20 11:23 18.06.2019
6186 Clear 24 1017 68 10000 1.5 20 11:23 18.06.2019
6187 Clear 24 1017 64 10000 1 0 10:58 18.06.2019
6188 Clear 23 1017 68 10000 1 0 10:38 18.06.2019
6189 Clear 23 1017 68 10000 1 0 10:20 18.06.2019
6190 Clear 22 1017 68 10000 1 0 09:51 18.06.2019
6191 Clear 20 1017 72 10000 1.5 240 09:24 18.06.2019
6192 Clear 19 1017 82 10000 1 0 08:47 18.06.2019
6193 Clear 18 1017 88 10000 2.1 230 08:22 18.06.2019
6194 Fog 16 1017 87 10000 1.5 210 07:45 18.06.2019
6195 Fog 15 1017 100 10000 1.5 210 07:24 18.06.2019
6196 Fog 13 1017 100 10000 3.87 95.705 06:45 18.06.2019
6197 Fog 13 1017 100 7000 0.5 0 05:24 18.06.2019
6198 Fog 14 1017 100 9000 2.29 80.784 03:59 18.06.2019
6199 Clear 15 1018 93 10000 1 100 02:27 18.06.2019
6200 Clouds 16 1018 93 10000 2.63 77.578 01:26 18.06.2019
6201 Clouds 16 1018 87 10000 0.5 0 00:57 18.06.2019
6202 Clouds 17 1018 87 10000 1 100 00:30 18.06.2019
6203 Clear 18 1018 77 10000 2.1 70 23:42 17.06.2019
6204 Clear 18 1018 77 10000 2.1 70 23:23 17.06.2019
6205 Clear 18 1018 72 10000 2.6 70 22:58 17.06.2019
6206 Clear 19 1018 72 10000 2.6 70 22:39 17.06.2019
6207 Clear 19 1018 72 10000 2.1 80 22:20 17.06.2019
6208 Clear 21 1018 64 10000 2.1 80 21:45 17.06.2019
6209 Rain 22 1018 60 10000 3.1 70 21:23 17.06.2019
6210 Rain 22 1018 60 10000 3.1 70 21:23 17.06.2019
6211 Rain 23 1018 53 10000 3.6 50 20:42 17.06.2019
6212 Clear 23 1018 53 10000 3.6 50 20:23 17.06.2019
6213 Clouds 23 1018 53 10000 4.6 60 19:57 17.06.2019
6214 Clouds 24 1018 53 10000 5.7 40 19:39 17.06.2019
6215 Clouds 24 1018 53 10000 5.7 40 19:39 17.06.2019
6216 Clouds 24 1018 53 10000 5.7 40 19:20 17.06.2019
6217 Clouds 24 1018 56 10000 5.1 60 18:39 17.06.2019
6218 Clouds 24 1018 56 10000 4.1 60 18:18 17.06.2019
6219 Clouds 25 1018 56 10000 6.2 40 17:58 17.06.2019
6220 Clouds 25 1018 53 10000 4.6 50 17:39 17.06.2019
6221 Clouds 24 1019 56 10000 5.7 40 17:20 17.06.2019
6222 Clouds 25 1019 57 10000 4.1 70 16:42 17.06.2019
6223 Clouds 24 1019 57 10000 4.1 70 16:24 17.06.2019
6224 Clouds 24 1019 56 10000 4.6 60 16:24 17.06.2019
6225 Clouds 24 1019 56 10000 4.6 60 15:55 17.06.2019
6226 Clouds 24 1020 60 10000 5.1 50 15:36 17.06.2019
6227 Clouds 24 1020 60 10000 4.6 60 15:18 17.06.2019
6228 Clouds 24 1020 60 10000 5.1 40 14:42 17.06.2019
6229 Clouds 23 1020 60 10000 5.1 40 14:22 17.06.2019
6230 Clouds 23 1020 60 10000 5.1 40 13:47 17.06.2019
6231 Clouds 23 1020 64 10000 5.7 50 13:22 17.06.2019
6232 Clouds 22 1020 68 10000 5.1 30 12:48 17.06.2019
6233 Clouds 22 1020 68 10000 5.1 30 12:30 17.06.2019
6234 Clouds 22 1021 64 10000 4.1 60 11:45 17.06.2019
6235 Clouds 21 1021 72 10000 3.6 70 11:26 17.06.2019
6236 Clouds 21 1021 72 10000 3.6 70 10:58 17.06.2019
6237 Clouds 20 1021 72 10000 4.1 70 10:40 17.06.2019
6238 Clouds 19 1021 77 10000 3.6 70 10:21 17.06.2019
6239 Clouds 18 1022 88 10000 3.1 80 09:45 17.06.2019
6240 Clouds 17 1022 88 10000 3.1 80 09:27 17.06.2019
6241 Fog 16 1022 100 6000 2.1 80 08:41 17.06.2019
6242 Fog 15 1022 100 6000 2.1 60 08:23 17.06.2019
6243 Fog 13 1022 100 2000 1 40 07:45 17.06.2019
6244 Fog 12 1022 100 3000 1 350 07:27 17.06.2019
6245 Fog 11 1022 100 350 0.5 0 06:42 17.06.2019
6246 Rain 11 1022 100 300 0.5 70 05:49 17.06.2019
6247 Fog 11 1022 100 700 1 0 04:42 17.06.2019
6248 Fog 11 1022 93 4300 1 140 03:49 17.06.2019
6249 Fog 12 1022 100 5000 1 130 03:20 17.06.2019
6250 Fog 12 1022 100 1300 1 0 02:41 17.06.2019
6251 Fog 13 1023 100 10000 0.5 190 01:56 17.06.2019
6252 Fog 13 1023 93 6000 1 130 01:34 17.06.2019
6253 Clear 14 1023 100 750 1 230 00:45 17.06.2019
6254 Clear 14 1023 100 750 1 230 00:23 17.06.2019
6255 Clouds 15 1023 87 10000 0.5 350 23:56 16.06.2019
6256 Clear 15 1023 100 4300 0.5 0 23:36 16.06.2019
6257 Clear 16 1023 93 10000 1 0 23:18 16.06.2019
6258 Clear 16 1023 93 10000 1 0 22:39 16.06.2019
6259 Clear 17 1022 93 10000 0.5 0 22:19 16.06.2019
6260 Clear 17 1022 93 10000 0.5 0 21:56 16.06.2019
6261 Clear 17 1022 87 10000 1 0 21:38 16.06.2019
6262 Clouds 18 1022 82 10000 1 0 21:20 16.06.2019
6263 Clouds 18 1022 82 10000 2.6 350 20:38 16.06.2019
6264 Clouds 18 1022 72 10000 1.5 330 20:19 16.06.2019
6265 Clouds 18 1022 72 10000 1.5 330 19:58 16.06.2019
6266 Clouds 19 1022 77 10000 2.1 360 19:39 16.06.2019
6267 Clouds 19 1022 77 10000 2.1 360 19:19 16.06.2019
6268 Clouds 19 1022 72 10000 2.6 330 18:41 16.06.2019
6269 Clouds 19 1022 72 10000 3.6 340 18:21 16.06.2019
6270 Clouds 19 1022 72 10000 3.6 340 17:57 16.06.2019
6271 Rain 19 1022 68 10000 2.6 350 17:38 16.06.2019
6272 Rain 20 1020 63 10000 2.6 300 17:20 16.06.2019
6273 Clouds 20 1022 63 10000 3.6 330 16:54 16.06.2019
6274 Clouds 20 1022 68 10000 2.6 310 16:36 16.06.2019
6275 Clouds 20 1022 72 10000 3.6 290 16:18 16.06.2019
6276 Clouds 20 1000 64 10000 2.6 320 15:38 16.06.2019
6277 Rain 19 1003 60 10000 3.6 270 15:20 16.06.2019
6278 Rain 19 1002 63 10000 4.1 260 14:39 16.06.2019
6279 Rain 19 1002 63 10000 4.1 260 14:20 16.06.2019
6280 Clouds 19 1022 63 10000 3.6 280 13:48 16.06.2019
6281 Rain 19 999 72 10000 4.6 290 13:25 16.06.2019
6282 Rain 18 996 67 10000 4.6 270 12:46 16.06.2019
6283 Rain 18 996 67 10000 4.6 270 12:46 16.06.2019
6284 Rain 18 997 72 10000 4.6 280 12:23 16.06.2019
6285 Rain 18 997 72 10000 4.6 280 12:23 16.06.2019
6286 Rain 17 997 72 10000 4.6 280 11:59 16.06.2019
6287 Rain 17 988 82 10000 3.6 270 11:38 16.06.2019
6288 Rain 17 988 77 10000 4.1 280 11:19 16.06.2019
6289 Rain 16 1021 93 8000 5.1 270 10:45 16.06.2019
6290 Drizzle 15 983 82 10000 3.6 270 10:20 16.06.2019
6291 Rain 15 982 87 10000 3.1 270 09:46 16.06.2019
6292 Rain 15 1021 93 3700 4.1 260 09:25 16.06.2019
6293 Drizzle 14 1022 87 10000 3.1 240 08:50 16.06.2019
6294 Drizzle 14 1020 93 4500 2.6 250 08:22 16.06.2019
6295 Rain 14 980 93 10000 2.1 270 07:54 16.06.2019
6296 Rain 14 980 93 10000 2.1 270 07:36 16.06.2019
6297 Rain 14 981 93 10000 2.6 260 06:57 16.06.2019
6298 Rain 14 981 93 10000 2.6 260 06:57 16.06.2019
6299 Rain 14 982 93 10000 4.1 240 06:21 16.06.2019
6300 Rain 14 982 87 10000 4.1 230 05:29 16.06.2019
6301 Rain 14 983 93 10000 3.1 250 04:36 16.06.2019
6302 Rain 14 1020 93 10000 3.6 210 03:51 16.06.2019
6303 Rain 14 985 93 10000 5.1 230 03:30 16.06.2019
6304 Rain 15 986 100 10000 3.6 260 01:59 16.06.2019
6305 Rain 15 987 100 9000 7.7 260 01:40 16.06.2019
6306 Rain 15 990 93 2400 10.3 230 01:21 16.06.2019
6307 Rain 17 1001 82 10000 1 0 00:39 16.06.2019
6308 Thunderstorm 17 1017 77 6000 6.7 270 00:19 16.06.2019
6309 Thunderstorm 19 1011 72 10000 2.6 330 23:42 15.06.2019
6310 Thunderstorm 19 1012 72 10000 2.1 10 23:23 15.06.2019
6311 Rain 19 1017 88 3400 2.1 210 22:49 15.06.2019
6312 Rain 20 1014 68 10000 3.6 30 22:26 15.06.2019
6313 Rain 20 1015 64 10000 4.1 340 21:49 15.06.2019
6314 Clouds 21 986 64 10000 4.1 360 21:29 15.06.2019
6315 Clouds 21 988 64 10000 3.6 360 20:59 15.06.2019
6316 Clouds 22 990 64 10000 3.1 340 20:40 15.06.2019
6317 Clouds 22 993 60 10000 2.6 340 20:19 15.06.2019
6318 Clouds 22 995 60 10000 2.1 330 19:42 15.06.2019
6319 Clouds 23 995 60 10000 2.6 340 19:23 15.06.2019
6320 Clouds 23 998 64 10000 3.6 330 18:40 15.06.2019
6321 Clouds 24 1000 60 10000 3.6 330 18:21 15.06.2019
6322 Clouds 24 1000 60 10000 4.1 330 17:43 15.06.2019
6323 Clouds 24 1005 56 10000 3.1 320 17:23 15.06.2019
6324 Clouds 24 1011 60 10000 3.1 350 16:48 15.06.2019
6325 Clouds 24 1015 47 10000 4.6 340 16:20 15.06.2019
6326 Clouds 24 1016 56 10000 4.1 310 15:44 15.06.2019
6327 Clouds 25 1016 57 10000 4.6 260 15:24 15.06.2019
6328 Clouds 24 1016 57 10000 3.1 270 14:44 15.06.2019
6329 Clouds 24 1016 60 10000 4.1 300 14:19 15.06.2019
6330 Clouds 25 1016 60 10000 4.1 300 13:58 15.06.2019
6331 Clear 24 1016 56 10000 4.1 260 13:40 15.06.2019
6332 Clear 24 1016 56 10000 5.1 270 13:19 15.06.2019
6333 Clouds 24 1016 53 10000 4.6 240 12:51 15.06.2019
6334 Clear 24 1016 56 10000 6.2 250 12:26 15.06.2019
6335 Clear 24 1016 56 10000 4.6 240 11:53 15.06.2019
6336 Clear 24 1016 56 10000 4.6 240 11:53 15.06.2019
6337 Clear 23 1016 56 10000 6.7 270 11:33 15.06.2019
6338 Clear 24 1016 53 10000 7.2 260 10:55 15.06.2019
6339 Clear 24 1015 56 10000 7.7 260 10:37 15.06.2019
6340 Clear 23 1015 56 10000 7.2 260 10:18 15.06.2019
6341 Clear 23 1015 60 10000 7.7 250 09:43 15.06.2019
6342 Clear 23 1014 60 10000 9.3 240 09:21 15.06.2019
6343 Clear 22 1014 60 10000 9.3 240 08:50 15.06.2019
6344 Clear 21 1013 64 10000 6.7 250 08:31 15.06.2019
6345 Clouds 20 1013 56 10000 5.7 220 07:49 15.06.2019
6346 Clouds 18 1011 87 10000 0.5 0 07:22 15.06.2019
6347 Clouds 18 1011 82 10000 3.6 150 06:39 15.06.2019
6348 Clouds 17 1011 93 10000 2.1 170 06:18 15.06.2019
6349 Clouds 17 1011 93 10000 1 0 05:25 15.06.2019
6350 Clouds 18 1011 82 10000 5.1 150 04:44 15.06.2019
6351 Clouds 18 1011 82 10000 5.1 150 04:44 15.06.2019
6352 Clouds 18 1011 82 10000 5.1 150 04:44 15.06.2019
6353 Clouds 18 1011 82 10000 5.1 150 04:44 15.06.2019
6354 Clouds 18 1011 82 10000 5.1 150 04:44 15.06.2019
6355 Clouds 19 1012 88 10000 1 0 03:44 15.06.2019
6356 Clouds 19 1012 77 10000 3.1 210 02:56 15.06.2019
6357 Clouds 19 1012 82 10000 0.5 0 02:22 15.06.2019
6358 Clouds 20 1012 88 10000 2.6 230 01:45 15.06.2019
6359 Clouds 19 1012 82 10000 2.1 190 00:57 15.06.2019
6360 Clouds 20 1012 82 10000 3.1 220 00:39 15.06.2019
6361 Clouds 21 1012 88 10000 2.6 180 23:55 14.06.2019
6362 Clouds 22 1013 82 10000 1 0 23:26 14.06.2019
6363 Clouds 22 1013 82 10000 1 0 22:55 14.06.2019
6364 Clouds 23 1013 73 10000 3.84 101.421 22:37 14.06.2019
6365 Clouds 23 1013 73 10000 1 0 22:19 14.06.2019
6366 Clouds 24 1013 57 10000 1.5 40 21:40 14.06.2019
6367 Clear 25 1013 53 10000 3.1 360 21:22 14.06.2019
6368 Clear 26 1013 57 10000 3.6 30 20:43 14.06.2019
6369 Clear 26 1013 57 10000 3.6 30 20:43 14.06.2019
6370 Clear 26 1014 50 10000 4.1 10 20:19 14.06.2019
6371 Clear 26 1014 50 10000 4.1 10 19:56 14.06.2019
6372 Clear 27 1014 50 10000 3.6 10 19:36 14.06.2019
6373 Clear 27 1014 47 10000 4.6 360 19:18 14.06.2019
6374 Clear 28 1015 51 10000 4.6 10 18:43 14.06.2019
6375 Clear 28 1015 51 10000 5.1 360 18:24 14.06.2019
6376 Clear 29 1015 51 10000 5.1 360 17:57 14.06.2019
6377 Clear 29 1015 54 10000 5.7 360 17:39 14.06.2019
6378 Clear 29 1015 51 10000 5.7 360 17:19 14.06.2019
6379 Clear 29 1015 51 10000 5.1 10 16:46 14.06.2019
6380 Clear 29 1016 45 10000 5.1 360 16:21 14.06.2019
6381 Clear 30 1016 45 10000 5.1 360 15:57 14.06.2019
6382 Clear 29 1016 42 10000 4.1 20 15:38 14.06.2019
6383 Clear 29 1016 39 10000 3.1 40 15:18 14.06.2019
6384 Clear 28 1016 48 10000 3.6 0 14:40 14.06.2019
6385 Clear 29 1017 42 10000 3.1 90 14:21 14.06.2019
6386 Clear 28 1017 47 10000 3.6 70 13:44 14.06.2019
6387 Clear 28 1017 47 10000 3.6 70 13:44 14.06.2019
6388 Clear 28 1017 47 10000 3.6 70 13:26 14.06.2019
6389 Clouds 28 1017 47 10000 4.1 60 12:49 14.06.2019
6390 Clear 26 1017 50 10000 5.7 80 12:27 14.06.2019
6391 Clear 26 1017 53 10000 5.1 80 11:59 14.06.2019
6392 Clear 25 1017 57 10000 5.7 80 11:41 14.06.2019
6393 Clear 25 1017 57 10000 5.7 80 11:23 14.06.2019
6394 Clear 24 1017 64 10000 5.1 80 10:46 14.06.2019
6395 Clouds 23 1017 47 10000 3.1 120 10:20 14.06.2019
6396 Clouds 23 1017 47 10000 3.1 120 10:20 14.06.2019
6397 Clear 23 1017 68 10000 5.7 90 09:52 14.06.2019
6398 Clear 21 1017 68 10000 5.7 90 09:33 14.06.2019
6399 Clear 19 1017 72 10000 3.1 90 08:48 14.06.2019
6400 Clear 17 1017 77 10000 2.1 90 08:21 14.06.2019
6401 Fog 15 1018 93 10000 1.5 110 07:53 14.06.2019
6402 Fog 13 1018 93 10000 1 0 07:23 14.06.2019
6403 Fog 12 1017 93 10000 4.77 114.092 06:53 14.06.2019
6404 Fog 11 1018 93 9000 1.5 170 06:18 14.06.2019
6405 Fog 11 1018 100 10000 0.5 0 05:35 14.06.2019
6406 Fog 11 1018 93 10000 1 170 04:51 14.06.2019
6407 Fog 11 1018 93 10000 0.5 0 04:23 14.06.2019
6408 Clear 12 1018 93 10000 1 170 03:38 14.06.2019
6409 Clear 12 1018 93 10000 1.5 150 03:19 14.06.2019
6410 Clear 12 1018 87 10000 1 0 02:36 14.06.2019
6411 Clear 13 1018 87 10000 2.1 150 01:47 14.06.2019
6412 Clear 14 1018 93 10000 1 0 00:37 14.06.2019
6413 Clear 15 1018 93 10000 1 140 00:19 14.06.2019
6414 Clear 16 1017 87 10000 2.1 160 23:49 13.06.2019
6415 Clear 16 1017 87 10000 1 0 23:25 13.06.2019
6416 Clear 17 1017 87 10000 2.1 160 22:41 13.06.2019
6417 Clear 18 1017 72 10000 1.5 210 22:22 13.06.2019
6418 Clear 18 1017 72 10000 1.5 210 21:59 13.06.2019
6419 Clear 21 1016 56 10000 1 310 21:38 13.06.2019
6420 Clear 22 1016 49 10000 2.1 310 21:19 13.06.2019
6421 Clouds 22 1016 49 10000 1 0 20:45 13.06.2019
6422 Clear 23 1015 46 10000 1.5 320 20:20 13.06.2019
6423 Clouds 23 1015 38 10000 1 360 19:55 13.06.2019
6424 Clouds 24 1015 46 10000 1.5 310 19:36 13.06.2019
6425 Clouds 24 1015 49 10000 2.6 350 19:18 13.06.2019
6426 Clouds 24 1015 43 10000 1 0 18:42 13.06.2019
6427 Clouds 24 1015 43 10000 1 0 18:23 13.06.2019
6428 Clouds 24 1015 38 10000 1.5 340 17:56 13.06.2019
6429 Clouds 24 1015 49 10000 1.5 0 17:36 13.06.2019
6430 Clouds 24 1015 49 10000 2.6 280 17:18 13.06.2019
6431 Clouds 24 1015 46 10000 2.1 310 16:41 13.06.2019
6432 Clouds 23 1015 53 10000 2.6 310 16:20 13.06.2019
6433 Clouds 23 1015 43 10000 3.1 320 15:43 13.06.2019
6434 Clouds 22 1015 52 10000 2.1 20 15:24 13.06.2019
6435 Clouds 23 1015 52 10000 2.1 20 14:56 13.06.2019
6436 Clear 22 1015 52 10000 3.1 30 14:38 13.06.2019
6437 Clear 22 1015 56 10000 4.1 340 14:19 13.06.2019
6438 Clouds 22 1015 56 10000 3.6 350 13:40 13.06.2019
6439 Clouds 22 1015 56 10000 4.1 360 13:21 13.06.2019
6440 Clouds 22 1015 56 10000 4.1 360 13:21 13.06.2019
6441 Clear 21 1017 60 10000 1.5 0 12:42 13.06.2019
6442 Clear 21 1017 60 10000 1.5 0 12:22 13.06.2019
6443 Clouds 21 1015 55 10000 4.1 30 11:57 13.06.2019
6444 Clear 20 1015 55 10000 1.5 0 11:39 13.06.2019
6445 Clear 20 1016 63 10000 2.1 40 11:21 13.06.2019
6446 Clear 19 1016 59 10000 2.6 20 10:45 13.06.2019
6447 Clear 19 1016 63 10000 2.1 50 10:26 13.06.2019
6448 Clear 18 1016 63 10000 2.6 60 09:44 13.06.2019
6449 Clear 17 1016 67 10000 1.5 140 09:25 13.06.2019
6450 Clouds 16 1016 72 10000 2.6 90 08:50 13.06.2019
6451 Clear 15 1016 77 10000 2.1 120 08:29 13.06.2019
6452 Clouds 15 1016 87 10000 1.5 270 07:59 13.06.2019
6453 Clear 14 1016 100 10000 2.1 150 07:31 13.06.2019
6454 Clouds 13 1016 93 10000 0.5 100 06:52 13.06.2019
6455 Clouds 12 1015 93 10000 1 0 06:24 13.06.2019
6456 Clouds 12 1015 93 10000 1 0 05:57 13.06.2019
6457 Clouds 12 1015 93 10000 1.2 299.501 05:38 13.06.2019
6458 Clouds 12 1015 93 10000 1.2 299.501 05:38 13.06.2019
6459 Clear 12 1015 93 10000 1 240 05:18 13.06.2019
6460 Clouds 13 1015 93 10000 0.5 120 03:44 13.06.2019
6461 Clouds 13 1015 93 10000 1.5 110 01:55 13.06.2019
6462 Clear 13 1015 87 10000 2.1 300 00:30 13.06.2019
6463 Clear 13 1015 87 10000 1 310 00:30 13.06.2019
6464 Clear 13 1015 87 10000 1.5 310 23:26 12.06.2019
6465 Clear 13 1014 93 10000 2.1 350 22:59 12.06.2019
6466 Clear 14 1014 87 10000 2.1 350 22:40 12.06.2019
6467 Clear 14 1014 87 10000 3.1 330 22:21 12.06.2019
6468 Clear 15 1014 82 10000 2.1 320 21:43 12.06.2019
6469 Rain 15 1013 82 10000 2.1 330 21:25 12.06.2019
6470 Rain 15 1013 82 10000 2.1 330 20:48 12.06.2019
6471 Rain 16 1013 72 10000 2.1 280 20:29 12.06.2019
6472 Rain 16 1013 72 10000 2.1 280 19:57 12.06.2019
6473 Clouds 17 1013 77 10000 1.5 290 19:38 12.06.2019
6474 Clouds 17 1013 77 10000 1.5 290 19:20 12.06.2019
6475 Rain 17 1013 72 10000 3.6 260 18:47 12.06.2019
6476 Rain 17 1013 72 10000 3.6 260 18:27 12.06.2019
6477 Rain 17 1013 67 10000 5.1 290 17:47 12.06.2019
6478 Rain 17 1013 67 10000 5.1 270 17:23 12.06.2019
6479 Clouds 17 1013 72 10000 5.7 270 16:44 12.06.2019
6480 Rain 17 1013 77 10000 6.2 260 16:25 12.06.2019
6481 Rain 17 1013 77 10000 6.2 260 15:59 12.06.2019
6482 Rain 17 1013 82 10000 5.7 260 15:36 12.06.2019
6483 Rain 17 1012 77 10000 5.7 260 14:59 12.06.2019
6484 Rain 17 1012 77 10000 7.7 250 14:35 12.06.2019
6485 Rain 17 1011 77 10000 9.3 240 13:59 12.06.2019
6486 Rain 17 1011 72 10000 7.7 250 13:41 12.06.2019
6487 Clouds 17 1009 72 10000 7.7 260 13:19 12.06.2019
6488 Clouds 17 1011 82 10000 7.7 250 12:56 12.06.2019
6489 Rain 17 1010 82 10000 7.2 250 12:37 12.06.2019
6490 Rain 18 1009 82 9000 5.7 260 12:18 12.06.2019
6491 Clouds 18 1008 88 9000 5.7 240 11:43 12.06.2019
6492 Clouds 18 1008 88 9000 5.7 240 11:25 12.06.2019
6493 Mist 17 1008 87 8000 3.6 240 10:46 12.06.2019
6494 Mist 17 1008 93 6000 4.6 250 10:23 12.06.2019
6495 Mist 16 1008 87 6000 2.6 250 09:45 12.06.2019
6496 Mist 16 1007 93 6000 1.5 0 09:23 12.06.2019
6497 Mist 15 1007 87 6000 2.1 280 08:53 12.06.2019
6498 Mist 15 1007 100 4000 3.1 50 08:21 12.06.2019
6499 Mist 14 1008 100 4000 2.1 60 07:45 12.06.2019
6500 Fog 14 1008 100 3000 1 340 06:54 12.06.2019
6501 Fog 14 1008 100 7000 1.5 360 05:27 12.06.2019
6502 Clouds 14 1009 100 3900 1 0 04:34 12.06.2019
6503 Clouds 16 1010 100 8000 1.5 250 01:44 12.06.2019
6504 Clouds 16 1011 100 8000 1.5 120 00:40 12.06.2019
6505 Clouds 16 1010 93 10000 2.1 250 23:48 11.06.2019
6506 Rain 17 1010 93 10000 2.6 240 23:30 11.06.2019
6507 Clouds 17 1010 87 10000 1.5 280 22:44 11.06.2019
6508 Clouds 17 1011 93 10000 2.6 250 22:21 11.06.2019
6509 Clouds 18 1011 93 10000 2.6 250 21:58 11.06.2019
6510 Clouds 18 1010 93 10000 2.1 250 21:39 11.06.2019
6511 Clouds 19 1010 88 10000 4.1 260 21:20 11.06.2019
6512 Clouds 19 1010 88 10000 4.1 260 21:20 11.06.2019
6513 Rain 19 1010 88 10000 2.1 260 20:49 11.06.2019
6514 Thunderstorm 20 1011 82 10000 4.6 270 20:26 11.06.2019
6515 Thunderstorm 20 1011 82 10000 4.6 270 19:57 11.06.2019
6516 Thunderstorm 21 1009 77 10000 4.6 330 19:38 11.06.2019
6517 -273 0 0 0 0 0 19:37 11.06.2019
6518 -273 0 0 0 0 0 19:37 11.06.2019
6519 -273 0 0 0 0 0 19:37 11.06.2019
6520 Thunderstorm 21 1009 77 10000 4.6 330 19:37 11.06.2019
6521 Rain 22 1008 69 10000 3.1 280 18:58 11.06.2019
6522 -273 0 0 0 0 0 18:23 11.06.2019
6523 Clouds 22 1008 69 10000 3.1 310 18:22 11.06.2019
6524 Clouds 22 1010 77 10000 4.1 360 17:42 11.06.2019
6525 Clouds 22 1009 73 10000 3.6 340 17:23 11.06.2019
6526 Clouds 23 1009 73 10000 3.6 340 16:59 11.06.2019
6527 Clouds 22 1009 73 10000 4.6 10 16:40 11.06.2019
6528 Clouds 22 1009 77 10000 4.6 10 16:22 11.06.2019
6529 Clouds 22 1009 72 10000 4.6 20 15:42 11.06.2019
6530 Clouds 21 1009 72 10000 4.6 20 15:24 11.06.2019
6531 Clouds 21 1010 77 10000 4.1 20 14:54 11.06.2019
6532 Clouds 20 1009 82 10000 4.1 50 14:23 11.06.2019
6533 -273 0 0 0 0 0 13:57 11.06.2019
6534 Clouds 19 1010 77 10000 5.7 60 13:37 11.06.2019
6535 Clouds 19 1010 82 10000 3.6 60 13:18 11.06.2019
6536 Clouds 18 1011 87 10000 4.1 70 12:40 11.06.2019
6537 Clouds 18 1011 87 10000 3.6 60 12:21 11.06.2019
6538 Clouds 17 1011 87 10000 4.1 60 11:41 11.06.2019
6539 Clouds 17 1011 87 10000 3.6 70 11:21 11.06.2019
6540 Clouds 16 1012 93 10000 4.1 80 10:50 11.06.2019
6541 Clouds 16 1012 93 10000 4.1 80 10:26 11.06.2019
6542 Clouds 16 1012 87 10000 3.6 80 09:51 11.06.2019
6543 Clouds 15 1012 72 10000 2.6 60 09:25 11.06.2019
6544 Rain 14 1013 82 10000 2.1 40 08:49 11.06.2019
6545 Rain 14 1013 82 10000 2.1 40 08:30 11.06.2019
6546 Drizzle 14 1012 87 10000 3.1 330 07:57 11.06.2019
6547 Drizzle 13 979 93 10000 4.1 250 07:31 11.06.2019
6548 Drizzle 13 1014 93 10000 1.5 260 06:52 11.06.2019
6549 Drizzle 15 985 100 10000 5.7 270 05:21 11.06.2019
6550 Drizzle 15 984 100 9000 3.6 230 04:27 11.06.2019
6551 Clouds 15 979 100 9000 1 330 01:58 11.06.2019
6552 Clouds 14 1012 93 10000 1.5 250 00:49 11.06.2019
6553 Rain 15 977 100 9000 2.1 220 00:23 11.06.2019
6554 Rain 15 979 100 10000 2.1 240 23:44 10.06.2019
6555 Rain 15 980 93 10000 2.6 230 23:20 10.06.2019
6556 Rain 16 980 93 10000 2.1 220 22:43 10.06.2019
6557 Rain 16 980 93 10000 2.1 230 22:25 10.06.2019
6558 Clouds 16 1013 87 10000 2.6 260 21:56 10.06.2019
6559 Rain 16 980 93 10000 2.1 230 21:38 10.06.2019
6560 Clouds 17 981 93 10000 3.1 210 21:19 10.06.2019
6561 Thunderstorm 17 983 93 10000 2.6 220 20:42 10.06.2019
6562 Thunderstorm 17 981 100 10000 2.1 240 20:21 10.06.2019
6563 Rain 17 981 100 10000 3.6 240 19:44 10.06.2019
6564 Rain 18 1011 93 9000 9.3 30 19:22 10.06.2019
6565 Rain 19 980 100 10000 3.6 260 18:57 10.06.2019
6566 Rain 20 979 93 4500 10.3 310 18:39 10.06.2019
6567 Thunderstorm 23 1007 60 10000 7.2 10 18:19 10.06.2019
6568 Clouds 24 1012 60 10000 5.7 20 17:44 10.06.2019
6569 Clouds 24 1012 60 10000 5.7 20 17:24 10.06.2019
6570 Clouds 24 1012 60 10000 5.7 20 17:24 10.06.2019
6571 Clouds 25 1016 60 10000 6.2 20 16:49 10.06.2019
6572 Clouds 25 1015 60 10000 5.1 360 16:30 10.06.2019
6573 Clouds 25 1014 60 10000 4.1 30 15:59 10.06.2019
6574 Clouds 24 1012 64 10000 4.6 20 15:40 10.06.2019
6575 Clouds 24 1012 64 10000 4.6 20 15:22 10.06.2019
6576 Clear 23 1014 64 10000 2.6 20 14:45 10.06.2019
6577 Clear 23 1014 64 10000 2.6 320 14:25 10.06.2019
6578 Clouds 22 1014 72 10000 1 310 13:46 10.06.2019
6579 Clouds 22 1015 72 10000 3.1 290 13:28 10.06.2019
6580 Clouds 22 1015 72 10000 2.1 290 12:54 10.06.2019
6581 Clouds 20 1016 68 10000 3.6 270 12:31 10.06.2019
6582 Clouds 20 1016 72 10000 3.6 280 11:59 10.06.2019
6583 Rain 20 1016 82 10000 2.1 0 11:39 10.06.2019
6584 Rain 18 1016 88 10000 1 0 11:19 10.06.2019
6585 Clouds 18 1016 88 10000 1 0 10:41 10.06.2019
6586 Drizzle 17 1016 87 10000 1 0 10:19 10.06.2019
6587 Thunderstorm 17 1016 87 4500 1 190 09:52 10.06.2019
6588 Rain 15 1017 100 10000 2.1 270 09:29 10.06.2019
6589 Rain 15 1016 93 4100 1 0 08:50 10.06.2019
6590 Rain 15 1017 100 2700 3.1 230 08:27 10.06.2019
6591 Rain 15 1016 93 4700 1 0 07:46 10.06.2019
6592 Rain 14 1015 87 10000 3.1 60 06:26 10.06.2019
6593 Rain 13 1017 93 5000 2.1 160 03:59 10.06.2019
6594 Rain 14 1018 93 10000 1 80 01:56 10.06.2019
6595 Rain 14 1018 87 10000 1 0 01:23 10.06.2019
6596 Rain 15 1018 87 5000 1.38 174.165 00:48 10.06.2019
6597 Rain 16 1019 82 10000 1 0 23:59 09.06.2019
6598 Rain 17 1019 77 10000 2.1 0 23:40 09.06.2019
6599 Rain 17 1020 82 10000 2.6 170 23:18 09.06.2019
6600 Rain 17 1020 77 10000 2.6 240 22:42 09.06.2019
6601 Rain 17 1020 77 10000 1.5 240 22:24 09.06.2019
6602 Rain 18 1020 72 7000 1 0 21:43 09.06.2019
6603 Rain 19 1020 63 10000 2.1 270 21:23 09.06.2019
6604 Rain 20 1021 63 10000 3.1 260 20:43 09.06.2019
6605 Rain 20 1021 59 10000 5.1 260 20:23 09.06.2019
6606 Rain 21 1021 60 10000 4.6 260 19:47 09.06.2019
6607 Clear 22 1021 52 10000 6.2 280 19:19 09.06.2019
6608 Clear 22 1021 52 10000 6.2 280 18:59 09.06.2019
6609 Rain 22 1020 53 10000 4.6 300 18:41 09.06.2019
6610 Clouds 24 1020 49 10000 4.1 300 18:23 09.06.2019
6611 Clouds 24 1020 53 10000 4.6 310 17:46 09.06.2019
6612 Clouds 25 1020 47 10000 2.6 340 17:27 09.06.2019
6613 Clouds 25 1020 47 10000 2.6 340 16:55 09.06.2019
6614 Clouds 25 1020 41 10000 1 0 16:36 09.06.2019
6615 Clouds 25 1020 44 10000 1.5 0 16:18 09.06.2019
6616 Clouds 25 1020 43 10000 2.1 120 15:44 09.06.2019
6617 Clouds 25 1021 44 10000 2.1 110 15:26 09.06.2019
6618 Clouds 24 1021 49 10000 2.6 70 14:46 09.06.2019
6619 Clouds 24 1021 49 10000 3.1 70 14:25 09.06.2019
6620 Clouds 23 1021 49 10000 3.1 70 13:52 09.06.2019
6621 Clouds 23 1022 49 10000 3.6 50 13:27 09.06.2019
6622 Clouds 23 1022 43 8000 3.1 90 12:43 09.06.2019
6623 Clear 22 1022 52 10000 3.6 70 12:25 09.06.2019
6624 Clouds 21 1022 52 10000 4.6 80 11:47 09.06.2019
6625 Clouds 21 1022 48 10000 5.1 80 11:28 09.06.2019
6626 Clear 21 1022 49 10000 5.1 70 10:46 09.06.2019
6627 Clear 21 1022 49 10000 5.1 70 10:46 09.06.2019
6628 Clouds 20 1023 52 10000 4.6 80 10:24 09.06.2019
6629 Clear 18 1023 55 10000 4.1 70 09:42 09.06.2019
6630 Clear 17 1023 55 10000 4.1 70 09:24 09.06.2019
6631 Clouds 17 1023 59 10000 3.6 70 08:58 09.06.2019
6632 Clouds 14 1023 67 10000 2.6 90 08:40 09.06.2019
6633 Clouds 13 1024 71 8000 1 10 07:50 09.06.2019
6634 Clouds 9 1024 93 10000 3.43 85.256 06:30 09.06.2019
6635 Clear 8 1024 93 6000 0.5 0 05:47 09.06.2019
6636 Clear 10 1024 81 7000 0.5 160 02:52 09.06.2019
6637 Clear 11 1025 76 10000 2 95.088 01:36 09.06.2019
6638 Clear 11 1025 76 10000 2.51 95.527 01:36 09.06.2019
6639 Clear 11 1025 81 10000 2.51 95.527 01:18 09.06.2019
6640 Clear 12 1025 81 10000 0.5 150 00:22 09.06.2019
6641 Clear 13 1025 81 10000 1 150 23:40 08.06.2019
6642 Clear 13 1025 81 10000 1 150 23:22 08.06.2019
6643 Clear 14 1025 71 10000 1 140 22:45 08.06.2019
6644 Clear 15 1025 71 10000 1 140 22:26 08.06.2019
6645 Clear 17 1024 51 10000 0.5 50 21:58 08.06.2019
6646 Clear 18 1024 51 10000 1 150 21:39 08.06.2019
6647 Clear 18 1024 51 10000 1 150 21:20 08.06.2019
6648 Clear 20 1024 32 10000 0.8 19.385 20:43 08.06.2019
6649 Clear 20 1024 32 10000 0.8 19.385 20:25 08.06.2019
6650 Clear 20 1024 34 10000 1 0 19:55 08.06.2019
6651 Clear 20 1024 34 10000 2.1 100 19:36 08.06.2019
6652 Clear 21 1024 40 10000 2.1 170 19:18 08.06.2019
6653 Clear 21 1024 32 10000 1 0 18:41 08.06.2019
6654 Clear 21 1025 32 10000 2.1 0 18:22 08.06.2019
6655 Clear 21 1025 32 10000 3.1 210 17:44 08.06.2019
6656 Clear 21 1025 30 10000 2.6 220 17:22 08.06.2019
6657 Clear 21 1025 37 10000 3.6 0 16:48 08.06.2019
6658 Clear 21 1025 37 10000 3.6 0 16:29 08.06.2019
6659 Clear 20 1025 34 10000 4.1 180 15:51 08.06.2019
6660 Clear 20 1025 37 10000 4.1 250 15:33 08.06.2019
6661 Clear 20 1025 37 10000 4.1 250 15:33 08.06.2019
6662 Clear 20 1025 37 10000 4.1 250 15:33 08.06.2019
6663 Clear 19 1025 45 10000 4.1 230 14:48 08.06.2019
6664 Clear 19 1025 45 10000 4.1 230 14:29 08.06.2019
6665 Clouds 18 1026 45 10000 5.7 250 13:49 08.06.2019
6666 Clouds 17 1026 44 10000 4.1 220 12:53 08.06.2019
6667 Clear 17 1026 51 10000 5.7 230 12:34 08.06.2019
6668 Clouds 16 1026 47 10000 5.7 260 11:51 08.06.2019
6669 Clear 15 1025 50 10000 5.1 230 11:28 08.06.2019
6670 Clouds 15 1025 62 10000 3.1 210 10:48 08.06.2019
6671 Clouds 15 1025 62 10000 2.1 230 10:27 08.06.2019
6672 Clouds 15 1025 62 10000 2.1 230 09:58 08.06.2019
6673 Clouds 14 1025 62 10000 2.1 240 09:33 08.06.2019
6674 Rain 14 1024 62 10000 2.6 250 08:52 08.06.2019
6675 Rain 14 1024 62 10000 2.6 240 08:22 08.06.2019
6676 Rain 14 1023 58 10000 3.6 250 07:27 08.06.2019
6677 Rain 14 1023 58 10000 5.1 250 06:45 08.06.2019
6678 Clouds 14 1020 58 10000 5.7 240 03:37 08.06.2019
6679 Clouds 14 1020 71 10000 2.6 260 02:20 08.06.2019
6680 Clouds 15 1018 67 10000 7.7 290 00:32 08.06.2019
6681 Rain 16 1016 67 10000 9.8 290 23:59 07.06.2019
6682 Rain 19 1013 49 10000 6.2 250 23:21 07.06.2019
6683 Rain 21 1011 60 6000 0.5 240 22:54 07.06.2019
6684 Rain 21 1012 64 10000 3.6 230 22:35 07.06.2019
6685 Rain 22 1012 60 7000 2.1 250 21:56 07.06.2019
6686 Rain 23 1011 60 10000 2.1 110 21:38 07.06.2019
6687 Clear 24 1010 53 10000 2.1 40 21:20 07.06.2019
6688 Clear 25 1010 50 10000 4.6 90 20:42 07.06.2019
6689 Clear 25 1010 50 10000 4.6 90 20:23 07.06.2019
6690 Clouds 26 1010 50 10000 5.1 60 19:46 07.06.2019
6691 Clear 26 1009 44 10000 5.7 70 19:20 07.06.2019
6692 Clouds 26 1009 47 10000 6.2 60 18:47 07.06.2019
6693 Clear 27 1010 44 10000 6.7 60 18:28 07.06.2019
6694 Clear 27 1010 44 10000 5.1 80 17:47 07.06.2019
6695 Clear 27 1010 44 10000 5.1 80 17:26 07.06.2019
6696 Clear 27 1010 44 10000 4.1 80 16:48 07.06.2019
6697 Clear 27 1010 44 10000 4.1 80 16:30 07.06.2019
6698 Clear 26 1010 44 10000 5.7 70 15:50 07.06.2019
6699 Clear 26 1011 47 10000 3.6 70 15:21 07.06.2019
6700 Clear 25 1011 47 10000 5.7 80 14:47 07.06.2019
6701 Clear 24 1012 53 10000 3.1 90 14:23 07.06.2019
6702 Clouds 24 1011 56 10000 5.7 50 13:44 07.06.2019
6703 Clear 23 1012 56 10000 4.1 80 13:23 07.06.2019
6704 Clear 22 1012 64 10000 3.6 70 12:44 07.06.2019
6705 Clear 21 1013 64 10000 4.1 80 12:22 07.06.2019
6706 Clear 20 1013 68 10000 4.1 80 11:43 07.06.2019
6707 Clear 19 1013 68 10000 4.1 80 11:22 07.06.2019
6708 Clouds 19 1013 72 10000 4.6 70 10:49 07.06.2019
6709 Clear 18 1014 67 10000 4.6 80 10:25 07.06.2019
6710 Clear